<?xml version='1.0' encoding='UTF-8'?><gpx version="1.1" creator="JPX - https://github.com/jenetics/jpx" xmlns="http://www.topografix.com/GPX/1/1"><trk><trkseg><trkpt lat="45.1217788" lon="7.9946578"><ele>460.0</ele><time>2026-03-29T14:22:06.064Z</time></trkpt><trkpt lat="45.1218547" lon="7.994741"><ele>460.0</ele><time>2026-03-29T14:22:19.064Z</time></trkpt><trkpt lat="45.121967" lon="7.9948266"><ele>460.0</ele><time>2026-03-29T14:22:21.063Z</time></trkpt><trkpt lat="45.1220302" lon="7.994886"><ele>460.0</ele><time>2026-03-29T14:22:22.064Z</time></trkpt><trkpt lat="45.1221069" lon="7.9949523"><ele>460.0</ele><time>2026-03-29T14:22:23.064Z</time></trkpt><trkpt lat="45.1221871" lon="7.9950243"><ele>457.4</ele><time>2026-03-29T14:22:24.064Z</time></trkpt><trkpt lat="45.1222669" lon="7.9950814"><ele>454.8</ele><time>2026-03-29T14:22:25.064Z</time></trkpt><trkpt lat="45.1223599" lon="7.9951378"><ele>452.20000000000005</ele><time>2026-03-29T14:22:26.064Z</time></trkpt><trkpt lat="45.1224814" lon="7.9951727"><ele>449.6</ele><time>2026-03-29T14:22:27.064Z</time></trkpt><trkpt lat="45.1225995" lon="7.9951975"><ele>447.0</ele><time>2026-03-29T14:22:28.064Z</time></trkpt><trkpt lat="45.1227192" lon="7.9952127"><ele>447.0</ele><time>2026-03-29T14:22:29.064Z</time></trkpt><trkpt lat="45.1228394" lon="7.995227"><ele>447.00000000000006</ele><time>2026-03-29T14:22:30.064Z</time></trkpt><trkpt lat="45.1229572" lon="7.9952563"><ele>447.00000000000006</ele><time>2026-03-29T14:22:31.064Z</time></trkpt><trkpt lat="45.12305" lon="7.9952856"><ele>447.0</ele><time>2026-03-29T14:22:32.064Z</time></trkpt><trkpt lat="45.1231546" lon="7.9953405"><ele>447.0</ele><time>2026-03-29T14:22:33.063Z</time></trkpt><trkpt lat="45.12324" lon="7.9954175"><ele>450.0</ele><time>2026-03-29T14:22:34.064Z</time></trkpt><trkpt lat="45.1233093" lon="7.9955339"><ele>453.00000000000006</ele><time>2026-03-29T14:22:35.064Z</time></trkpt><trkpt lat="45.1233443" lon="7.995661"><ele>456.00000000000006</ele><time>2026-03-29T14:22:36.064Z</time></trkpt><trkpt lat="45.1233534" lon="7.9958167"><ele>459.0</ele><time>2026-03-29T14:22:37.064Z</time></trkpt><trkpt lat="45.1233505" lon="7.9959825"><ele>462.0</ele><time>2026-03-29T14:22:38.064Z</time></trkpt><trkpt lat="45.1233116" lon="7.9961544"><ele>462.5</ele><time>2026-03-29T14:22:39.064Z</time></trkpt><trkpt lat="45.1232802" lon="7.996344"><ele>463.0</ele><time>2026-03-29T14:22:40.063Z</time></trkpt><trkpt lat="45.1232347" lon="7.9965343"><ele>463.5</ele><time>2026-03-29T14:22:41.064Z</time></trkpt><trkpt lat="45.1231912" lon="7.9967231"><ele>464.0</ele><time>2026-03-29T14:22:42.064Z</time></trkpt><trkpt lat="45.1231631" lon="7.9969168"><ele>459.0</ele><time>2026-03-29T14:22:43.064Z</time></trkpt><trkpt lat="45.1231419" lon="7.9970951"><ele>454.0</ele><time>2026-03-29T14:22:44.064Z</time></trkpt><trkpt lat="45.1231338" lon="7.9972724"><ele>449.0</ele><time>2026-03-29T14:22:45.064Z</time></trkpt><trkpt lat="45.1231149" lon="7.9974149"><ele>444.0</ele><time>2026-03-29T14:22:46.064Z</time></trkpt><trkpt lat="45.123091" lon="7.997541"><ele>439.0</ele><time>2026-03-29T14:22:47.064Z</time></trkpt><trkpt lat="45.1230641" lon="7.997653"><ele>439.0</ele><time>2026-03-29T14:22:48.064Z</time></trkpt><trkpt lat="45.1230326" lon="7.9977381"><ele>439.0</ele><time>2026-03-29T14:22:49.064Z</time></trkpt><trkpt lat="45.1229635" lon="7.9978106"><ele>439.0</ele><time>2026-03-29T14:22:50.064Z</time></trkpt><trkpt lat="45.1228758" lon="7.9978782"><ele>439.0</ele><time>2026-03-29T14:22:51.064Z</time></trkpt><trkpt lat="45.1227885" lon="7.9979405"><ele>439.0</ele><time>2026-03-29T14:22:52.063Z</time></trkpt><trkpt lat="45.1226791" lon="7.9980162"><ele>439.0</ele><time>2026-03-29T14:22:53.063Z</time></trkpt><trkpt lat="45.1225527" lon="7.9981236"><ele>439.0</ele><time>2026-03-29T14:22:54.064Z</time></trkpt><trkpt lat="45.1224227" lon="7.9982186"><ele>439.0</ele><time>2026-03-29T14:22:55.064Z</time></trkpt><trkpt lat="45.1222973" lon="7.9983099"><ele>439.0</ele><time>2026-03-29T14:22:56.064Z</time></trkpt><trkpt lat="45.122181" lon="7.9984235"><ele>436.5</ele><time>2026-03-29T14:22:57.064Z</time></trkpt><trkpt lat="45.1220754" lon="7.9985527"><ele>434.0</ele><time>2026-03-29T14:22:58.064Z</time></trkpt><trkpt lat="45.1219823" lon="7.9987029"><ele>431.5</ele><time>2026-03-29T14:22:59.064Z</time></trkpt><trkpt lat="45.1218833" lon="7.9988411"><ele>429.0</ele><time>2026-03-29T14:23:00.064Z</time></trkpt><trkpt lat="45.1217844" lon="7.9989744"><ele>429.0</ele><time>2026-03-29T14:23:01.064Z</time></trkpt><trkpt lat="45.1216977" lon="7.9990955"><ele>429.0</ele><time>2026-03-29T14:23:02.064Z</time></trkpt><trkpt lat="45.1216296" lon="7.9992296"><ele>429.0</ele><time>2026-03-29T14:23:03.064Z</time></trkpt><trkpt lat="45.1215741" lon="7.9993715"><ele>429.0</ele><time>2026-03-29T14:23:04.064Z</time></trkpt><trkpt lat="45.1215428" lon="7.9995342"><ele>426.0</ele><time>2026-03-29T14:23:05.064Z</time></trkpt><trkpt lat="45.1215408" lon="7.9997119"><ele>423.0</ele><time>2026-03-29T14:23:06.064Z</time></trkpt><trkpt lat="45.1215396" lon="7.9998989"><ele>420.0</ele><time>2026-03-29T14:23:07.063Z</time></trkpt><trkpt lat="45.1215206" lon="8.0000839"><ele>417.0</ele><time>2026-03-29T14:23:08.064Z</time></trkpt><trkpt lat="45.1214712" lon="8.000246"><ele>417.0</ele><time>2026-03-29T14:23:09.064Z</time></trkpt><trkpt lat="45.1214072" lon="8.0004039"><ele>417.0</ele><time>2026-03-29T14:23:10.064Z</time></trkpt><trkpt lat="45.121307" lon="8.0005605"><ele>417.0</ele><time>2026-03-29T14:23:11.064Z</time></trkpt><trkpt lat="45.1211986" lon="8.0006956"><ele>417.0</ele><time>2026-03-29T14:23:12.064Z</time></trkpt><trkpt lat="45.1210743" lon="8.0008089"><ele>418.66666666666663</ele><time>2026-03-29T14:23:13.064Z</time></trkpt><trkpt lat="45.1209396" lon="8.0008725"><ele>420.3333333333333</ele><time>2026-03-29T14:23:14.064Z</time></trkpt><trkpt lat="45.1207903" lon="8.0009218"><ele>422.0</ele><time>2026-03-29T14:23:15.063Z</time></trkpt><trkpt lat="45.1206481" lon="8.0010163"><ele>422.0</ele><time>2026-03-29T14:23:16.064Z</time></trkpt><trkpt lat="45.1205103" lon="8.0011242"><ele>422.0</ele><time>2026-03-29T14:23:17.064Z</time></trkpt><trkpt lat="45.1203737" lon="8.0012474"><ele>422.0</ele><time>2026-03-29T14:23:18.064Z</time></trkpt><trkpt lat="45.1202356" lon="8.0013786"><ele>422.0</ele><time>2026-03-29T14:23:19.064Z</time></trkpt><trkpt lat="45.1200866" lon="8.0015061"><ele>422.0</ele><time>2026-03-29T14:23:20.064Z</time></trkpt><trkpt lat="45.1199395" lon="8.0016356"><ele>422.0</ele><time>2026-03-29T14:23:21.064Z</time></trkpt><trkpt lat="45.1197886" lon="8.0017617"><ele>424.0</ele><time>2026-03-29T14:23:22.064Z</time></trkpt><trkpt lat="45.1196551" lon="8.0018796"><ele>426.0</ele><time>2026-03-29T14:23:23.064Z</time></trkpt><trkpt lat="45.1195168" lon="8.0019796"><ele>428.0</ele><time>2026-03-29T14:23:24.064Z</time></trkpt><trkpt lat="45.1193902" lon="8.0020576"><ele>428.0</ele><time>2026-03-29T14:23:25.064Z</time></trkpt><trkpt lat="45.119273" lon="8.0021158"><ele>428.0</ele><time>2026-03-29T14:23:26.064Z</time></trkpt><trkpt lat="45.1191428" lon="8.0021178"><ele>428.0</ele><time>2026-03-29T14:23:27.064Z</time></trkpt><trkpt lat="45.1190106" lon="8.0021298"><ele>428.0</ele><time>2026-03-29T14:23:28.064Z</time></trkpt><trkpt lat="45.1188877" lon="8.0021422"><ele>429.75</ele><time>2026-03-29T14:23:29.064Z</time></trkpt><trkpt lat="45.1187707" lon="8.0021589"><ele>431.5</ele><time>2026-03-29T14:23:30.064Z</time></trkpt><trkpt lat="45.118656" lon="8.0022256"><ele>433.25</ele><time>2026-03-29T14:23:31.064Z</time></trkpt><trkpt lat="45.1185466" lon="8.0022666"><ele>435.0</ele><time>2026-03-29T14:23:32.064Z</time></trkpt><trkpt lat="45.1184469" lon="8.0023072"><ele>435.0</ele><time>2026-03-29T14:23:33.064Z</time></trkpt><trkpt lat="45.1183261" lon="8.0023193"><ele>435.0</ele><time>2026-03-29T14:23:34.064Z</time></trkpt><trkpt lat="45.1181979" lon="8.0023241"><ele>435.0</ele><time>2026-03-29T14:23:35.064Z</time></trkpt><trkpt lat="45.1180745" lon="8.0022903"><ele>435.0</ele><time>2026-03-29T14:23:36.063Z</time></trkpt><trkpt lat="45.1179479" lon="8.0022715"><ele>438.5</ele><time>2026-03-29T14:23:37.064Z</time></trkpt><trkpt lat="45.117821" lon="8.0022441"><ele>442.0</ele><time>2026-03-29T14:23:38.064Z</time></trkpt><trkpt lat="45.1176963" lon="8.0022484"><ele>445.5</ele><time>2026-03-29T14:23:39.064Z</time></trkpt><trkpt lat="45.1175747" lon="8.0023433"><ele>449.0</ele><time>2026-03-29T14:23:40.064Z</time></trkpt><trkpt lat="45.1174672" lon="8.0023947"><ele>446.66666666666663</ele><time>2026-03-29T14:23:41.064Z</time></trkpt><trkpt lat="45.1173756" lon="8.002462"><ele>444.3333333333333</ele><time>2026-03-29T14:23:42.064Z</time></trkpt><trkpt lat="45.1172924" lon="8.0025175"><ele>442.0</ele><time>2026-03-29T14:23:43.064Z</time></trkpt><trkpt lat="45.1172221" lon="8.0025723"><ele>439.66666666666663</ele><time>2026-03-29T14:23:44.064Z</time></trkpt><trkpt lat="45.1171558" lon="8.0025963"><ele>437.3333333333333</ele><time>2026-03-29T14:23:45.064Z</time></trkpt><trkpt lat="45.117099" lon="8.0026661"><ele>435.0</ele><time>2026-03-29T14:23:46.064Z</time></trkpt><trkpt lat="45.1170357" lon="8.0027515"><ele>435.0</ele><time>2026-03-29T14:23:47.064Z</time></trkpt><trkpt lat="45.1169756" lon="8.0028488"><ele>435.0</ele><time>2026-03-29T14:23:48.064Z</time></trkpt><trkpt lat="45.1168987" lon="8.0029517"><ele>435.0</ele><time>2026-03-29T14:23:49.064Z</time></trkpt><trkpt lat="45.1168449" lon="8.0030822"><ele>435.0</ele><time>2026-03-29T14:23:50.064Z</time></trkpt><trkpt lat="45.1167834" lon="8.003197"><ele>435.0</ele><time>2026-03-29T14:23:51.064Z</time></trkpt><trkpt lat="45.1167181" lon="8.003327"><ele>435.75</ele><time>2026-03-29T14:23:52.064Z</time></trkpt><trkpt lat="45.1166574" lon="8.0034529"><ele>436.5</ele><time>2026-03-29T14:23:53.064Z</time></trkpt><trkpt lat="45.1165731" lon="8.003585"><ele>437.25</ele><time>2026-03-29T14:23:54.064Z</time></trkpt><trkpt lat="45.1164911" lon="8.0037116"><ele>438.0</ele><time>2026-03-29T14:23:55.064Z</time></trkpt><trkpt lat="45.1163953" lon="8.0038215"><ele>438.5</ele><time>2026-03-29T14:23:56.064Z</time></trkpt><trkpt lat="45.116309" lon="8.0039097"><ele>439.0</ele><time>2026-03-29T14:23:57.064Z</time></trkpt><trkpt lat="45.1162369" lon="8.0039535"><ele>439.5</ele><time>2026-03-29T14:23:58.064Z</time></trkpt><trkpt lat="45.1161789" lon="8.0039935"><ele>440.0</ele><time>2026-03-29T14:23:59.063Z</time></trkpt><trkpt lat="45.1161019" lon="8.0041086"><ele>440.5</ele><time>2026-03-29T14:24:01.064Z</time></trkpt><trkpt lat="45.1160688" lon="8.0041949"><ele>441.0</ele><time>2026-03-29T14:24:02.064Z</time></trkpt><trkpt lat="45.1160694" lon="8.0043022"><ele>441.0</ele><time>2026-03-29T14:24:03.064Z</time></trkpt><trkpt lat="45.1160586" lon="8.0043977"><ele>441.0</ele><time>2026-03-29T14:24:04.064Z</time></trkpt><trkpt lat="45.1160456" lon="8.0045025"><ele>441.0</ele><time>2026-03-29T14:24:05.063Z</time></trkpt><trkpt lat="45.1160607" lon="8.0045968"><ele>441.0</ele><time>2026-03-29T14:24:06.064Z</time></trkpt><trkpt lat="45.1160959" lon="8.0046871"><ele>441.0</ele><time>2026-03-29T14:24:07.064Z</time></trkpt><trkpt lat="45.1161417" lon="8.0047797"><ele>441.0</ele><time>2026-03-29T14:24:08.064Z</time></trkpt><trkpt lat="45.1161982" lon="8.0048798"><ele>441.0</ele><time>2026-03-29T14:24:09.064Z</time></trkpt><trkpt lat="45.1162719" lon="8.0049787"><ele>441.0</ele><time>2026-03-29T14:24:10.064Z</time></trkpt><trkpt lat="45.1163446" lon="8.0050847"><ele>441.0</ele><time>2026-03-29T14:24:11.064Z</time></trkpt><trkpt lat="45.1164204" lon="8.0051907"><ele>441.0</ele><time>2026-03-29T14:24:12.064Z</time></trkpt><trkpt lat="45.1164793" lon="8.0052812"><ele>441.0</ele><time>2026-03-29T14:24:13.064Z</time></trkpt><trkpt lat="45.1165287" lon="8.005379"><ele>437.4</ele><time>2026-03-29T14:24:14.064Z</time></trkpt><trkpt lat="45.1165969" lon="8.0054475"><ele>433.8</ele><time>2026-03-29T14:24:15.063Z</time></trkpt><trkpt lat="45.116673" lon="8.0055042"><ele>430.2</ele><time>2026-03-29T14:24:16.064Z</time></trkpt><trkpt lat="45.1168092" lon="8.0055132"><ele>426.59999999999997</ele><time>2026-03-29T14:24:17.063Z</time></trkpt><trkpt lat="45.1168813" lon="8.0055446"><ele>423.0</ele><time>2026-03-29T14:24:18.064Z</time></trkpt><trkpt lat="45.1169472" lon="8.0056171"><ele>423.0</ele><time>2026-03-29T14:24:19.064Z</time></trkpt><trkpt lat="45.1170045" lon="8.0056964"><ele>423.0</ele><time>2026-03-29T14:24:20.064Z</time></trkpt><trkpt lat="45.117049" lon="8.0057972"><ele>423.0</ele><time>2026-03-29T14:24:21.064Z</time></trkpt><trkpt lat="45.1170775" lon="8.0058834"><ele>423.0</ele><time>2026-03-29T14:24:22.064Z</time></trkpt><trkpt lat="45.1170861" lon="8.0059802"><ele>423.0</ele><time>2026-03-29T14:24:23.064Z</time></trkpt><trkpt lat="45.1171165" lon="8.0060794"><ele>423.0</ele><time>2026-03-29T14:24:24.063Z</time></trkpt><trkpt lat="45.1170633" lon="8.0062406"><ele>424.79999999999995</ele><time>2026-03-29T14:24:26.064Z</time></trkpt><trkpt lat="45.117008" lon="8.0063129"><ele>426.6</ele><time>2026-03-29T14:24:27.063Z</time></trkpt><trkpt lat="45.1168735" lon="8.0063941"><ele>428.40000000000003</ele><time>2026-03-29T14:24:28.064Z</time></trkpt><trkpt lat="45.1167828" lon="8.0064784"><ele>430.20000000000005</ele><time>2026-03-29T14:24:29.064Z</time></trkpt><trkpt lat="45.116706" lon="8.0065758"><ele>432.0</ele><time>2026-03-29T14:24:30.064Z</time></trkpt><trkpt lat="45.1166348" lon="8.0066987"><ele>438.0</ele><time>2026-03-29T14:24:31.063Z</time></trkpt><trkpt lat="45.1165695" lon="8.0068201"><ele>444.0</ele><time>2026-03-29T14:24:32.064Z</time></trkpt><trkpt lat="45.1165557" lon="8.0070145"><ele>450.0</ele><time>2026-03-29T14:24:33.064Z</time></trkpt><trkpt lat="45.1165531" lon="8.0071879"><ele>456.0</ele><time>2026-03-29T14:24:34.064Z</time></trkpt><trkpt lat="45.1165596" lon="8.0073557"><ele>458.0</ele><time>2026-03-29T14:24:35.064Z</time></trkpt><trkpt lat="45.1165486" lon="8.0075315"><ele>460.0</ele><time>2026-03-29T14:24:36.064Z</time></trkpt><trkpt lat="45.1165417" lon="8.0076879"><ele>462.0</ele><time>2026-03-29T14:24:37.064Z</time></trkpt><trkpt lat="45.1165267" lon="8.0078585"><ele>464.0</ele><time>2026-03-29T14:24:38.064Z</time></trkpt><trkpt lat="45.1165149" lon="8.0080152"><ele>464.0</ele><time>2026-03-29T14:24:39.064Z</time></trkpt><trkpt lat="45.1165274" lon="8.0081623"><ele>464.0</ele><time>2026-03-29T14:24:40.064Z</time></trkpt><trkpt lat="45.1164791" lon="8.0083016"><ele>464.0</ele><time>2026-03-29T14:24:41.064Z</time></trkpt><trkpt lat="45.11643" lon="8.0084452"><ele>464.0</ele><time>2026-03-29T14:24:42.064Z</time></trkpt><trkpt lat="45.1163659" lon="8.0085989"><ele>463.5</ele><time>2026-03-29T14:24:43.063Z</time></trkpt><trkpt lat="45.1163063" lon="8.008758"><ele>463.0</ele><time>2026-03-29T14:24:44.064Z</time></trkpt><trkpt lat="45.1162459" lon="8.0089102"><ele>462.5</ele><time>2026-03-29T14:24:45.064Z</time></trkpt><trkpt lat="45.1161897" lon="8.0090725"><ele>462.0</ele><time>2026-03-29T14:24:46.064Z</time></trkpt><trkpt lat="45.1161482" lon="8.0092316"><ele>457.25</ele><time>2026-03-29T14:24:47.064Z</time></trkpt><trkpt lat="45.116116" lon="8.0093937"><ele>452.5</ele><time>2026-03-29T14:24:48.064Z</time></trkpt><trkpt lat="45.1160814" lon="8.0095564"><ele>447.75</ele><time>2026-03-29T14:24:49.064Z</time></trkpt><trkpt lat="45.1160515" lon="8.0097096"><ele>443.0</ele><time>2026-03-29T14:24:50.064Z</time></trkpt><trkpt lat="45.1160394" lon="8.0098626"><ele>441.0</ele><time>2026-03-29T14:24:51.064Z</time></trkpt><trkpt lat="45.1160358" lon="8.0100135"><ele>438.99999999999994</ele><time>2026-03-29T14:24:52.064Z</time></trkpt><trkpt lat="45.1160566" lon="8.0101579"><ele>436.99999999999994</ele><time>2026-03-29T14:24:53.064Z</time></trkpt><trkpt lat="45.11611" lon="8.0102968"><ele>435.0</ele><time>2026-03-29T14:24:54.063Z</time></trkpt><trkpt lat="45.1161693" lon="8.010426"><ele>433.0</ele><time>2026-03-29T14:24:55.064Z</time></trkpt><trkpt lat="45.1162536" lon="8.0105537"><ele>433.0</ele><time>2026-03-29T14:24:56.064Z</time></trkpt><trkpt lat="45.1163492" lon="8.0106768"><ele>433.0</ele><time>2026-03-29T14:24:57.064Z</time></trkpt><trkpt lat="45.116429" lon="8.0108044"><ele>433.0</ele><time>2026-03-29T14:24:58.064Z</time></trkpt><trkpt lat="45.1163998" lon="8.0109628"><ele>433.0</ele><time>2026-03-29T14:24:59.064Z</time></trkpt><trkpt lat="45.1164036" lon="8.0111172"><ele>434.0</ele><time>2026-03-29T14:25:00.064Z</time></trkpt><trkpt lat="45.1164281" lon="8.0112793"><ele>434.99999999999994</ele><time>2026-03-29T14:25:01.064Z</time></trkpt><trkpt lat="45.1164514" lon="8.0114471"><ele>435.99999999999994</ele><time>2026-03-29T14:25:02.064Z</time></trkpt><trkpt lat="45.1164599" lon="8.0116084"><ele>437.0</ele><time>2026-03-29T14:25:03.064Z</time></trkpt><trkpt lat="45.1164596" lon="8.0117455"><ele>438.0</ele><time>2026-03-29T14:25:04.064Z</time></trkpt><trkpt lat="45.1164778" lon="8.0118751"><ele>438.5</ele><time>2026-03-29T14:25:05.064Z</time></trkpt><trkpt lat="45.1165196" lon="8.0120033"><ele>439.0</ele><time>2026-03-29T14:25:06.064Z</time></trkpt><trkpt lat="45.1165429" lon="8.0121139"><ele>439.5</ele><time>2026-03-29T14:25:07.064Z</time></trkpt><trkpt lat="45.1165854" lon="8.0122218"><ele>440.0</ele><time>2026-03-29T14:25:08.064Z</time></trkpt><trkpt lat="45.1166198" lon="8.0123129"><ele>440.5</ele><time>2026-03-29T14:25:09.064Z</time></trkpt><trkpt lat="45.1166693" lon="8.0123755"><ele>441.0</ele><time>2026-03-29T14:25:10.064Z</time></trkpt><trkpt lat="45.1167205" lon="8.0124375"><ele>435.0</ele><time>2026-03-29T14:25:11.064Z</time></trkpt><trkpt lat="45.1168652" lon="8.0124556"><ele>429.0</ele><time>2026-03-29T14:25:12.064Z</time></trkpt><trkpt lat="45.1169597" lon="8.0125099"><ele>423.0</ele><time>2026-03-29T14:25:13.064Z</time></trkpt><trkpt lat="45.1171061" lon="8.0125416"><ele>417.0</ele><time>2026-03-29T14:25:14.064Z</time></trkpt><trkpt lat="45.1172282" lon="8.0125927"><ele>417.0</ele><time>2026-03-29T14:25:15.064Z</time></trkpt><trkpt lat="45.1173544" lon="8.0126623"><ele>417.0</ele><time>2026-03-29T14:25:16.064Z</time></trkpt><trkpt lat="45.1174734" lon="8.0127262"><ele>417.0</ele><time>2026-03-29T14:25:17.064Z</time></trkpt><trkpt lat="45.1175912" lon="8.0127798"><ele>417.0</ele><time>2026-03-29T14:25:18.064Z</time></trkpt><trkpt lat="45.1177089" lon="8.0127986"><ele>413.20000000000005</ele><time>2026-03-29T14:25:19.064Z</time></trkpt><trkpt lat="45.1178068" lon="8.0128323"><ele>409.4</ele><time>2026-03-29T14:25:20.064Z</time></trkpt><trkpt lat="45.1179009" lon="8.0128826"><ele>405.6</ele><time>2026-03-29T14:25:21.064Z</time></trkpt><trkpt lat="45.1179928" lon="8.0129316"><ele>401.79999999999995</ele><time>2026-03-29T14:25:22.064Z</time></trkpt><trkpt lat="45.1180725" lon="8.0130175"><ele>398.0</ele><time>2026-03-29T14:25:23.064Z</time></trkpt><trkpt lat="45.1181546" lon="8.0131054"><ele>398.4</ele><time>2026-03-29T14:25:24.064Z</time></trkpt><trkpt lat="45.1182405" lon="8.0131735"><ele>398.79999999999995</ele><time>2026-03-29T14:25:25.064Z</time></trkpt><trkpt lat="45.1183285" lon="8.0132319"><ele>399.2</ele><time>2026-03-29T14:25:26.064Z</time></trkpt><trkpt lat="45.1184219" lon="8.0132873"><ele>399.6</ele><time>2026-03-29T14:25:27.064Z</time></trkpt><trkpt lat="45.1185223" lon="8.0133458"><ele>400.0</ele><time>2026-03-29T14:25:28.064Z</time></trkpt><trkpt lat="45.1186137" lon="8.0134198"><ele>400.0</ele><time>2026-03-29T14:25:29.064Z</time></trkpt><trkpt lat="45.1186909" lon="8.0135234"><ele>400.0</ele><time>2026-03-29T14:25:30.064Z</time></trkpt><trkpt lat="45.1187641" lon="8.013635"><ele>400.0</ele><time>2026-03-29T14:25:31.064Z</time></trkpt><trkpt lat="45.1188472" lon="8.0137388"><ele>400.0</ele><time>2026-03-29T14:25:32.064Z</time></trkpt><trkpt lat="45.1189317" lon="8.0138326"><ele>400.0</ele><time>2026-03-29T14:25:33.064Z</time></trkpt><trkpt lat="45.119043" lon="8.0139073"><ele>399.25</ele><time>2026-03-29T14:25:34.064Z</time></trkpt><trkpt lat="45.1191651" lon="8.0139899"><ele>398.5</ele><time>2026-03-29T14:25:35.064Z</time></trkpt><trkpt lat="45.1192921" lon="8.0141028"><ele>397.75</ele><time>2026-03-29T14:25:36.063Z</time></trkpt><trkpt lat="45.1194215" lon="8.0142196"><ele>397.0</ele><time>2026-03-29T14:25:37.064Z</time></trkpt><trkpt lat="45.1195498" lon="8.0143375"><ele>397.0</ele><time>2026-03-29T14:25:38.064Z</time></trkpt><trkpt lat="45.1196864" lon="8.0144559"><ele>397.0</ele><time>2026-03-29T14:25:39.064Z</time></trkpt><trkpt lat="45.1198241" lon="8.0145745"><ele>397.0</ele><time>2026-03-29T14:25:40.063Z</time></trkpt><trkpt lat="45.1199613" lon="8.0146806"><ele>399.0</ele><time>2026-03-29T14:25:41.064Z</time></trkpt><trkpt lat="45.1201001" lon="8.0147724"><ele>401.0</ele><time>2026-03-29T14:25:42.064Z</time></trkpt><trkpt lat="45.1202406" lon="8.0148515"><ele>403.0</ele><time>2026-03-29T14:25:43.064Z</time></trkpt><trkpt lat="45.1203599" lon="8.0149375"><ele>405.0</ele><time>2026-03-29T14:25:44.064Z</time></trkpt><trkpt lat="45.1204679" lon="8.0149762"><ele>406.0</ele><time>2026-03-29T14:25:45.064Z</time></trkpt><trkpt lat="45.1205464" lon="8.015058"><ele>407.0</ele><time>2026-03-29T14:25:46.064Z</time></trkpt><trkpt lat="45.1206126" lon="8.0151298"><ele>408.0</ele><time>2026-03-29T14:25:47.064Z</time></trkpt><trkpt lat="45.120689" lon="8.0152281"><ele>409.0</ele><time>2026-03-29T14:25:48.064Z</time></trkpt><trkpt lat="45.1207571" lon="8.0153248"><ele>410.0</ele><time>2026-03-29T14:25:49.063Z</time></trkpt><trkpt lat="45.1208279" lon="8.0154188"><ele>410.0</ele><time>2026-03-29T14:25:50.064Z</time></trkpt><trkpt lat="45.1209022" lon="8.0154492"><ele>410.0</ele><time>2026-03-29T14:25:51.064Z</time></trkpt><trkpt lat="45.1209838" lon="8.0155192"><ele>410.0</ele><time>2026-03-29T14:25:52.064Z</time></trkpt><trkpt lat="45.1211081" lon="8.0155689"><ele>410.0</ele><time>2026-03-29T14:25:53.064Z</time></trkpt><trkpt lat="45.1212195" lon="8.0156136"><ele>410.0</ele><time>2026-03-29T14:25:54.064Z</time></trkpt><trkpt lat="45.1213518" lon="8.015655"><ele>410.0</ele><time>2026-03-29T14:25:55.064Z</time></trkpt><trkpt lat="45.1214834" lon="8.015691"><ele>410.0</ele><time>2026-03-29T14:25:56.064Z</time></trkpt><trkpt lat="45.1216186" lon="8.0156708"><ele>410.0</ele><time>2026-03-29T14:25:57.064Z</time></trkpt><trkpt lat="45.1217494" lon="8.0156675"><ele>410.0</ele><time>2026-03-29T14:25:58.064Z</time></trkpt><trkpt lat="45.121894" lon="8.0156269"><ele>405.75</ele><time>2026-03-29T14:25:59.064Z</time></trkpt><trkpt lat="45.1220379" lon="8.0156059"><ele>401.5</ele><time>2026-03-29T14:26:00.064Z</time></trkpt><trkpt lat="45.1221672" lon="8.0155821"><ele>397.25</ele><time>2026-03-29T14:26:01.063Z</time></trkpt><trkpt lat="45.1222652" lon="8.0155528"><ele>393.0</ele><time>2026-03-29T14:26:02.064Z</time></trkpt><trkpt lat="45.1223806" lon="8.0155212"><ele>395.0</ele><time>2026-03-29T14:26:03.064Z</time></trkpt><trkpt lat="45.1225044" lon="8.0154609"><ele>397.0</ele><time>2026-03-29T14:26:04.064Z</time></trkpt><trkpt lat="45.122614" lon="8.0153701"><ele>399.0</ele><time>2026-03-29T14:26:05.064Z</time></trkpt><trkpt lat="45.1227168" lon="8.0152998"><ele>401.0</ele><time>2026-03-29T14:26:06.064Z</time></trkpt><trkpt lat="45.1228382" lon="8.0152161"><ele>401.0</ele><time>2026-03-29T14:26:07.064Z</time></trkpt><trkpt lat="45.1229658" lon="8.0151504"><ele>401.0</ele><time>2026-03-29T14:26:08.064Z</time></trkpt><trkpt lat="45.1230921" lon="8.0150864"><ele>401.0</ele><time>2026-03-29T14:26:09.064Z</time></trkpt><trkpt lat="45.1231932" lon="8.0150338"><ele>401.0</ele><time>2026-03-29T14:26:10.064Z</time></trkpt><trkpt lat="45.1232992" lon="8.0149811"><ele>401.25</ele><time>2026-03-29T14:26:11.064Z</time></trkpt><trkpt lat="45.1233981" lon="8.0149235"><ele>401.5</ele><time>2026-03-29T14:26:12.064Z</time></trkpt><trkpt lat="45.1235073" lon="8.0148472"><ele>401.75</ele><time>2026-03-29T14:26:13.064Z</time></trkpt><trkpt lat="45.1236128" lon="8.0147511"><ele>402.0</ele><time>2026-03-29T14:26:14.064Z</time></trkpt><trkpt lat="45.1237204" lon="8.0146676"><ele>402.0</ele><time>2026-03-29T14:26:15.063Z</time></trkpt><trkpt lat="45.1238348" lon="8.0146162"><ele>402.0</ele><time>2026-03-29T14:26:16.064Z</time></trkpt><trkpt lat="45.1239479" lon="8.0146141"><ele>402.0</ele><time>2026-03-29T14:26:17.064Z</time></trkpt><trkpt lat="45.12407" lon="8.0146126"><ele>402.0</ele><time>2026-03-29T14:26:18.064Z</time></trkpt><trkpt lat="45.1241883" lon="8.0146406"><ele>402.0</ele><time>2026-03-29T14:26:19.064Z</time></trkpt><trkpt lat="45.1243067" lon="8.01463"><ele>402.0</ele><time>2026-03-29T14:26:20.064Z</time></trkpt><trkpt lat="45.1244311" lon="8.0146342"><ele>402.0</ele><time>2026-03-29T14:26:21.064Z</time></trkpt><trkpt lat="45.1245394" lon="8.0145753"><ele>402.0</ele><time>2026-03-29T14:26:22.063Z</time></trkpt><trkpt lat="45.1246586" lon="8.0145045"><ele>402.0</ele><time>2026-03-29T14:26:23.064Z</time></trkpt><trkpt lat="45.1247892" lon="8.0144474"><ele>402.0</ele><time>2026-03-29T14:26:24.064Z</time></trkpt><trkpt lat="45.1249215" lon="8.0143818"><ele>402.0</ele><time>2026-03-29T14:26:25.064Z</time></trkpt><trkpt lat="45.1250471" lon="8.0143209"><ele>402.0</ele><time>2026-03-29T14:26:26.064Z</time></trkpt><trkpt lat="45.1251587" lon="8.0142613"><ele>400.25</ele><time>2026-03-29T14:26:27.063Z</time></trkpt><trkpt lat="45.1252596" lon="8.0142139"><ele>398.5</ele><time>2026-03-29T14:26:28.064Z</time></trkpt><trkpt lat="45.125358" lon="8.014141"><ele>396.75</ele><time>2026-03-29T14:26:29.064Z</time></trkpt><trkpt lat="45.125471" lon="8.0140608"><ele>395.0</ele><time>2026-03-29T14:26:30.064Z</time></trkpt><trkpt lat="45.1255653" lon="8.0139533"><ele>395.0</ele><time>2026-03-29T14:26:31.064Z</time></trkpt><trkpt lat="45.1256561" lon="8.0138446"><ele>395.0</ele><time>2026-03-29T14:26:32.064Z</time></trkpt><trkpt lat="45.1257267" lon="8.0137397"><ele>395.0</ele><time>2026-03-29T14:26:33.064Z</time></trkpt><trkpt lat="45.1257891" lon="8.0136539"><ele>395.0</ele><time>2026-03-29T14:26:34.064Z</time></trkpt><trkpt lat="45.1258676" lon="8.0135723"><ele>395.0</ele><time>2026-03-29T14:26:35.064Z</time></trkpt><trkpt lat="45.1259558" lon="8.0135326"><ele>397.4</ele><time>2026-03-29T14:26:36.064Z</time></trkpt><trkpt lat="45.1260577" lon="8.0135174"><ele>399.8</ele><time>2026-03-29T14:26:37.064Z</time></trkpt><trkpt lat="45.1261622" lon="8.0135139"><ele>402.20000000000005</ele><time>2026-03-29T14:26:38.064Z</time></trkpt><trkpt lat="45.1262656" lon="8.0135045"><ele>404.6</ele><time>2026-03-29T14:26:39.064Z</time></trkpt><trkpt lat="45.1263633" lon="8.0134815"><ele>407.0</ele><time>2026-03-29T14:26:40.064Z</time></trkpt><trkpt lat="45.126445" lon="8.0134427"><ele>407.0</ele><time>2026-03-29T14:26:41.063Z</time></trkpt><trkpt lat="45.1265346" lon="8.0133742"><ele>407.0</ele><time>2026-03-29T14:26:42.064Z</time></trkpt><trkpt lat="45.1266241" lon="8.0132995"><ele>407.0</ele><time>2026-03-29T14:26:43.064Z</time></trkpt><trkpt lat="45.1267054" lon="8.0132076"><ele>407.0</ele><time>2026-03-29T14:26:44.064Z</time></trkpt><trkpt lat="45.1267981" lon="8.0131343"><ele>407.0</ele><time>2026-03-29T14:26:45.064Z</time></trkpt><trkpt lat="45.1269093" lon="8.0130603"><ele>402.8</ele><time>2026-03-29T14:26:46.064Z</time></trkpt><trkpt lat="45.1270082" lon="8.0130102"><ele>398.6</ele><time>2026-03-29T14:26:47.064Z</time></trkpt><trkpt lat="45.1271141" lon="8.0129485"><ele>394.40000000000003</ele><time>2026-03-29T14:26:48.064Z</time></trkpt><trkpt lat="45.1272071" lon="8.0128961"><ele>390.20000000000005</ele><time>2026-03-29T14:26:49.064Z</time></trkpt><trkpt lat="45.1273017" lon="8.0128285"><ele>386.0</ele><time>2026-03-29T14:26:50.063Z</time></trkpt><trkpt lat="45.1273812" lon="8.0127582"><ele>386.0</ele><time>2026-03-29T14:26:51.064Z</time></trkpt><trkpt lat="45.1274435" lon="8.0126677"><ele>386.0</ele><time>2026-03-29T14:26:52.064Z</time></trkpt><trkpt lat="45.1274992" lon="8.0125672"><ele>386.0</ele><time>2026-03-29T14:26:53.064Z</time></trkpt><trkpt lat="45.127527" lon="8.0124453"><ele>386.0</ele><time>2026-03-29T14:26:54.064Z</time></trkpt><trkpt lat="45.1275466" lon="8.0122968"><ele>386.0</ele><time>2026-03-29T14:26:55.064Z</time></trkpt><trkpt lat="45.1275485" lon="8.0121416"><ele>386.0</ele><time>2026-03-29T14:26:56.064Z</time></trkpt><trkpt lat="45.1275309" lon="8.0119758"><ele>386.0</ele><time>2026-03-29T14:26:57.064Z</time></trkpt><trkpt lat="45.1275216" lon="8.0118374"><ele>386.0</ele><time>2026-03-29T14:26:58.064Z</time></trkpt><trkpt lat="45.1275096" lon="8.0117159"><ele>386.0</ele><time>2026-03-29T14:26:59.064Z</time></trkpt><trkpt lat="45.1274834" lon="8.011629"><ele>386.0</ele><time>2026-03-29T14:27:00.064Z</time></trkpt><trkpt lat="45.1275099" lon="8.0115006"><ele>385.99999999999994</ele><time>2026-03-29T14:27:02.064Z</time></trkpt><trkpt lat="45.1275728" lon="8.0115236"><ele>386.0</ele><time>2026-03-29T14:27:04.064Z</time></trkpt><trkpt lat="45.1276717" lon="8.0116387"><ele>386.0</ele><time>2026-03-29T14:27:06.064Z</time></trkpt><trkpt lat="45.1277289" lon="8.0117051"><ele>386.0</ele><time>2026-03-29T14:27:07.064Z</time></trkpt><trkpt lat="45.1277845" lon="8.0117835"><ele>385.99999999999994</ele><time>2026-03-29T14:27:08.064Z</time></trkpt><trkpt lat="45.1278583" lon="8.0118285"><ele>386.0</ele><time>2026-03-29T14:27:09.064Z</time></trkpt><trkpt lat="45.1279349" lon="8.0118477"><ele>386.0</ele><time>2026-03-29T14:27:10.064Z</time></trkpt><trkpt lat="45.1280153" lon="8.0118513"><ele>386.0</ele><time>2026-03-29T14:27:11.064Z</time></trkpt><trkpt lat="45.1280992" lon="8.0118643"><ele>386.0</ele><time>2026-03-29T14:27:12.064Z</time></trkpt><trkpt lat="45.1282201" lon="8.0119608"><ele>386.0</ele><time>2026-03-29T14:27:14.064Z</time></trkpt><trkpt lat="45.1282778" lon="8.0120294"><ele>386.0</ele><time>2026-03-29T14:27:15.064Z</time></trkpt><trkpt lat="45.1283477" lon="8.0121159"><ele>384.20000000000005</ele><time>2026-03-29T14:27:16.064Z</time></trkpt><trkpt lat="45.1284285" lon="8.0121847"><ele>382.40000000000003</ele><time>2026-03-29T14:27:17.064Z</time></trkpt><trkpt lat="45.1285137" lon="8.012244"><ele>380.6</ele><time>2026-03-29T14:27:18.064Z</time></trkpt><trkpt lat="45.1286058" lon="8.01231"><ele>378.8</ele><time>2026-03-29T14:27:19.064Z</time></trkpt><trkpt lat="45.1286872" lon="8.0123656"><ele>377.0</ele><time>2026-03-29T14:27:20.064Z</time></trkpt><trkpt lat="45.1287848" lon="8.0123908"><ele>377.0</ele><time>2026-03-29T14:27:21.064Z</time></trkpt><trkpt lat="45.1288928" lon="8.0124044"><ele>377.0</ele><time>2026-03-29T14:27:22.064Z</time></trkpt><trkpt lat="45.1289897" lon="8.0124076"><ele>377.0</ele><time>2026-03-29T14:27:23.064Z</time></trkpt><trkpt lat="45.1291008" lon="8.0124153"><ele>377.0</ele><time>2026-03-29T14:27:24.064Z</time></trkpt><trkpt lat="45.1292059" lon="8.0124178"><ele>377.0</ele><time>2026-03-29T14:27:25.064Z</time></trkpt><trkpt lat="45.1293327" lon="8.0124285"><ele>378.20000000000005</ele><time>2026-03-29T14:27:26.064Z</time></trkpt><trkpt lat="45.1294403" lon="8.0124334"><ele>379.4</ele><time>2026-03-29T14:27:27.064Z</time></trkpt><trkpt lat="45.1295574" lon="8.012434"><ele>380.6</ele><time>2026-03-29T14:27:28.064Z</time></trkpt><trkpt lat="45.1296696" lon="8.0124333"><ele>381.79999999999995</ele><time>2026-03-29T14:27:29.064Z</time></trkpt><trkpt lat="45.129779" lon="8.0124237"><ele>383.0</ele><time>2026-03-29T14:27:30.064Z</time></trkpt><trkpt lat="45.1298827" lon="8.0124044"><ele>382.1666666666667</ele><time>2026-03-29T14:27:31.064Z</time></trkpt><trkpt lat="45.1299582" lon="8.0123869"><ele>381.33333333333337</ele><time>2026-03-29T14:27:32.064Z</time></trkpt><trkpt lat="45.1300382" lon="8.0123851"><ele>380.5</ele><time>2026-03-29T14:27:33.064Z</time></trkpt><trkpt lat="45.1301193" lon="8.012391"><ele>379.6666666666667</ele><time>2026-03-29T14:27:34.064Z</time></trkpt><trkpt lat="45.130206" lon="8.0124258"><ele>378.8333333333333</ele><time>2026-03-29T14:27:35.064Z</time></trkpt><trkpt lat="45.1302804" lon="8.0124567"><ele>378.0</ele><time>2026-03-29T14:27:36.064Z</time></trkpt><trkpt lat="45.130376" lon="8.0125555"><ele>377.5</ele><time>2026-03-29T14:27:37.064Z</time></trkpt><trkpt lat="45.1304649" lon="8.0126072"><ele>377.0</ele><time>2026-03-29T14:27:38.064Z</time></trkpt><trkpt lat="45.1305374" lon="8.0126344"><ele>376.5</ele><time>2026-03-29T14:27:39.064Z</time></trkpt><trkpt lat="45.1306064" lon="8.0126568"><ele>376.0</ele><time>2026-03-29T14:27:40.064Z</time></trkpt><trkpt lat="45.1306721" lon="8.0126477"><ele>375.5</ele><time>2026-03-29T14:27:41.064Z</time></trkpt><trkpt lat="45.1307533" lon="8.0125394"><ele>375.0</ele><time>2026-03-29T14:27:42.064Z</time></trkpt><trkpt lat="45.130833" lon="8.0124654"><ele>375.0</ele><time>2026-03-29T14:27:43.064Z</time></trkpt><trkpt lat="45.1309187" lon="8.0123814"><ele>375.0</ele><time>2026-03-29T14:27:44.064Z</time></trkpt><trkpt lat="45.1310013" lon="8.0122898"><ele>375.0</ele><time>2026-03-29T14:27:45.064Z</time></trkpt><trkpt lat="45.1310889" lon="8.0122145"><ele>375.0</ele><time>2026-03-29T14:27:46.064Z</time></trkpt><trkpt lat="45.1311768" lon="8.0121787"><ele>375.0</ele><time>2026-03-29T14:27:47.064Z</time></trkpt><trkpt lat="45.1312578" lon="8.0121517"><ele>375.0</ele><time>2026-03-29T14:27:48.064Z</time></trkpt><trkpt lat="45.1313348" lon="8.0121566"><ele>375.0</ele><time>2026-03-29T14:27:49.064Z</time></trkpt><trkpt lat="45.1314227" lon="8.0121784"><ele>375.0</ele><time>2026-03-29T14:27:50.064Z</time></trkpt><trkpt lat="45.1314954" lon="8.0122288"><ele>375.0</ele><time>2026-03-29T14:27:51.064Z</time></trkpt><trkpt lat="45.1315595" lon="8.0122945"><ele>375.0</ele><time>2026-03-29T14:27:52.064Z</time></trkpt><trkpt lat="45.1316304" lon="8.012412"><ele>375.0</ele><time>2026-03-29T14:27:53.064Z</time></trkpt><trkpt lat="45.1316985" lon="8.0125274"><ele>367.25</ele><time>2026-03-29T14:27:54.064Z</time></trkpt><trkpt lat="45.1317817" lon="8.0126424"><ele>359.5</ele><time>2026-03-29T14:27:55.064Z</time></trkpt><trkpt lat="45.1318816" lon="8.0127222"><ele>351.75</ele><time>2026-03-29T14:27:56.064Z</time></trkpt><trkpt lat="45.1319878" lon="8.0128195"><ele>344.0</ele><time>2026-03-29T14:27:57.064Z</time></trkpt><trkpt lat="45.1321182" lon="8.0128803"><ele>344.0</ele><time>2026-03-29T14:27:58.064Z</time></trkpt><trkpt lat="45.1322542" lon="8.0129287"><ele>344.0</ele><time>2026-03-29T14:27:59.064Z</time></trkpt><trkpt lat="45.1324002" lon="8.0129851"><ele>344.0</ele><time>2026-03-29T14:28:00.064Z</time></trkpt><trkpt lat="45.1325464" lon="8.0130459"><ele>344.0</ele><time>2026-03-29T14:28:01.064Z</time></trkpt><trkpt lat="45.132681" lon="8.0131085"><ele>343.75</ele><time>2026-03-29T14:28:02.064Z</time></trkpt><trkpt lat="45.1328084" lon="8.0131525"><ele>343.5</ele><time>2026-03-29T14:28:03.064Z</time></trkpt><trkpt lat="45.1329222" lon="8.0131981"><ele>343.25</ele><time>2026-03-29T14:28:04.064Z</time></trkpt><trkpt lat="45.1330359" lon="8.0132776"><ele>343.0</ele><time>2026-03-29T14:28:05.064Z</time></trkpt><trkpt lat="45.1331593" lon="8.0133568"><ele>343.66666666666663</ele><time>2026-03-29T14:28:06.064Z</time></trkpt><trkpt lat="45.1332929" lon="8.0134366"><ele>344.3333333333333</ele><time>2026-03-29T14:28:07.064Z</time></trkpt><trkpt lat="45.133434" lon="8.0135352"><ele>345.0</ele><time>2026-03-29T14:28:08.064Z</time></trkpt><trkpt lat="45.1335755" lon="8.0136255"><ele>345.0</ele><time>2026-03-29T14:28:09.064Z</time></trkpt><trkpt lat="45.1337184" lon="8.0137052"><ele>345.0</ele><time>2026-03-29T14:28:10.064Z</time></trkpt><trkpt lat="45.1338675" lon="8.0137959"><ele>345.0</ele><time>2026-03-29T14:28:11.064Z</time></trkpt><trkpt lat="45.1340255" lon="8.0138651"><ele>342.25</ele><time>2026-03-29T14:28:12.064Z</time></trkpt><trkpt lat="45.1341621" lon="8.0139301"><ele>339.5</ele><time>2026-03-29T14:28:13.064Z</time></trkpt><trkpt lat="45.1343" lon="8.0139981"><ele>336.75</ele><time>2026-03-29T14:28:14.063Z</time></trkpt><trkpt lat="45.1344355" lon="8.0140545"><ele>334.0</ele><time>2026-03-29T14:28:15.064Z</time></trkpt><trkpt lat="45.1345719" lon="8.0141482"><ele>333.66666666666663</ele><time>2026-03-29T14:28:16.064Z</time></trkpt><trkpt lat="45.1347035" lon="8.0142494"><ele>333.3333333333333</ele><time>2026-03-29T14:28:17.064Z</time></trkpt><trkpt lat="45.134835" lon="8.0143587"><ele>333.0</ele><time>2026-03-29T14:28:18.064Z</time></trkpt><trkpt lat="45.1349716" lon="8.014473"><ele>329.6666666666667</ele><time>2026-03-29T14:28:19.064Z</time></trkpt><trkpt lat="45.1351131" lon="8.0145793"><ele>326.33333333333337</ele><time>2026-03-29T14:28:20.064Z</time></trkpt><trkpt lat="45.1352643" lon="8.0146792"><ele>323.0</ele><time>2026-03-29T14:28:21.064Z</time></trkpt><trkpt lat="45.1353983" lon="8.0147853"><ele>323.0</ele><time>2026-03-29T14:28:22.064Z</time></trkpt><trkpt lat="45.1355436" lon="8.0148949"><ele>323.0</ele><time>2026-03-29T14:28:23.064Z</time></trkpt><trkpt lat="45.1356807" lon="8.0150075"><ele>323.0</ele><time>2026-03-29T14:28:24.064Z</time></trkpt><trkpt lat="45.1358141" lon="8.0151121"><ele>321.5</ele><time>2026-03-29T14:28:25.064Z</time></trkpt><trkpt lat="45.1359415" lon="8.0152101"><ele>320.0</ele><time>2026-03-29T14:28:26.064Z</time></trkpt><trkpt lat="45.1360751" lon="8.0153057"><ele>318.5</ele><time>2026-03-29T14:28:27.064Z</time></trkpt><trkpt lat="45.1362018" lon="8.0153984"><ele>317.0</ele><time>2026-03-29T14:28:28.064Z</time></trkpt><trkpt lat="45.1363221" lon="8.0154819"><ele>317.0</ele><time>2026-03-29T14:28:29.064Z</time></trkpt><trkpt lat="45.136442" lon="8.0155473"><ele>317.0</ele><time>2026-03-29T14:28:30.064Z</time></trkpt><trkpt lat="45.1365419" lon="8.015628"><ele>317.0</ele><time>2026-03-29T14:28:31.064Z</time></trkpt><trkpt lat="45.1366405" lon="8.0157075"><ele>317.0</ele><time>2026-03-29T14:28:32.064Z</time></trkpt><trkpt lat="45.13671" lon="8.0158072"><ele>316.4</ele><time>2026-03-29T14:28:33.064Z</time></trkpt><trkpt lat="45.1367567" lon="8.0159188"><ele>315.79999999999995</ele><time>2026-03-29T14:28:34.064Z</time></trkpt><trkpt lat="45.1368026" lon="8.0160425"><ele>315.2</ele><time>2026-03-29T14:28:35.063Z</time></trkpt><trkpt lat="45.1367753" lon="8.0162071"><ele>314.59999999999997</ele><time>2026-03-29T14:28:36.064Z</time></trkpt><trkpt lat="45.1367496" lon="8.0163469"><ele>314.0</ele><time>2026-03-29T14:28:37.064Z</time></trkpt><trkpt lat="45.1367338" lon="8.0164963"><ele>314.0</ele><time>2026-03-29T14:28:38.064Z</time></trkpt><trkpt lat="45.1367192" lon="8.0166438"><ele>314.0</ele><time>2026-03-29T14:28:39.064Z</time></trkpt><trkpt lat="45.1367367" lon="8.0167855"><ele>314.0</ele><time>2026-03-29T14:28:40.064Z</time></trkpt><trkpt lat="45.1367614" lon="8.0169384"><ele>314.0</ele><time>2026-03-29T14:28:41.064Z</time></trkpt><trkpt lat="45.1368103" lon="8.0170736"><ele>314.0</ele><time>2026-03-29T14:28:42.064Z</time></trkpt><trkpt lat="45.1368768" lon="8.017209"><ele>313.0</ele><time>2026-03-29T14:28:43.064Z</time></trkpt><trkpt lat="45.1369524" lon="8.0173689"><ele>312.0</ele><time>2026-03-29T14:28:44.064Z</time></trkpt><trkpt lat="45.1370173" lon="8.0174919"><ele>311.0</ele><time>2026-03-29T14:28:45.064Z</time></trkpt><trkpt lat="45.1371412" lon="8.0176251"><ele>310.0</ele><time>2026-03-29T14:28:46.063Z</time></trkpt><trkpt lat="45.1372576" lon="8.0176997"><ele>306.5</ele><time>2026-03-29T14:28:47.064Z</time></trkpt><trkpt lat="45.1373821" lon="8.0178059"><ele>303.0</ele><time>2026-03-29T14:28:48.064Z</time></trkpt><trkpt lat="45.1375021" lon="8.0179305"><ele>299.5</ele><time>2026-03-29T14:28:49.064Z</time></trkpt><trkpt lat="45.1376228" lon="8.0180586"><ele>296.0</ele><time>2026-03-29T14:28:50.064Z</time></trkpt><trkpt lat="45.1377275" lon="8.0182119"><ele>293.25</ele><time>2026-03-29T14:28:51.064Z</time></trkpt><trkpt lat="45.1378232" lon="8.0183634"><ele>290.5</ele><time>2026-03-29T14:28:52.064Z</time></trkpt><trkpt lat="45.1379253" lon="8.0184678"><ele>287.75</ele><time>2026-03-29T14:28:53.064Z</time></trkpt><trkpt lat="45.1380172" lon="8.0185752"><ele>285.0</ele><time>2026-03-29T14:28:54.064Z</time></trkpt><trkpt lat="45.1381085" lon="8.018668"><ele>285.0</ele><time>2026-03-29T14:28:55.064Z</time></trkpt><trkpt lat="45.1381968" lon="8.0187799"><ele>285.0</ele><time>2026-03-29T14:28:56.064Z</time></trkpt><trkpt lat="45.1382663" lon="8.0189112"><ele>285.0</ele><time>2026-03-29T14:28:57.064Z</time></trkpt><trkpt lat="45.138327" lon="8.0190147"><ele>285.0</ele><time>2026-03-29T14:28:58.064Z</time></trkpt><trkpt lat="45.138407" lon="8.0190688"><ele>285.0</ele><time>2026-03-29T14:28:59.064Z</time></trkpt><trkpt lat="45.1384802" lon="8.0190928"><ele>284.8333333333333</ele><time>2026-03-29T14:29:00.064Z</time></trkpt><trkpt lat="45.1385615" lon="8.0190936"><ele>284.6666666666667</ele><time>2026-03-29T14:29:01.064Z</time></trkpt><trkpt lat="45.1386387" lon="8.0190859"><ele>284.5</ele><time>2026-03-29T14:29:02.064Z</time></trkpt><trkpt lat="45.1387141" lon="8.0190429"><ele>284.33333333333337</ele><time>2026-03-29T14:29:03.064Z</time></trkpt><trkpt lat="45.1387841" lon="8.0189957"><ele>284.1666666666667</ele><time>2026-03-29T14:29:04.064Z</time></trkpt><trkpt lat="45.1388676" lon="8.0189885"><ele>284.0</ele><time>2026-03-29T14:29:05.064Z</time></trkpt><trkpt lat="45.138952" lon="8.0190102"><ele>284.0</ele><time>2026-03-29T14:29:06.064Z</time></trkpt><trkpt lat="45.1390315" lon="8.019072"><ele>284.0</ele><time>2026-03-29T14:29:07.064Z</time></trkpt><trkpt lat="45.1390943" lon="8.0191566"><ele>284.0</ele><time>2026-03-29T14:29:08.064Z</time></trkpt><trkpt lat="45.1391463" lon="8.0192355"><ele>284.0</ele><time>2026-03-29T14:29:09.064Z</time></trkpt><trkpt lat="45.1392036" lon="8.0192976"><ele>284.0</ele><time>2026-03-29T14:29:10.064Z</time></trkpt><trkpt lat="45.1392832" lon="8.0193938"><ele>284.0</ele><time>2026-03-29T14:29:12.064Z</time></trkpt><trkpt lat="45.1393565" lon="8.0194692"><ele>284.33333333333337</ele><time>2026-03-29T14:29:14.064Z</time></trkpt><trkpt lat="45.139435" lon="8.0195478"><ele>284.6666666666667</ele><time>2026-03-29T14:29:16.064Z</time></trkpt><trkpt lat="45.1394953" lon="8.0196053"><ele>285.0</ele><time>2026-03-29T14:29:18.064Z</time></trkpt><trkpt lat="45.1395602" lon="8.0196679"><ele>285.3333333333333</ele><time>2026-03-29T14:29:21.064Z</time></trkpt><trkpt lat="45.1396612" lon="8.0197199"><ele>285.66666666666663</ele><time>2026-03-29T14:30:07.064Z</time></trkpt><trkpt lat="45.1397141" lon="8.0197733"><ele>286.0</ele><time>2026-03-29T14:30:08.064Z</time></trkpt><trkpt lat="45.1397781" lon="8.0198225"><ele>286.0</ele><time>2026-03-29T14:30:09.064Z</time></trkpt><trkpt lat="45.1398502" lon="8.0198783"><ele>286.0</ele><time>2026-03-29T14:30:10.064Z</time></trkpt><trkpt lat="45.1399298" lon="8.0199437"><ele>286.0</ele><time>2026-03-29T14:30:11.064Z</time></trkpt><trkpt lat="45.14" lon="8.0200114"><ele>286.0</ele><time>2026-03-29T14:30:12.064Z</time></trkpt><trkpt lat="45.1400676" lon="8.0201029"><ele>286.0</ele><time>2026-03-29T14:30:13.064Z</time></trkpt><trkpt lat="45.1401041" lon="8.0202049"><ele>286.0</ele><time>2026-03-29T14:30:14.064Z</time></trkpt><trkpt lat="45.1401229" lon="8.0203172"><ele>287.6</ele><time>2026-03-29T14:30:15.064Z</time></trkpt><trkpt lat="45.1401431" lon="8.0204297"><ele>289.20000000000005</ele><time>2026-03-29T14:30:16.064Z</time></trkpt><trkpt lat="45.1401812" lon="8.020525"><ele>290.79999999999995</ele><time>2026-03-29T14:30:17.064Z</time></trkpt><trkpt lat="45.1402474" lon="8.0206232"><ele>292.4</ele><time>2026-03-29T14:30:18.064Z</time></trkpt><trkpt lat="45.140339" lon="8.0207103"><ele>294.0</ele><time>2026-03-29T14:30:19.064Z</time></trkpt><trkpt lat="45.1404328" lon="8.0207599"><ele>294.5</ele><time>2026-03-29T14:30:20.063Z</time></trkpt><trkpt lat="45.140535" lon="8.0208304"><ele>295.0</ele><time>2026-03-29T14:30:21.064Z</time></trkpt><trkpt lat="45.1406453" lon="8.0209215"><ele>295.5</ele><time>2026-03-29T14:30:22.064Z</time></trkpt><trkpt lat="45.1407376" lon="8.0210243"><ele>296.0</ele><time>2026-03-29T14:30:23.064Z</time></trkpt><trkpt lat="45.1408347" lon="8.0211426"><ele>298.0</ele><time>2026-03-29T14:30:24.064Z</time></trkpt><trkpt lat="45.1409317" lon="8.0212678"><ele>300.0</ele><time>2026-03-29T14:30:25.064Z</time></trkpt><trkpt lat="45.1410232" lon="8.0213774"><ele>302.0</ele><time>2026-03-29T14:30:26.064Z</time></trkpt><trkpt lat="45.1411068" lon="8.021484"><ele>304.0</ele><time>2026-03-29T14:30:27.064Z</time></trkpt><trkpt lat="45.1411843" lon="8.0215637"><ele>304.0</ele><time>2026-03-29T14:30:28.064Z</time></trkpt><trkpt lat="45.1412523" lon="8.0216156"><ele>304.0</ele><time>2026-03-29T14:30:29.064Z</time></trkpt><trkpt lat="45.1413408" lon="8.0216551"><ele>304.0</ele><time>2026-03-29T14:30:30.064Z</time></trkpt><trkpt lat="45.1414437" lon="8.0217153"><ele>304.0</ele><time>2026-03-29T14:30:31.064Z</time></trkpt><trkpt lat="45.1415537" lon="8.0217746"><ele>304.0</ele><time>2026-03-29T14:30:32.064Z</time></trkpt><trkpt lat="45.1416684" lon="8.0218693"><ele>305.0</ele><time>2026-03-29T14:30:33.064Z</time></trkpt><trkpt lat="45.1417893" lon="8.0219776"><ele>306.0</ele><time>2026-03-29T14:30:34.064Z</time></trkpt><trkpt lat="45.141912" lon="8.0220984"><ele>307.0</ele><time>2026-03-29T14:30:35.064Z</time></trkpt><trkpt lat="45.1420393" lon="8.0222191"><ele>308.0</ele><time>2026-03-29T14:30:36.064Z</time></trkpt><trkpt lat="45.1421825" lon="8.0223327"><ele>308.0</ele><time>2026-03-29T14:30:37.064Z</time></trkpt><trkpt lat="45.1423255" lon="8.02244"><ele>308.0</ele><time>2026-03-29T14:30:38.064Z</time></trkpt><trkpt lat="45.1424734" lon="8.0225311"><ele>308.0</ele><time>2026-03-29T14:30:39.064Z</time></trkpt><trkpt lat="45.142611" lon="8.0226358"><ele>307.0</ele><time>2026-03-29T14:30:40.064Z</time></trkpt><trkpt lat="45.1427235" lon="8.0227578"><ele>306.0</ele><time>2026-03-29T14:30:41.064Z</time></trkpt><trkpt lat="45.1428361" lon="8.0228996"><ele>305.0</ele><time>2026-03-29T14:30:42.064Z</time></trkpt><trkpt lat="45.1429191" lon="8.0230231"><ele>304.0</ele><time>2026-03-29T14:30:43.064Z</time></trkpt><trkpt lat="45.1429694" lon="8.0231444"><ele>304.0</ele><time>2026-03-29T14:30:44.064Z</time></trkpt><trkpt lat="45.1430181" lon="8.0232879"><ele>304.0</ele><time>2026-03-29T14:30:45.064Z</time></trkpt><trkpt lat="45.1430684" lon="8.0234152"><ele>304.0</ele><time>2026-03-29T14:30:46.064Z</time></trkpt><trkpt lat="45.1431393" lon="8.0235294"><ele>304.0</ele><time>2026-03-29T14:30:47.064Z</time></trkpt><trkpt lat="45.1432092" lon="8.0236352"><ele>304.0</ele><time>2026-03-29T14:30:48.064Z</time></trkpt><trkpt lat="45.1433208" lon="8.0237096"><ele>304.75</ele><time>2026-03-29T14:30:49.064Z</time></trkpt><trkpt lat="45.1434383" lon="8.0237285"><ele>305.5</ele><time>2026-03-29T14:30:50.064Z</time></trkpt><trkpt lat="45.1435515" lon="8.0237418"><ele>306.25</ele><time>2026-03-29T14:30:51.063Z</time></trkpt><trkpt lat="45.143671" lon="8.0237543"><ele>307.0</ele><time>2026-03-29T14:30:52.064Z</time></trkpt><trkpt lat="45.143783" lon="8.0238027"><ele>307.0</ele><time>2026-03-29T14:30:53.064Z</time></trkpt><trkpt lat="45.1438969" lon="8.0238768"><ele>307.0</ele><time>2026-03-29T14:30:54.064Z</time></trkpt><trkpt lat="45.1440056" lon="8.0239576"><ele>307.0</ele><time>2026-03-29T14:30:55.064Z</time></trkpt><trkpt lat="45.1441192" lon="8.0240402"><ele>307.0</ele><time>2026-03-29T14:30:56.064Z</time></trkpt><trkpt lat="45.1442272" lon="8.0241157"><ele>311.0</ele><time>2026-03-29T14:30:57.064Z</time></trkpt><trkpt lat="45.1443361" lon="8.0241878"><ele>315.0</ele><time>2026-03-29T14:30:58.064Z</time></trkpt><trkpt lat="45.1444317" lon="8.0242758"><ele>319.0</ele><time>2026-03-29T14:30:59.064Z</time></trkpt><trkpt lat="45.1445156" lon="8.0243834"><ele>323.0</ele><time>2026-03-29T14:31:00.064Z</time></trkpt><trkpt lat="45.1446008" lon="8.0245237"><ele>323.0</ele><time>2026-03-29T14:31:01.064Z</time></trkpt><trkpt lat="45.1446741" lon="8.024672"><ele>323.0</ele><time>2026-03-29T14:31:02.064Z</time></trkpt><trkpt lat="45.1447318" lon="8.0248452"><ele>323.0</ele><time>2026-03-29T14:31:03.064Z</time></trkpt><trkpt lat="45.1447838" lon="8.0250362"><ele>323.0</ele><time>2026-03-29T14:31:04.064Z</time></trkpt><trkpt lat="45.1448269" lon="8.0252107"><ele>322.5</ele><time>2026-03-29T14:31:05.064Z</time></trkpt><trkpt lat="45.144858" lon="8.0253894"><ele>322.0</ele><time>2026-03-29T14:31:06.063Z</time></trkpt><trkpt lat="45.1448669" lon="8.025559"><ele>321.5</ele><time>2026-03-29T14:31:07.064Z</time></trkpt><trkpt lat="45.1448506" lon="8.0257226"><ele>321.0</ele><time>2026-03-29T14:31:08.063Z</time></trkpt><trkpt lat="45.1448258" lon="8.0258815"><ele>321.0</ele><time>2026-03-29T14:31:09.064Z</time></trkpt><trkpt lat="45.1447826" lon="8.0260402"><ele>321.0</ele><time>2026-03-29T14:31:10.064Z</time></trkpt><trkpt lat="45.1447301" lon="8.0261616"><ele>321.0</ele><time>2026-03-29T14:31:11.064Z</time></trkpt><trkpt lat="45.144694" lon="8.026271"><ele>321.0</ele><time>2026-03-29T14:31:12.064Z</time></trkpt><trkpt lat="45.1446535" lon="8.0263729"><ele>321.0</ele><time>2026-03-29T14:31:13.064Z</time></trkpt><trkpt lat="45.1446124" lon="8.0265006"><ele>320.5</ele><time>2026-03-29T14:31:14.064Z</time></trkpt><trkpt lat="45.1446606" lon="8.0266824"><ele>320.0</ele><time>2026-03-29T14:31:15.063Z</time></trkpt><trkpt lat="45.1446848" lon="8.0268549"><ele>319.5</ele><time>2026-03-29T14:31:16.064Z</time></trkpt><trkpt lat="45.1447269" lon="8.0270628"><ele>319.0</ele><time>2026-03-29T14:31:17.064Z</time></trkpt><trkpt lat="45.1447631" lon="8.0272322"><ele>319.0</ele><time>2026-03-29T14:31:18.064Z</time></trkpt><trkpt lat="45.1447903" lon="8.0274178"><ele>319.0</ele><time>2026-03-29T14:31:19.064Z</time></trkpt><trkpt lat="45.1448113" lon="8.0275967"><ele>319.0</ele><time>2026-03-29T14:31:20.064Z</time></trkpt><trkpt lat="45.1448145" lon="8.0277667"><ele>319.0</ele><time>2026-03-29T14:31:21.064Z</time></trkpt><trkpt lat="45.1448187" lon="8.027936"><ele>318.0</ele><time>2026-03-29T14:31:22.064Z</time></trkpt><trkpt lat="45.1448276" lon="8.0281219"><ele>317.0</ele><time>2026-03-29T14:31:23.064Z</time></trkpt><trkpt lat="45.1448347" lon="8.0283154"><ele>316.0</ele><time>2026-03-29T14:31:24.063Z</time></trkpt><trkpt lat="45.1448605" lon="8.0285071"><ele>315.0</ele><time>2026-03-29T14:31:25.064Z</time></trkpt><trkpt lat="45.1448886" lon="8.0287096"><ele>315.0</ele><time>2026-03-29T14:31:26.064Z</time></trkpt><trkpt lat="45.1449211" lon="8.0289212"><ele>315.0</ele><time>2026-03-29T14:31:27.064Z</time></trkpt><trkpt lat="45.1449495" lon="8.0291288"><ele>315.0</ele><time>2026-03-29T14:31:28.064Z</time></trkpt><trkpt lat="45.1449768" lon="8.0293187"><ele>315.0</ele><time>2026-03-29T14:31:29.064Z</time></trkpt><trkpt lat="45.1450127" lon="8.0294983"><ele>315.4</ele><time>2026-03-29T14:31:30.064Z</time></trkpt><trkpt lat="45.1450456" lon="8.0296666"><ele>315.8</ele><time>2026-03-29T14:31:31.064Z</time></trkpt><trkpt lat="45.145053" lon="8.0298177"><ele>316.2</ele><time>2026-03-29T14:31:32.064Z</time></trkpt><trkpt lat="45.1450843" lon="8.0299347"><ele>316.6</ele><time>2026-03-29T14:31:33.063Z</time></trkpt><trkpt lat="45.1451308" lon="8.0300444"><ele>317.0</ele><time>2026-03-29T14:31:34.064Z</time></trkpt><trkpt lat="45.1451971" lon="8.0301499"><ele>317.0</ele><time>2026-03-29T14:31:35.064Z</time></trkpt><trkpt lat="45.1452831" lon="8.030239"><ele>317.0</ele><time>2026-03-29T14:31:36.064Z</time></trkpt><trkpt lat="45.1453841" lon="8.0303268"><ele>317.0</ele><time>2026-03-29T14:31:37.064Z</time></trkpt><trkpt lat="45.1454816" lon="8.030399"><ele>317.0</ele><time>2026-03-29T14:31:38.064Z</time></trkpt><trkpt lat="45.1455676" lon="8.0304516"><ele>317.0</ele><time>2026-03-29T14:31:39.064Z</time></trkpt><trkpt lat="45.1456628" lon="8.0304744"><ele>311.6</ele><time>2026-03-29T14:31:40.064Z</time></trkpt><trkpt lat="45.1457683" lon="8.0304686"><ele>306.2</ele><time>2026-03-29T14:31:41.064Z</time></trkpt><trkpt lat="45.1458664" lon="8.030443"><ele>300.8</ele><time>2026-03-29T14:31:42.064Z</time></trkpt><trkpt lat="45.1459671" lon="8.0303944"><ele>295.4</ele><time>2026-03-29T14:31:43.064Z</time></trkpt><trkpt lat="45.1460638" lon="8.0303798"><ele>290.0</ele><time>2026-03-29T14:31:44.064Z</time></trkpt><trkpt lat="45.1461621" lon="8.0303834"><ele>290.0</ele><time>2026-03-29T14:31:45.064Z</time></trkpt><trkpt lat="45.1462483" lon="8.0303895"><ele>290.0</ele><time>2026-03-29T14:31:46.064Z</time></trkpt><trkpt lat="45.1463169" lon="8.0303996"><ele>290.0</ele><time>2026-03-29T14:31:47.064Z</time></trkpt><trkpt lat="45.1464249" lon="8.0304214"><ele>290.0</ele><time>2026-03-29T14:31:49.064Z</time></trkpt><trkpt lat="45.1464905" lon="8.0304365"><ele>290.0</ele><time>2026-03-29T14:31:50.064Z</time></trkpt><trkpt lat="45.1465686" lon="8.0304544"><ele>290.0</ele><time>2026-03-29T14:31:51.063Z</time></trkpt><trkpt lat="45.1466532" lon="8.0304729"><ele>287.2</ele><time>2026-03-29T14:31:52.064Z</time></trkpt><trkpt lat="45.1467387" lon="8.0304812"><ele>284.4</ele><time>2026-03-29T14:31:53.064Z</time></trkpt><trkpt lat="45.1468261" lon="8.0305105"><ele>281.6</ele><time>2026-03-29T14:31:54.064Z</time></trkpt><trkpt lat="45.1469169" lon="8.0305392"><ele>278.8</ele><time>2026-03-29T14:31:55.063Z</time></trkpt><trkpt lat="45.1470093" lon="8.0305811"><ele>276.0</ele><time>2026-03-29T14:31:56.064Z</time></trkpt><trkpt lat="45.1470945" lon="8.0306288"><ele>276.0</ele><time>2026-03-29T14:31:57.064Z</time></trkpt><trkpt lat="45.1471809" lon="8.0306643"><ele>276.0</ele><time>2026-03-29T14:31:58.064Z</time></trkpt><trkpt lat="45.1472755" lon="8.0307095"><ele>276.0</ele><time>2026-03-29T14:31:59.064Z</time></trkpt><trkpt lat="45.1473629" lon="8.0307396"><ele>276.0</ele><time>2026-03-29T14:32:00.064Z</time></trkpt><trkpt lat="45.1474466" lon="8.0307687"><ele>276.0</ele><time>2026-03-29T14:32:01.064Z</time></trkpt><trkpt lat="45.1475144" lon="8.0308029"><ele>276.0</ele><time>2026-03-29T14:32:02.064Z</time></trkpt><trkpt lat="45.1475939" lon="8.0308474"><ele>278.0</ele><time>2026-03-29T14:32:03.064Z</time></trkpt><trkpt lat="45.1476481" lon="8.0309066"><ele>280.0</ele><time>2026-03-29T14:32:04.064Z</time></trkpt><trkpt lat="45.1477011" lon="8.0309943"><ele>282.0</ele><time>2026-03-29T14:32:05.064Z</time></trkpt><trkpt lat="45.1477523" lon="8.031098"><ele>284.0</ele><time>2026-03-29T14:32:06.063Z</time></trkpt><trkpt lat="45.1478268" lon="8.0312039"><ele>286.0</ele><time>2026-03-29T14:32:07.064Z</time></trkpt><trkpt lat="45.1479079" lon="8.0313034"><ele>286.0</ele><time>2026-03-29T14:32:08.064Z</time></trkpt><trkpt lat="45.1479999" lon="8.031396"><ele>286.0</ele><time>2026-03-29T14:32:09.064Z</time></trkpt><trkpt lat="45.1480998" lon="8.0314809"><ele>286.0</ele><time>2026-03-29T14:32:10.064Z</time></trkpt><trkpt lat="45.1481966" lon="8.0315596"><ele>286.0</ele><time>2026-03-29T14:32:11.064Z</time></trkpt><trkpt lat="45.148283" lon="8.0316316"><ele>286.0</ele><time>2026-03-29T14:32:12.064Z</time></trkpt><trkpt lat="45.1483714" lon="8.0316883"><ele>286.8</ele><time>2026-03-29T14:32:13.064Z</time></trkpt><trkpt lat="45.1484438" lon="8.0317402"><ele>287.6</ele><time>2026-03-29T14:32:14.064Z</time></trkpt><trkpt lat="45.1485381" lon="8.0317611"><ele>288.4</ele><time>2026-03-29T14:32:15.064Z</time></trkpt><trkpt lat="45.148632" lon="8.03178"><ele>289.2</ele><time>2026-03-29T14:32:16.063Z</time></trkpt><trkpt lat="45.1487379" lon="8.0317944"><ele>290.0</ele><time>2026-03-29T14:32:17.063Z</time></trkpt><trkpt lat="45.1488343" lon="8.0318249"><ele>290.0</ele><time>2026-03-29T14:32:18.064Z</time></trkpt><trkpt lat="45.1489338" lon="8.0318565"><ele>290.0</ele><time>2026-03-29T14:32:19.064Z</time></trkpt><trkpt lat="45.1489973" lon="8.031902"><ele>290.0</ele><time>2026-03-29T14:32:20.064Z</time></trkpt><trkpt lat="45.1490603" lon="8.0319186"><ele>290.0</ele><time>2026-03-29T14:32:21.064Z</time></trkpt><trkpt lat="45.1491188" lon="8.0319561"><ele>290.0</ele><time>2026-03-29T14:32:22.064Z</time></trkpt><trkpt lat="45.1491704" lon="8.0320843"><ele>290.0</ele><time>2026-03-29T14:32:24.064Z</time></trkpt><trkpt lat="45.1491496" lon="8.0322435"><ele>290.5</ele><time>2026-03-29T14:32:26.064Z</time></trkpt><trkpt lat="45.1491632" lon="8.0323578"><ele>291.0</ele><time>2026-03-29T14:32:27.064Z</time></trkpt><trkpt lat="45.1491577" lon="8.0324564"><ele>291.5</ele><time>2026-03-29T14:32:28.064Z</time></trkpt><trkpt lat="45.1491381" lon="8.0325995"><ele>292.0</ele><time>2026-03-29T14:32:29.064Z</time></trkpt><trkpt lat="45.1491223" lon="8.0327265"><ele>292.5</ele><time>2026-03-29T14:32:30.064Z</time></trkpt><trkpt lat="45.1491245" lon="8.0328558"><ele>293.0</ele><time>2026-03-29T14:32:31.064Z</time></trkpt><trkpt lat="45.1490944" lon="8.0329773"><ele>293.0</ele><time>2026-03-29T14:32:32.064Z</time></trkpt><trkpt lat="45.149043" lon="8.0330893"><ele>293.0</ele><time>2026-03-29T14:32:33.064Z</time></trkpt><trkpt lat="45.1489914" lon="8.0331904"><ele>293.0</ele><time>2026-03-29T14:32:34.064Z</time></trkpt><trkpt lat="45.1489367" lon="8.0332772"><ele>293.0</ele><time>2026-03-29T14:32:35.064Z</time></trkpt><trkpt lat="45.148893" lon="8.0333546"><ele>293.0</ele><time>2026-03-29T14:32:36.064Z</time></trkpt><trkpt lat="45.1488119" lon="8.0334787"><ele>289.6</ele><time>2026-03-29T14:32:38.064Z</time></trkpt><trkpt lat="45.1487569" lon="8.0336076"><ele>286.20000000000005</ele><time>2026-03-29T14:32:40.064Z</time></trkpt><trkpt lat="45.1487593" lon="8.033787"><ele>282.8</ele><time>2026-03-29T14:32:42.064Z</time></trkpt><trkpt lat="45.1487927" lon="8.033895"><ele>279.40000000000003</ele><time>2026-03-29T14:32:43.064Z</time></trkpt><trkpt lat="45.1488183" lon="8.0340003"><ele>276.0</ele><time>2026-03-29T14:32:44.063Z</time></trkpt><trkpt lat="45.1488408" lon="8.034129"><ele>275.1666666666667</ele><time>2026-03-29T14:32:45.064Z</time></trkpt><trkpt lat="45.1488659" lon="8.0342473"><ele>274.3333333333333</ele><time>2026-03-29T14:32:46.064Z</time></trkpt><trkpt lat="45.148919" lon="8.03435"><ele>273.5</ele><time>2026-03-29T14:32:47.064Z</time></trkpt><trkpt lat="45.1489572" lon="8.0344428"><ele>272.66666666666663</ele><time>2026-03-29T14:32:48.064Z</time></trkpt><trkpt lat="45.1489868" lon="8.0345385"><ele>271.8333333333333</ele><time>2026-03-29T14:32:49.064Z</time></trkpt><trkpt lat="45.1489923" lon="8.0346465"><ele>271.0</ele><time>2026-03-29T14:32:50.064Z</time></trkpt><trkpt lat="45.1489208" lon="8.0347631"><ele>271.0</ele><time>2026-03-29T14:32:52.064Z</time></trkpt><trkpt lat="45.1488163" lon="8.0348171"><ele>271.0</ele><time>2026-03-29T14:32:53.064Z</time></trkpt><trkpt lat="45.1487308" lon="8.0348739"><ele>271.0</ele><time>2026-03-29T14:32:54.064Z</time></trkpt><trkpt lat="45.1486273" lon="8.0349432"><ele>271.0</ele><time>2026-03-29T14:32:55.064Z</time></trkpt><trkpt lat="45.1485356" lon="8.0350054"><ele>271.0</ele><time>2026-03-29T14:32:56.064Z</time></trkpt><trkpt lat="45.1484362" lon="8.0350845"><ele>271.6</ele><time>2026-03-29T14:32:57.064Z</time></trkpt><trkpt lat="45.1483366" lon="8.0351402"><ele>272.20000000000005</ele><time>2026-03-29T14:32:58.064Z</time></trkpt><trkpt lat="45.1482558" lon="8.0352167"><ele>272.79999999999995</ele><time>2026-03-29T14:32:59.064Z</time></trkpt><trkpt lat="45.14818" lon="8.0352914"><ele>273.4</ele><time>2026-03-29T14:33:00.064Z</time></trkpt><trkpt lat="45.1481216" lon="8.0353817"><ele>274.0</ele><time>2026-03-29T14:33:01.064Z</time></trkpt><trkpt lat="45.1480749" lon="8.0354945"><ele>270.59999999999997</ele><time>2026-03-29T14:33:02.064Z</time></trkpt><trkpt lat="45.1480644" lon="8.0356266"><ele>267.2</ele><time>2026-03-29T14:33:03.064Z</time></trkpt><trkpt lat="45.1480694" lon="8.0357778"><ele>263.79999999999995</ele><time>2026-03-29T14:33:04.064Z</time></trkpt><trkpt lat="45.1481062" lon="8.0359326"><ele>260.4</ele><time>2026-03-29T14:33:05.064Z</time></trkpt><trkpt lat="45.14815" lon="8.0360837"><ele>257.0</ele><time>2026-03-29T14:33:06.064Z</time></trkpt><trkpt lat="45.1481943" lon="8.0362317"><ele>254.0</ele><time>2026-03-29T14:33:07.064Z</time></trkpt><trkpt lat="45.1482114" lon="8.0363897"><ele>251.0</ele><time>2026-03-29T14:33:08.063Z</time></trkpt><trkpt lat="45.1482159" lon="8.0365604"><ele>248.0</ele><time>2026-03-29T14:33:09.064Z</time></trkpt><trkpt lat="45.1482072" lon="8.0367476"><ele>245.0</ele><time>2026-03-29T14:33:10.064Z</time></trkpt><trkpt lat="45.1481976" lon="8.0369597"><ele>245.0</ele><time>2026-03-29T14:33:11.064Z</time></trkpt><trkpt lat="45.1481969" lon="8.0371598"><ele>245.0</ele><time>2026-03-29T14:33:12.064Z</time></trkpt><trkpt lat="45.1481937" lon="8.0373607"><ele>245.0</ele><time>2026-03-29T14:33:13.064Z</time></trkpt><trkpt lat="45.1481854" lon="8.0375529"><ele>245.0</ele><time>2026-03-29T14:33:14.064Z</time></trkpt><trkpt lat="45.1481653" lon="8.0377341"><ele>242.5</ele><time>2026-03-29T14:33:15.064Z</time></trkpt><trkpt lat="45.1481223" lon="8.0378929"><ele>240.0</ele><time>2026-03-29T14:33:16.064Z</time></trkpt><trkpt lat="45.1480626" lon="8.0380579"><ele>237.5</ele><time>2026-03-29T14:33:17.064Z</time></trkpt><trkpt lat="45.1479864" lon="8.0381822"><ele>235.0</ele><time>2026-03-29T14:33:18.064Z</time></trkpt><trkpt lat="45.1479076" lon="8.038293"><ele>235.0</ele><time>2026-03-29T14:33:19.064Z</time></trkpt><trkpt lat="45.1478219" lon="8.0383795"><ele>235.0</ele><time>2026-03-29T14:33:20.064Z</time></trkpt><trkpt lat="45.1477247" lon="8.0384527"><ele>235.0</ele><time>2026-03-29T14:33:21.064Z</time></trkpt><trkpt lat="45.1476261" lon="8.0385068"><ele>235.0</ele><time>2026-03-29T14:33:22.064Z</time></trkpt><trkpt lat="45.1475129" lon="8.0385612"><ele>235.0</ele><time>2026-03-29T14:33:23.064Z</time></trkpt><trkpt lat="45.1474235" lon="8.0386198"><ele>231.99999999999997</ele><time>2026-03-29T14:33:24.064Z</time></trkpt><trkpt lat="45.1473636" lon="8.0386748"><ele>229.0</ele><time>2026-03-29T14:33:25.064Z</time></trkpt><trkpt lat="45.1473098" lon="8.0387479"><ele>226.0</ele><time>2026-03-29T14:33:26.064Z</time></trkpt><trkpt lat="45.1472765" lon="8.0389143"><ele>223.0</ele><time>2026-03-29T14:33:28.064Z</time></trkpt><trkpt lat="45.1472614" lon="8.039006"><ele>219.99999999999997</ele><time>2026-03-29T14:33:29.064Z</time></trkpt><trkpt lat="45.1473092" lon="8.0390844"><ele>217.0</ele><time>2026-03-29T14:33:30.064Z</time></trkpt><trkpt lat="45.1473685" lon="8.0391793"><ele>220.25</ele><time>2026-03-29T14:33:31.064Z</time></trkpt><trkpt lat="45.1474152" lon="8.0392701"><ele>223.5</ele><time>2026-03-29T14:33:32.064Z</time></trkpt><trkpt lat="45.1475467" lon="8.0393353"><ele>226.75</ele><time>2026-03-29T14:33:33.064Z</time></trkpt><trkpt lat="45.1476269" lon="8.0394491"><ele>230.0</ele><time>2026-03-29T14:33:34.064Z</time></trkpt><trkpt lat="45.1477097" lon="8.039585"><ele>230.0</ele><time>2026-03-29T14:33:35.064Z</time></trkpt><trkpt lat="45.1477912" lon="8.0397203"><ele>230.0</ele><time>2026-03-29T14:33:36.064Z</time></trkpt><trkpt lat="45.1478805" lon="8.0398844"><ele>230.0</ele><time>2026-03-29T14:33:37.064Z</time></trkpt><trkpt lat="45.1479772" lon="8.0400284"><ele>230.0</ele><time>2026-03-29T14:33:38.064Z</time></trkpt><trkpt lat="45.1480679" lon="8.0401774"><ele>230.0</ele><time>2026-03-29T14:33:39.064Z</time></trkpt><trkpt lat="45.1481822" lon="8.0402997"><ele>230.0</ele><time>2026-03-29T14:33:40.063Z</time></trkpt><trkpt lat="45.1482696" lon="8.0404102"><ele>230.0</ele><time>2026-03-29T14:33:41.063Z</time></trkpt><trkpt lat="45.148347" lon="8.0405336"><ele>230.0</ele><time>2026-03-29T14:33:42.064Z</time></trkpt><trkpt lat="45.1483818" lon="8.0406715"><ele>228.8</ele><time>2026-03-29T14:33:43.064Z</time></trkpt><trkpt lat="45.1484234" lon="8.0408069"><ele>227.6</ele><time>2026-03-29T14:33:44.064Z</time></trkpt><trkpt lat="45.1483783" lon="8.040957"><ele>226.39999999999998</ele><time>2026-03-29T14:33:45.064Z</time></trkpt><trkpt lat="45.1483597" lon="8.0410857"><ele>225.2</ele><time>2026-03-29T14:33:46.064Z</time></trkpt><trkpt lat="45.1483708" lon="8.0412355"><ele>224.0</ele><time>2026-03-29T14:33:47.064Z</time></trkpt><trkpt lat="45.1484294" lon="8.0413641"><ele>224.0</ele><time>2026-03-29T14:33:48.064Z</time></trkpt><trkpt lat="45.1484618" lon="8.0415001"><ele>224.0</ele><time>2026-03-29T14:33:49.064Z</time></trkpt><trkpt lat="45.1484989" lon="8.0416778"><ele>224.0</ele><time>2026-03-29T14:33:50.064Z</time></trkpt><trkpt lat="45.1485441" lon="8.0418275"><ele>224.0</ele><time>2026-03-29T14:33:51.064Z</time></trkpt><trkpt lat="45.148568" lon="8.0419762"><ele>222.39999999999998</ele><time>2026-03-29T14:33:52.064Z</time></trkpt><trkpt lat="45.1485724" lon="8.0421137"><ele>220.79999999999998</ele><time>2026-03-29T14:33:53.064Z</time></trkpt><trkpt lat="45.1485282" lon="8.042269"><ele>219.20000000000002</ele><time>2026-03-29T14:33:54.064Z</time></trkpt><trkpt lat="45.148512" lon="8.0424084"><ele>217.60000000000002</ele><time>2026-03-29T14:33:55.064Z</time></trkpt><trkpt lat="45.1485429" lon="8.0425642"><ele>216.0</ele><time>2026-03-29T14:33:56.064Z</time></trkpt><trkpt lat="45.1485959" lon="8.0427208"><ele>214.25</ele><time>2026-03-29T14:33:57.064Z</time></trkpt><trkpt lat="45.1486571" lon="8.0428748"><ele>212.5</ele><time>2026-03-29T14:33:58.064Z</time></trkpt><trkpt lat="45.1487413" lon="8.043025"><ele>210.75</ele><time>2026-03-29T14:33:59.064Z</time></trkpt><trkpt lat="45.1488361" lon="8.0431783"><ele>209.0</ele><time>2026-03-29T14:34:00.064Z</time></trkpt><trkpt lat="45.1489226" lon="8.0433225"><ele>207.66666666666669</ele><time>2026-03-29T14:34:01.064Z</time></trkpt><trkpt lat="45.1490232" lon="8.043478"><ele>206.33333333333331</ele><time>2026-03-29T14:34:02.064Z</time></trkpt><trkpt lat="45.149124" lon="8.0436385"><ele>205.0</ele><time>2026-03-29T14:34:03.064Z</time></trkpt><trkpt lat="45.1492243" lon="8.0438079"><ele>205.33333333333331</ele><time>2026-03-29T14:34:04.064Z</time></trkpt><trkpt lat="45.1493205" lon="8.0439819"><ele>205.66666666666669</ele><time>2026-03-29T14:34:05.064Z</time></trkpt><trkpt lat="45.1494166" lon="8.0441633"><ele>206.0</ele><time>2026-03-29T14:34:06.064Z</time></trkpt><trkpt lat="45.1494989" lon="8.0443483"><ele>206.0</ele><time>2026-03-29T14:34:07.064Z</time></trkpt><trkpt lat="45.1495951" lon="8.0445267"><ele>206.0</ele><time>2026-03-29T14:34:08.064Z</time></trkpt><trkpt lat="45.1496907" lon="8.044706"><ele>206.0</ele><time>2026-03-29T14:34:09.064Z</time></trkpt><trkpt lat="45.1497657" lon="8.0448831"><ele>206.75</ele><time>2026-03-29T14:34:10.063Z</time></trkpt><trkpt lat="45.1498487" lon="8.0450252"><ele>207.5</ele><time>2026-03-29T14:34:11.064Z</time></trkpt><trkpt lat="45.149925" lon="8.0451749"><ele>208.25</ele><time>2026-03-29T14:34:12.063Z</time></trkpt><trkpt lat="45.1499806" lon="8.0453397"><ele>209.0</ele><time>2026-03-29T14:34:13.064Z</time></trkpt><trkpt lat="45.1500022" lon="8.0454988"><ele>209.0</ele><time>2026-03-29T14:34:14.064Z</time></trkpt><trkpt lat="45.1500428" lon="8.0456558"><ele>209.0</ele><time>2026-03-29T14:34:15.064Z</time></trkpt><trkpt lat="45.1500796" lon="8.0458004"><ele>209.0</ele><time>2026-03-29T14:34:16.064Z</time></trkpt><trkpt lat="45.1501367" lon="8.0459442"><ele>209.0</ele><time>2026-03-29T14:34:17.064Z</time></trkpt><trkpt lat="45.1502017" lon="8.0460632"><ele>209.0</ele><time>2026-03-29T14:34:18.064Z</time></trkpt><trkpt lat="45.1503004" lon="8.0461526"><ele>208.5</ele><time>2026-03-29T14:34:19.064Z</time></trkpt><trkpt lat="45.1504192" lon="8.0462282"><ele>208.0</ele><time>2026-03-29T14:34:20.064Z</time></trkpt><trkpt lat="45.1505309" lon="8.0463124"><ele>207.5</ele><time>2026-03-29T14:34:21.063Z</time></trkpt><trkpt lat="45.1506236" lon="8.0463914"><ele>207.0</ele><time>2026-03-29T14:34:22.064Z</time></trkpt><trkpt lat="45.1507624" lon="8.0464706"><ele>207.0</ele><time>2026-03-29T14:34:23.064Z</time></trkpt><trkpt lat="45.1508658" lon="8.0465449"><ele>207.0</ele><time>2026-03-29T14:34:24.064Z</time></trkpt><trkpt lat="45.1509537" lon="8.0466214"><ele>207.0</ele><time>2026-03-29T14:34:25.063Z</time></trkpt><trkpt lat="45.1510353" lon="8.0467165"><ele>207.0</ele><time>2026-03-29T14:34:26.064Z</time></trkpt><trkpt lat="45.1511143" lon="8.0468453"><ele>207.0</ele><time>2026-03-29T14:34:27.064Z</time></trkpt><trkpt lat="45.151152" lon="8.0469794"><ele>207.0</ele><time>2026-03-29T14:34:28.064Z</time></trkpt><trkpt lat="45.1511957" lon="8.0471232"><ele>207.0</ele><time>2026-03-29T14:34:29.064Z</time></trkpt><trkpt lat="45.1512454" lon="8.0472663"><ele>207.0</ele><time>2026-03-29T14:34:30.064Z</time></trkpt><trkpt lat="45.1513034" lon="8.0474285"><ele>207.0</ele><time>2026-03-29T14:34:31.064Z</time></trkpt><trkpt lat="45.151359" lon="8.0475598"><ele>206.0</ele><time>2026-03-29T14:34:32.064Z</time></trkpt><trkpt lat="45.1514038" lon="8.047702"><ele>205.0</ele><time>2026-03-29T14:34:33.064Z</time></trkpt><trkpt lat="45.1514651" lon="8.0478559"><ele>204.0</ele><time>2026-03-29T14:34:34.064Z</time></trkpt><trkpt lat="45.151526" lon="8.0480168"><ele>203.0</ele><time>2026-03-29T14:34:35.064Z</time></trkpt><trkpt lat="45.1516056" lon="8.0481515"><ele>202.5</ele><time>2026-03-29T14:34:36.064Z</time></trkpt><trkpt lat="45.1516991" lon="8.0482991"><ele>202.0</ele><time>2026-03-29T14:34:37.063Z</time></trkpt><trkpt lat="45.1517935" lon="8.0484355"><ele>201.5</ele><time>2026-03-29T14:34:38.064Z</time></trkpt><trkpt lat="45.1518933" lon="8.0485822"><ele>201.0</ele><time>2026-03-29T14:34:39.064Z</time></trkpt><trkpt lat="45.1519941" lon="8.0487243"><ele>201.0</ele><time>2026-03-29T14:34:40.064Z</time></trkpt><trkpt lat="45.1520897" lon="8.048856"><ele>201.0</ele><time>2026-03-29T14:34:41.064Z</time></trkpt><trkpt lat="45.1521878" lon="8.0489686"><ele>201.0</ele><time>2026-03-29T14:34:42.064Z</time></trkpt><trkpt lat="45.1522874" lon="8.0490526"><ele>201.0</ele><time>2026-03-29T14:34:43.064Z</time></trkpt><trkpt lat="45.1523916" lon="8.0491359"><ele>198.8</ele><time>2026-03-29T14:34:44.064Z</time></trkpt><trkpt lat="45.1525017" lon="8.0491998"><ele>196.60000000000002</ele><time>2026-03-29T14:34:45.064Z</time></trkpt><trkpt lat="45.1526218" lon="8.0492801"><ele>194.4</ele><time>2026-03-29T14:34:46.064Z</time></trkpt><trkpt lat="45.1526993" lon="8.0493768"><ele>192.2</ele><time>2026-03-29T14:34:47.064Z</time></trkpt><trkpt lat="45.152767" lon="8.049464"><ele>190.0</ele><time>2026-03-29T14:34:48.064Z</time></trkpt><trkpt lat="45.1528212" lon="8.0495396"><ele>190.0</ele><time>2026-03-29T14:34:49.064Z</time></trkpt><trkpt lat="45.1528562" lon="8.0496512"><ele>190.0</ele><time>2026-03-29T14:34:50.064Z</time></trkpt><trkpt lat="45.1528672" lon="8.049774"><ele>190.0</ele><time>2026-03-29T14:34:51.064Z</time></trkpt><trkpt lat="45.1528579" lon="8.0499049"><ele>190.0</ele><time>2026-03-29T14:34:52.064Z</time></trkpt><trkpt lat="45.1528547" lon="8.0500277"><ele>190.0</ele><time>2026-03-29T14:34:53.063Z</time></trkpt><trkpt lat="45.1528611" lon="8.0501441"><ele>190.0</ele><time>2026-03-29T14:34:54.064Z</time></trkpt><trkpt lat="45.1528741" lon="8.0502511"><ele>188.33333333333334</ele><time>2026-03-29T14:34:55.064Z</time></trkpt><trkpt lat="45.1529077" lon="8.0503512"><ele>186.66666666666669</ele><time>2026-03-29T14:34:56.064Z</time></trkpt><trkpt lat="45.1529422" lon="8.0504621"><ele>185.0</ele><time>2026-03-29T14:34:57.064Z</time></trkpt><trkpt lat="45.1529888" lon="8.0505511"><ele>183.33333333333334</ele><time>2026-03-29T14:34:58.064Z</time></trkpt><trkpt lat="45.1530454" lon="8.0506251"><ele>181.66666666666666</ele><time>2026-03-29T14:34:59.064Z</time></trkpt><trkpt lat="45.1530964" lon="8.0506903"><ele>180.0</ele><time>2026-03-29T14:35:00.064Z</time></trkpt><trkpt lat="45.1531557" lon="8.0507659"><ele>179.33333333333334</ele><time>2026-03-29T14:35:02.064Z</time></trkpt><trkpt lat="45.1532146" lon="8.0508264"><ele>178.66666666666666</ele><time>2026-03-29T14:35:04.064Z</time></trkpt><trkpt lat="45.1532469" lon="8.0509087"><ele>178.0</ele><time>2026-03-29T14:35:37.064Z</time></trkpt><trkpt lat="45.1532085" lon="8.0509853"><ele>177.33333333333331</ele><time>2026-03-29T14:35:40.063Z</time></trkpt><trkpt lat="45.1531154" lon="8.0510412"><ele>176.66666666666666</ele><time>2026-03-29T14:35:41.064Z</time></trkpt><trkpt lat="45.1529871" lon="8.0511294"><ele>176.0</ele><time>2026-03-29T14:35:43.064Z</time></trkpt><trkpt lat="45.1529" lon="8.0511742"><ele>176.0</ele><time>2026-03-29T14:35:44.064Z</time></trkpt><trkpt lat="45.1528244" lon="8.0512189"><ele>176.0</ele><time>2026-03-29T14:35:45.064Z</time></trkpt><trkpt lat="45.1527417" lon="8.05127"><ele>176.0</ele><time>2026-03-29T14:35:46.064Z</time></trkpt><trkpt lat="45.1526519" lon="8.0513252"><ele>176.0</ele><time>2026-03-29T14:35:47.064Z</time></trkpt><trkpt lat="45.1525745" lon="8.0513819"><ele>176.0</ele><time>2026-03-29T14:35:48.064Z</time></trkpt><trkpt lat="45.1524974" lon="8.0514387"><ele>176.0</ele><time>2026-03-29T14:35:49.064Z</time></trkpt><trkpt lat="45.1524287" lon="8.0514867"><ele>176.20000000000002</ele><time>2026-03-29T14:35:50.064Z</time></trkpt><trkpt lat="45.1523432" lon="8.05153"><ele>176.4</ele><time>2026-03-29T14:35:52.064Z</time></trkpt><trkpt lat="45.152271" lon="8.0516591"><ele>176.6</ele><time>2026-03-29T14:35:54.063Z</time></trkpt><trkpt lat="45.1522601" lon="8.0517717"><ele>176.8</ele><time>2026-03-29T14:35:55.064Z</time></trkpt><trkpt lat="45.1522745" lon="8.0518971"><ele>177.0</ele><time>2026-03-29T14:35:56.064Z</time></trkpt><trkpt lat="45.1522986" lon="8.0520284"><ele>177.0</ele><time>2026-03-29T14:35:57.064Z</time></trkpt><trkpt lat="45.1523276" lon="8.0521438"><ele>177.0</ele><time>2026-03-29T14:35:58.063Z</time></trkpt><trkpt lat="45.1523858" lon="8.0522889"><ele>177.0</ele><time>2026-03-29T14:35:59.064Z</time></trkpt><trkpt lat="45.1524305" lon="8.0524436"><ele>177.0</ele><time>2026-03-29T14:36:00.064Z</time></trkpt><trkpt lat="45.1524903" lon="8.0526271"><ele>176.66666666666666</ele><time>2026-03-29T14:36:01.064Z</time></trkpt><trkpt lat="45.1525697" lon="8.0528352"><ele>176.33333333333331</ele><time>2026-03-29T14:36:02.064Z</time></trkpt><trkpt lat="45.1526358" lon="8.0530328"><ele>176.0</ele><time>2026-03-29T14:36:03.064Z</time></trkpt><trkpt lat="45.1527028" lon="8.05324"><ele>175.5</ele><time>2026-03-29T14:36:04.064Z</time></trkpt><trkpt lat="45.1527556" lon="8.0534309"><ele>175.0</ele><time>2026-03-29T14:36:05.064Z</time></trkpt><trkpt lat="45.1528156" lon="8.0536139"><ele>174.5</ele><time>2026-03-29T14:36:06.064Z</time></trkpt><trkpt lat="45.1528792" lon="8.0537913"><ele>174.0</ele><time>2026-03-29T14:36:07.064Z</time></trkpt><trkpt lat="45.1529458" lon="8.0539687"><ele>173.25</ele><time>2026-03-29T14:36:08.064Z</time></trkpt><trkpt lat="45.1530088" lon="8.0541505"><ele>172.5</ele><time>2026-03-29T14:36:09.064Z</time></trkpt><trkpt lat="45.1530675" lon="8.0543262"><ele>171.75</ele><time>2026-03-29T14:36:10.064Z</time></trkpt><trkpt lat="45.1531259" lon="8.0545062"><ele>171.0</ele><time>2026-03-29T14:36:11.064Z</time></trkpt><trkpt lat="45.1531861" lon="8.0546826"><ele>171.5</ele><time>2026-03-29T14:36:12.064Z</time></trkpt><trkpt lat="45.1532504" lon="8.0548594"><ele>172.0</ele><time>2026-03-29T14:36:13.063Z</time></trkpt><trkpt lat="45.1533222" lon="8.0550422"><ele>172.5</ele><time>2026-03-29T14:36:14.064Z</time></trkpt><trkpt lat="45.1533912" lon="8.055216"><ele>173.0</ele><time>2026-03-29T14:36:15.064Z</time></trkpt><trkpt lat="45.1534464" lon="8.0553952"><ele>173.25</ele><time>2026-03-29T14:36:16.064Z</time></trkpt><trkpt lat="45.153509" lon="8.0555602"><ele>173.5</ele><time>2026-03-29T14:36:17.063Z</time></trkpt><trkpt lat="45.1535764" lon="8.0557189"><ele>173.75</ele><time>2026-03-29T14:36:18.064Z</time></trkpt><trkpt lat="45.1536414" lon="8.0558782"><ele>174.0</ele><time>2026-03-29T14:36:19.064Z</time></trkpt><trkpt lat="45.1536781" lon="8.0559919"><ele>174.0</ele><time>2026-03-29T14:36:20.064Z</time></trkpt><trkpt lat="45.1537314" lon="8.056137"><ele>174.0</ele><time>2026-03-29T14:36:21.064Z</time></trkpt><trkpt lat="45.1538111" lon="8.0562254"><ele>174.0</ele><time>2026-03-29T14:36:22.064Z</time></trkpt><trkpt lat="45.1538843" lon="8.0563199"><ele>174.0</ele><time>2026-03-29T14:36:23.064Z</time></trkpt><trkpt lat="45.153991" lon="8.0563937"><ele>174.0</ele><time>2026-03-29T14:36:24.064Z</time></trkpt><trkpt lat="45.1540988" lon="8.0565008"><ele>173.5</ele><time>2026-03-29T14:36:25.064Z</time></trkpt><trkpt lat="45.154206" lon="8.0566414"><ele>173.0</ele><time>2026-03-29T14:36:26.064Z</time></trkpt><trkpt lat="45.1543206" lon="8.0567842"><ele>172.5</ele><time>2026-03-29T14:36:27.064Z</time></trkpt><trkpt lat="45.1544133" lon="8.0569285"><ele>172.0</ele><time>2026-03-29T14:36:28.064Z</time></trkpt><trkpt lat="45.1545377" lon="8.0570722"><ele>172.0</ele><time>2026-03-29T14:36:29.064Z</time></trkpt><trkpt lat="45.1546752" lon="8.057199"><ele>172.0</ele><time>2026-03-29T14:36:30.064Z</time></trkpt><trkpt lat="45.1547957" lon="8.0573427"><ele>172.0</ele><time>2026-03-29T14:36:31.063Z</time></trkpt><trkpt lat="45.1549024" lon="8.0574766"><ele>172.0</ele><time>2026-03-29T14:36:32.064Z</time></trkpt><trkpt lat="45.1550164" lon="8.0576185"><ele>172.0</ele><time>2026-03-29T14:36:33.063Z</time></trkpt><trkpt lat="45.1551296" lon="8.057758"><ele>172.0</ele><time>2026-03-29T14:36:34.064Z</time></trkpt><trkpt lat="45.1552457" lon="8.0579019"><ele>172.0</ele><time>2026-03-29T14:36:35.064Z</time></trkpt><trkpt lat="45.1553501" lon="8.0580382"><ele>172.0</ele><time>2026-03-29T14:36:36.064Z</time></trkpt><trkpt lat="45.1554683" lon="8.058187"><ele>172.0</ele><time>2026-03-29T14:36:37.064Z</time></trkpt><trkpt lat="45.1555723" lon="8.0583316"><ele>172.0</ele><time>2026-03-29T14:36:38.064Z</time></trkpt><trkpt lat="45.1556766" lon="8.0584821"><ele>171.75</ele><time>2026-03-29T14:36:39.064Z</time></trkpt><trkpt lat="45.1557691" lon="8.0586471"><ele>171.5</ele><time>2026-03-29T14:36:40.064Z</time></trkpt><trkpt lat="45.1558508" lon="8.058813"><ele>171.25</ele><time>2026-03-29T14:36:41.064Z</time></trkpt><trkpt lat="45.1559435" lon="8.0589758"><ele>171.0</ele><time>2026-03-29T14:36:42.064Z</time></trkpt><trkpt lat="45.1559984" lon="8.0591402"><ele>171.0</ele><time>2026-03-29T14:36:43.064Z</time></trkpt><trkpt lat="45.1560478" lon="8.0592895"><ele>171.0</ele><time>2026-03-29T14:36:44.064Z</time></trkpt><trkpt lat="45.1560869" lon="8.0594427"><ele>171.0</ele><time>2026-03-29T14:36:45.064Z</time></trkpt><trkpt lat="45.1561259" lon="8.0596149"><ele>171.0</ele><time>2026-03-29T14:36:46.064Z</time></trkpt><trkpt lat="45.156159" lon="8.0598101"><ele>171.0</ele><time>2026-03-29T14:36:47.064Z</time></trkpt><trkpt lat="45.15618" lon="8.0600095"><ele>171.0</ele><time>2026-03-29T14:36:48.064Z</time></trkpt><trkpt lat="45.1561783" lon="8.0602203"><ele>171.0</ele><time>2026-03-29T14:36:49.064Z</time></trkpt><trkpt lat="45.1561718" lon="8.0604244"><ele>171.0</ele><time>2026-03-29T14:36:50.064Z</time></trkpt><trkpt lat="45.1561655" lon="8.0606005"><ele>170.75</ele><time>2026-03-29T14:36:51.064Z</time></trkpt><trkpt lat="45.1561595" lon="8.0608056"><ele>170.5</ele><time>2026-03-29T14:36:52.064Z</time></trkpt><trkpt lat="45.1561413" lon="8.0609971"><ele>170.25</ele><time>2026-03-29T14:36:53.064Z</time></trkpt><trkpt lat="45.156125" lon="8.0612003"><ele>170.0</ele><time>2026-03-29T14:36:54.064Z</time></trkpt><trkpt lat="45.1560958" lon="8.0614023"><ele>170.0</ele><time>2026-03-29T14:36:55.064Z</time></trkpt><trkpt lat="45.1560692" lon="8.0615973"><ele>170.0</ele><time>2026-03-29T14:36:56.064Z</time></trkpt><trkpt lat="45.1560481" lon="8.0617911"><ele>170.0</ele><time>2026-03-29T14:36:57.063Z</time></trkpt><trkpt lat="45.1560243" lon="8.0619965"><ele>170.0</ele><time>2026-03-29T14:36:58.064Z</time></trkpt><trkpt lat="45.1560083" lon="8.0622049"><ele>169.66666666666666</ele><time>2026-03-29T14:36:59.064Z</time></trkpt><trkpt lat="45.1559792" lon="8.0623908"><ele>169.33333333333334</ele><time>2026-03-29T14:37:00.064Z</time></trkpt><trkpt lat="45.1559489" lon="8.0626119"><ele>169.0</ele><time>2026-03-29T14:37:01.063Z</time></trkpt><trkpt lat="45.1559135" lon="8.0628285"><ele>169.25</ele><time>2026-03-29T14:37:02.064Z</time></trkpt><trkpt lat="45.1558873" lon="8.0630351"><ele>169.5</ele><time>2026-03-29T14:37:03.064Z</time></trkpt><trkpt lat="45.1558659" lon="8.0632232"><ele>169.75</ele><time>2026-03-29T14:37:04.064Z</time></trkpt><trkpt lat="45.1558419" lon="8.0634156"><ele>170.0</ele><time>2026-03-29T14:37:05.064Z</time></trkpt><trkpt lat="45.1558254" lon="8.0635706"><ele>170.0</ele><time>2026-03-29T14:37:06.064Z</time></trkpt><trkpt lat="45.1558019" lon="8.063728"><ele>170.0</ele><time>2026-03-29T14:37:07.064Z</time></trkpt><trkpt lat="45.1557892" lon="8.0638735"><ele>170.0</ele><time>2026-03-29T14:37:08.064Z</time></trkpt><trkpt lat="45.1557825" lon="8.0640161"><ele>170.0</ele><time>2026-03-29T14:37:09.064Z</time></trkpt><trkpt lat="45.155759" lon="8.0641633"><ele>170.0</ele><time>2026-03-29T14:37:10.064Z</time></trkpt><trkpt lat="45.155746" lon="8.0643104"><ele>170.0</ele><time>2026-03-29T14:37:11.064Z</time></trkpt><trkpt lat="45.1557268" lon="8.0644562"><ele>170.0</ele><time>2026-03-29T14:37:12.064Z</time></trkpt><trkpt lat="45.155708" lon="8.0645996"><ele>170.0</ele><time>2026-03-29T14:37:13.063Z</time></trkpt><trkpt lat="45.1556991" lon="8.0647346"><ele>170.0</ele><time>2026-03-29T14:37:14.064Z</time></trkpt><trkpt lat="45.1556728" lon="8.0648592"><ele>170.0</ele><time>2026-03-29T14:37:15.064Z</time></trkpt><trkpt lat="45.1556572" lon="8.0650053"><ele>171.2</ele><time>2026-03-29T14:37:16.064Z</time></trkpt><trkpt lat="45.155635" lon="8.0651598"><ele>172.4</ele><time>2026-03-29T14:37:17.064Z</time></trkpt><trkpt lat="45.155624" lon="8.0652868"><ele>173.60000000000002</ele><time>2026-03-29T14:37:18.064Z</time></trkpt><trkpt lat="45.15562" lon="8.0654631"><ele>174.8</ele><time>2026-03-29T14:37:20.064Z</time></trkpt><trkpt lat="45.1555824" lon="8.0656273"><ele>176.0</ele><time>2026-03-29T14:37:22.064Z</time></trkpt><trkpt lat="45.1555398" lon="8.0657027"><ele>176.0</ele><time>2026-03-29T14:37:23.064Z</time></trkpt><trkpt lat="45.1554926" lon="8.0657633"><ele>176.0</ele><time>2026-03-29T14:37:24.063Z</time></trkpt><trkpt lat="45.1554428" lon="8.0658185"><ele>176.0</ele><time>2026-03-29T14:37:25.064Z</time></trkpt><trkpt lat="45.1553688" lon="8.0659585"><ele>176.0</ele><time>2026-03-29T14:37:27.063Z</time></trkpt><trkpt lat="45.1553913" lon="8.066131"><ele>176.0</ele><time>2026-03-29T14:37:29.063Z</time></trkpt><trkpt lat="45.1554414" lon="8.066187"><ele>176.0</ele><time>2026-03-29T14:37:30.064Z</time></trkpt><trkpt lat="45.1555016" lon="8.0662227"><ele>175.83333333333331</ele><time>2026-03-29T14:37:31.064Z</time></trkpt><trkpt lat="45.1555704" lon="8.0662641"><ele>175.66666666666666</ele><time>2026-03-29T14:37:32.064Z</time></trkpt><trkpt lat="45.1556294" lon="8.0663307"><ele>175.5</ele><time>2026-03-29T14:37:33.064Z</time></trkpt><trkpt lat="45.1556822" lon="8.0664219"><ele>175.33333333333334</ele><time>2026-03-29T14:37:34.064Z</time></trkpt><trkpt lat="45.1557279" lon="8.066539"><ele>175.16666666666669</ele><time>2026-03-29T14:37:35.064Z</time></trkpt><trkpt lat="45.155775" lon="8.0666812"><ele>175.0</ele><time>2026-03-29T14:37:36.064Z</time></trkpt><trkpt lat="45.1558334" lon="8.0668684"><ele>174.0</ele><time>2026-03-29T14:37:37.064Z</time></trkpt><trkpt lat="45.1558968" lon="8.0670737"><ele>173.0</ele><time>2026-03-29T14:37:38.063Z</time></trkpt><trkpt lat="45.1559601" lon="8.0673052"><ele>172.0</ele><time>2026-03-29T14:37:39.064Z</time></trkpt><trkpt lat="45.1560213" lon="8.0675482"><ele>172.0</ele><time>2026-03-29T14:37:40.064Z</time></trkpt><trkpt lat="45.1560646" lon="8.0677801"><ele>172.0</ele><time>2026-03-29T14:37:41.064Z</time></trkpt><trkpt lat="45.156152" lon="8.068044"><ele>172.0</ele><time>2026-03-29T14:37:42.064Z</time></trkpt><trkpt lat="45.1562251" lon="8.0682915"><ele>172.66666666666669</ele><time>2026-03-29T14:37:43.064Z</time></trkpt><trkpt lat="45.1563083" lon="8.068574"><ele>173.33333333333334</ele><time>2026-03-29T14:37:44.064Z</time></trkpt><trkpt lat="45.156387" lon="8.0688691"><ele>174.0</ele><time>2026-03-29T14:37:45.064Z</time></trkpt><trkpt lat="45.1564654" lon="8.0691549"><ele>173.66666666666666</ele><time>2026-03-29T14:37:46.064Z</time></trkpt><trkpt lat="45.1565457" lon="8.0694408"><ele>173.33333333333331</ele><time>2026-03-29T14:37:47.063Z</time></trkpt><trkpt lat="45.1566205" lon="8.0697125"><ele>173.0</ele><time>2026-03-29T14:37:48.063Z</time></trkpt><trkpt lat="45.1566821" lon="8.0700218"><ele>172.66666666666666</ele><time>2026-03-29T14:37:49.064Z</time></trkpt><trkpt lat="45.1567519" lon="8.0703131"><ele>172.33333333333334</ele><time>2026-03-29T14:37:50.064Z</time></trkpt><trkpt lat="45.1568331" lon="8.0706087"><ele>172.0</ele><time>2026-03-29T14:37:51.064Z</time></trkpt><trkpt lat="45.1569065" lon="8.0708925"><ele>172.0</ele><time>2026-03-29T14:37:52.064Z</time></trkpt><trkpt lat="45.1569885" lon="8.0711748"><ele>172.0</ele><time>2026-03-29T14:37:53.064Z</time></trkpt><trkpt lat="45.1570582" lon="8.0714412"><ele>172.0</ele><time>2026-03-29T14:37:54.064Z</time></trkpt><trkpt lat="45.1571255" lon="8.0716893"><ele>172.33333333333334</ele><time>2026-03-29T14:37:55.064Z</time></trkpt><trkpt lat="45.1572113" lon="8.0719243"><ele>172.66666666666666</ele><time>2026-03-29T14:37:56.064Z</time></trkpt><trkpt lat="45.1572973" lon="8.0721451"><ele>173.0</ele><time>2026-03-29T14:37:57.064Z</time></trkpt><trkpt lat="45.15735" lon="8.0723931"><ele>172.66666666666666</ele><time>2026-03-29T14:37:58.064Z</time></trkpt><trkpt lat="45.1574077" lon="8.0726257"><ele>172.33333333333334</ele><time>2026-03-29T14:37:59.064Z</time></trkpt><trkpt lat="45.1574882" lon="8.0728704"><ele>172.0</ele><time>2026-03-29T14:38:00.064Z</time></trkpt><trkpt lat="45.1575411" lon="8.0730814"><ele>171.75</ele><time>2026-03-29T14:38:01.064Z</time></trkpt><trkpt lat="45.1576105" lon="8.0732907"><ele>171.5</ele><time>2026-03-29T14:38:02.064Z</time></trkpt><trkpt lat="45.157661" lon="8.0734671"><ele>171.25</ele><time>2026-03-29T14:38:03.064Z</time></trkpt><trkpt lat="45.1576904" lon="8.0736205"><ele>171.0</ele><time>2026-03-29T14:38:04.064Z</time></trkpt><trkpt lat="45.1577272" lon="8.0737663"><ele>171.0</ele><time>2026-03-29T14:38:05.064Z</time></trkpt><trkpt lat="45.1577278" lon="8.0739054"><ele>171.0</ele><time>2026-03-29T14:38:06.064Z</time></trkpt><trkpt lat="45.1577391" lon="8.0740521"><ele>171.0</ele><time>2026-03-29T14:38:07.064Z</time></trkpt><trkpt lat="45.1576983" lon="8.0742219"><ele>171.0</ele><time>2026-03-29T14:38:08.064Z</time></trkpt><trkpt lat="45.1576617" lon="8.0743969"><ele>171.0</ele><time>2026-03-29T14:38:09.064Z</time></trkpt><trkpt lat="45.1576378" lon="8.0745686"><ele>171.0</ele><time>2026-03-29T14:38:10.064Z</time></trkpt><trkpt lat="45.1576034" lon="8.074754"><ele>171.0</ele><time>2026-03-29T14:38:11.064Z</time></trkpt><trkpt lat="45.1575574" lon="8.0749363"><ele>171.0</ele><time>2026-03-29T14:38:12.064Z</time></trkpt><trkpt lat="45.1574691" lon="8.0751858"><ele>172.33333333333334</ele><time>2026-03-29T14:38:13.064Z</time></trkpt><trkpt lat="45.1573963" lon="8.0754183"><ele>173.66666666666669</ele><time>2026-03-29T14:38:14.063Z</time></trkpt><trkpt lat="45.1573066" lon="8.0756625"><ele>175.0</ele><time>2026-03-29T14:38:15.064Z</time></trkpt><trkpt lat="45.1572262" lon="8.0759131"><ele>176.66666666666669</ele><time>2026-03-29T14:38:16.064Z</time></trkpt><trkpt lat="45.1571503" lon="8.0761581"><ele>178.33333333333334</ele><time>2026-03-29T14:38:17.064Z</time></trkpt><trkpt lat="45.1570627" lon="8.0763844"><ele>180.0</ele><time>2026-03-29T14:38:18.064Z</time></trkpt><trkpt lat="45.1569746" lon="8.0765909"><ele>182.0</ele><time>2026-03-29T14:38:19.064Z</time></trkpt><trkpt lat="45.1568707" lon="8.0767651"><ele>184.0</ele><time>2026-03-29T14:38:20.064Z</time></trkpt><trkpt lat="45.1567472" lon="8.0769407"><ele>186.0</ele><time>2026-03-29T14:38:21.063Z</time></trkpt><trkpt lat="45.1566002" lon="8.0771025"><ele>186.20000000000002</ele><time>2026-03-29T14:38:22.064Z</time></trkpt><trkpt lat="45.1565064" lon="8.0771998"><ele>186.4</ele><time>2026-03-29T14:38:23.064Z</time></trkpt><trkpt lat="45.1564378" lon="8.0772836"><ele>186.6</ele><time>2026-03-29T14:38:24.064Z</time></trkpt><trkpt lat="45.1563594" lon="8.07737"><ele>186.8</ele><time>2026-03-29T14:38:25.063Z</time></trkpt><trkpt lat="45.1563077" lon="8.0774848"><ele>187.0</ele><time>2026-03-29T14:38:26.064Z</time></trkpt><trkpt lat="45.1563335" lon="8.0776909"><ele>187.0</ele><time>2026-03-29T14:38:27.064Z</time></trkpt><trkpt lat="45.1563585" lon="8.0778902"><ele>187.0</ele><time>2026-03-29T14:38:28.064Z</time></trkpt><trkpt lat="45.1563833" lon="8.0781036"><ele>187.0</ele><time>2026-03-29T14:38:29.064Z</time></trkpt><trkpt lat="45.1563836" lon="8.0783219"><ele>187.0</ele><time>2026-03-29T14:38:30.064Z</time></trkpt><trkpt lat="45.1563697" lon="8.0785541"><ele>189.0</ele><time>2026-03-29T14:38:31.064Z</time></trkpt><trkpt lat="45.1563431" lon="8.0787671"><ele>191.0</ele><time>2026-03-29T14:38:32.064Z</time></trkpt><trkpt lat="45.1562571" lon="8.0789885"><ele>193.0</ele><time>2026-03-29T14:38:33.064Z</time></trkpt><trkpt lat="45.1561389" lon="8.0791747"><ele>194.66666666666666</ele><time>2026-03-29T14:38:34.064Z</time></trkpt><trkpt lat="45.1560147" lon="8.0793503"><ele>196.33333333333331</ele><time>2026-03-29T14:38:35.064Z</time></trkpt><trkpt lat="45.1558947" lon="8.0795412"><ele>198.0</ele><time>2026-03-29T14:38:36.064Z</time></trkpt><trkpt lat="45.1557943" lon="8.0797404"><ele>198.0</ele><time>2026-03-29T14:38:37.064Z</time></trkpt><trkpt lat="45.1556896" lon="8.0799308"><ele>198.0</ele><time>2026-03-29T14:38:38.064Z</time></trkpt><trkpt lat="45.1556003" lon="8.0801506"><ele>198.0</ele><time>2026-03-29T14:38:39.064Z</time></trkpt><trkpt lat="45.1555248" lon="8.0803778"><ele>198.0</ele><time>2026-03-29T14:38:40.064Z</time></trkpt><trkpt lat="45.1554552" lon="8.0805983"><ele>198.0</ele><time>2026-03-29T14:38:41.064Z</time></trkpt><trkpt lat="45.1553936" lon="8.0807805"><ele>198.0</ele><time>2026-03-29T14:38:42.064Z</time></trkpt><trkpt lat="45.1553245" lon="8.080961"><ele>199.33333333333334</ele><time>2026-03-29T14:38:43.064Z</time></trkpt><trkpt lat="45.1552973" lon="8.0810519"><ele>200.66666666666669</ele><time>2026-03-29T14:38:44.064Z</time></trkpt><trkpt lat="45.1552831" lon="8.0811584"><ele>202.0</ele><time>2026-03-29T14:38:45.064Z</time></trkpt><trkpt lat="45.1553006" lon="8.0812499"><ele>203.33333333333334</ele><time>2026-03-29T14:38:46.064Z</time></trkpt><trkpt lat="45.1554182" lon="8.0813369"><ele>204.66666666666669</ele><time>2026-03-29T14:38:48.063Z</time></trkpt><trkpt lat="45.1554899" lon="8.0812854"><ele>206.0</ele><time>2026-03-29T14:38:49.064Z</time></trkpt><trkpt lat="45.155578" lon="8.0811663"><ele>206.0</ele><time>2026-03-29T14:38:50.064Z</time></trkpt><trkpt lat="45.1556681" lon="8.0810394"><ele>206.0</ele><time>2026-03-29T14:38:51.064Z</time></trkpt><trkpt lat="45.1557701" lon="8.0808712"><ele>206.0</ele><time>2026-03-29T14:38:52.064Z</time></trkpt><trkpt lat="45.1558786" lon="8.0806946"><ele>206.0</ele><time>2026-03-29T14:38:53.064Z</time></trkpt><trkpt lat="45.1559462" lon="8.0805792"><ele>206.50000000000003</ele><time>2026-03-29T14:38:54.064Z</time></trkpt><trkpt lat="45.1560165" lon="8.0804882"><ele>207.0</ele><time>2026-03-29T14:38:55.064Z</time></trkpt><trkpt lat="45.1560862" lon="8.0804162"><ele>207.5</ele><time>2026-03-29T14:38:56.064Z</time></trkpt><trkpt lat="45.156147" lon="8.0803807"><ele>208.0</ele><time>2026-03-29T14:38:57.063Z</time></trkpt><trkpt lat="45.1562128" lon="8.0804148"><ele>208.50000000000003</ele><time>2026-03-29T14:38:58.064Z</time></trkpt><trkpt lat="45.1562474" lon="8.0804946"><ele>209.0</ele><time>2026-03-29T14:38:59.064Z</time></trkpt><trkpt lat="45.1562391" lon="8.0806074"><ele>209.0</ele><time>2026-03-29T14:39:00.064Z</time></trkpt><trkpt lat="45.1562223" lon="8.0807271"><ele>209.0</ele><time>2026-03-29T14:39:01.064Z</time></trkpt><trkpt lat="45.1561793" lon="8.0808885"><ele>209.0</ele><time>2026-03-29T14:39:02.064Z</time></trkpt><trkpt lat="45.1561436" lon="8.0810906"><ele>209.0</ele><time>2026-03-29T14:39:03.064Z</time></trkpt><trkpt lat="45.1560967" lon="8.0812822"><ele>211.75</ele><time>2026-03-29T14:39:04.064Z</time></trkpt><trkpt lat="45.1560478" lon="8.0814723"><ele>214.5</ele><time>2026-03-29T14:39:05.064Z</time></trkpt><trkpt lat="45.1560008" lon="8.0816815"><ele>217.25</ele><time>2026-03-29T14:39:06.064Z</time></trkpt><trkpt lat="45.1559733" lon="8.0818784"><ele>220.0</ele><time>2026-03-29T14:39:07.064Z</time></trkpt><trkpt lat="45.1559461" lon="8.0820501"><ele>221.5</ele><time>2026-03-29T14:39:08.064Z</time></trkpt><trkpt lat="45.1559146" lon="8.082208"><ele>223.0</ele><time>2026-03-29T14:39:09.064Z</time></trkpt><trkpt lat="45.1558618" lon="8.0823584"><ele>224.5</ele><time>2026-03-29T14:39:10.063Z</time></trkpt><trkpt lat="45.1557736" lon="8.0824963"><ele>226.0</ele><time>2026-03-29T14:39:11.064Z</time></trkpt><trkpt lat="45.1556867" lon="8.0826266"><ele>226.0</ele><time>2026-03-29T14:39:12.064Z</time></trkpt><trkpt lat="45.1556092" lon="8.0827665"><ele>226.0</ele><time>2026-03-29T14:39:13.064Z</time></trkpt><trkpt lat="45.1555384" lon="8.0829148"><ele>226.0</ele><time>2026-03-29T14:39:14.064Z</time></trkpt><trkpt lat="45.1554838" lon="8.0830567"><ele>226.0</ele><time>2026-03-29T14:39:15.064Z</time></trkpt><trkpt lat="45.155417" lon="8.083188"><ele>229.0</ele><time>2026-03-29T14:39:16.064Z</time></trkpt><trkpt lat="45.1553811" lon="8.0833065"><ele>232.00000000000003</ele><time>2026-03-29T14:39:17.064Z</time></trkpt><trkpt lat="45.1554169" lon="8.0834196"><ele>235.00000000000003</ele><time>2026-03-29T14:39:18.064Z</time></trkpt><trkpt lat="45.1554317" lon="8.0835396"><ele>238.0</ele><time>2026-03-29T14:39:19.064Z</time></trkpt><trkpt lat="45.1555186" lon="8.0836713"><ele>241.0</ele><time>2026-03-29T14:39:20.064Z</time></trkpt><trkpt lat="45.1556016" lon="8.0838066"><ele>241.0</ele><time>2026-03-29T14:39:21.064Z</time></trkpt><trkpt lat="45.1556405" lon="8.0839401"><ele>241.00000000000003</ele><time>2026-03-29T14:39:22.064Z</time></trkpt><trkpt lat="45.1556968" lon="8.084062"><ele>241.00000000000003</ele><time>2026-03-29T14:39:23.064Z</time></trkpt><trkpt lat="45.1557223" lon="8.0842126"><ele>241.0</ele><time>2026-03-29T14:39:24.064Z</time></trkpt><trkpt lat="45.1557214" lon="8.0843665"><ele>241.0</ele><time>2026-03-29T14:39:25.064Z</time></trkpt><trkpt lat="45.1557004" lon="8.0845461"><ele>244.0</ele><time>2026-03-29T14:39:26.064Z</time></trkpt><trkpt lat="45.1556449" lon="8.0847265"><ele>247.0</ele><time>2026-03-29T14:39:27.064Z</time></trkpt><trkpt lat="45.1555757" lon="8.0849164"><ele>250.0</ele><time>2026-03-29T14:39:28.064Z</time></trkpt><trkpt lat="45.155487" lon="8.0851195"><ele>251.0</ele><time>2026-03-29T14:39:29.064Z</time></trkpt><trkpt lat="45.1554063" lon="8.0853331"><ele>252.0</ele><time>2026-03-29T14:39:30.064Z</time></trkpt><trkpt lat="45.1553113" lon="8.0855422"><ele>253.0</ele><time>2026-03-29T14:39:31.064Z</time></trkpt><trkpt lat="45.1552686" lon="8.085744"><ele>255.0</ele><time>2026-03-29T14:39:32.064Z</time></trkpt><trkpt lat="45.155254" lon="8.0859648"><ele>257.0</ele><time>2026-03-29T14:39:33.064Z</time></trkpt><trkpt lat="45.155235" lon="8.0861896"><ele>259.0</ele><time>2026-03-29T14:39:34.064Z</time></trkpt><trkpt lat="45.1552363" lon="8.086426"><ele>258.75</ele><time>2026-03-29T14:39:35.064Z</time></trkpt><trkpt lat="45.155229" lon="8.0866208"><ele>258.5</ele><time>2026-03-29T14:39:36.064Z</time></trkpt><trkpt lat="45.155231" lon="8.0868396"><ele>258.25</ele><time>2026-03-29T14:39:37.064Z</time></trkpt><trkpt lat="45.1552412" lon="8.0870418"><ele>258.0</ele><time>2026-03-29T14:39:38.064Z</time></trkpt><trkpt lat="45.1552145" lon="8.0872258"><ele>258.0</ele><time>2026-03-29T14:39:39.064Z</time></trkpt><trkpt lat="45.155168" lon="8.0873951"><ele>258.0</ele><time>2026-03-29T14:39:40.064Z</time></trkpt><trkpt lat="45.1550855" lon="8.0875283"><ele>258.0</ele><time>2026-03-29T14:39:41.064Z</time></trkpt><trkpt lat="45.1550045" lon="8.0876643"><ele>258.0</ele><time>2026-03-29T14:39:42.064Z</time></trkpt><trkpt lat="45.1549168" lon="8.0877744"><ele>261.0</ele><time>2026-03-29T14:39:43.064Z</time></trkpt><trkpt lat="45.1548531" lon="8.0879038"><ele>264.0</ele><time>2026-03-29T14:39:44.063Z</time></trkpt><trkpt lat="45.1547963" lon="8.0880349"><ele>267.0</ele><time>2026-03-29T14:39:45.064Z</time></trkpt><trkpt lat="45.154753" lon="8.0881748"><ele>270.0</ele><time>2026-03-29T14:39:46.064Z</time></trkpt><trkpt lat="45.1547574" lon="8.0883502"><ele>270.0</ele><time>2026-03-29T14:39:47.064Z</time></trkpt><trkpt lat="45.1548013" lon="8.0885233"><ele>270.0</ele><time>2026-03-29T14:39:48.064Z</time></trkpt><trkpt lat="45.154886" lon="8.0887083"><ele>270.0</ele><time>2026-03-29T14:39:49.064Z</time></trkpt><trkpt lat="45.1550251" lon="8.0889194"><ele>269.6666666666667</ele><time>2026-03-29T14:39:50.064Z</time></trkpt><trkpt lat="45.1551356" lon="8.0891404"><ele>269.33333333333337</ele><time>2026-03-29T14:39:51.064Z</time></trkpt><trkpt lat="45.1552313" lon="8.0893476"><ele>269.0</ele><time>2026-03-29T14:39:52.064Z</time></trkpt><trkpt lat="45.1553244" lon="8.089548"><ele>269.0</ele><time>2026-03-29T14:39:53.064Z</time></trkpt><trkpt lat="45.1554341" lon="8.08974"><ele>269.0</ele><time>2026-03-29T14:39:54.064Z</time></trkpt><trkpt lat="45.1555533" lon="8.0899047"><ele>269.0</ele><time>2026-03-29T14:39:55.064Z</time></trkpt><trkpt lat="45.1556785" lon="8.0900511"><ele>269.6666666666667</ele><time>2026-03-29T14:39:56.064Z</time></trkpt><trkpt lat="45.1557994" lon="8.0901938"><ele>270.3333333333333</ele><time>2026-03-29T14:39:57.064Z</time></trkpt><trkpt lat="45.1559143" lon="8.0903555"><ele>271.0</ele><time>2026-03-29T14:39:58.064Z</time></trkpt><trkpt lat="45.1560265" lon="8.0905407"><ele>271.0</ele><time>2026-03-29T14:39:59.064Z</time></trkpt><trkpt lat="45.1561388" lon="8.0907287"><ele>271.0</ele><time>2026-03-29T14:40:00.064Z</time></trkpt><trkpt lat="45.1562443" lon="8.0909223"><ele>271.0</ele><time>2026-03-29T14:40:01.064Z</time></trkpt><trkpt lat="45.1563502" lon="8.091112"><ele>269.66666666666663</ele><time>2026-03-29T14:40:02.064Z</time></trkpt><trkpt lat="45.156452" lon="8.0912984"><ele>268.3333333333333</ele><time>2026-03-29T14:40:03.064Z</time></trkpt><trkpt lat="45.1565508" lon="8.0914704"><ele>267.0</ele><time>2026-03-29T14:40:04.064Z</time></trkpt><trkpt lat="45.1566407" lon="8.0916615"><ele>269.75</ele><time>2026-03-29T14:40:05.064Z</time></trkpt><trkpt lat="45.1567033" lon="8.0918609"><ele>272.5</ele><time>2026-03-29T14:40:06.064Z</time></trkpt><trkpt lat="45.1567642" lon="8.0920612"><ele>275.25</ele><time>2026-03-29T14:40:07.064Z</time></trkpt><trkpt lat="45.1568115" lon="8.0922027"><ele>278.0</ele><time>2026-03-29T14:40:08.064Z</time></trkpt><trkpt lat="45.1568828" lon="8.0923601"><ele>280.5</ele><time>2026-03-29T14:40:09.064Z</time></trkpt><trkpt lat="45.156962" lon="8.0925239"><ele>283.0</ele><time>2026-03-29T14:40:10.064Z</time></trkpt><trkpt lat="45.1570332" lon="8.0926706"><ele>285.5</ele><time>2026-03-29T14:40:11.064Z</time></trkpt><trkpt lat="45.1570933" lon="8.092797"><ele>288.0</ele><time>2026-03-29T14:40:12.064Z</time></trkpt><trkpt lat="45.1571499" lon="8.0929154"><ele>288.0</ele><time>2026-03-29T14:40:13.064Z</time></trkpt><trkpt lat="45.1571878" lon="8.0930176"><ele>288.0</ele><time>2026-03-29T14:40:14.064Z</time></trkpt><trkpt lat="45.1572064" lon="8.093116"><ele>288.0</ele><time>2026-03-29T14:40:15.064Z</time></trkpt><trkpt lat="45.157173" lon="8.0932545"><ele>288.0</ele><time>2026-03-29T14:40:17.064Z</time></trkpt><trkpt lat="45.1571218" lon="8.0933607"><ele>288.0</ele><time>2026-03-29T14:40:19.064Z</time></trkpt><trkpt lat="45.1570631" lon="8.0934013"><ele>288.0</ele><time>2026-03-29T14:40:20.064Z</time></trkpt><trkpt lat="45.1568999" lon="8.0934498"><ele>288.25</ele><time>2026-03-29T14:40:22.064Z</time></trkpt><trkpt lat="45.1567962" lon="8.0934614"><ele>288.5</ele><time>2026-03-29T14:40:23.064Z</time></trkpt><trkpt lat="45.156683" lon="8.0934641"><ele>288.75</ele><time>2026-03-29T14:40:24.064Z</time></trkpt><trkpt lat="45.1565502" lon="8.0934804"><ele>289.0</ele><time>2026-03-29T14:40:25.064Z</time></trkpt><trkpt lat="45.1564126" lon="8.093495"><ele>290.0</ele><time>2026-03-29T14:40:26.064Z</time></trkpt><trkpt lat="45.1562859" lon="8.0935149"><ele>291.0</ele><time>2026-03-29T14:40:27.064Z</time></trkpt><trkpt lat="45.1561409" lon="8.0935411"><ele>292.0</ele><time>2026-03-29T14:40:28.064Z</time></trkpt><trkpt lat="45.1560027" lon="8.0935642"><ele>293.0</ele><time>2026-03-29T14:40:29.064Z</time></trkpt><trkpt lat="45.1558625" lon="8.0935807"><ele>293.0</ele><time>2026-03-29T14:40:30.064Z</time></trkpt><trkpt lat="45.1557269" lon="8.0936013"><ele>293.0</ele><time>2026-03-29T14:40:31.064Z</time></trkpt><trkpt lat="45.1555807" lon="8.0936253"><ele>293.0</ele><time>2026-03-29T14:40:32.063Z</time></trkpt><trkpt lat="45.1554614" lon="8.093642"><ele>293.0</ele><time>2026-03-29T14:40:33.064Z</time></trkpt><trkpt lat="45.15537" lon="8.0936635"><ele>293.8</ele><time>2026-03-29T14:40:34.064Z</time></trkpt><trkpt lat="45.1552746" lon="8.0936753"><ele>294.6</ele><time>2026-03-29T14:40:35.064Z</time></trkpt><trkpt lat="45.1551836" lon="8.0937164"><ele>295.4</ele><time>2026-03-29T14:40:36.064Z</time></trkpt><trkpt lat="45.1551176" lon="8.0937687"><ele>296.2</ele><time>2026-03-29T14:40:37.064Z</time></trkpt><trkpt lat="45.1550562" lon="8.0938303"><ele>297.0</ele><time>2026-03-29T14:40:38.064Z</time></trkpt><trkpt lat="45.1549864" lon="8.0939812"><ele>297.0</ele><time>2026-03-29T14:40:39.064Z</time></trkpt><trkpt lat="45.1549612" lon="8.094186"><ele>297.0</ele><time>2026-03-29T14:40:40.064Z</time></trkpt><trkpt lat="45.1549251" lon="8.094392"><ele>297.0</ele><time>2026-03-29T14:40:41.064Z</time></trkpt><trkpt lat="45.1548754" lon="8.0945974"><ele>297.0</ele><time>2026-03-29T14:40:42.064Z</time></trkpt><trkpt lat="45.1548117" lon="8.0948292"><ele>295.6666666666667</ele><time>2026-03-29T14:40:43.064Z</time></trkpt><trkpt lat="45.154765" lon="8.0950897"><ele>294.33333333333337</ele><time>2026-03-29T14:40:44.063Z</time></trkpt><trkpt lat="45.154694" lon="8.0953122"><ele>293.0</ele><time>2026-03-29T14:40:45.064Z</time></trkpt><trkpt lat="45.1546145" lon="8.0955402"><ele>293.0</ele><time>2026-03-29T14:40:46.064Z</time></trkpt><trkpt lat="45.1545527" lon="8.0957469"><ele>293.0</ele><time>2026-03-29T14:40:47.064Z</time></trkpt><trkpt lat="45.1545279" lon="8.09599"><ele>293.0</ele><time>2026-03-29T14:40:48.064Z</time></trkpt><trkpt lat="45.1544915" lon="8.0962167"><ele>291.5</ele><time>2026-03-29T14:40:49.064Z</time></trkpt><trkpt lat="45.1544846" lon="8.0964228"><ele>290.0</ele><time>2026-03-29T14:40:50.064Z</time></trkpt><trkpt lat="45.1544828" lon="8.0966574"><ele>288.5</ele><time>2026-03-29T14:40:51.064Z</time></trkpt><trkpt lat="45.1544668" lon="8.0968503"><ele>287.0</ele><time>2026-03-29T14:40:52.064Z</time></trkpt><trkpt lat="45.1544311" lon="8.0970467"><ele>286.33333333333337</ele><time>2026-03-29T14:40:53.064Z</time></trkpt><trkpt lat="45.1543946" lon="8.0972382"><ele>285.6666666666667</ele><time>2026-03-29T14:40:54.064Z</time></trkpt><trkpt lat="45.1542914" lon="8.0974346"><ele>285.0</ele><time>2026-03-29T14:40:55.064Z</time></trkpt><trkpt lat="45.1541906" lon="8.0976364"><ele>285.0</ele><time>2026-03-29T14:40:56.063Z</time></trkpt><trkpt lat="45.1540889" lon="8.0978509"><ele>285.0</ele><time>2026-03-29T14:40:57.064Z</time></trkpt><trkpt lat="45.1539946" lon="8.0980835"><ele>285.0</ele><time>2026-03-29T14:40:58.064Z</time></trkpt><trkpt lat="45.1538892" lon="8.0983193"><ele>285.0</ele><time>2026-03-29T14:40:59.064Z</time></trkpt><trkpt lat="45.1537877" lon="8.0985453"><ele>285.0</ele><time>2026-03-29T14:41:00.064Z</time></trkpt><trkpt lat="45.1536795" lon="8.098782"><ele>285.0</ele><time>2026-03-29T14:41:01.064Z</time></trkpt><trkpt lat="45.1535678" lon="8.0989864"><ele>283.6666666666667</ele><time>2026-03-29T14:41:02.064Z</time></trkpt><trkpt lat="45.1534688" lon="8.0991869"><ele>282.33333333333337</ele><time>2026-03-29T14:41:03.064Z</time></trkpt><trkpt lat="45.1533773" lon="8.0993756"><ele>281.0</ele><time>2026-03-29T14:41:04.064Z</time></trkpt><trkpt lat="45.1532928" lon="8.0995659"><ele>281.0</ele><time>2026-03-29T14:41:05.064Z</time></trkpt><trkpt lat="45.1532276" lon="8.0997709"><ele>281.0</ele><time>2026-03-29T14:41:06.064Z</time></trkpt><trkpt lat="45.1531749" lon="8.0999456"><ele>281.0</ele><time>2026-03-29T14:41:07.064Z</time></trkpt><trkpt lat="45.1531354" lon="8.1001202"><ele>281.0</ele><time>2026-03-29T14:41:08.064Z</time></trkpt><trkpt lat="45.1531202" lon="8.1002931"><ele>278.75</ele><time>2026-03-29T14:41:09.064Z</time></trkpt><trkpt lat="45.1531646" lon="8.1004892"><ele>276.5</ele><time>2026-03-29T14:41:10.064Z</time></trkpt><trkpt lat="45.1531905" lon="8.1006654"><ele>274.25</ele><time>2026-03-29T14:41:11.064Z</time></trkpt><trkpt lat="45.1531808" lon="8.1008311"><ele>272.0</ele><time>2026-03-29T14:41:12.064Z</time></trkpt><trkpt lat="45.1531602" lon="8.1010063"><ele>270.0</ele><time>2026-03-29T14:41:13.064Z</time></trkpt><trkpt lat="45.153097" lon="8.1011568"><ele>268.0</ele><time>2026-03-29T14:41:14.063Z</time></trkpt><trkpt lat="45.1530583" lon="8.1013237"><ele>266.0</ele><time>2026-03-29T14:41:15.064Z</time></trkpt><trkpt lat="45.153035" lon="8.1015201"><ele>264.0</ele><time>2026-03-29T14:41:16.064Z</time></trkpt><trkpt lat="45.1530283" lon="8.1017383"><ele>262.25</ele><time>2026-03-29T14:41:17.064Z</time></trkpt><trkpt lat="45.1530263" lon="8.1019524"><ele>260.5</ele><time>2026-03-29T14:41:18.064Z</time></trkpt><trkpt lat="45.1530284" lon="8.1021643"><ele>258.75</ele><time>2026-03-29T14:41:19.064Z</time></trkpt><trkpt lat="45.1530593" lon="8.1023686"><ele>257.0</ele><time>2026-03-29T14:41:20.064Z</time></trkpt><trkpt lat="45.1531076" lon="8.102581"><ele>257.0</ele><time>2026-03-29T14:41:21.064Z</time></trkpt><trkpt lat="45.1531783" lon="8.1027797"><ele>257.0</ele><time>2026-03-29T14:41:22.064Z</time></trkpt><trkpt lat="45.1532471" lon="8.1029671"><ele>257.0</ele><time>2026-03-29T14:41:23.064Z</time></trkpt><trkpt lat="45.1533227" lon="8.1031235"><ele>257.0</ele><time>2026-03-29T14:41:24.064Z</time></trkpt><trkpt lat="45.1534047" lon="8.103257"><ele>257.0</ele><time>2026-03-29T14:41:25.064Z</time></trkpt><trkpt lat="45.1534158" lon="8.103361"><ele>257.0</ele><time>2026-03-29T14:41:26.064Z</time></trkpt><trkpt lat="45.1534157" lon="8.1034701"><ele>257.0</ele><time>2026-03-29T14:41:27.063Z</time></trkpt><trkpt lat="45.1533565" lon="8.1035764"><ele>257.0</ele><time>2026-03-29T14:41:29.064Z</time></trkpt><trkpt lat="45.1532545" lon="8.1035177"><ele>257.0</ele><time>2026-03-29T14:41:30.064Z</time></trkpt><trkpt lat="45.1531698" lon="8.103456"><ele>255.75</ele><time>2026-03-29T14:41:31.064Z</time></trkpt><trkpt lat="45.1530817" lon="8.1033618"><ele>254.5</ele><time>2026-03-29T14:41:32.064Z</time></trkpt><trkpt lat="45.1529793" lon="8.1032588"><ele>253.25</ele><time>2026-03-29T14:41:33.064Z</time></trkpt><trkpt lat="45.1528836" lon="8.1031608"><ele>252.0</ele><time>2026-03-29T14:41:34.064Z</time></trkpt><trkpt lat="45.1527996" lon="8.1030646"><ele>252.0</ele><time>2026-03-29T14:41:35.064Z</time></trkpt><trkpt lat="45.1527052" lon="8.1029576"><ele>252.0</ele><time>2026-03-29T14:41:36.064Z</time></trkpt><trkpt lat="45.1526184" lon="8.1028942"><ele>252.0</ele><time>2026-03-29T14:41:38.064Z</time></trkpt><trkpt lat="45.1525695" lon="8.1029579"><ele>252.0</ele><time>2026-03-29T14:41:39.064Z</time></trkpt><trkpt lat="45.1525346" lon="8.1030514"><ele>252.0</ele><time>2026-03-29T14:41:40.064Z</time></trkpt><trkpt lat="45.1525032" lon="8.1031397"><ele>252.0</ele><time>2026-03-29T14:41:41.064Z</time></trkpt><trkpt lat="45.1524836" lon="8.1032528"><ele>249.75</ele><time>2026-03-29T14:41:42.064Z</time></trkpt><trkpt lat="45.1524937" lon="8.1034328"><ele>247.5</ele><time>2026-03-29T14:41:43.063Z</time></trkpt><trkpt lat="45.152494" lon="8.1035832"><ele>245.25</ele><time>2026-03-29T14:41:44.063Z</time></trkpt><trkpt lat="45.1525829" lon="8.10383"><ele>243.0</ele><time>2026-03-29T14:41:45.064Z</time></trkpt><trkpt lat="45.1526559" lon="8.10404"><ele>239.0</ele><time>2026-03-29T14:41:46.064Z</time></trkpt><trkpt lat="45.1527736" lon="8.1042602"><ele>235.0</ele><time>2026-03-29T14:41:47.064Z</time></trkpt><trkpt lat="45.1528617" lon="8.1044956"><ele>231.0</ele><time>2026-03-29T14:41:48.064Z</time></trkpt><trkpt lat="45.1529522" lon="8.1047109"><ele>231.0</ele><time>2026-03-29T14:41:49.064Z</time></trkpt><trkpt lat="45.1530439" lon="8.1049122"><ele>231.0</ele><time>2026-03-29T14:41:50.064Z</time></trkpt><trkpt lat="45.153113" lon="8.1050652"><ele>231.0</ele><time>2026-03-29T14:41:51.064Z</time></trkpt><trkpt lat="45.1531917" lon="8.1052143"><ele>231.0</ele><time>2026-03-29T14:41:52.064Z</time></trkpt><trkpt lat="45.153299" lon="8.1053174"><ele>231.75</ele><time>2026-03-29T14:41:53.064Z</time></trkpt><trkpt lat="45.153396" lon="8.1054072"><ele>232.5</ele><time>2026-03-29T14:41:54.064Z</time></trkpt><trkpt lat="45.1535078" lon="8.1054578"><ele>233.25</ele><time>2026-03-29T14:41:55.064Z</time></trkpt><trkpt lat="45.1536125" lon="8.105556"><ele>234.0</ele><time>2026-03-29T14:41:56.064Z</time></trkpt><trkpt lat="45.1536826" lon="8.1056882"><ele>232.0</ele><time>2026-03-29T14:41:57.064Z</time></trkpt><trkpt lat="45.1537858" lon="8.1057812"><ele>230.0</ele><time>2026-03-29T14:41:58.064Z</time></trkpt><trkpt lat="45.1538029" lon="8.1060073"><ele>228.0</ele><time>2026-03-29T14:41:59.064Z</time></trkpt><trkpt lat="45.1538253" lon="8.1062102"><ele>226.0</ele><time>2026-03-29T14:42:00.064Z</time></trkpt><trkpt lat="45.1538627" lon="8.106407"><ele>222.75</ele><time>2026-03-29T14:42:01.064Z</time></trkpt><trkpt lat="45.1538794" lon="8.1066038"><ele>219.5</ele><time>2026-03-29T14:42:02.064Z</time></trkpt><trkpt lat="45.1539039" lon="8.1067986"><ele>216.25</ele><time>2026-03-29T14:42:03.063Z</time></trkpt><trkpt lat="45.1539404" lon="8.1069653"><ele>213.0</ele><time>2026-03-29T14:42:04.064Z</time></trkpt><trkpt lat="45.1539892" lon="8.1070834"><ele>213.0</ele><time>2026-03-29T14:42:05.064Z</time></trkpt><trkpt lat="45.154008" lon="8.1072395"><ele>213.0</ele><time>2026-03-29T14:42:06.064Z</time></trkpt><trkpt lat="45.1540694" lon="8.1073856"><ele>213.0</ele><time>2026-03-29T14:42:07.064Z</time></trkpt><trkpt lat="45.15414" lon="8.1075252"><ele>213.0</ele><time>2026-03-29T14:42:08.064Z</time></trkpt><trkpt lat="45.1542092" lon="8.1076498"><ele>215.2</ele><time>2026-03-29T14:42:09.064Z</time></trkpt><trkpt lat="45.1542781" lon="8.1077639"><ele>217.4</ele><time>2026-03-29T14:42:10.064Z</time></trkpt><trkpt lat="45.1543535" lon="8.1078481"><ele>219.59999999999997</ele><time>2026-03-29T14:42:11.064Z</time></trkpt><trkpt lat="45.1544406" lon="8.1078983"><ele>221.79999999999998</ele><time>2026-03-29T14:42:12.064Z</time></trkpt><trkpt lat="45.1545377" lon="8.1079095"><ele>224.0</ele><time>2026-03-29T14:42:13.064Z</time></trkpt><trkpt lat="45.1546148" lon="8.1078936"><ele>224.0</ele><time>2026-03-29T14:42:14.064Z</time></trkpt><trkpt lat="45.1547634" lon="8.10782"><ele>224.0</ele><time>2026-03-29T14:42:15.064Z</time></trkpt><trkpt lat="45.1548901" lon="8.1077516"><ele>224.0</ele><time>2026-03-29T14:42:16.064Z</time></trkpt><trkpt lat="45.1549963" lon="8.1076739"><ele>224.0</ele><time>2026-03-29T14:42:17.064Z</time></trkpt><trkpt lat="45.1550961" lon="8.1075794"><ele>224.5</ele><time>2026-03-29T14:42:18.064Z</time></trkpt><trkpt lat="45.155229" lon="8.1075295"><ele>225.0</ele><time>2026-03-29T14:42:19.064Z</time></trkpt><trkpt lat="45.1553318" lon="8.107478"><ele>225.5</ele><time>2026-03-29T14:42:20.064Z</time></trkpt><trkpt lat="45.155433" lon="8.1074518"><ele>226.0</ele><time>2026-03-29T14:42:21.064Z</time></trkpt><trkpt lat="45.1555586" lon="8.1074783"><ele>226.0</ele><time>2026-03-29T14:42:23.064Z</time></trkpt><trkpt lat="45.1556299" lon="8.1075318"><ele>226.00000000000003</ele><time>2026-03-29T14:42:24.064Z</time></trkpt><trkpt lat="45.1556038" lon="8.1076675"><ele>226.00000000000003</ele><time>2026-03-29T14:42:25.064Z</time></trkpt><trkpt lat="45.1555579" lon="8.1078016"><ele>226.0</ele><time>2026-03-29T14:42:26.064Z</time></trkpt><trkpt lat="45.1555307" lon="8.1079456"><ele>226.0</ele><time>2026-03-29T14:42:27.064Z</time></trkpt><trkpt lat="45.155354" lon="8.1081358"><ele>221.0</ele><time>2026-03-29T14:42:28.063Z</time></trkpt><trkpt lat="45.1552482" lon="8.108313"><ele>216.0</ele><time>2026-03-29T14:42:29.064Z</time></trkpt><trkpt lat="45.155147" lon="8.1084463"><ele>211.0</ele><time>2026-03-29T14:42:30.064Z</time></trkpt><trkpt lat="45.1550494" lon="8.1085603"><ele>206.0</ele><time>2026-03-29T14:42:31.064Z</time></trkpt><trkpt lat="45.1549463" lon="8.1086683"><ele>205.5</ele><time>2026-03-29T14:42:32.064Z</time></trkpt><trkpt lat="45.1548217" lon="8.108719"><ele>205.0</ele><time>2026-03-29T14:42:33.064Z</time></trkpt><trkpt lat="45.154673" lon="8.1086847"><ele>204.5</ele><time>2026-03-29T14:42:34.064Z</time></trkpt><trkpt lat="45.1545408" lon="8.1086603"><ele>204.0</ele><time>2026-03-29T14:42:35.064Z</time></trkpt><trkpt lat="45.1543901" lon="8.1086462"><ele>204.0</ele><time>2026-03-29T14:42:36.064Z</time></trkpt><trkpt lat="45.1542468" lon="8.1086262"><ele>204.0</ele><time>2026-03-29T14:42:37.064Z</time></trkpt><trkpt lat="45.1541126" lon="8.1085916"><ele>204.0</ele><time>2026-03-29T14:42:38.064Z</time></trkpt><trkpt lat="45.1539919" lon="8.1085733"><ele>204.0</ele><time>2026-03-29T14:42:39.064Z</time></trkpt><trkpt lat="45.1539158" lon="8.1085683"><ele>201.79999999999998</ele><time>2026-03-29T14:42:40.064Z</time></trkpt><trkpt lat="45.1538107" lon="8.1085745"><ele>199.6</ele><time>2026-03-29T14:42:41.064Z</time></trkpt><trkpt lat="45.1537215" lon="8.1086371"><ele>197.4</ele><time>2026-03-29T14:42:42.064Z</time></trkpt><trkpt lat="45.1536513" lon="8.1087061"><ele>195.2</ele><time>2026-03-29T14:42:43.064Z</time></trkpt><trkpt lat="45.1535889" lon="8.1087656"><ele>193.0</ele><time>2026-03-29T14:42:44.064Z</time></trkpt><trkpt lat="45.1535463" lon="8.1088891"><ele>193.0</ele><time>2026-03-29T14:42:45.064Z</time></trkpt><trkpt lat="45.1535015" lon="8.1089768"><ele>193.0</ele><time>2026-03-29T14:42:46.064Z</time></trkpt><trkpt lat="45.1534995" lon="8.1091115"><ele>193.0</ele><time>2026-03-29T14:42:47.064Z</time></trkpt><trkpt lat="45.1535117" lon="8.1092736"><ele>193.0</ele><time>2026-03-29T14:42:48.064Z</time></trkpt><trkpt lat="45.1535497" lon="8.1094463"><ele>193.0</ele><time>2026-03-29T14:42:49.064Z</time></trkpt><trkpt lat="45.1535571" lon="8.1096224"><ele>193.33333333333331</ele><time>2026-03-29T14:42:50.064Z</time></trkpt><trkpt lat="45.1536318" lon="8.1097865"><ele>193.66666666666669</ele><time>2026-03-29T14:42:51.064Z</time></trkpt><trkpt lat="45.1537124" lon="8.1099748"><ele>194.0</ele><time>2026-03-29T14:42:52.064Z</time></trkpt><trkpt lat="45.1537828" lon="8.1101735"><ele>195.25</ele><time>2026-03-29T14:42:53.064Z</time></trkpt><trkpt lat="45.1538668" lon="8.1103457"><ele>196.5</ele><time>2026-03-29T14:42:54.064Z</time></trkpt><trkpt lat="45.1539554" lon="8.1104985"><ele>197.75</ele><time>2026-03-29T14:42:55.064Z</time></trkpt><trkpt lat="45.1540296" lon="8.1106715"><ele>199.0</ele><time>2026-03-29T14:42:56.064Z</time></trkpt><trkpt lat="45.1540839" lon="8.110817"><ele>199.0</ele><time>2026-03-29T14:42:57.064Z</time></trkpt><trkpt lat="45.1541075" lon="8.1109802"><ele>199.0</ele><time>2026-03-29T14:42:58.064Z</time></trkpt><trkpt lat="45.1541128" lon="8.1111513"><ele>199.0</ele><time>2026-03-29T14:42:59.064Z</time></trkpt><trkpt lat="45.1541022" lon="8.1113494"><ele>199.0</ele><time>2026-03-29T14:43:00.064Z</time></trkpt><trkpt lat="45.1540796" lon="8.1115509"><ele>200.75</ele><time>2026-03-29T14:43:01.064Z</time></trkpt><trkpt lat="45.1540854" lon="8.111734"><ele>202.5</ele><time>2026-03-29T14:43:02.064Z</time></trkpt><trkpt lat="45.1540875" lon="8.1119311"><ele>204.25</ele><time>2026-03-29T14:43:03.063Z</time></trkpt><trkpt lat="45.1541281" lon="8.1121282"><ele>206.0</ele><time>2026-03-29T14:43:04.064Z</time></trkpt><trkpt lat="45.1542498" lon="8.1122725"><ele>206.0</ele><time>2026-03-29T14:43:05.064Z</time></trkpt><trkpt lat="45.1543718" lon="8.1123945"><ele>206.0</ele><time>2026-03-29T14:43:06.064Z</time></trkpt><trkpt lat="45.1544856" lon="8.1125094"><ele>206.0</ele><time>2026-03-29T14:43:07.064Z</time></trkpt><trkpt lat="45.1546304" lon="8.1125689"><ele>206.0</ele><time>2026-03-29T14:43:08.064Z</time></trkpt><trkpt lat="45.1547866" lon="8.1126351"><ele>207.25</ele><time>2026-03-29T14:43:09.064Z</time></trkpt><trkpt lat="45.1549209" lon="8.1127255"><ele>208.5</ele><time>2026-03-29T14:43:10.064Z</time></trkpt><trkpt lat="45.1550631" lon="8.1127886"><ele>209.75</ele><time>2026-03-29T14:43:11.064Z</time></trkpt><trkpt lat="45.155199" lon="8.112819"><ele>211.0</ele><time>2026-03-29T14:43:12.064Z</time></trkpt><trkpt lat="45.1553773" lon="8.112841"><ele>211.0</ele><time>2026-03-29T14:43:13.064Z</time></trkpt><trkpt lat="45.1555346" lon="8.1128769"><ele>211.0</ele><time>2026-03-29T14:43:14.064Z</time></trkpt><trkpt lat="45.155684" lon="8.1129102"><ele>211.0</ele><time>2026-03-29T14:43:15.064Z</time></trkpt><trkpt lat="45.1558223" lon="8.1129479"><ele>210.20000000000002</ele><time>2026-03-29T14:43:16.064Z</time></trkpt><trkpt lat="45.1559496" lon="8.112966"><ele>209.4</ele><time>2026-03-29T14:43:17.064Z</time></trkpt><trkpt lat="45.1560653" lon="8.1129907"><ele>208.6</ele><time>2026-03-29T14:43:18.064Z</time></trkpt><trkpt lat="45.1561484" lon="8.1130826"><ele>207.8</ele><time>2026-03-29T14:43:20.064Z</time></trkpt><trkpt lat="45.1561181" lon="8.1132159"><ele>207.0</ele><time>2026-03-29T14:43:22.064Z</time></trkpt><trkpt lat="45.1560545" lon="8.1132472"><ele>211.25</ele><time>2026-03-29T14:43:23.063Z</time></trkpt><trkpt lat="45.1559827" lon="8.1132861"><ele>215.5</ele><time>2026-03-29T14:43:24.064Z</time></trkpt><trkpt lat="45.1557923" lon="8.1133136"><ele>219.75</ele><time>2026-03-29T14:43:25.064Z</time></trkpt><trkpt lat="45.1556363" lon="8.113346"><ele>224.0</ele><time>2026-03-29T14:43:26.064Z</time></trkpt><trkpt lat="45.1554889" lon="8.1133657"><ele>224.33333333333334</ele><time>2026-03-29T14:43:27.064Z</time></trkpt><trkpt lat="45.155313" lon="8.1134158"><ele>224.66666666666669</ele><time>2026-03-29T14:43:28.064Z</time></trkpt><trkpt lat="45.1551497" lon="8.113445"><ele>225.0</ele><time>2026-03-29T14:43:29.064Z</time></trkpt><trkpt lat="45.154988" lon="8.1134742"><ele>225.75</ele><time>2026-03-29T14:43:30.063Z</time></trkpt><trkpt lat="45.1548588" lon="8.1135173"><ele>226.5</ele><time>2026-03-29T14:43:31.064Z</time></trkpt><trkpt lat="45.1547231" lon="8.1135785"><ele>227.25</ele><time>2026-03-29T14:43:32.064Z</time></trkpt><trkpt lat="45.1546201" lon="8.1136627"><ele>228.0</ele><time>2026-03-29T14:43:33.064Z</time></trkpt><trkpt lat="45.1544848" lon="8.1137844"><ele>228.0</ele><time>2026-03-29T14:43:34.064Z</time></trkpt><trkpt lat="45.1543403" lon="8.1138685"><ele>228.0</ele><time>2026-03-29T14:43:35.064Z</time></trkpt><trkpt lat="45.1542021" lon="8.1139065"><ele>228.0</ele><time>2026-03-29T14:43:36.063Z</time></trkpt><trkpt lat="45.154054" lon="8.1139365"><ele>228.0</ele><time>2026-03-29T14:43:37.064Z</time></trkpt><trkpt lat="45.1539528" lon="8.1139526"><ele>231.5</ele><time>2026-03-29T14:43:38.064Z</time></trkpt><trkpt lat="45.1538263" lon="8.1139826"><ele>235.0</ele><time>2026-03-29T14:43:39.064Z</time></trkpt><trkpt lat="45.1537239" lon="8.1140318"><ele>238.5</ele><time>2026-03-29T14:43:40.064Z</time></trkpt><trkpt lat="45.1536651" lon="8.1141964"><ele>242.0</ele><time>2026-03-29T14:43:41.064Z</time></trkpt><trkpt lat="45.1536151" lon="8.1143484"><ele>242.2</ele><time>2026-03-29T14:43:42.064Z</time></trkpt><trkpt lat="45.1535603" lon="8.1144923"><ele>242.39999999999998</ele><time>2026-03-29T14:43:43.064Z</time></trkpt><trkpt lat="45.1535366" lon="8.1146375"><ele>242.60000000000002</ele><time>2026-03-29T14:43:44.064Z</time></trkpt><trkpt lat="45.1535001" lon="8.1147818"><ele>242.8</ele><time>2026-03-29T14:43:45.064Z</time></trkpt><trkpt lat="45.1534942" lon="8.1149339"><ele>243.0</ele><time>2026-03-29T14:43:46.064Z</time></trkpt><trkpt lat="45.1535927" lon="8.1150569"><ele>242.0</ele><time>2026-03-29T14:43:47.064Z</time></trkpt><trkpt lat="45.1536816" lon="8.1151705"><ele>241.0</ele><time>2026-03-29T14:43:48.064Z</time></trkpt><trkpt lat="45.1537694" lon="8.1152575"><ele>240.0</ele><time>2026-03-29T14:43:49.064Z</time></trkpt><trkpt lat="45.1539127" lon="8.1153179"><ele>239.0</ele><time>2026-03-29T14:43:50.064Z</time></trkpt><trkpt lat="45.1540366" lon="8.1153769"><ele>238.75</ele><time>2026-03-29T14:43:51.064Z</time></trkpt><trkpt lat="45.1541615" lon="8.1154509"><ele>238.5</ele><time>2026-03-29T14:43:52.064Z</time></trkpt><trkpt lat="45.1542753" lon="8.115548"><ele>238.25</ele><time>2026-03-29T14:43:53.064Z</time></trkpt><trkpt lat="45.1543801" lon="8.1156554"><ele>238.0</ele><time>2026-03-29T14:43:54.063Z</time></trkpt><trkpt lat="45.1544468" lon="8.1158039"><ele>235.75</ele><time>2026-03-29T14:43:55.064Z</time></trkpt><trkpt lat="45.1545024" lon="8.1159831"><ele>233.5</ele><time>2026-03-29T14:43:56.064Z</time></trkpt><trkpt lat="45.1545436" lon="8.1161836"><ele>231.25</ele><time>2026-03-29T14:43:57.064Z</time></trkpt><trkpt lat="45.1545902" lon="8.1163885"><ele>229.0</ele><time>2026-03-29T14:43:58.064Z</time></trkpt><trkpt lat="45.1546376" lon="8.1166095"><ele>227.0</ele><time>2026-03-29T14:43:59.064Z</time></trkpt><trkpt lat="45.1546857" lon="8.1168081"><ele>225.0</ele><time>2026-03-29T14:44:00.063Z</time></trkpt><trkpt lat="45.1547181" lon="8.1170659"><ele>223.0</ele><time>2026-03-29T14:44:01.064Z</time></trkpt><trkpt lat="45.1547792" lon="8.1173227"><ele>223.66666666666666</ele><time>2026-03-29T14:44:02.064Z</time></trkpt><trkpt lat="45.1548375" lon="8.1175636"><ele>224.33333333333331</ele><time>2026-03-29T14:44:03.064Z</time></trkpt><trkpt lat="45.1548634" lon="8.1178165"><ele>225.0</ele><time>2026-03-29T14:44:04.063Z</time></trkpt><trkpt lat="45.1549068" lon="8.1180587"><ele>221.66666666666669</ele><time>2026-03-29T14:44:05.064Z</time></trkpt><trkpt lat="45.1549469" lon="8.1183115"><ele>218.33333333333334</ele><time>2026-03-29T14:44:06.064Z</time></trkpt><trkpt lat="45.1549893" lon="8.1185463"><ele>215.0</ele><time>2026-03-29T14:44:07.064Z</time></trkpt><trkpt lat="45.1550463" lon="8.1187859"><ele>215.0</ele><time>2026-03-29T14:44:08.064Z</time></trkpt><trkpt lat="45.1550558" lon="8.1189872"><ele>215.0</ele><time>2026-03-29T14:44:09.064Z</time></trkpt><trkpt lat="45.1550756" lon="8.1191894"><ele>215.0</ele><time>2026-03-29T14:44:10.064Z</time></trkpt><trkpt lat="45.1550842" lon="8.1193967"><ele>215.0</ele><time>2026-03-29T14:44:11.064Z</time></trkpt><trkpt lat="45.1550643" lon="8.1195529"><ele>213.8</ele><time>2026-03-29T14:44:12.064Z</time></trkpt><trkpt lat="45.1550375" lon="8.1196432"><ele>212.6</ele><time>2026-03-29T14:44:13.063Z</time></trkpt><trkpt lat="45.1550441" lon="8.1197906"><ele>211.39999999999998</ele><time>2026-03-29T14:44:14.064Z</time></trkpt><trkpt lat="45.1550676" lon="8.1199123"><ele>210.2</ele><time>2026-03-29T14:44:15.064Z</time></trkpt><trkpt lat="45.1551215" lon="8.1200299"><ele>209.0</ele><time>2026-03-29T14:44:16.064Z</time></trkpt><trkpt lat="45.1551408" lon="8.1201796"><ele>208.6</ele><time>2026-03-29T14:44:17.064Z</time></trkpt><trkpt lat="45.1551687" lon="8.1202998"><ele>208.2</ele><time>2026-03-29T14:44:18.064Z</time></trkpt><trkpt lat="45.1551294" lon="8.1204404"><ele>207.79999999999998</ele><time>2026-03-29T14:44:19.064Z</time></trkpt><trkpt lat="45.1550636" lon="8.1205689"><ele>207.39999999999998</ele><time>2026-03-29T14:44:20.064Z</time></trkpt><trkpt lat="45.1549801" lon="8.1207196"><ele>207.0</ele><time>2026-03-29T14:44:21.064Z</time></trkpt><trkpt lat="45.1549142" lon="8.1208648"><ele>203.66666666666669</ele><time>2026-03-29T14:44:22.064Z</time></trkpt><trkpt lat="45.1548019" lon="8.1210553"><ele>200.33333333333334</ele><time>2026-03-29T14:44:23.063Z</time></trkpt><trkpt lat="45.1546927" lon="8.1212378"><ele>197.0</ele><time>2026-03-29T14:44:24.064Z</time></trkpt><trkpt lat="45.154578" lon="8.1214291"><ele>196.66666666666669</ele><time>2026-03-29T14:44:25.064Z</time></trkpt><trkpt lat="45.1544674" lon="8.1216235"><ele>196.33333333333331</ele><time>2026-03-29T14:44:26.063Z</time></trkpt><trkpt lat="45.1543582" lon="8.1218227"><ele>196.0</ele><time>2026-03-29T14:44:27.064Z</time></trkpt><trkpt lat="45.1542448" lon="8.1220268"><ele>196.0</ele><time>2026-03-29T14:44:28.064Z</time></trkpt><trkpt lat="45.1541194" lon="8.1222318"><ele>196.0</ele><time>2026-03-29T14:44:29.064Z</time></trkpt><trkpt lat="45.1540103" lon="8.1224274"><ele>196.0</ele><time>2026-03-29T14:44:30.064Z</time></trkpt><trkpt lat="45.1539035" lon="8.1226151"><ele>196.33333333333331</ele><time>2026-03-29T14:44:31.064Z</time></trkpt><trkpt lat="45.1538065" lon="8.1227776"><ele>196.66666666666669</ele><time>2026-03-29T14:44:32.064Z</time></trkpt><trkpt lat="45.153694" lon="8.1229339"><ele>197.0</ele><time>2026-03-29T14:44:33.064Z</time></trkpt><trkpt lat="45.1535955" lon="8.1230943"><ele>195.0</ele><time>2026-03-29T14:44:34.064Z</time></trkpt><trkpt lat="45.1535133" lon="8.1232615"><ele>193.0</ele><time>2026-03-29T14:44:35.064Z</time></trkpt><trkpt lat="45.1534436" lon="8.123416"><ele>191.0</ele><time>2026-03-29T14:44:36.064Z</time></trkpt><trkpt lat="45.1533851" lon="8.1235769"><ele>189.0</ele><time>2026-03-29T14:44:37.064Z</time></trkpt><trkpt lat="45.153344" lon="8.1237536"><ele>189.0</ele><time>2026-03-29T14:44:38.064Z</time></trkpt><trkpt lat="45.1533243" lon="8.1239413"><ele>189.0</ele><time>2026-03-29T14:44:39.063Z</time></trkpt><trkpt lat="45.1533585" lon="8.1241715"><ele>189.0</ele><time>2026-03-29T14:44:40.064Z</time></trkpt><trkpt lat="45.1533795" lon="8.1243955"><ele>189.25</ele><time>2026-03-29T14:44:41.064Z</time></trkpt><trkpt lat="45.1534124" lon="8.1246073"><ele>189.5</ele><time>2026-03-29T14:44:42.064Z</time></trkpt><trkpt lat="45.1534376" lon="8.1248166"><ele>189.75</ele><time>2026-03-29T14:44:43.064Z</time></trkpt><trkpt lat="45.1534652" lon="8.1250177"><ele>190.0</ele><time>2026-03-29T14:44:44.064Z</time></trkpt><trkpt lat="45.1535002" lon="8.125218"><ele>190.25</ele><time>2026-03-29T14:44:45.064Z</time></trkpt><trkpt lat="45.1535091" lon="8.1253897"><ele>190.5</ele><time>2026-03-29T14:44:46.064Z</time></trkpt><trkpt lat="45.1534888" lon="8.1255591"><ele>190.75</ele><time>2026-03-29T14:44:47.064Z</time></trkpt><trkpt lat="45.1534519" lon="8.1257106"><ele>191.0</ele><time>2026-03-29T14:44:48.064Z</time></trkpt><trkpt lat="45.1534271" lon="8.1258675"><ele>190.25</ele><time>2026-03-29T14:44:49.064Z</time></trkpt><trkpt lat="45.1533995" lon="8.1260171"><ele>189.5</ele><time>2026-03-29T14:44:50.064Z</time></trkpt><trkpt lat="45.1534105" lon="8.1262122"><ele>188.75</ele><time>2026-03-29T14:44:51.064Z</time></trkpt><trkpt lat="45.1534043" lon="8.1263906"><ele>188.0</ele><time>2026-03-29T14:44:52.064Z</time></trkpt><trkpt lat="45.1534056" lon="8.1266246"><ele>186.66666666666666</ele><time>2026-03-29T14:44:53.063Z</time></trkpt><trkpt lat="45.1533991" lon="8.1268358"><ele>185.33333333333334</ele><time>2026-03-29T14:44:54.064Z</time></trkpt><trkpt lat="45.1534019" lon="8.1270635"><ele>184.0</ele><time>2026-03-29T14:44:55.064Z</time></trkpt><trkpt lat="45.1534044" lon="8.1272891"><ele>181.0</ele><time>2026-03-29T14:44:56.064Z</time></trkpt><trkpt lat="45.1534008" lon="8.1275079"><ele>178.0</ele><time>2026-03-29T14:44:57.064Z</time></trkpt><trkpt lat="45.1533986" lon="8.1277395"><ele>175.0</ele><time>2026-03-29T14:44:58.063Z</time></trkpt><trkpt lat="45.1533993" lon="8.1279527"><ele>175.0</ele><time>2026-03-29T14:44:59.064Z</time></trkpt><trkpt lat="45.1534072" lon="8.1281651"><ele>175.0</ele><time>2026-03-29T14:45:00.064Z</time></trkpt><trkpt lat="45.153412" lon="8.128347"><ele>175.0</ele><time>2026-03-29T14:45:01.064Z</time></trkpt><trkpt lat="45.1534227" lon="8.128513"><ele>175.0</ele><time>2026-03-29T14:45:02.064Z</time></trkpt><trkpt lat="45.1534336" lon="8.1286554"><ele>173.5</ele><time>2026-03-29T14:45:03.064Z</time></trkpt><trkpt lat="45.1534503" lon="8.1287951"><ele>172.0</ele><time>2026-03-29T14:45:04.064Z</time></trkpt><trkpt lat="45.1535418" lon="8.128918"><ele>170.5</ele><time>2026-03-29T14:45:05.064Z</time></trkpt><trkpt lat="45.1536429" lon="8.1290314"><ele>169.0</ele><time>2026-03-29T14:45:06.064Z</time></trkpt><trkpt lat="45.1537502" lon="8.1291523"><ele>167.33333333333334</ele><time>2026-03-29T14:45:07.064Z</time></trkpt><trkpt lat="45.1538596" lon="8.1292776"><ele>165.66666666666666</ele><time>2026-03-29T14:45:08.064Z</time></trkpt><trkpt lat="45.1539885" lon="8.1294086"><ele>164.0</ele><time>2026-03-29T14:45:09.064Z</time></trkpt><trkpt lat="45.1541091" lon="8.1295512"><ele>164.0</ele><time>2026-03-29T14:45:10.064Z</time></trkpt><trkpt lat="45.1542334" lon="8.1296793"><ele>164.0</ele><time>2026-03-29T14:45:11.064Z</time></trkpt><trkpt lat="45.1543421" lon="8.1298011"><ele>164.0</ele><time>2026-03-29T14:45:12.064Z</time></trkpt><trkpt lat="45.1544703" lon="8.1299028"><ele>164.0</ele><time>2026-03-29T14:45:13.064Z</time></trkpt><trkpt lat="45.15462" lon="8.1299864"><ele>163.66666666666666</ele><time>2026-03-29T14:45:14.064Z</time></trkpt><trkpt lat="45.1547805" lon="8.1300645"><ele>163.33333333333334</ele><time>2026-03-29T14:45:15.064Z</time></trkpt><trkpt lat="45.1549362" lon="8.1301502"><ele>163.0</ele><time>2026-03-29T14:45:16.064Z</time></trkpt><trkpt lat="45.1551058" lon="8.1302645"><ele>163.0</ele><time>2026-03-29T14:45:17.064Z</time></trkpt><trkpt lat="45.1552672" lon="8.130383"><ele>163.0</ele><time>2026-03-29T14:45:18.064Z</time></trkpt><trkpt lat="45.1554449" lon="8.1304881"><ele>163.0</ele><time>2026-03-29T14:45:19.064Z</time></trkpt><trkpt lat="45.155613" lon="8.130591"><ele>164.33333333333334</ele><time>2026-03-29T14:45:20.064Z</time></trkpt><trkpt lat="45.1557908" lon="8.1306587"><ele>165.66666666666666</ele><time>2026-03-29T14:45:21.064Z</time></trkpt><trkpt lat="45.1559602" lon="8.1307327"><ele>167.0</ele><time>2026-03-29T14:45:22.064Z</time></trkpt><trkpt lat="45.1561282" lon="8.130795"><ele>165.66666666666666</ele><time>2026-03-29T14:45:23.064Z</time></trkpt><trkpt lat="45.1562976" lon="8.1308655"><ele>164.33333333333334</ele><time>2026-03-29T14:45:24.064Z</time></trkpt><trkpt lat="45.1564543" lon="8.1309235"><ele>163.0</ele><time>2026-03-29T14:45:25.064Z</time></trkpt><trkpt lat="45.1566254" lon="8.1309716"><ele>163.0</ele><time>2026-03-29T14:45:26.064Z</time></trkpt><trkpt lat="45.1567835" lon="8.1310069"><ele>163.0</ele><time>2026-03-29T14:45:27.064Z</time></trkpt><trkpt lat="45.1569537" lon="8.1310342"><ele>163.0</ele><time>2026-03-29T14:45:28.064Z</time></trkpt><trkpt lat="45.1571357" lon="8.1310629"><ele>163.0</ele><time>2026-03-29T14:45:29.064Z</time></trkpt><trkpt lat="45.1573041" lon="8.1311064"><ele>163.0</ele><time>2026-03-29T14:45:30.064Z</time></trkpt><trkpt lat="45.157483" lon="8.1311357"><ele>163.0</ele><time>2026-03-29T14:45:31.064Z</time></trkpt><trkpt lat="45.1576591" lon="8.1311475"><ele>161.66666666666669</ele><time>2026-03-29T14:45:32.064Z</time></trkpt><trkpt lat="45.1578101" lon="8.1312043"><ele>160.33333333333334</ele><time>2026-03-29T14:45:33.064Z</time></trkpt><trkpt lat="45.1579695" lon="8.1312656"><ele>159.0</ele><time>2026-03-29T14:45:34.064Z</time></trkpt><trkpt lat="45.1581204" lon="8.1313265"><ele>158.5</ele><time>2026-03-29T14:45:35.064Z</time></trkpt><trkpt lat="45.1582618" lon="8.1313717"><ele>158.0</ele><time>2026-03-29T14:45:36.064Z</time></trkpt><trkpt lat="45.1584012" lon="8.1313936"><ele>157.5</ele><time>2026-03-29T14:45:37.064Z</time></trkpt><trkpt lat="45.158525" lon="8.131431"><ele>157.0</ele><time>2026-03-29T14:45:38.064Z</time></trkpt><trkpt lat="45.1586501" lon="8.1314685"><ele>157.0</ele><time>2026-03-29T14:45:39.064Z</time></trkpt><trkpt lat="45.1587807" lon="8.1315449"><ele>157.0</ele><time>2026-03-29T14:45:40.064Z</time></trkpt><trkpt lat="45.1589154" lon="8.1316392"><ele>157.0</ele><time>2026-03-29T14:45:41.064Z</time></trkpt><trkpt lat="45.159044" lon="8.131751"><ele>157.0</ele><time>2026-03-29T14:45:42.064Z</time></trkpt><trkpt lat="45.1591753" lon="8.1318514"><ele>156.0</ele><time>2026-03-29T14:45:43.064Z</time></trkpt><trkpt lat="45.1593726" lon="8.1319757"><ele>155.0</ele><time>2026-03-29T14:45:44.064Z</time></trkpt><trkpt lat="45.1595448" lon="8.1320892"><ele>154.0</ele><time>2026-03-29T14:45:45.064Z</time></trkpt><trkpt lat="45.1597272" lon="8.132187"><ele>152.0</ele><time>2026-03-29T14:45:46.064Z</time></trkpt><trkpt lat="45.1599134" lon="8.1322804"><ele>150.0</ele><time>2026-03-29T14:45:47.064Z</time></trkpt><trkpt lat="45.1601045" lon="8.1323773"><ele>148.0</ele><time>2026-03-29T14:45:48.063Z</time></trkpt><trkpt lat="45.1602896" lon="8.132469"><ele>148.0</ele><time>2026-03-29T14:45:49.064Z</time></trkpt><trkpt lat="45.1604849" lon="8.1325591"><ele>148.0</ele><time>2026-03-29T14:45:50.064Z</time></trkpt><trkpt lat="45.1606497" lon="8.1326362"><ele>148.0</ele><time>2026-03-29T14:45:51.064Z</time></trkpt><trkpt lat="45.16076" lon="8.1327277"><ele>148.0</ele><time>2026-03-29T14:45:52.064Z</time></trkpt><trkpt lat="45.1608765" lon="8.1328063"><ele>148.0</ele><time>2026-03-29T14:45:53.064Z</time></trkpt><trkpt lat="45.1609678" lon="8.1328862"><ele>148.0</ele><time>2026-03-29T14:45:54.064Z</time></trkpt><trkpt lat="45.161052" lon="8.1329816"><ele>148.0</ele><time>2026-03-29T14:45:55.064Z</time></trkpt><trkpt lat="45.1611094" lon="8.1330838"><ele>148.0</ele><time>2026-03-29T14:45:56.064Z</time></trkpt><trkpt lat="45.1611277" lon="8.1332435"><ele>148.0</ele><time>2026-03-29T14:45:57.064Z</time></trkpt><trkpt lat="45.1611401" lon="8.1334152"><ele>148.0</ele><time>2026-03-29T14:45:58.064Z</time></trkpt><trkpt lat="45.1611489" lon="8.1336185"><ele>148.0</ele><time>2026-03-29T14:45:59.064Z</time></trkpt><trkpt lat="45.1611553" lon="8.1338565"><ele>148.0</ele><time>2026-03-29T14:46:00.063Z</time></trkpt><trkpt lat="45.1611621" lon="8.1341108"><ele>148.0</ele><time>2026-03-29T14:46:01.064Z</time></trkpt><trkpt lat="45.1611768" lon="8.134377"><ele>148.0</ele><time>2026-03-29T14:46:02.064Z</time></trkpt><trkpt lat="45.1611893" lon="8.1346715"><ele>148.0</ele><time>2026-03-29T14:46:03.064Z</time></trkpt><trkpt lat="45.1611929" lon="8.1349613"><ele>147.0</ele><time>2026-03-29T14:46:04.064Z</time></trkpt><trkpt lat="45.161212" lon="8.1352947"><ele>146.0</ele><time>2026-03-29T14:46:05.064Z</time></trkpt><trkpt lat="45.1612235" lon="8.1356057"><ele>145.5</ele><time>2026-03-29T14:46:06.064Z</time></trkpt><trkpt lat="45.1612392" lon="8.1359377"><ele>145.0</ele><time>2026-03-29T14:46:07.064Z</time></trkpt><trkpt lat="45.1612689" lon="8.1362853"><ele>145.5</ele><time>2026-03-29T14:46:08.064Z</time></trkpt><trkpt lat="45.1612801" lon="8.136634"><ele>146.0</ele><time>2026-03-29T14:46:09.064Z</time></trkpt><trkpt lat="45.1612954" lon="8.1369965"><ele>146.0</ele><time>2026-03-29T14:46:10.064Z</time></trkpt><trkpt lat="45.1613105" lon="8.1373542"><ele>146.0</ele><time>2026-03-29T14:46:11.064Z</time></trkpt><trkpt lat="45.1613217" lon="8.1377117"><ele>146.0</ele><time>2026-03-29T14:46:12.063Z</time></trkpt><trkpt lat="45.1613407" lon="8.1380828"><ele>146.0</ele><time>2026-03-29T14:46:13.064Z</time></trkpt><trkpt lat="45.1613641" lon="8.1384501"><ele>146.0</ele><time>2026-03-29T14:46:14.064Z</time></trkpt><trkpt lat="45.1613971" lon="8.1388148"><ele>146.0</ele><time>2026-03-29T14:46:15.064Z</time></trkpt><trkpt lat="45.161421" lon="8.139192"><ele>146.0</ele><time>2026-03-29T14:46:16.064Z</time></trkpt><trkpt lat="45.1614467" lon="8.1395707"><ele>146.0</ele><time>2026-03-29T14:46:17.064Z</time></trkpt><trkpt lat="45.1614519" lon="8.1399161"><ele>146.0</ele><time>2026-03-29T14:46:18.063Z</time></trkpt><trkpt lat="45.1614711" lon="8.1402743"><ele>146.0</ele><time>2026-03-29T14:46:19.064Z</time></trkpt><trkpt lat="45.1614928" lon="8.1406432"><ele>146.0</ele><time>2026-03-29T14:46:20.063Z</time></trkpt><trkpt lat="45.1615098" lon="8.1410082"><ele>146.0</ele><time>2026-03-29T14:46:21.064Z</time></trkpt><trkpt lat="45.161538" lon="8.1413781"><ele>145.5</ele><time>2026-03-29T14:46:22.064Z</time></trkpt><trkpt lat="45.1615572" lon="8.1417376"><ele>145.0</ele><time>2026-03-29T14:46:23.064Z</time></trkpt><trkpt lat="45.161585" lon="8.1421062"><ele>145.0</ele><time>2026-03-29T14:46:24.064Z</time></trkpt><trkpt lat="45.1616028" lon="8.1424648"><ele>145.0</ele><time>2026-03-29T14:46:25.064Z</time></trkpt><trkpt lat="45.1616344" lon="8.1428251"><ele>145.0</ele><time>2026-03-29T14:46:26.064Z</time></trkpt><trkpt lat="45.1616699" lon="8.1431728"><ele>145.0</ele><time>2026-03-29T14:46:27.064Z</time></trkpt><trkpt lat="45.1617137" lon="8.1435285"><ele>145.0</ele><time>2026-03-29T14:46:28.064Z</time></trkpt><trkpt lat="45.1617668" lon="8.1438841"><ele>145.0</ele><time>2026-03-29T14:46:29.064Z</time></trkpt><trkpt lat="45.1618282" lon="8.1442457"><ele>145.0</ele><time>2026-03-29T14:46:30.064Z</time></trkpt><trkpt lat="45.1618874" lon="8.1445966"><ele>145.0</ele><time>2026-03-29T14:46:31.064Z</time></trkpt><trkpt lat="45.1619388" lon="8.1449494"><ele>146.0</ele><time>2026-03-29T14:46:32.064Z</time></trkpt><trkpt lat="45.1619848" lon="8.1453029"><ele>147.0</ele><time>2026-03-29T14:46:33.064Z</time></trkpt><trkpt lat="45.1620351" lon="8.1456497"><ele>150.5</ele><time>2026-03-29T14:46:34.064Z</time></trkpt><trkpt lat="45.162092" lon="8.1460072"><ele>154.0</ele><time>2026-03-29T14:46:35.064Z</time></trkpt><trkpt lat="45.1621422" lon="8.1463193"><ele>157.33333333333334</ele><time>2026-03-29T14:46:36.064Z</time></trkpt><trkpt lat="45.1621899" lon="8.1466301"><ele>160.66666666666666</ele><time>2026-03-29T14:46:37.064Z</time></trkpt><trkpt lat="45.1622234" lon="8.1469404"><ele>164.0</ele><time>2026-03-29T14:46:38.064Z</time></trkpt><trkpt lat="45.1622535" lon="8.1472479"><ele>165.0</ele><time>2026-03-29T14:46:39.064Z</time></trkpt><trkpt lat="45.1622312" lon="8.1475575"><ele>166.0</ele><time>2026-03-29T14:46:40.064Z</time></trkpt><trkpt lat="45.1622027" lon="8.1478595"><ele>167.0</ele><time>2026-03-29T14:46:41.064Z</time></trkpt><trkpt lat="45.1621453" lon="8.1481724"><ele>167.5</ele><time>2026-03-29T14:46:42.064Z</time></trkpt><trkpt lat="45.162075" lon="8.1484838"><ele>168.0</ele><time>2026-03-29T14:46:43.064Z</time></trkpt><trkpt lat="45.1620086" lon="8.1487961"><ele>165.5</ele><time>2026-03-29T14:46:44.064Z</time></trkpt><trkpt lat="45.1619398" lon="8.1491102"><ele>163.0</ele><time>2026-03-29T14:46:45.064Z</time></trkpt><trkpt lat="45.1618735" lon="8.1494118"><ele>163.0</ele><time>2026-03-29T14:46:46.064Z</time></trkpt><trkpt lat="45.1618023" lon="8.1497283"><ele>163.0</ele><time>2026-03-29T14:46:47.064Z</time></trkpt><trkpt lat="45.1617328" lon="8.1500151"><ele>163.0</ele><time>2026-03-29T14:46:48.064Z</time></trkpt><trkpt lat="45.1616833" lon="8.1503296"><ele>161.0</ele><time>2026-03-29T14:46:49.064Z</time></trkpt><trkpt lat="45.1616371" lon="8.1506442"><ele>159.0</ele><time>2026-03-29T14:46:50.064Z</time></trkpt><trkpt lat="45.1615999" lon="8.1509611"><ele>155.5</ele><time>2026-03-29T14:46:51.064Z</time></trkpt><trkpt lat="45.1615975" lon="8.1513058"><ele>152.0</ele><time>2026-03-29T14:46:52.064Z</time></trkpt><trkpt lat="45.1615897" lon="8.1516482"><ele>149.5</ele><time>2026-03-29T14:46:53.064Z</time></trkpt><trkpt lat="45.1615814" lon="8.151991"><ele>147.0</ele><time>2026-03-29T14:46:54.064Z</time></trkpt><trkpt lat="45.1615662" lon="8.152336"><ele>146.0</ele><time>2026-03-29T14:46:55.064Z</time></trkpt><trkpt lat="45.1615465" lon="8.1526675"><ele>145.0</ele><time>2026-03-29T14:46:56.064Z</time></trkpt><trkpt lat="45.1615251" lon="8.1530192"><ele>150.0</ele><time>2026-03-29T14:46:57.064Z</time></trkpt><trkpt lat="45.1615122" lon="8.1533654"><ele>155.0</ele><time>2026-03-29T14:46:58.064Z</time></trkpt><trkpt lat="45.1614999" lon="8.1537211"><ele>152.0</ele><time>2026-03-29T14:46:59.064Z</time></trkpt><trkpt lat="45.1614873" lon="8.1540669"><ele>149.0</ele><time>2026-03-29T14:47:00.064Z</time></trkpt><trkpt lat="45.1614724" lon="8.1544175"><ele>149.0</ele><time>2026-03-29T14:47:01.064Z</time></trkpt><trkpt lat="45.1614516" lon="8.1547543"><ele>149.0</ele><time>2026-03-29T14:47:02.063Z</time></trkpt><trkpt lat="45.1614345" lon="8.1551021"><ele>148.5</ele><time>2026-03-29T14:47:03.063Z</time></trkpt><trkpt lat="45.1614357" lon="8.1554467"><ele>148.0</ele><time>2026-03-29T14:47:04.064Z</time></trkpt><trkpt lat="45.1614425" lon="8.1557892"><ele>147.5</ele><time>2026-03-29T14:47:05.064Z</time></trkpt><trkpt lat="45.1614573" lon="8.1561355"><ele>147.0</ele><time>2026-03-29T14:47:06.064Z</time></trkpt><trkpt lat="45.1614755" lon="8.1564803"><ele>145.5</ele><time>2026-03-29T14:47:07.064Z</time></trkpt><trkpt lat="45.1614878" lon="8.1568237"><ele>144.0</ele><time>2026-03-29T14:47:08.064Z</time></trkpt><trkpt lat="45.1615041" lon="8.1571674"><ele>144.5</ele><time>2026-03-29T14:47:09.064Z</time></trkpt><trkpt lat="45.1615256" lon="8.157503"><ele>145.0</ele><time>2026-03-29T14:47:10.064Z</time></trkpt><trkpt lat="45.1615415" lon="8.1578406"><ele>145.0</ele><time>2026-03-29T14:47:11.064Z</time></trkpt><trkpt lat="45.1615608" lon="8.1581781"><ele>145.0</ele><time>2026-03-29T14:47:12.064Z</time></trkpt><trkpt lat="45.1615723" lon="8.158504"><ele>144.5</ele><time>2026-03-29T14:47:13.064Z</time></trkpt><trkpt lat="45.1615845" lon="8.1588365"><ele>144.0</ele><time>2026-03-29T14:47:14.064Z</time></trkpt><trkpt lat="45.1615972" lon="8.1591734"><ele>143.5</ele><time>2026-03-29T14:47:15.064Z</time></trkpt><trkpt lat="45.1616095" lon="8.1594927"><ele>143.0</ele><time>2026-03-29T14:47:16.064Z</time></trkpt><trkpt lat="45.1616277" lon="8.1598362"><ele>143.0</ele><time>2026-03-29T14:47:17.064Z</time></trkpt><trkpt lat="45.1616351" lon="8.1601678"><ele>143.0</ele><time>2026-03-29T14:47:18.064Z</time></trkpt><trkpt lat="45.1616518" lon="8.1604987"><ele>143.0</ele><time>2026-03-29T14:47:19.064Z</time></trkpt><trkpt lat="45.161659" lon="8.1608267"><ele>143.0</ele><time>2026-03-29T14:47:20.063Z</time></trkpt><trkpt lat="45.1616749" lon="8.1611656"><ele>143.0</ele><time>2026-03-29T14:47:21.064Z</time></trkpt><trkpt lat="45.1616923" lon="8.1615013"><ele>143.0</ele><time>2026-03-29T14:47:22.064Z</time></trkpt><trkpt lat="45.1617182" lon="8.161845"><ele>142.5</ele><time>2026-03-29T14:47:23.064Z</time></trkpt><trkpt lat="45.1617337" lon="8.1621802"><ele>142.0</ele><time>2026-03-29T14:47:24.064Z</time></trkpt><trkpt lat="45.1617477" lon="8.1625116"><ele>142.0</ele><time>2026-03-29T14:47:25.064Z</time></trkpt><trkpt lat="45.1617674" lon="8.1628523"><ele>142.0</ele><time>2026-03-29T14:47:26.064Z</time></trkpt><trkpt lat="45.1617815" lon="8.1631918"><ele>142.5</ele><time>2026-03-29T14:47:27.064Z</time></trkpt><trkpt lat="45.1618001" lon="8.1635302"><ele>143.0</ele><time>2026-03-29T14:47:28.064Z</time></trkpt><trkpt lat="45.1618178" lon="8.163867"><ele>145.0</ele><time>2026-03-29T14:47:29.064Z</time></trkpt><trkpt lat="45.1618315" lon="8.1642024"><ele>147.0</ele><time>2026-03-29T14:47:30.064Z</time></trkpt><trkpt lat="45.1618445" lon="8.1645354"><ele>147.0</ele><time>2026-03-29T14:47:31.064Z</time></trkpt><trkpt lat="45.1618608" lon="8.1648703"><ele>147.0</ele><time>2026-03-29T14:47:32.064Z</time></trkpt><trkpt lat="45.161879" lon="8.165198"><ele>147.0</ele><time>2026-03-29T14:47:33.064Z</time></trkpt><trkpt lat="45.1618949" lon="8.1655147"><ele>147.0</ele><time>2026-03-29T14:47:34.064Z</time></trkpt><trkpt lat="45.1619037" lon="8.1658086"><ele>147.0</ele><time>2026-03-29T14:47:35.064Z</time></trkpt><trkpt lat="45.1619" lon="8.166089"><ele>146.33333333333334</ele><time>2026-03-29T14:47:36.064Z</time></trkpt><trkpt lat="45.1618783" lon="8.1663656"><ele>145.66666666666669</ele><time>2026-03-29T14:47:37.064Z</time></trkpt><trkpt lat="45.1618143" lon="8.166623"><ele>145.0</ele><time>2026-03-29T14:47:38.064Z</time></trkpt><trkpt lat="45.1617152" lon="8.1668578"><ele>144.66666666666669</ele><time>2026-03-29T14:47:39.064Z</time></trkpt><trkpt lat="45.1615914" lon="8.1671083"><ele>144.33333333333334</ele><time>2026-03-29T14:47:40.064Z</time></trkpt><trkpt lat="45.1614538" lon="8.167359"><ele>144.0</ele><time>2026-03-29T14:47:41.064Z</time></trkpt><trkpt lat="45.1613159" lon="8.167608"><ele>143.0</ele><time>2026-03-29T14:47:42.064Z</time></trkpt><trkpt lat="45.161175" lon="8.1678603"><ele>142.0</ele><time>2026-03-29T14:47:43.064Z</time></trkpt><trkpt lat="45.1610344" lon="8.1681098"><ele>141.66666666666669</ele><time>2026-03-29T14:47:44.064Z</time></trkpt><trkpt lat="45.1608918" lon="8.1683525"><ele>141.33333333333334</ele><time>2026-03-29T14:47:45.064Z</time></trkpt><trkpt lat="45.1607506" lon="8.1686024"><ele>141.0</ele><time>2026-03-29T14:47:46.064Z</time></trkpt><trkpt lat="45.1606128" lon="8.16885"><ele>141.0</ele><time>2026-03-29T14:47:47.064Z</time></trkpt><trkpt lat="45.16047" lon="8.1690957"><ele>141.0</ele><time>2026-03-29T14:47:48.064Z</time></trkpt><trkpt lat="45.1603343" lon="8.1693318"><ele>141.0</ele><time>2026-03-29T14:47:49.064Z</time></trkpt><trkpt lat="45.1602048" lon="8.1695506"><ele>141.0</ele><time>2026-03-29T14:47:50.064Z</time></trkpt><trkpt lat="45.1600793" lon="8.1697643"><ele>141.0</ele><time>2026-03-29T14:47:51.064Z</time></trkpt><trkpt lat="45.1599635" lon="8.1699644"><ele>141.0</ele><time>2026-03-29T14:47:52.064Z</time></trkpt><trkpt lat="45.159869" lon="8.1701345"><ele>141.0</ele><time>2026-03-29T14:47:53.064Z</time></trkpt><trkpt lat="45.1597858" lon="8.1702935"><ele>141.0</ele><time>2026-03-29T14:47:54.064Z</time></trkpt><trkpt lat="45.1597092" lon="8.1704632"><ele>141.0</ele><time>2026-03-29T14:47:55.064Z</time></trkpt><trkpt lat="45.1596496" lon="8.1706235"><ele>141.0</ele><time>2026-03-29T14:47:56.064Z</time></trkpt><trkpt lat="45.1595979" lon="8.1707993"><ele>141.33333333333334</ele><time>2026-03-29T14:47:57.064Z</time></trkpt><trkpt lat="45.1595716" lon="8.1710099"><ele>141.66666666666669</ele><time>2026-03-29T14:47:58.064Z</time></trkpt><trkpt lat="45.1595518" lon="8.1712312"><ele>142.0</ele><time>2026-03-29T14:47:59.063Z</time></trkpt><trkpt lat="45.1595361" lon="8.1714509"><ele>142.0</ele><time>2026-03-29T14:48:00.064Z</time></trkpt><trkpt lat="45.1595177" lon="8.1716762"><ele>142.0</ele><time>2026-03-29T14:48:01.064Z</time></trkpt><trkpt lat="45.1595037" lon="8.1718971"><ele>142.0</ele><time>2026-03-29T14:48:02.064Z</time></trkpt><trkpt lat="45.1594956" lon="8.1721228"><ele>142.0</ele><time>2026-03-29T14:48:03.064Z</time></trkpt><trkpt lat="45.159487" lon="8.1723363"><ele>142.0</ele><time>2026-03-29T14:48:04.064Z</time></trkpt><trkpt lat="45.1594789" lon="8.1725504"><ele>142.0</ele><time>2026-03-29T14:48:05.063Z</time></trkpt><trkpt lat="45.1594679" lon="8.1727734"><ele>142.0</ele><time>2026-03-29T14:48:06.064Z</time></trkpt><trkpt lat="45.1594561" lon="8.1729737"><ele>142.0</ele><time>2026-03-29T14:48:07.064Z</time></trkpt><trkpt lat="45.1594452" lon="8.1731743"><ele>142.0</ele><time>2026-03-29T14:48:08.064Z</time></trkpt><trkpt lat="45.1594382" lon="8.1733854"><ele>142.0</ele><time>2026-03-29T14:48:09.064Z</time></trkpt><trkpt lat="45.1594267" lon="8.1735962"><ele>142.0</ele><time>2026-03-29T14:48:10.064Z</time></trkpt><trkpt lat="45.1594257" lon="8.1737963"><ele>142.0</ele><time>2026-03-29T14:48:11.063Z</time></trkpt><trkpt lat="45.1594176" lon="8.1739963"><ele>142.0</ele><time>2026-03-29T14:48:12.064Z</time></trkpt><trkpt lat="45.1594172" lon="8.1742067"><ele>142.0</ele><time>2026-03-29T14:48:13.064Z</time></trkpt><trkpt lat="45.1594064" lon="8.174404"><ele>142.5</ele><time>2026-03-29T14:48:14.063Z</time></trkpt><trkpt lat="45.1593992" lon="8.174608"><ele>143.0</ele><time>2026-03-29T14:48:15.064Z</time></trkpt><trkpt lat="45.1593863" lon="8.1748022"><ele>143.5</ele><time>2026-03-29T14:48:16.064Z</time></trkpt><trkpt lat="45.1593763" lon="8.175002"><ele>144.0</ele><time>2026-03-29T14:48:17.064Z</time></trkpt><trkpt lat="45.1593683" lon="8.1751824"><ele>144.0</ele><time>2026-03-29T14:48:18.064Z</time></trkpt><trkpt lat="45.1593627" lon="8.1753531"><ele>144.0</ele><time>2026-03-29T14:48:19.064Z</time></trkpt><trkpt lat="45.159363" lon="8.1755198"><ele>144.0</ele><time>2026-03-29T14:48:20.064Z</time></trkpt><trkpt lat="45.1593569" lon="8.1756673"><ele>144.0</ele><time>2026-03-29T14:48:21.064Z</time></trkpt><trkpt lat="45.1593484" lon="8.1758091"><ele>144.0</ele><time>2026-03-29T14:48:22.064Z</time></trkpt><trkpt lat="45.1593389" lon="8.1759553"><ele>144.0</ele><time>2026-03-29T14:48:23.064Z</time></trkpt><trkpt lat="45.1593355" lon="8.176109"><ele>144.0</ele><time>2026-03-29T14:48:24.063Z</time></trkpt><trkpt lat="45.159327" lon="8.1762718"><ele>144.0</ele><time>2026-03-29T14:48:25.064Z</time></trkpt><trkpt lat="45.1593166" lon="8.1764397"><ele>144.0</ele><time>2026-03-29T14:48:26.064Z</time></trkpt><trkpt lat="45.1593163" lon="8.1766072"><ele>144.2</ele><time>2026-03-29T14:48:27.064Z</time></trkpt><trkpt lat="45.1593089" lon="8.1767661"><ele>144.4</ele><time>2026-03-29T14:48:28.064Z</time></trkpt><trkpt lat="45.159304" lon="8.1769126"><ele>144.6</ele><time>2026-03-29T14:48:29.064Z</time></trkpt><trkpt lat="45.1592993" lon="8.17705"><ele>144.8</ele><time>2026-03-29T14:48:30.064Z</time></trkpt><trkpt lat="45.1592908" lon="8.1771581"><ele>145.0</ele><time>2026-03-29T14:48:31.064Z</time></trkpt><trkpt lat="45.1592842" lon="8.1772755"><ele>144.8</ele><time>2026-03-29T14:48:32.063Z</time></trkpt><trkpt lat="45.1592608" lon="8.1773616"><ele>144.6</ele><time>2026-03-29T14:48:33.064Z</time></trkpt><trkpt lat="45.1591307" lon="8.1774235"><ele>144.4</ele><time>2026-03-29T14:48:35.064Z</time></trkpt><trkpt lat="45.1590372" lon="8.1774199"><ele>144.2</ele><time>2026-03-29T14:48:36.063Z</time></trkpt><trkpt lat="45.15893" lon="8.1773877"><ele>144.0</ele><time>2026-03-29T14:48:37.064Z</time></trkpt><trkpt lat="45.1587897" lon="8.1773779"><ele>144.66666666666666</ele><time>2026-03-29T14:48:38.064Z</time></trkpt><trkpt lat="45.1586527" lon="8.1773672"><ele>145.33333333333331</ele><time>2026-03-29T14:48:39.064Z</time></trkpt><trkpt lat="45.1585065" lon="8.1773354"><ele>146.0</ele><time>2026-03-29T14:48:40.064Z</time></trkpt><trkpt lat="45.1583349" lon="8.1772845"><ele>147.66666666666666</ele><time>2026-03-29T14:48:41.064Z</time></trkpt><trkpt lat="45.1581685" lon="8.1772234"><ele>149.33333333333334</ele><time>2026-03-29T14:48:42.064Z</time></trkpt><trkpt lat="45.1579944" lon="8.1771283"><ele>151.0</ele><time>2026-03-29T14:48:43.064Z</time></trkpt><trkpt lat="45.1578208" lon="8.1770526"><ele>151.0</ele><time>2026-03-29T14:48:44.064Z</time></trkpt><trkpt lat="45.1576475" lon="8.1769663"><ele>151.0</ele><time>2026-03-29T14:48:45.064Z</time></trkpt><trkpt lat="45.1574714" lon="8.1768826"><ele>151.0</ele><time>2026-03-29T14:48:46.064Z</time></trkpt><trkpt lat="45.1572988" lon="8.1768011"><ele>151.66666666666669</ele><time>2026-03-29T14:48:47.064Z</time></trkpt><trkpt lat="45.1571255" lon="8.1767145"><ele>152.33333333333334</ele><time>2026-03-29T14:48:48.064Z</time></trkpt><trkpt lat="45.1569626" lon="8.1766161"><ele>153.0</ele><time>2026-03-29T14:48:49.064Z</time></trkpt><trkpt lat="45.1567885" lon="8.1765298"><ele>155.33333333333334</ele><time>2026-03-29T14:48:50.064Z</time></trkpt><trkpt lat="45.1566048" lon="8.1764631"><ele>157.66666666666669</ele><time>2026-03-29T14:48:51.064Z</time></trkpt><trkpt lat="45.1564358" lon="8.1763719"><ele>160.0</ele><time>2026-03-29T14:48:52.064Z</time></trkpt><trkpt lat="45.1562708" lon="8.1763103"><ele>162.0</ele><time>2026-03-29T14:48:53.064Z</time></trkpt><trkpt lat="45.1561216" lon="8.1762304"><ele>164.0</ele><time>2026-03-29T14:48:54.064Z</time></trkpt><trkpt lat="45.1559234" lon="8.1761882"><ele>166.0</ele><time>2026-03-29T14:48:55.064Z</time></trkpt><trkpt lat="45.1557457" lon="8.1761202"><ele>164.66666666666669</ele><time>2026-03-29T14:48:56.064Z</time></trkpt><trkpt lat="45.15557" lon="8.1760573"><ele>163.33333333333334</ele><time>2026-03-29T14:48:57.064Z</time></trkpt><trkpt lat="45.1554079" lon="8.1759985"><ele>162.0</ele><time>2026-03-29T14:48:58.064Z</time></trkpt><trkpt lat="45.1552289" lon="8.1759332"><ele>162.0</ele><time>2026-03-29T14:48:59.064Z</time></trkpt><trkpt lat="45.1550425" lon="8.1758771"><ele>162.0</ele><time>2026-03-29T14:49:00.064Z</time></trkpt><trkpt lat="45.1548493" lon="8.1758138"><ele>162.0</ele><time>2026-03-29T14:49:01.064Z</time></trkpt><trkpt lat="45.15465" lon="8.1757684"><ele>161.33333333333334</ele><time>2026-03-29T14:49:02.064Z</time></trkpt><trkpt lat="45.1544441" lon="8.1757164"><ele>160.66666666666669</ele><time>2026-03-29T14:49:03.064Z</time></trkpt><trkpt lat="45.1542397" lon="8.1756652"><ele>160.0</ele><time>2026-03-29T14:49:04.064Z</time></trkpt><trkpt lat="45.1540319" lon="8.1756066"><ele>163.0</ele><time>2026-03-29T14:49:05.064Z</time></trkpt><trkpt lat="45.1538028" lon="8.1755811"><ele>166.0</ele><time>2026-03-29T14:49:06.064Z</time></trkpt><trkpt lat="45.1535995" lon="8.1755352"><ele>169.0</ele><time>2026-03-29T14:49:07.064Z</time></trkpt><trkpt lat="45.1533938" lon="8.1755062"><ele>169.0</ele><time>2026-03-29T14:49:08.064Z</time></trkpt><trkpt lat="45.1532057" lon="8.1754367"><ele>169.0</ele><time>2026-03-29T14:49:09.064Z</time></trkpt><trkpt lat="45.1530025" lon="8.1753895"><ele>169.0</ele><time>2026-03-29T14:49:10.064Z</time></trkpt><trkpt lat="45.1527885" lon="8.1753446"><ele>168.66666666666669</ele><time>2026-03-29T14:49:11.064Z</time></trkpt><trkpt lat="45.1526066" lon="8.1752845"><ele>168.33333333333334</ele><time>2026-03-29T14:49:12.064Z</time></trkpt><trkpt lat="45.1524071" lon="8.1752369"><ele>168.0</ele><time>2026-03-29T14:49:13.064Z</time></trkpt><trkpt lat="45.1522172" lon="8.17514"><ele>168.0</ele><time>2026-03-29T14:49:14.064Z</time></trkpt><trkpt lat="45.1520283" lon="8.1750457"><ele>168.0</ele><time>2026-03-29T14:49:15.064Z</time></trkpt><trkpt lat="45.1518358" lon="8.1749479"><ele>168.0</ele><time>2026-03-29T14:49:16.064Z</time></trkpt><trkpt lat="45.1516391" lon="8.1748466"><ele>168.33333333333334</ele><time>2026-03-29T14:49:17.064Z</time></trkpt><trkpt lat="45.1514497" lon="8.1747404"><ele>168.66666666666669</ele><time>2026-03-29T14:49:18.064Z</time></trkpt><trkpt lat="45.1512512" lon="8.1746294"><ele>169.0</ele><time>2026-03-29T14:49:19.064Z</time></trkpt><trkpt lat="45.1510643" lon="8.1745205"><ele>169.0</ele><time>2026-03-29T14:49:20.064Z</time></trkpt><trkpt lat="45.1508854" lon="8.1744135"><ele>169.0</ele><time>2026-03-29T14:49:21.064Z</time></trkpt><trkpt lat="45.1507073" lon="8.1743166"><ele>169.0</ele><time>2026-03-29T14:49:22.064Z</time></trkpt><trkpt lat="45.150527" lon="8.1742087"><ele>167.66666666666669</ele><time>2026-03-29T14:49:23.064Z</time></trkpt><trkpt lat="45.1503428" lon="8.1740903"><ele>166.33333333333334</ele><time>2026-03-29T14:49:24.064Z</time></trkpt><trkpt lat="45.1501647" lon="8.1739505"><ele>165.0</ele><time>2026-03-29T14:49:25.064Z</time></trkpt><trkpt lat="45.1499714" lon="8.1738081"><ele>163.0</ele><time>2026-03-29T14:49:26.063Z</time></trkpt><trkpt lat="45.1497843" lon="8.1736539"><ele>161.0</ele><time>2026-03-29T14:49:27.064Z</time></trkpt><trkpt lat="45.1495946" lon="8.1735085"><ele>159.0</ele><time>2026-03-29T14:49:28.064Z</time></trkpt><trkpt lat="45.1493963" lon="8.1733596"><ele>159.0</ele><time>2026-03-29T14:49:29.064Z</time></trkpt><trkpt lat="45.149205" lon="8.1732114"><ele>159.0</ele><time>2026-03-29T14:49:30.064Z</time></trkpt><trkpt lat="45.1490015" lon="8.1730554"><ele>159.0</ele><time>2026-03-29T14:49:31.064Z</time></trkpt><trkpt lat="45.1488137" lon="8.1728959"><ele>159.33333333333334</ele><time>2026-03-29T14:49:32.064Z</time></trkpt><trkpt lat="45.1486246" lon="8.1727469"><ele>159.66666666666669</ele><time>2026-03-29T14:49:33.064Z</time></trkpt><trkpt lat="45.1484491" lon="8.1726066"><ele>160.0</ele><time>2026-03-29T14:49:34.064Z</time></trkpt><trkpt lat="45.1482792" lon="8.1724833"><ele>161.66666666666669</ele><time>2026-03-29T14:49:35.064Z</time></trkpt><trkpt lat="45.1481146" lon="8.1723539"><ele>163.33333333333334</ele><time>2026-03-29T14:49:36.064Z</time></trkpt><trkpt lat="45.1479407" lon="8.1722512"><ele>165.0</ele><time>2026-03-29T14:49:37.064Z</time></trkpt><trkpt lat="45.1477569" lon="8.1721751"><ele>165.0</ele><time>2026-03-29T14:49:38.064Z</time></trkpt><trkpt lat="45.147566" lon="8.1721148"><ele>165.0</ele><time>2026-03-29T14:49:39.063Z</time></trkpt><trkpt lat="45.1473842" lon="8.1720768"><ele>165.0</ele><time>2026-03-29T14:49:40.064Z</time></trkpt><trkpt lat="45.147212" lon="8.1720457"><ele>165.33333333333334</ele><time>2026-03-29T14:49:41.064Z</time></trkpt><trkpt lat="45.1470522" lon="8.171996"><ele>165.66666666666669</ele><time>2026-03-29T14:49:42.064Z</time></trkpt><trkpt lat="45.1469026" lon="8.171921"><ele>166.0</ele><time>2026-03-29T14:49:43.064Z</time></trkpt><trkpt lat="45.1467633" lon="8.1717869"><ele>166.0</ele><time>2026-03-29T14:49:44.064Z</time></trkpt><trkpt lat="45.1466191" lon="8.1716421"><ele>166.0</ele><time>2026-03-29T14:49:45.064Z</time></trkpt><trkpt lat="45.1464898" lon="8.1714364"><ele>166.0</ele><time>2026-03-29T14:49:46.064Z</time></trkpt><trkpt lat="45.1463529" lon="8.1712372"><ele>165.33333333333334</ele><time>2026-03-29T14:49:47.064Z</time></trkpt><trkpt lat="45.146213" lon="8.1710393"><ele>164.66666666666666</ele><time>2026-03-29T14:49:48.064Z</time></trkpt><trkpt lat="45.1460671" lon="8.1708334"><ele>164.0</ele><time>2026-03-29T14:49:49.064Z</time></trkpt><trkpt lat="45.1459236" lon="8.17063"><ele>164.33333333333331</ele><time>2026-03-29T14:49:50.064Z</time></trkpt><trkpt lat="45.1457788" lon="8.1704248"><ele>164.66666666666666</ele><time>2026-03-29T14:49:51.064Z</time></trkpt><trkpt lat="45.1456374" lon="8.1702229"><ele>165.0</ele><time>2026-03-29T14:49:52.064Z</time></trkpt><trkpt lat="45.1454987" lon="8.1700188"><ele>166.0</ele><time>2026-03-29T14:49:53.063Z</time></trkpt><trkpt lat="45.1453687" lon="8.1698048"><ele>167.0</ele><time>2026-03-29T14:49:54.064Z</time></trkpt><trkpt lat="45.14526" lon="8.169602"><ele>168.0</ele><time>2026-03-29T14:49:55.064Z</time></trkpt><trkpt lat="45.1451593" lon="8.1693838"><ele>168.0</ele><time>2026-03-29T14:49:56.064Z</time></trkpt><trkpt lat="45.14507" lon="8.1691437"><ele>168.0</ele><time>2026-03-29T14:49:57.064Z</time></trkpt><trkpt lat="45.144969" lon="8.168866"><ele>168.0</ele><time>2026-03-29T14:49:58.064Z</time></trkpt><trkpt lat="45.1448704" lon="8.1685981"><ele>168.33333333333334</ele><time>2026-03-29T14:49:59.064Z</time></trkpt><trkpt lat="45.144765" lon="8.168315"><ele>168.66666666666669</ele><time>2026-03-29T14:50:00.064Z</time></trkpt><trkpt lat="45.144661" lon="8.1680378"><ele>169.0</ele><time>2026-03-29T14:50:01.064Z</time></trkpt><trkpt lat="45.1445654" lon="8.1677266"><ele>169.0</ele><time>2026-03-29T14:50:02.064Z</time></trkpt><trkpt lat="45.1444545" lon="8.1674458"><ele>169.0</ele><time>2026-03-29T14:50:03.064Z</time></trkpt><trkpt lat="45.1443567" lon="8.1671752"><ele>169.0</ele><time>2026-03-29T14:50:04.064Z</time></trkpt><trkpt lat="45.1442564" lon="8.1668997"><ele>169.33333333333334</ele><time>2026-03-29T14:50:05.064Z</time></trkpt><trkpt lat="45.1441589" lon="8.1666408"><ele>169.66666666666666</ele><time>2026-03-29T14:50:06.064Z</time></trkpt><trkpt lat="45.144058" lon="8.1663771"><ele>170.0</ele><time>2026-03-29T14:50:07.064Z</time></trkpt><trkpt lat="45.1439636" lon="8.1661178"><ele>170.0</ele><time>2026-03-29T14:50:08.064Z</time></trkpt><trkpt lat="45.1438773" lon="8.1658484"><ele>170.0</ele><time>2026-03-29T14:50:09.064Z</time></trkpt><trkpt lat="45.1437931" lon="8.1655842"><ele>170.0</ele><time>2026-03-29T14:50:10.064Z</time></trkpt><trkpt lat="45.1437064" lon="8.1653253"><ele>170.66666666666666</ele><time>2026-03-29T14:50:11.064Z</time></trkpt><trkpt lat="45.1436072" lon="8.1650656"><ele>171.33333333333334</ele><time>2026-03-29T14:50:12.064Z</time></trkpt><trkpt lat="45.1434993" lon="8.1648156"><ele>172.0</ele><time>2026-03-29T14:50:13.064Z</time></trkpt><trkpt lat="45.1433916" lon="8.164566"><ele>172.0</ele><time>2026-03-29T14:50:14.064Z</time></trkpt><trkpt lat="45.1432961" lon="8.1642909"><ele>172.0</ele><time>2026-03-29T14:50:15.064Z</time></trkpt><trkpt lat="45.1432006" lon="8.1640232"><ele>172.0</ele><time>2026-03-29T14:50:16.064Z</time></trkpt><trkpt lat="45.1431062" lon="8.1637489"><ele>172.33333333333334</ele><time>2026-03-29T14:50:17.064Z</time></trkpt><trkpt lat="45.1429993" lon="8.1634676"><ele>172.66666666666666</ele><time>2026-03-29T14:50:18.064Z</time></trkpt><trkpt lat="45.1428885" lon="8.1632092"><ele>173.0</ele><time>2026-03-29T14:50:19.064Z</time></trkpt><trkpt lat="45.1427719" lon="8.162968"><ele>174.33333333333331</ele><time>2026-03-29T14:50:20.064Z</time></trkpt><trkpt lat="45.1426519" lon="8.1627288"><ele>175.66666666666666</ele><time>2026-03-29T14:50:21.064Z</time></trkpt><trkpt lat="45.1425329" lon="8.1625052"><ele>177.0</ele><time>2026-03-29T14:50:22.064Z</time></trkpt><trkpt lat="45.1424095" lon="8.1622966"><ele>177.0</ele><time>2026-03-29T14:50:23.064Z</time></trkpt><trkpt lat="45.1423033" lon="8.162097"><ele>177.0</ele><time>2026-03-29T14:50:24.064Z</time></trkpt><trkpt lat="45.1422038" lon="8.1619012"><ele>177.0</ele><time>2026-03-29T14:50:25.064Z</time></trkpt><trkpt lat="45.1420997" lon="8.1617079"><ele>177.33333333333334</ele><time>2026-03-29T14:50:26.064Z</time></trkpt><trkpt lat="45.1419985" lon="8.1615096"><ele>177.66666666666669</ele><time>2026-03-29T14:50:27.064Z</time></trkpt><trkpt lat="45.1418992" lon="8.1613017"><ele>178.0</ele><time>2026-03-29T14:50:28.064Z</time></trkpt><trkpt lat="45.1418168" lon="8.1610842"><ele>178.0</ele><time>2026-03-29T14:50:29.064Z</time></trkpt><trkpt lat="45.1417429" lon="8.1608594"><ele>178.0</ele><time>2026-03-29T14:50:30.064Z</time></trkpt><trkpt lat="45.1416808" lon="8.1606371"><ele>178.0</ele><time>2026-03-29T14:50:31.064Z</time></trkpt><trkpt lat="45.1416264" lon="8.1604414"><ele>178.5</ele><time>2026-03-29T14:50:32.064Z</time></trkpt><trkpt lat="45.1415826" lon="8.160264"><ele>179.0</ele><time>2026-03-29T14:50:33.064Z</time></trkpt><trkpt lat="45.1415344" lon="8.1601124"><ele>179.5</ele><time>2026-03-29T14:50:34.064Z</time></trkpt><trkpt lat="45.1414493" lon="8.1599833"><ele>180.0</ele><time>2026-03-29T14:50:35.064Z</time></trkpt><trkpt lat="45.1413424" lon="8.1598625"><ele>180.0</ele><time>2026-03-29T14:50:36.064Z</time></trkpt><trkpt lat="45.1412164" lon="8.1597481"><ele>180.0</ele><time>2026-03-29T14:50:37.064Z</time></trkpt><trkpt lat="45.1410903" lon="8.1596186"><ele>180.0</ele><time>2026-03-29T14:50:38.064Z</time></trkpt><trkpt lat="45.1409752" lon="8.159468"><ele>180.0</ele><time>2026-03-29T14:50:39.064Z</time></trkpt><trkpt lat="45.1408531" lon="8.1593718"><ele>180.0</ele><time>2026-03-29T14:50:40.064Z</time></trkpt><trkpt lat="45.1407376" lon="8.1592521"><ele>180.0</ele><time>2026-03-29T14:50:41.064Z</time></trkpt><trkpt lat="45.1406191" lon="8.1592152"><ele>180.0</ele><time>2026-03-29T14:50:42.064Z</time></trkpt><trkpt lat="45.1405057" lon="8.1591863"><ele>179.25</ele><time>2026-03-29T14:50:43.064Z</time></trkpt><trkpt lat="45.1403591" lon="8.1591863"><ele>178.5</ele><time>2026-03-29T14:50:44.064Z</time></trkpt><trkpt lat="45.1402401" lon="8.159119"><ele>177.75</ele><time>2026-03-29T14:50:45.063Z</time></trkpt><trkpt lat="45.1401185" lon="8.1590017"><ele>177.0</ele><time>2026-03-29T14:50:46.064Z</time></trkpt><trkpt lat="45.1399873" lon="8.1588591"><ele>177.66666666666666</ele><time>2026-03-29T14:50:47.064Z</time></trkpt><trkpt lat="45.1398523" lon="8.1586873"><ele>178.33333333333331</ele><time>2026-03-29T14:50:48.064Z</time></trkpt><trkpt lat="45.1397207" lon="8.1585248"><ele>179.0</ele><time>2026-03-29T14:50:49.063Z</time></trkpt><trkpt lat="45.1396035" lon="8.1583647"><ele>181.33333333333331</ele><time>2026-03-29T14:50:50.064Z</time></trkpt><trkpt lat="45.139495" lon="8.1581857"><ele>183.66666666666666</ele><time>2026-03-29T14:50:51.064Z</time></trkpt><trkpt lat="45.1393768" lon="8.1580153"><ele>186.0</ele><time>2026-03-29T14:50:52.064Z</time></trkpt><trkpt lat="45.1392528" lon="8.1578522"><ele>186.0</ele><time>2026-03-29T14:50:53.064Z</time></trkpt><trkpt lat="45.139128" lon="8.1576767"><ele>186.0</ele><time>2026-03-29T14:50:54.064Z</time></trkpt><trkpt lat="45.1390043" lon="8.1574845"><ele>186.0</ele><time>2026-03-29T14:50:55.064Z</time></trkpt><trkpt lat="45.1389052" lon="8.1572851"><ele>185.66666666666666</ele><time>2026-03-29T14:50:56.064Z</time></trkpt><trkpt lat="45.1388104" lon="8.1570911"><ele>185.33333333333331</ele><time>2026-03-29T14:50:57.064Z</time></trkpt><trkpt lat="45.1387246" lon="8.1569131"><ele>185.0</ele><time>2026-03-29T14:50:58.064Z</time></trkpt><trkpt lat="45.1386368" lon="8.1567385"><ele>185.0</ele><time>2026-03-29T14:50:59.064Z</time></trkpt><trkpt lat="45.1385433" lon="8.1565561"><ele>185.0</ele><time>2026-03-29T14:51:00.064Z</time></trkpt><trkpt lat="45.138427" lon="8.1563871"><ele>185.0</ele><time>2026-03-29T14:51:01.064Z</time></trkpt><trkpt lat="45.1382907" lon="8.1562265"><ele>184.0</ele><time>2026-03-29T14:51:02.064Z</time></trkpt><trkpt lat="45.1381344" lon="8.156082"><ele>183.0</ele><time>2026-03-29T14:51:03.064Z</time></trkpt><trkpt lat="45.1379951" lon="8.1559353"><ele>182.0</ele><time>2026-03-29T14:51:04.064Z</time></trkpt><trkpt lat="45.1378791" lon="8.1557867"><ele>183.25</ele><time>2026-03-29T14:51:05.064Z</time></trkpt><trkpt lat="45.1377724" lon="8.1556414"><ele>184.5</ele><time>2026-03-29T14:51:06.064Z</time></trkpt><trkpt lat="45.1376572" lon="8.1555266"><ele>185.75</ele><time>2026-03-29T14:51:07.064Z</time></trkpt><trkpt lat="45.1375202" lon="8.1554386"><ele>187.0</ele><time>2026-03-29T14:51:08.064Z</time></trkpt><trkpt lat="45.1373868" lon="8.1553367"><ele>187.0</ele><time>2026-03-29T14:51:09.064Z</time></trkpt><trkpt lat="45.1372613" lon="8.1552072"><ele>187.0</ele><time>2026-03-29T14:51:10.064Z</time></trkpt><trkpt lat="45.1371491" lon="8.1550462"><ele>187.0</ele><time>2026-03-29T14:51:11.064Z</time></trkpt><trkpt lat="45.1370465" lon="8.154862"><ele>187.0</ele><time>2026-03-29T14:51:12.064Z</time></trkpt><trkpt lat="45.1369353" lon="8.1546739"><ele>187.0</ele><time>2026-03-29T14:51:13.064Z</time></trkpt><trkpt lat="45.136821" lon="8.1544905"><ele>187.0</ele><time>2026-03-29T14:51:14.064Z</time></trkpt><trkpt lat="45.1366972" lon="8.1543106"><ele>187.0</ele><time>2026-03-29T14:51:15.063Z</time></trkpt><trkpt lat="45.1365685" lon="8.1541484"><ele>187.0</ele><time>2026-03-29T14:51:16.064Z</time></trkpt><trkpt lat="45.1364481" lon="8.1540017"><ele>187.0</ele><time>2026-03-29T14:51:17.064Z</time></trkpt><trkpt lat="45.1363375" lon="8.1538719"><ele>187.2</ele><time>2026-03-29T14:51:18.064Z</time></trkpt><trkpt lat="45.1362504" lon="8.1537608"><ele>187.39999999999998</ele><time>2026-03-29T14:51:19.064Z</time></trkpt><trkpt lat="45.1361885" lon="8.1536345"><ele>187.60000000000002</ele><time>2026-03-29T14:51:20.064Z</time></trkpt><trkpt lat="45.1361494" lon="8.1534962"><ele>187.8</ele><time>2026-03-29T14:51:21.064Z</time></trkpt><trkpt lat="45.1361483" lon="8.1533375"><ele>188.0</ele><time>2026-03-29T14:51:22.064Z</time></trkpt><trkpt lat="45.1361695" lon="8.153163"><ele>191.4</ele><time>2026-03-29T14:51:23.064Z</time></trkpt><trkpt lat="45.1361781" lon="8.1529859"><ele>194.8</ele><time>2026-03-29T14:51:24.064Z</time></trkpt><trkpt lat="45.1361855" lon="8.1528198"><ele>198.2</ele><time>2026-03-29T14:51:25.064Z</time></trkpt><trkpt lat="45.1361762" lon="8.1526824"><ele>201.6</ele><time>2026-03-29T14:51:26.064Z</time></trkpt><trkpt lat="45.1361507" lon="8.1525823"><ele>205.0</ele><time>2026-03-29T14:51:27.064Z</time></trkpt><trkpt lat="45.1361063" lon="8.1525071"><ele>205.0</ele><time>2026-03-29T14:51:28.064Z</time></trkpt><trkpt lat="45.1360361" lon="8.1524739"><ele>205.0</ele><time>2026-03-29T14:51:29.064Z</time></trkpt><trkpt lat="45.1359453" lon="8.152489"><ele>205.0</ele><time>2026-03-29T14:51:30.064Z</time></trkpt><trkpt lat="45.1358641" lon="8.152496"><ele>205.0</ele><time>2026-03-29T14:51:31.064Z</time></trkpt><trkpt lat="45.1357924" lon="8.1525347"><ele>205.0</ele><time>2026-03-29T14:51:32.064Z</time></trkpt><trkpt lat="45.1356529" lon="8.1525714"><ele>203.75</ele><time>2026-03-29T14:51:33.064Z</time></trkpt><trkpt lat="45.1355465" lon="8.1525852"><ele>202.5</ele><time>2026-03-29T14:51:34.064Z</time></trkpt><trkpt lat="45.1354132" lon="8.1526546"><ele>201.25</ele><time>2026-03-29T14:51:35.063Z</time></trkpt><trkpt lat="45.1352928" lon="8.1527275"><ele>200.0</ele><time>2026-03-29T14:51:36.064Z</time></trkpt><trkpt lat="45.1351705" lon="8.1527843"><ele>200.0</ele><time>2026-03-29T14:51:37.064Z</time></trkpt><trkpt lat="45.1350608" lon="8.1528219"><ele>200.0</ele><time>2026-03-29T14:51:38.064Z</time></trkpt><trkpt lat="45.1349606" lon="8.1528437"><ele>200.0</ele><time>2026-03-29T14:51:39.064Z</time></trkpt><trkpt lat="45.1348611" lon="8.1528298"><ele>200.0</ele><time>2026-03-29T14:51:40.064Z</time></trkpt><trkpt lat="45.1347752" lon="8.1527955"><ele>200.0</ele><time>2026-03-29T14:51:41.064Z</time></trkpt><trkpt lat="45.134698" lon="8.1527291"><ele>198.4</ele><time>2026-03-29T14:51:42.064Z</time></trkpt><trkpt lat="45.1346366" lon="8.1526193"><ele>196.8</ele><time>2026-03-29T14:51:43.064Z</time></trkpt><trkpt lat="45.1345724" lon="8.152523"><ele>195.2</ele><time>2026-03-29T14:51:44.064Z</time></trkpt><trkpt lat="45.1344807" lon="8.1524715"><ele>193.6</ele><time>2026-03-29T14:51:45.063Z</time></trkpt><trkpt lat="45.1343969" lon="8.1524185"><ele>192.0</ele><time>2026-03-29T14:51:46.064Z</time></trkpt><trkpt lat="45.1342775" lon="8.1523779"><ele>192.75</ele><time>2026-03-29T14:51:47.064Z</time></trkpt><trkpt lat="45.1341522" lon="8.1523442"><ele>193.5</ele><time>2026-03-29T14:51:48.064Z</time></trkpt><trkpt lat="45.1340001" lon="8.152315"><ele>194.25</ele><time>2026-03-29T14:51:49.064Z</time></trkpt><trkpt lat="45.1338433" lon="8.1522672"><ele>195.0</ele><time>2026-03-29T14:51:50.064Z</time></trkpt><trkpt lat="45.1336783" lon="8.1522234"><ele>195.0</ele><time>2026-03-29T14:51:51.064Z</time></trkpt><trkpt lat="45.1335251" lon="8.152161"><ele>195.0</ele><time>2026-03-29T14:51:52.064Z</time></trkpt><trkpt lat="45.1333769" lon="8.1521028"><ele>195.0</ele><time>2026-03-29T14:51:53.064Z</time></trkpt><trkpt lat="45.1332331" lon="8.1520477"><ele>194.0</ele><time>2026-03-29T14:51:54.064Z</time></trkpt><trkpt lat="45.133098" lon="8.1520113"><ele>193.0</ele><time>2026-03-29T14:51:55.064Z</time></trkpt><trkpt lat="45.1329615" lon="8.1519634"><ele>192.0</ele><time>2026-03-29T14:51:56.064Z</time></trkpt><trkpt lat="45.1328416" lon="8.1518625"><ele>191.0</ele><time>2026-03-29T14:51:57.064Z</time></trkpt><trkpt lat="45.1327287" lon="8.151747"><ele>191.0</ele><time>2026-03-29T14:51:58.064Z</time></trkpt><trkpt lat="45.1325988" lon="8.1516466"><ele>191.0</ele><time>2026-03-29T14:51:59.064Z</time></trkpt><trkpt lat="45.1324717" lon="8.1515579"><ele>191.0</ele><time>2026-03-29T14:52:00.064Z</time></trkpt><trkpt lat="45.1323596" lon="8.1514504"><ele>191.0</ele><time>2026-03-29T14:52:01.064Z</time></trkpt><trkpt lat="45.1322383" lon="8.1513273"><ele>191.33333333333331</ele><time>2026-03-29T14:52:02.063Z</time></trkpt><trkpt lat="45.1321299" lon="8.151205"><ele>191.66666666666666</ele><time>2026-03-29T14:52:03.064Z</time></trkpt><trkpt lat="45.1319984" lon="8.1510733"><ele>192.0</ele><time>2026-03-29T14:52:04.064Z</time></trkpt><trkpt lat="45.1318751" lon="8.1509419"><ele>192.0</ele><time>2026-03-29T14:52:05.064Z</time></trkpt><trkpt lat="45.1317513" lon="8.1508071"><ele>192.0</ele><time>2026-03-29T14:52:06.064Z</time></trkpt><trkpt lat="45.1316222" lon="8.1506704"><ele>192.0</ele><time>2026-03-29T14:52:07.064Z</time></trkpt><trkpt lat="45.1314803" lon="8.1505459"><ele>193.0</ele><time>2026-03-29T14:52:08.064Z</time></trkpt><trkpt lat="45.1313304" lon="8.1504277"><ele>194.0</ele><time>2026-03-29T14:52:09.064Z</time></trkpt><trkpt lat="45.1311869" lon="8.150323"><ele>195.0</ele><time>2026-03-29T14:52:10.064Z</time></trkpt><trkpt lat="45.1310401" lon="8.150208"><ele>195.0</ele><time>2026-03-29T14:52:11.064Z</time></trkpt><trkpt lat="45.1308972" lon="8.150088"><ele>195.0</ele><time>2026-03-29T14:52:12.064Z</time></trkpt><trkpt lat="45.1307485" lon="8.1499827"><ele>195.0</ele><time>2026-03-29T14:52:13.063Z</time></trkpt><trkpt lat="45.1305908" lon="8.1498817"><ele>194.0</ele><time>2026-03-29T14:52:14.064Z</time></trkpt><trkpt lat="45.1304343" lon="8.1497933"><ele>193.0</ele><time>2026-03-29T14:52:15.064Z</time></trkpt><trkpt lat="45.1302816" lon="8.1497302"><ele>192.0</ele><time>2026-03-29T14:52:16.064Z</time></trkpt><trkpt lat="45.1301331" lon="8.1496921"><ele>192.0</ele><time>2026-03-29T14:52:17.064Z</time></trkpt><trkpt lat="45.1300007" lon="8.149642"><ele>192.0</ele><time>2026-03-29T14:52:18.064Z</time></trkpt><trkpt lat="45.1298839" lon="8.1495832"><ele>192.0</ele><time>2026-03-29T14:52:19.064Z</time></trkpt><trkpt lat="45.1297706" lon="8.1495169"><ele>192.0</ele><time>2026-03-29T14:52:20.064Z</time></trkpt><trkpt lat="45.1296496" lon="8.1494626"><ele>194.25</ele><time>2026-03-29T14:52:21.064Z</time></trkpt><trkpt lat="45.1295333" lon="8.1494323"><ele>196.5</ele><time>2026-03-29T14:52:22.064Z</time></trkpt><trkpt lat="45.1294061" lon="8.1494848"><ele>198.75</ele><time>2026-03-29T14:52:23.064Z</time></trkpt><trkpt lat="45.129287" lon="8.1495656"><ele>201.0</ele><time>2026-03-29T14:52:24.064Z</time></trkpt><trkpt lat="45.129162" lon="8.1496449"><ele>201.0</ele><time>2026-03-29T14:52:25.064Z</time></trkpt><trkpt lat="45.1290421" lon="8.1496963"><ele>201.0</ele><time>2026-03-29T14:52:26.064Z</time></trkpt><trkpt lat="45.1289232" lon="8.1497236"><ele>201.0</ele><time>2026-03-29T14:52:27.064Z</time></trkpt><trkpt lat="45.1287829" lon="8.1497067"><ele>201.0</ele><time>2026-03-29T14:52:28.064Z</time></trkpt><trkpt lat="45.128644" lon="8.1496641"><ele>201.0</ele><time>2026-03-29T14:52:29.064Z</time></trkpt><trkpt lat="45.1285108" lon="8.1496176"><ele>201.0</ele><time>2026-03-29T14:52:30.063Z</time></trkpt><trkpt lat="45.128378" lon="8.1495526"><ele>201.0</ele><time>2026-03-29T14:52:31.064Z</time></trkpt><trkpt lat="45.1282476" lon="8.149483"><ele>201.0</ele><time>2026-03-29T14:52:32.064Z</time></trkpt><trkpt lat="45.1281271" lon="8.1494069"><ele>200.75</ele><time>2026-03-29T14:52:33.063Z</time></trkpt><trkpt lat="45.1280107" lon="8.1493098"><ele>200.5</ele><time>2026-03-29T14:52:34.064Z</time></trkpt><trkpt lat="45.1278861" lon="8.1491965"><ele>200.25</ele><time>2026-03-29T14:52:35.064Z</time></trkpt><trkpt lat="45.127771" lon="8.1490705"><ele>200.0</ele><time>2026-03-29T14:52:36.064Z</time></trkpt><trkpt lat="45.1276471" lon="8.148949"><ele>200.0</ele><time>2026-03-29T14:52:37.064Z</time></trkpt><trkpt lat="45.1275208" lon="8.1488299"><ele>200.0</ele><time>2026-03-29T14:52:38.064Z</time></trkpt><trkpt lat="45.1273969" lon="8.1486967"><ele>200.0</ele><time>2026-03-29T14:52:39.064Z</time></trkpt><trkpt lat="45.1272729" lon="8.148591"><ele>198.75</ele><time>2026-03-29T14:52:40.064Z</time></trkpt><trkpt lat="45.1271663" lon="8.1484743"><ele>197.5</ele><time>2026-03-29T14:52:41.064Z</time></trkpt><trkpt lat="45.1270673" lon="8.1483736"><ele>196.25</ele><time>2026-03-29T14:52:42.064Z</time></trkpt><trkpt lat="45.1269611" lon="8.1482859"><ele>195.0</ele><time>2026-03-29T14:52:43.064Z</time></trkpt><trkpt lat="45.1268539" lon="8.14821"><ele>195.5</ele><time>2026-03-29T14:52:44.064Z</time></trkpt><trkpt lat="45.1267148" lon="8.1481766"><ele>196.0</ele><time>2026-03-29T14:52:45.064Z</time></trkpt><trkpt lat="45.1265729" lon="8.1481549"><ele>196.5</ele><time>2026-03-29T14:52:46.064Z</time></trkpt><trkpt lat="45.126411" lon="8.1481598"><ele>197.0</ele><time>2026-03-29T14:52:47.064Z</time></trkpt><trkpt lat="45.1262643" lon="8.1481374"><ele>197.0</ele><time>2026-03-29T14:52:48.064Z</time></trkpt><trkpt lat="45.126126" lon="8.1480787"><ele>197.0</ele><time>2026-03-29T14:52:49.064Z</time></trkpt><trkpt lat="45.1259909" lon="8.1480384"><ele>197.0</ele><time>2026-03-29T14:52:50.064Z</time></trkpt><trkpt lat="45.1258529" lon="8.1479863"><ele>197.0</ele><time>2026-03-29T14:52:51.064Z</time></trkpt><trkpt lat="45.1256952" lon="8.1479361"><ele>197.5</ele><time>2026-03-29T14:52:52.064Z</time></trkpt><trkpt lat="45.1255732" lon="8.1478109"><ele>198.0</ele><time>2026-03-29T14:52:53.064Z</time></trkpt><trkpt lat="45.125449" lon="8.1477074"><ele>198.5</ele><time>2026-03-29T14:52:54.064Z</time></trkpt><trkpt lat="45.1253319" lon="8.1476113"><ele>199.0</ele><time>2026-03-29T14:52:55.064Z</time></trkpt><trkpt lat="45.1252013" lon="8.1475251"><ele>199.0</ele><time>2026-03-29T14:52:56.064Z</time></trkpt><trkpt lat="45.1250713" lon="8.1474312"><ele>199.0</ele><time>2026-03-29T14:52:57.064Z</time></trkpt><trkpt lat="45.1249189" lon="8.1473598"><ele>199.0</ele><time>2026-03-29T14:52:58.064Z</time></trkpt><trkpt lat="45.1247794" lon="8.1472869"><ele>199.0</ele><time>2026-03-29T14:52:59.064Z</time></trkpt><trkpt lat="45.1246493" lon="8.1472136"><ele>199.0</ele><time>2026-03-29T14:53:00.064Z</time></trkpt><trkpt lat="45.1245069" lon="8.1471413"><ele>199.0</ele><time>2026-03-29T14:53:01.064Z</time></trkpt><trkpt lat="45.1243833" lon="8.1470648"><ele>199.0</ele><time>2026-03-29T14:53:02.064Z</time></trkpt><trkpt lat="45.1242241" lon="8.1470037"><ele>199.0</ele><time>2026-03-29T14:53:03.064Z</time></trkpt><trkpt lat="45.1240701" lon="8.1469409"><ele>199.0</ele><time>2026-03-29T14:53:04.064Z</time></trkpt><trkpt lat="45.123911" lon="8.1468765"><ele>199.0</ele><time>2026-03-29T14:53:05.064Z</time></trkpt><trkpt lat="45.1237422" lon="8.146816"><ele>201.66666666666666</ele><time>2026-03-29T14:53:06.064Z</time></trkpt><trkpt lat="45.123578" lon="8.1467418"><ele>204.33333333333331</ele><time>2026-03-29T14:53:07.064Z</time></trkpt><trkpt lat="45.123412" lon="8.1466569"><ele>207.0</ele><time>2026-03-29T14:53:08.064Z</time></trkpt><trkpt lat="45.1232382" lon="8.1465515"><ele>206.66666666666669</ele><time>2026-03-29T14:53:09.063Z</time></trkpt><trkpt lat="45.1230735" lon="8.1464444"><ele>206.33333333333334</ele><time>2026-03-29T14:53:10.064Z</time></trkpt><trkpt lat="45.1229064" lon="8.1463716"><ele>206.0</ele><time>2026-03-29T14:53:11.064Z</time></trkpt><trkpt lat="45.1227575" lon="8.1462895"><ele>206.0</ele><time>2026-03-29T14:53:12.064Z</time></trkpt><trkpt lat="45.122611" lon="8.1462031"><ele>206.0</ele><time>2026-03-29T14:53:13.064Z</time></trkpt><trkpt lat="45.1224966" lon="8.1461237"><ele>206.0</ele><time>2026-03-29T14:53:14.064Z</time></trkpt><trkpt lat="45.1223789" lon="8.1460563"><ele>206.0</ele><time>2026-03-29T14:53:15.064Z</time></trkpt><trkpt lat="45.1222455" lon="8.1460107"><ele>207.0</ele><time>2026-03-29T14:53:16.064Z</time></trkpt><trkpt lat="45.1221237" lon="8.1459656"><ele>208.0</ele><time>2026-03-29T14:53:17.064Z</time></trkpt><trkpt lat="45.1220046" lon="8.1459272"><ele>209.0</ele><time>2026-03-29T14:53:18.064Z</time></trkpt><trkpt lat="45.1218903" lon="8.1458913"><ele>210.0</ele><time>2026-03-29T14:53:19.064Z</time></trkpt><trkpt lat="45.1217734" lon="8.1458451"><ele>210.0</ele><time>2026-03-29T14:53:20.064Z</time></trkpt><trkpt lat="45.1216556" lon="8.1457829"><ele>210.0</ele><time>2026-03-29T14:53:21.064Z</time></trkpt><trkpt lat="45.1215602" lon="8.1456983"><ele>210.0</ele><time>2026-03-29T14:53:22.064Z</time></trkpt><trkpt lat="45.121473" lon="8.1455847"><ele>210.0</ele><time>2026-03-29T14:53:23.064Z</time></trkpt><trkpt lat="45.121401" lon="8.1454048"><ele>211.66666666666669</ele><time>2026-03-29T14:53:24.064Z</time></trkpt><trkpt lat="45.1213199" lon="8.1452118"><ele>213.33333333333334</ele><time>2026-03-29T14:53:25.064Z</time></trkpt><trkpt lat="45.1212335" lon="8.1450171"><ele>215.0</ele><time>2026-03-29T14:53:26.063Z</time></trkpt><trkpt lat="45.121143" lon="8.1448239"><ele>215.0</ele><time>2026-03-29T14:53:27.064Z</time></trkpt><trkpt lat="45.1210577" lon="8.1446237"><ele>215.0</ele><time>2026-03-29T14:53:28.064Z</time></trkpt><trkpt lat="45.1209787" lon="8.1444118"><ele>215.0</ele><time>2026-03-29T14:53:29.064Z</time></trkpt><trkpt lat="45.1209105" lon="8.144183"><ele>214.33333333333334</ele><time>2026-03-29T14:53:30.064Z</time></trkpt><trkpt lat="45.1208424" lon="8.1439486"><ele>213.66666666666669</ele><time>2026-03-29T14:53:31.064Z</time></trkpt><trkpt lat="45.1207779" lon="8.1437285"><ele>213.0</ele><time>2026-03-29T14:53:32.064Z</time></trkpt><trkpt lat="45.1207065" lon="8.1435212"><ele>216.33333333333331</ele><time>2026-03-29T14:53:33.064Z</time></trkpt><trkpt lat="45.1206159" lon="8.1433214"><ele>219.66666666666666</ele><time>2026-03-29T14:53:34.063Z</time></trkpt><trkpt lat="45.1205286" lon="8.1431063"><ele>223.0</ele><time>2026-03-29T14:53:35.064Z</time></trkpt><trkpt lat="45.1204327" lon="8.1428978"><ele>223.0</ele><time>2026-03-29T14:53:36.064Z</time></trkpt><trkpt lat="45.1203336" lon="8.1426986"><ele>223.0</ele><time>2026-03-29T14:53:37.064Z</time></trkpt><trkpt lat="45.1202357" lon="8.1424838"><ele>223.0</ele><time>2026-03-29T14:53:38.064Z</time></trkpt><trkpt lat="45.1201452" lon="8.14226"><ele>220.66666666666666</ele><time>2026-03-29T14:53:39.063Z</time></trkpt><trkpt lat="45.120066" lon="8.1420346"><ele>218.33333333333331</ele><time>2026-03-29T14:53:40.064Z</time></trkpt><trkpt lat="45.1199856" lon="8.1417987"><ele>216.0</ele><time>2026-03-29T14:53:41.064Z</time></trkpt><trkpt lat="45.1199203" lon="8.1415796"><ele>217.0</ele><time>2026-03-29T14:53:42.064Z</time></trkpt><trkpt lat="45.1198582" lon="8.1413703"><ele>218.0</ele><time>2026-03-29T14:53:43.064Z</time></trkpt><trkpt lat="45.1197929" lon="8.14118"><ele>219.0</ele><time>2026-03-29T14:53:44.064Z</time></trkpt><trkpt lat="45.1197145" lon="8.1410128"><ele>219.0</ele><time>2026-03-29T14:53:45.064Z</time></trkpt><trkpt lat="45.1196167" lon="8.1408595"><ele>219.0</ele><time>2026-03-29T14:53:46.064Z</time></trkpt><trkpt lat="45.1194965" lon="8.1407455"><ele>219.0</ele><time>2026-03-29T14:53:47.064Z</time></trkpt><trkpt lat="45.1193659" lon="8.1406426"><ele>219.0</ele><time>2026-03-29T14:53:48.063Z</time></trkpt><trkpt lat="45.119207" lon="8.1405605"><ele>218.66666666666669</ele><time>2026-03-29T14:53:49.064Z</time></trkpt><trkpt lat="45.1190363" lon="8.1404808"><ele>218.33333333333334</ele><time>2026-03-29T14:53:50.064Z</time></trkpt><trkpt lat="45.118881" lon="8.1403873"><ele>218.0</ele><time>2026-03-29T14:53:51.064Z</time></trkpt><trkpt lat="45.1187273" lon="8.1402778"><ele>218.0</ele><time>2026-03-29T14:53:52.064Z</time></trkpt><trkpt lat="45.1185715" lon="8.1401684"><ele>218.0</ele><time>2026-03-29T14:53:53.064Z</time></trkpt><trkpt lat="45.1184241" lon="8.1400577"><ele>218.0</ele><time>2026-03-29T14:53:54.064Z</time></trkpt><trkpt lat="45.1182727" lon="8.1399513"><ele>217.33333333333334</ele><time>2026-03-29T14:53:55.064Z</time></trkpt><trkpt lat="45.1181141" lon="8.1398658"><ele>216.66666666666669</ele><time>2026-03-29T14:53:56.064Z</time></trkpt><trkpt lat="45.1179519" lon="8.139818"><ele>216.0</ele><time>2026-03-29T14:53:57.064Z</time></trkpt><trkpt lat="45.1177969" lon="8.1397758"><ele>216.0</ele><time>2026-03-29T14:53:58.064Z</time></trkpt><trkpt lat="45.117656" lon="8.1396983"><ele>216.0</ele><time>2026-03-29T14:53:59.064Z</time></trkpt><trkpt lat="45.1175158" lon="8.1396125"><ele>216.0</ele><time>2026-03-29T14:54:00.064Z</time></trkpt><trkpt lat="45.117392" lon="8.139469"><ele>218.0</ele><time>2026-03-29T14:54:01.064Z</time></trkpt><trkpt lat="45.117278" lon="8.1393267"><ele>220.0</ele><time>2026-03-29T14:54:02.063Z</time></trkpt><trkpt lat="45.1171578" lon="8.1391707"><ele>222.0</ele><time>2026-03-29T14:54:03.064Z</time></trkpt><trkpt lat="45.1170322" lon="8.1390263"><ele>222.0</ele><time>2026-03-29T14:54:04.064Z</time></trkpt><trkpt lat="45.1169074" lon="8.1388762"><ele>222.0</ele><time>2026-03-29T14:54:05.064Z</time></trkpt><trkpt lat="45.1167984" lon="8.1387305"><ele>222.0</ele><time>2026-03-29T14:54:06.064Z</time></trkpt><trkpt lat="45.1166842" lon="8.1386106"><ele>222.0</ele><time>2026-03-29T14:54:07.064Z</time></trkpt><trkpt lat="45.1165739" lon="8.1385128"><ele>222.0</ele><time>2026-03-29T14:54:08.064Z</time></trkpt><trkpt lat="45.1164476" lon="8.1384329"><ele>222.0</ele><time>2026-03-29T14:54:09.064Z</time></trkpt><trkpt lat="45.1163267" lon="8.1383732"><ele>222.0</ele><time>2026-03-29T14:54:10.064Z</time></trkpt><trkpt lat="45.1161988" lon="8.1383236"><ele>224.0</ele><time>2026-03-29T14:54:11.064Z</time></trkpt><trkpt lat="45.1160751" lon="8.1383173"><ele>226.0</ele><time>2026-03-29T14:54:12.064Z</time></trkpt><trkpt lat="45.1159397" lon="8.1383167"><ele>228.0</ele><time>2026-03-29T14:54:13.064Z</time></trkpt><trkpt lat="45.1158129" lon="8.1382802"><ele>230.0</ele><time>2026-03-29T14:54:14.064Z</time></trkpt><trkpt lat="45.1157228" lon="8.1382182"><ele>229.2</ele><time>2026-03-29T14:54:15.064Z</time></trkpt><trkpt lat="45.1156492" lon="8.1382027"><ele>228.4</ele><time>2026-03-29T14:54:16.064Z</time></trkpt><trkpt lat="45.1155818" lon="8.1381986"><ele>227.60000000000002</ele><time>2026-03-29T14:54:17.064Z</time></trkpt><trkpt lat="45.115485" lon="8.138355"><ele>226.8</ele><time>2026-03-29T14:54:19.064Z</time></trkpt><trkpt lat="45.115446" lon="8.138554"><ele>226.0</ele><time>2026-03-29T14:54:20.064Z</time></trkpt><trkpt lat="45.1155756" lon="8.1386317"><ele>227.0</ele><time>2026-03-29T14:54:21.064Z</time></trkpt><trkpt lat="45.1156283" lon="8.1387052"><ele>228.0</ele><time>2026-03-29T14:54:22.064Z</time></trkpt><trkpt lat="45.1157848" lon="8.1387563"><ele>229.0</ele><time>2026-03-29T14:54:23.064Z</time></trkpt><trkpt lat="45.1158905" lon="8.1388866"><ele>230.0</ele><time>2026-03-29T14:54:24.064Z</time></trkpt><trkpt lat="45.1159701" lon="8.1390404"><ele>234.0</ele><time>2026-03-29T14:54:25.064Z</time></trkpt><trkpt lat="45.1160358" lon="8.1391947"><ele>238.0</ele><time>2026-03-29T14:54:26.064Z</time></trkpt><trkpt lat="45.1160928" lon="8.1393649"><ele>242.0</ele><time>2026-03-29T14:54:27.064Z</time></trkpt><trkpt lat="45.1161529" lon="8.139543"><ele>246.0</ele><time>2026-03-29T14:54:28.064Z</time></trkpt><trkpt lat="45.1162257" lon="8.1397291"><ele>251.25</ele><time>2026-03-29T14:54:29.064Z</time></trkpt><trkpt lat="45.1163059" lon="8.1398966"><ele>256.5</ele><time>2026-03-29T14:54:30.064Z</time></trkpt><trkpt lat="45.1163875" lon="8.1400558"><ele>261.75</ele><time>2026-03-29T14:54:31.064Z</time></trkpt><trkpt lat="45.1164696" lon="8.1401744"><ele>267.0</ele><time>2026-03-29T14:54:32.064Z</time></trkpt><trkpt lat="45.1165292" lon="8.1402837"><ele>267.0</ele><time>2026-03-29T14:54:33.064Z</time></trkpt><trkpt lat="45.1165855" lon="8.1403805"><ele>267.0</ele><time>2026-03-29T14:54:34.064Z</time></trkpt><trkpt lat="45.1166113" lon="8.1404642"><ele>267.0</ele><time>2026-03-29T14:54:35.064Z</time></trkpt><trkpt lat="45.1165919" lon="8.1405517"><ele>267.0</ele><time>2026-03-29T14:54:36.064Z</time></trkpt><trkpt lat="45.1165132" lon="8.1406506"><ele>267.0</ele><time>2026-03-29T14:54:38.064Z</time></trkpt><trkpt lat="45.1164536" lon="8.1406207"><ele>267.0</ele><time>2026-03-29T14:54:39.064Z</time></trkpt><trkpt lat="45.1164058" lon="8.1405471"><ele>267.0</ele><time>2026-03-29T14:54:40.064Z</time></trkpt><trkpt lat="45.1163545" lon="8.1404446"><ele>267.0</ele><time>2026-03-29T14:54:41.064Z</time></trkpt><trkpt lat="45.1163061" lon="8.1403558"><ele>267.0</ele><time>2026-03-29T14:54:42.064Z</time></trkpt><trkpt lat="45.1162354" lon="8.1402144"><ele>267.0</ele><time>2026-03-29T14:54:43.063Z</time></trkpt><trkpt lat="45.116158" lon="8.1401008"><ele>267.0</ele><time>2026-03-29T14:54:44.064Z</time></trkpt><trkpt lat="45.1160539" lon="8.1399954"><ele>267.0</ele><time>2026-03-29T14:54:45.064Z</time></trkpt><trkpt lat="45.1159542" lon="8.1399065"><ele>267.0</ele><time>2026-03-29T14:54:46.064Z</time></trkpt><trkpt lat="45.1158445" lon="8.1398322"><ele>267.0</ele><time>2026-03-29T14:54:47.064Z</time></trkpt><trkpt lat="45.1158158" lon="8.1396742"><ele>267.0</ele><time>2026-03-29T14:54:48.063Z</time></trkpt><trkpt lat="45.1157479" lon="8.139573"><ele>264.8</ele><time>2026-03-29T14:54:49.064Z</time></trkpt><trkpt lat="45.1156808" lon="8.1394935"><ele>262.6</ele><time>2026-03-29T14:54:50.064Z</time></trkpt><trkpt lat="45.1155797" lon="8.1394623"><ele>260.40000000000003</ele><time>2026-03-29T14:54:51.064Z</time></trkpt><trkpt lat="45.1154725" lon="8.1394216"><ele>258.2</ele><time>2026-03-29T14:54:52.064Z</time></trkpt><trkpt lat="45.1153572" lon="8.1393883"><ele>256.0</ele><time>2026-03-29T14:54:53.064Z</time></trkpt><trkpt lat="45.1152281" lon="8.1394085"><ele>256.0</ele><time>2026-03-29T14:54:54.064Z</time></trkpt><trkpt lat="45.115121" lon="8.139441"><ele>256.0</ele><time>2026-03-29T14:54:55.064Z</time></trkpt><trkpt lat="45.1150092" lon="8.1395557"><ele>256.0</ele><time>2026-03-29T14:54:56.064Z</time></trkpt><trkpt lat="45.1148873" lon="8.139659"><ele>256.0</ele><time>2026-03-29T14:54:57.064Z</time></trkpt><trkpt lat="45.1147864" lon="8.1397509"><ele>255.25</ele><time>2026-03-29T14:54:58.064Z</time></trkpt><trkpt lat="45.114684" lon="8.1398736"><ele>254.5</ele><time>2026-03-29T14:54:59.064Z</time></trkpt><trkpt lat="45.114584" lon="8.1399758"><ele>253.75</ele><time>2026-03-29T14:55:00.064Z</time></trkpt><trkpt lat="45.1144744" lon="8.1400591"><ele>253.0</ele><time>2026-03-29T14:55:01.064Z</time></trkpt><trkpt lat="45.1143569" lon="8.1401342"><ele>253.75</ele><time>2026-03-29T14:55:02.063Z</time></trkpt><trkpt lat="45.114242" lon="8.1402033"><ele>254.5</ele><time>2026-03-29T14:55:03.064Z</time></trkpt><trkpt lat="45.114134" lon="8.1403034"><ele>255.25</ele><time>2026-03-29T14:55:04.063Z</time></trkpt><trkpt lat="45.1140515" lon="8.1404174"><ele>256.0</ele><time>2026-03-29T14:55:05.064Z</time></trkpt><trkpt lat="45.1139778" lon="8.1405342"><ele>256.0</ele><time>2026-03-29T14:55:06.064Z</time></trkpt><trkpt lat="45.1139336" lon="8.1406552"><ele>256.0</ele><time>2026-03-29T14:55:07.064Z</time></trkpt><trkpt lat="45.1139157" lon="8.1407931"><ele>256.0</ele><time>2026-03-29T14:55:08.064Z</time></trkpt><trkpt lat="45.1139451" lon="8.140939"><ele>256.0</ele><time>2026-03-29T14:55:09.064Z</time></trkpt><trkpt lat="45.1139928" lon="8.141091"><ele>256.0</ele><time>2026-03-29T14:55:10.064Z</time></trkpt><trkpt lat="45.1140182" lon="8.1412499"><ele>258.0</ele><time>2026-03-29T14:55:11.064Z</time></trkpt><trkpt lat="45.1140077" lon="8.1414134"><ele>260.0</ele><time>2026-03-29T14:55:12.064Z</time></trkpt><trkpt lat="45.1139715" lon="8.1415782"><ele>262.0</ele><time>2026-03-29T14:55:13.064Z</time></trkpt><trkpt lat="45.1139062" lon="8.1417488"><ele>264.0</ele><time>2026-03-29T14:55:14.064Z</time></trkpt><trkpt lat="45.1138208" lon="8.1419112"><ele>266.25</ele><time>2026-03-29T14:55:15.064Z</time></trkpt><trkpt lat="45.1137201" lon="8.1420398"><ele>268.5</ele><time>2026-03-29T14:55:16.063Z</time></trkpt><trkpt lat="45.1136127" lon="8.1421746"><ele>270.75</ele><time>2026-03-29T14:55:17.064Z</time></trkpt><trkpt lat="45.1135124" lon="8.1423115"><ele>273.0</ele><time>2026-03-29T14:55:18.064Z</time></trkpt><trkpt lat="45.1134013" lon="8.1424275"><ele>275.5</ele><time>2026-03-29T14:55:19.064Z</time></trkpt><trkpt lat="45.1133276" lon="8.1426065"><ele>278.0</ele><time>2026-03-29T14:55:20.064Z</time></trkpt><trkpt lat="45.1132679" lon="8.1427649"><ele>280.5</ele><time>2026-03-29T14:55:21.064Z</time></trkpt><trkpt lat="45.1132171" lon="8.1429064"><ele>283.0</ele><time>2026-03-29T14:55:22.064Z</time></trkpt><trkpt lat="45.1131972" lon="8.1430758"><ele>286.0</ele><time>2026-03-29T14:55:23.064Z</time></trkpt><trkpt lat="45.1131963" lon="8.1432365"><ele>289.0</ele><time>2026-03-29T14:55:24.064Z</time></trkpt><trkpt lat="45.1131682" lon="8.1433731"><ele>292.0</ele><time>2026-03-29T14:55:25.064Z</time></trkpt><trkpt lat="45.1131179" lon="8.143501"><ele>295.0</ele><time>2026-03-29T14:55:26.064Z</time></trkpt><trkpt lat="45.1130294" lon="8.1435932"><ele>298.0</ele><time>2026-03-29T14:55:27.064Z</time></trkpt><trkpt lat="45.1129298" lon="8.14364"><ele>298.0</ele><time>2026-03-29T14:55:28.064Z</time></trkpt><trkpt lat="45.1128221" lon="8.143635"><ele>298.0</ele><time>2026-03-29T14:55:29.064Z</time></trkpt><trkpt lat="45.1127237" lon="8.1435693"><ele>298.0</ele><time>2026-03-29T14:55:30.064Z</time></trkpt><trkpt lat="45.1126378" lon="8.1434512"><ele>298.0</ele><time>2026-03-29T14:55:31.064Z</time></trkpt><trkpt lat="45.1125603" lon="8.1433259"><ele>298.0</ele><time>2026-03-29T14:55:32.064Z</time></trkpt><trkpt lat="45.1124833" lon="8.1432157"><ele>298.0</ele><time>2026-03-29T14:55:33.064Z</time></trkpt><trkpt lat="45.1124" lon="8.1431287"><ele>298.0</ele><time>2026-03-29T14:55:34.064Z</time></trkpt><trkpt lat="45.1123076" lon="8.1431128"><ele>298.0</ele><time>2026-03-29T14:55:35.064Z</time></trkpt><trkpt lat="45.1121997" lon="8.1431"><ele>298.0</ele><time>2026-03-29T14:55:36.064Z</time></trkpt><trkpt lat="45.1120629" lon="8.1431376"><ele>297.75</ele><time>2026-03-29T14:55:37.064Z</time></trkpt><trkpt lat="45.1119297" lon="8.1431563"><ele>297.5</ele><time>2026-03-29T14:55:38.064Z</time></trkpt><trkpt lat="45.1118076" lon="8.1431846"><ele>297.25</ele><time>2026-03-29T14:55:39.064Z</time></trkpt><trkpt lat="45.1116762" lon="8.1432441"><ele>297.0</ele><time>2026-03-29T14:55:40.064Z</time></trkpt><trkpt lat="45.1115479" lon="8.1433061"><ele>297.0</ele><time>2026-03-29T14:55:41.064Z</time></trkpt><trkpt lat="45.1114569" lon="8.1433928"><ele>297.0</ele><time>2026-03-29T14:55:42.064Z</time></trkpt><trkpt lat="45.1113363" lon="8.1435025"><ele>297.0</ele><time>2026-03-29T14:55:43.063Z</time></trkpt><trkpt lat="45.1112121" lon="8.1435774"><ele>297.0</ele><time>2026-03-29T14:55:44.064Z</time></trkpt><trkpt lat="45.1110757" lon="8.1436234"><ele>297.0</ele><time>2026-03-29T14:55:45.064Z</time></trkpt><trkpt lat="45.110938" lon="8.1436469"><ele>297.0</ele><time>2026-03-29T14:55:46.064Z</time></trkpt><trkpt lat="45.1108014" lon="8.1436687"><ele>297.0</ele><time>2026-03-29T14:55:47.064Z</time></trkpt><trkpt lat="45.110657" lon="8.1436951"><ele>297.0</ele><time>2026-03-29T14:55:48.064Z</time></trkpt><trkpt lat="45.1105506" lon="8.1437035"><ele>297.25</ele><time>2026-03-29T14:55:49.064Z</time></trkpt><trkpt lat="45.1104448" lon="8.1437483"><ele>297.5</ele><time>2026-03-29T14:55:50.064Z</time></trkpt><trkpt lat="45.1103363" lon="8.1439763"><ele>297.75</ele><time>2026-03-29T14:55:51.064Z</time></trkpt><trkpt lat="45.1102483" lon="8.1440772"><ele>298.0</ele><time>2026-03-29T14:55:52.064Z</time></trkpt><trkpt lat="45.1101448" lon="8.1441724"><ele>300.2</ele><time>2026-03-29T14:55:53.064Z</time></trkpt><trkpt lat="45.1100501" lon="8.1442358"><ele>302.4</ele><time>2026-03-29T14:55:54.064Z</time></trkpt><trkpt lat="45.1099434" lon="8.1442904"><ele>304.59999999999997</ele><time>2026-03-29T14:55:55.064Z</time></trkpt><trkpt lat="45.1098605" lon="8.1443089"><ele>306.8</ele><time>2026-03-29T14:55:56.064Z</time></trkpt><trkpt lat="45.1097941" lon="8.1442588"><ele>309.0</ele><time>2026-03-29T14:55:57.064Z</time></trkpt><trkpt lat="45.1097145" lon="8.1442449"><ele>308.5</ele><time>2026-03-29T14:55:58.064Z</time></trkpt><trkpt lat="45.109624" lon="8.1441611"><ele>308.0</ele><time>2026-03-29T14:55:59.064Z</time></trkpt><trkpt lat="45.1095422" lon="8.144051"><ele>307.5</ele><time>2026-03-29T14:56:00.064Z</time></trkpt><trkpt lat="45.1094399" lon="8.143923"><ele>307.0</ele><time>2026-03-29T14:56:01.064Z</time></trkpt><trkpt lat="45.1093397" lon="8.1437899"><ele>307.0</ele><time>2026-03-29T14:56:02.064Z</time></trkpt><trkpt lat="45.1092529" lon="8.1436272"><ele>307.0</ele><time>2026-03-29T14:56:03.064Z</time></trkpt><trkpt lat="45.1091755" lon="8.1434564"><ele>307.0</ele><time>2026-03-29T14:56:04.064Z</time></trkpt><trkpt lat="45.1091007" lon="8.1432758"><ele>307.0</ele><time>2026-03-29T14:56:05.063Z</time></trkpt><trkpt lat="45.1090163" lon="8.1431021"><ele>305.5</ele><time>2026-03-29T14:56:06.064Z</time></trkpt><trkpt lat="45.1089306" lon="8.1429314"><ele>304.0</ele><time>2026-03-29T14:56:07.064Z</time></trkpt><trkpt lat="45.1088624" lon="8.1427746"><ele>302.5</ele><time>2026-03-29T14:56:08.064Z</time></trkpt><trkpt lat="45.1087875" lon="8.1426345"><ele>301.0</ele><time>2026-03-29T14:56:09.063Z</time></trkpt><trkpt lat="45.1087304" lon="8.1424927"><ele>300.5</ele><time>2026-03-29T14:56:10.064Z</time></trkpt><trkpt lat="45.108759" lon="8.1423307"><ele>300.0</ele><time>2026-03-29T14:56:11.064Z</time></trkpt><trkpt lat="45.1087381" lon="8.142174"><ele>299.5</ele><time>2026-03-29T14:56:12.064Z</time></trkpt><trkpt lat="45.1086969" lon="8.142014"><ele>299.0</ele><time>2026-03-29T14:56:13.064Z</time></trkpt><trkpt lat="45.1086333" lon="8.1418589"><ele>299.0</ele><time>2026-03-29T14:56:14.064Z</time></trkpt><trkpt lat="45.1085524" lon="8.1417271"><ele>299.0</ele><time>2026-03-29T14:56:15.064Z</time></trkpt><trkpt lat="45.1084451" lon="8.1415869"><ele>299.0</ele><time>2026-03-29T14:56:16.064Z</time></trkpt><trkpt lat="45.1083343" lon="8.1414499"><ele>299.0</ele><time>2026-03-29T14:56:17.064Z</time></trkpt><trkpt lat="45.1082185" lon="8.1413118"><ele>300.5</ele><time>2026-03-29T14:56:18.063Z</time></trkpt><trkpt lat="45.108103" lon="8.141193"><ele>302.0</ele><time>2026-03-29T14:56:19.064Z</time></trkpt><trkpt lat="45.1079829" lon="8.1410692"><ele>303.5</ele><time>2026-03-29T14:56:20.064Z</time></trkpt><trkpt lat="45.1078685" lon="8.1409334"><ele>305.0</ele><time>2026-03-29T14:56:21.064Z</time></trkpt><trkpt lat="45.1077585" lon="8.1407786"><ele>304.6666666666667</ele><time>2026-03-29T14:56:22.064Z</time></trkpt><trkpt lat="45.1076452" lon="8.140609"><ele>304.3333333333333</ele><time>2026-03-29T14:56:23.064Z</time></trkpt><trkpt lat="45.1075305" lon="8.1404263"><ele>304.0</ele><time>2026-03-29T14:56:24.064Z</time></trkpt><trkpt lat="45.1074196" lon="8.1402479"><ele>304.0</ele><time>2026-03-29T14:56:25.064Z</time></trkpt><trkpt lat="45.1072999" lon="8.1400757"><ele>304.0</ele><time>2026-03-29T14:56:26.064Z</time></trkpt><trkpt lat="45.1071834" lon="8.1399015"><ele>304.0</ele><time>2026-03-29T14:56:27.064Z</time></trkpt><trkpt lat="45.1070762" lon="8.1397352"><ele>304.0</ele><time>2026-03-29T14:56:28.064Z</time></trkpt><trkpt lat="45.1069672" lon="8.1395631"><ele>304.0</ele><time>2026-03-29T14:56:29.064Z</time></trkpt><trkpt lat="45.1069201" lon="8.1393564"><ele>304.0</ele><time>2026-03-29T14:56:30.064Z</time></trkpt><trkpt lat="45.1068945" lon="8.1391273"><ele>305.3333333333333</ele><time>2026-03-29T14:56:31.064Z</time></trkpt><trkpt lat="45.1068796" lon="8.1388898"><ele>306.6666666666667</ele><time>2026-03-29T14:56:32.064Z</time></trkpt><trkpt lat="45.106864" lon="8.138644"><ele>308.0</ele><time>2026-03-29T14:56:33.064Z</time></trkpt><trkpt lat="45.1068424" lon="8.138403"><ele>311.0</ele><time>2026-03-29T14:56:34.063Z</time></trkpt><trkpt lat="45.1068241" lon="8.138159"><ele>314.0</ele><time>2026-03-29T14:56:35.064Z</time></trkpt><trkpt lat="45.1068098" lon="8.1379144"><ele>317.0</ele><time>2026-03-29T14:56:36.064Z</time></trkpt><trkpt lat="45.1068079" lon="8.1376789"><ele>317.0</ele><time>2026-03-29T14:56:37.064Z</time></trkpt><trkpt lat="45.1068162" lon="8.1374197"><ele>317.0</ele><time>2026-03-29T14:56:38.064Z</time></trkpt><trkpt lat="45.1068723" lon="8.1371856"><ele>317.0</ele><time>2026-03-29T14:56:39.063Z</time></trkpt><trkpt lat="45.1069313" lon="8.13695"><ele>319.33333333333337</ele><time>2026-03-29T14:56:40.064Z</time></trkpt><trkpt lat="45.1070024" lon="8.1367113"><ele>321.6666666666667</ele><time>2026-03-29T14:56:41.064Z</time></trkpt><trkpt lat="45.1070778" lon="8.1364777"><ele>324.0</ele><time>2026-03-29T14:56:42.064Z</time></trkpt><trkpt lat="45.1071439" lon="8.136243"><ele>325.0</ele><time>2026-03-29T14:56:43.064Z</time></trkpt><trkpt lat="45.1072082" lon="8.1360317"><ele>326.0</ele><time>2026-03-29T14:56:44.064Z</time></trkpt><trkpt lat="45.107267" lon="8.1358158"><ele>327.0</ele><time>2026-03-29T14:56:45.064Z</time></trkpt><trkpt lat="45.1073245" lon="8.1355985"><ele>327.25</ele><time>2026-03-29T14:56:46.064Z</time></trkpt><trkpt lat="45.1073769" lon="8.1353962"><ele>327.5</ele><time>2026-03-29T14:56:47.064Z</time></trkpt><trkpt lat="45.1074313" lon="8.1351989"><ele>327.75</ele><time>2026-03-29T14:56:48.064Z</time></trkpt><trkpt lat="45.1074623" lon="8.1350368"><ele>328.0</ele><time>2026-03-29T14:56:49.064Z</time></trkpt><trkpt lat="45.1075006" lon="8.1348692"><ele>327.0</ele><time>2026-03-29T14:56:50.064Z</time></trkpt><trkpt lat="45.1075369" lon="8.1347372"><ele>326.0</ele><time>2026-03-29T14:56:51.064Z</time></trkpt><trkpt lat="45.1075753" lon="8.1345913"><ele>325.0</ele><time>2026-03-29T14:56:52.064Z</time></trkpt><trkpt lat="45.107609" lon="8.134443"><ele>324.0</ele><time>2026-03-29T14:56:53.064Z</time></trkpt><trkpt lat="45.1076002" lon="8.1343482"><ele>323.0</ele><time>2026-03-29T14:56:54.064Z</time></trkpt><trkpt lat="45.1075604" lon="8.1342232"><ele>323.0</ele><time>2026-03-29T14:56:55.064Z</time></trkpt><trkpt lat="45.1074988" lon="8.1341177"><ele>323.0</ele><time>2026-03-29T14:56:56.063Z</time></trkpt><trkpt lat="45.1074203" lon="8.1340266"><ele>323.0</ele><time>2026-03-29T14:56:57.064Z</time></trkpt><trkpt lat="45.1073086" lon="8.1339493"><ele>323.0</ele><time>2026-03-29T14:56:58.063Z</time></trkpt><trkpt lat="45.1072175" lon="8.1338604"><ele>323.0</ele><time>2026-03-29T14:56:59.064Z</time></trkpt><trkpt lat="45.1071229" lon="8.1337722"><ele>321.33333333333337</ele><time>2026-03-29T14:57:00.064Z</time></trkpt><trkpt lat="45.1070346" lon="8.1337058"><ele>319.6666666666667</ele><time>2026-03-29T14:57:01.064Z</time></trkpt><trkpt lat="45.1069494" lon="8.1336533"><ele>318.0</ele><time>2026-03-29T14:57:02.064Z</time></trkpt><trkpt lat="45.1068758" lon="8.1336115"><ele>316.3333333333333</ele><time>2026-03-29T14:57:03.064Z</time></trkpt><trkpt lat="45.1067993" lon="8.1335936"><ele>314.66666666666663</ele><time>2026-03-29T14:57:04.064Z</time></trkpt><trkpt lat="45.1067449" lon="8.1335417"><ele>313.0</ele><time>2026-03-29T14:57:05.064Z</time></trkpt><trkpt lat="45.1066873" lon="8.1334489"><ele>313.0</ele><time>2026-03-29T14:57:06.064Z</time></trkpt><trkpt lat="45.1066759" lon="8.1333553"><ele>313.0</ele><time>2026-03-29T14:57:07.064Z</time></trkpt><trkpt lat="45.1066916" lon="8.1332661"><ele>313.0</ele><time>2026-03-29T14:57:08.064Z</time></trkpt><trkpt lat="45.1067383" lon="8.1331934"><ele>313.0</ele><time>2026-03-29T14:57:09.064Z</time></trkpt><trkpt lat="45.1067974" lon="8.1331129"><ele>313.0</ele><time>2026-03-29T14:57:10.064Z</time></trkpt><trkpt lat="45.106963" lon="8.1330945"><ele>313.0</ele><time>2026-03-29T14:57:12.064Z</time></trkpt><trkpt lat="45.1070386" lon="8.1330837"><ele>311.5</ele><time>2026-03-29T14:57:13.064Z</time></trkpt><trkpt lat="45.1071333" lon="8.1328935"><ele>310.0</ele><time>2026-03-29T14:57:15.064Z</time></trkpt><trkpt lat="45.1071725" lon="8.1327527"><ele>308.5</ele><time>2026-03-29T14:57:16.064Z</time></trkpt><trkpt lat="45.1072028" lon="8.132606"><ele>307.0</ele><time>2026-03-29T14:57:17.064Z</time></trkpt><trkpt lat="45.1072286" lon="8.1324396"><ele>305.25</ele><time>2026-03-29T14:57:18.064Z</time></trkpt><trkpt lat="45.1072579" lon="8.1322592"><ele>303.5</ele><time>2026-03-29T14:57:19.064Z</time></trkpt><trkpt lat="45.1072901" lon="8.1320936"><ele>301.75</ele><time>2026-03-29T14:57:20.064Z</time></trkpt><trkpt lat="45.107313" lon="8.1319264"><ele>300.0</ele><time>2026-03-29T14:57:21.064Z</time></trkpt><trkpt lat="45.1073329" lon="8.1317876"><ele>300.0</ele><time>2026-03-29T14:57:22.063Z</time></trkpt><trkpt lat="45.1073536" lon="8.1316801"><ele>300.0</ele><time>2026-03-29T14:57:23.064Z</time></trkpt><trkpt lat="45.1073487" lon="8.1315781"><ele>300.0</ele><time>2026-03-29T14:57:24.064Z</time></trkpt><trkpt lat="45.1072862" lon="8.1314377"><ele>300.0</ele><time>2026-03-29T14:57:26.064Z</time></trkpt><trkpt lat="45.1072146" lon="8.131405"><ele>300.0</ele><time>2026-03-29T14:57:27.064Z</time></trkpt><trkpt lat="45.107141" lon="8.131362"><ele>300.0</ele><time>2026-03-29T14:57:28.064Z</time></trkpt><trkpt lat="45.1070498" lon="8.1313929"><ele>300.0</ele><time>2026-03-29T14:57:29.063Z</time></trkpt><trkpt lat="45.1069685" lon="8.1315007"><ele>300.0</ele><time>2026-03-29T14:57:30.064Z</time></trkpt><trkpt lat="45.1069062" lon="8.131614"><ele>300.0</ele><time>2026-03-29T14:57:31.064Z</time></trkpt><trkpt lat="45.106839" lon="8.1317572"><ele>300.0</ele><time>2026-03-29T14:57:32.064Z</time></trkpt><trkpt lat="45.1067801" lon="8.1318993"><ele>300.0</ele><time>2026-03-29T14:57:33.064Z</time></trkpt><trkpt lat="45.1067231" lon="8.1320121"><ele>300.0</ele><time>2026-03-29T14:57:34.064Z</time></trkpt><trkpt lat="45.1066077" lon="8.1321293"><ele>300.0</ele><time>2026-03-29T14:57:35.064Z</time></trkpt><trkpt lat="45.1064919" lon="8.1322238"><ele>300.0</ele><time>2026-03-29T14:57:36.064Z</time></trkpt><trkpt lat="45.1063643" lon="8.1322817"><ele>299.0</ele><time>2026-03-29T14:57:37.064Z</time></trkpt><trkpt lat="45.1062348" lon="8.1323356"><ele>298.0</ele><time>2026-03-29T14:57:38.064Z</time></trkpt><trkpt lat="45.1061278" lon="8.1323679"><ele>297.0</ele><time>2026-03-29T14:57:39.064Z</time></trkpt><trkpt lat="45.1060065" lon="8.1324293"><ele>296.0</ele><time>2026-03-29T14:57:40.064Z</time></trkpt><trkpt lat="45.1058796" lon="8.1324767"><ele>296.0</ele><time>2026-03-29T14:57:41.064Z</time></trkpt><trkpt lat="45.1057524" lon="8.1324704"><ele>296.0</ele><time>2026-03-29T14:57:42.064Z</time></trkpt><trkpt lat="45.1056336" lon="8.1324349"><ele>296.0</ele><time>2026-03-29T14:57:43.064Z</time></trkpt><trkpt lat="45.1055248" lon="8.1323374"><ele>296.0</ele><time>2026-03-29T14:57:44.064Z</time></trkpt><trkpt lat="45.1054275" lon="8.1322199"><ele>295.25</ele><time>2026-03-29T14:57:45.064Z</time></trkpt><trkpt lat="45.1053413" lon="8.1320772"><ele>294.5</ele><time>2026-03-29T14:57:46.064Z</time></trkpt><trkpt lat="45.1052464" lon="8.1319175"><ele>293.75</ele><time>2026-03-29T14:57:47.064Z</time></trkpt><trkpt lat="45.1051546" lon="8.1317625"><ele>293.0</ele><time>2026-03-29T14:57:48.064Z</time></trkpt><trkpt lat="45.1050737" lon="8.1315974"><ele>291.75</ele><time>2026-03-29T14:57:49.064Z</time></trkpt><trkpt lat="45.105017" lon="8.1314202"><ele>290.5</ele><time>2026-03-29T14:57:50.064Z</time></trkpt><trkpt lat="45.1049774" lon="8.1312241"><ele>289.25</ele><time>2026-03-29T14:57:51.064Z</time></trkpt><trkpt lat="45.1049376" lon="8.131021"><ele>288.0</ele><time>2026-03-29T14:57:52.064Z</time></trkpt><trkpt lat="45.1049092" lon="8.1308143"><ele>289.5</ele><time>2026-03-29T14:57:53.064Z</time></trkpt><trkpt lat="45.1048728" lon="8.1306103"><ele>291.0</ele><time>2026-03-29T14:57:54.064Z</time></trkpt><trkpt lat="45.1048293" lon="8.1303989"><ele>292.5</ele><time>2026-03-29T14:57:55.064Z</time></trkpt><trkpt lat="45.1048217" lon="8.1302126"><ele>294.0</ele><time>2026-03-29T14:57:56.064Z</time></trkpt><trkpt lat="45.1048042" lon="8.1300345"><ele>294.0</ele><time>2026-03-29T14:57:57.064Z</time></trkpt><trkpt lat="45.1047798" lon="8.1298963"><ele>294.0</ele><time>2026-03-29T14:57:58.064Z</time></trkpt><trkpt lat="45.1047381" lon="8.1297691"><ele>294.0</ele><time>2026-03-29T14:57:59.064Z</time></trkpt><trkpt lat="45.1046838" lon="8.1296558"><ele>294.0</ele><time>2026-03-29T14:58:00.064Z</time></trkpt><trkpt lat="45.1045999" lon="8.1295686"><ele>294.0</ele><time>2026-03-29T14:58:01.064Z</time></trkpt><trkpt lat="45.1044484" lon="8.129513"><ele>286.6666666666667</ele><time>2026-03-29T14:58:02.063Z</time></trkpt><trkpt lat="45.1043034" lon="8.129469"><ele>279.33333333333337</ele><time>2026-03-29T14:58:03.064Z</time></trkpt><trkpt lat="45.1041545" lon="8.1294159"><ele>272.0</ele><time>2026-03-29T14:58:04.064Z</time></trkpt><trkpt lat="45.1039927" lon="8.1293486"><ele>272.0</ele><time>2026-03-29T14:58:05.064Z</time></trkpt><trkpt lat="45.103827" lon="8.1292739"><ele>272.0</ele><time>2026-03-29T14:58:06.064Z</time></trkpt><trkpt lat="45.1036593" lon="8.129206"><ele>272.0</ele><time>2026-03-29T14:58:07.063Z</time></trkpt><trkpt lat="45.1034945" lon="8.129138"><ele>272.0</ele><time>2026-03-29T14:58:08.064Z</time></trkpt><trkpt lat="45.1033154" lon="8.1290843"><ele>272.0</ele><time>2026-03-29T14:58:09.064Z</time></trkpt><trkpt lat="45.1031321" lon="8.1290377"><ele>272.0</ele><time>2026-03-29T14:58:10.064Z</time></trkpt><trkpt lat="45.1029464" lon="8.1290154"><ele>267.6666666666667</ele><time>2026-03-29T14:58:11.064Z</time></trkpt><trkpt lat="45.1027589" lon="8.1290034"><ele>263.3333333333333</ele><time>2026-03-29T14:58:12.064Z</time></trkpt><trkpt lat="45.1025669" lon="8.1289891"><ele>259.0</ele><time>2026-03-29T14:58:13.064Z</time></trkpt><trkpt lat="45.1023846" lon="8.1289998"><ele>258.0</ele><time>2026-03-29T14:58:14.064Z</time></trkpt><trkpt lat="45.1021798" lon="8.1289332"><ele>257.0</ele><time>2026-03-29T14:58:15.064Z</time></trkpt><trkpt lat="45.1019902" lon="8.1288744"><ele>256.0</ele><time>2026-03-29T14:58:16.064Z</time></trkpt><trkpt lat="45.1017881" lon="8.128857"><ele>256.0</ele><time>2026-03-29T14:58:17.063Z</time></trkpt><trkpt lat="45.1015888" lon="8.1288276"><ele>256.0</ele><time>2026-03-29T14:58:18.064Z</time></trkpt><trkpt lat="45.1013919" lon="8.128802"><ele>256.0</ele><time>2026-03-29T14:58:19.064Z</time></trkpt><trkpt lat="45.1011835" lon="8.1287763"><ele>255.66666666666666</ele><time>2026-03-29T14:58:20.064Z</time></trkpt><trkpt lat="45.1009762" lon="8.1287474"><ele>255.33333333333331</ele><time>2026-03-29T14:58:21.064Z</time></trkpt><trkpt lat="45.1007742" lon="8.1287109"><ele>255.0</ele><time>2026-03-29T14:58:22.064Z</time></trkpt><trkpt lat="45.100568" lon="8.1286883"><ele>255.0</ele><time>2026-03-29T14:58:23.064Z</time></trkpt><trkpt lat="45.1003608" lon="8.1286614"><ele>255.0</ele><time>2026-03-29T14:58:24.064Z</time></trkpt><trkpt lat="45.1001628" lon="8.1286284"><ele>255.0</ele><time>2026-03-29T14:58:25.064Z</time></trkpt><trkpt lat="45.0999471" lon="8.1285962"><ele>257.3333333333333</ele><time>2026-03-29T14:58:26.063Z</time></trkpt><trkpt lat="45.0997368" lon="8.1285514"><ele>259.66666666666663</ele><time>2026-03-29T14:58:27.064Z</time></trkpt><trkpt lat="45.099526" lon="8.1285487"><ele>262.0</ele><time>2026-03-29T14:58:28.064Z</time></trkpt><trkpt lat="45.0992897" lon="8.128474"><ele>262.0</ele><time>2026-03-29T14:58:29.064Z</time></trkpt><trkpt lat="45.0991393" lon="8.1283656"><ele>262.0</ele><time>2026-03-29T14:58:30.064Z</time></trkpt><trkpt lat="45.0989549" lon="8.1282856"><ele>262.0</ele><time>2026-03-29T14:58:31.063Z</time></trkpt><trkpt lat="45.0989145" lon="8.1280672"><ele>259.75</ele><time>2026-03-29T14:58:32.064Z</time></trkpt><trkpt lat="45.0987883" lon="8.1279174"><ele>257.5</ele><time>2026-03-29T14:58:33.064Z</time></trkpt><trkpt lat="45.0986633" lon="8.1278153"><ele>255.25</ele><time>2026-03-29T14:58:34.064Z</time></trkpt><trkpt lat="45.0985289" lon="8.1277592"><ele>253.0</ele><time>2026-03-29T14:58:35.064Z</time></trkpt><trkpt lat="45.098392" lon="8.1277135"><ele>253.0</ele><time>2026-03-29T14:58:36.064Z</time></trkpt><trkpt lat="45.0982567" lon="8.1277132"><ele>253.0</ele><time>2026-03-29T14:58:37.064Z</time></trkpt><trkpt lat="45.098087" lon="8.1278329"><ele>253.0</ele><time>2026-03-29T14:58:38.064Z</time></trkpt><trkpt lat="45.0979077" lon="8.1279213"><ele>251.66666666666666</ele><time>2026-03-29T14:58:39.064Z</time></trkpt><trkpt lat="45.0977416" lon="8.1280017"><ele>250.33333333333331</ele><time>2026-03-29T14:58:40.064Z</time></trkpt><trkpt lat="45.0975744" lon="8.1280792"><ele>249.0</ele><time>2026-03-29T14:58:41.064Z</time></trkpt><trkpt lat="45.0973905" lon="8.1281794"><ele>250.0</ele><time>2026-03-29T14:58:42.064Z</time></trkpt><trkpt lat="45.0972126" lon="8.1282833"><ele>251.0</ele><time>2026-03-29T14:58:43.064Z</time></trkpt><trkpt lat="45.097033" lon="8.128387"><ele>252.0</ele><time>2026-03-29T14:58:44.064Z</time></trkpt><trkpt lat="45.0968567" lon="8.1284878"><ele>252.0</ele><time>2026-03-29T14:58:45.064Z</time></trkpt><trkpt lat="45.0966757" lon="8.128571"><ele>252.0</ele><time>2026-03-29T14:58:46.064Z</time></trkpt><trkpt lat="45.0964938" lon="8.1286563"><ele>252.0</ele><time>2026-03-29T14:58:47.064Z</time></trkpt><trkpt lat="45.0963113" lon="8.1286889"><ele>251.33333333333331</ele><time>2026-03-29T14:58:48.064Z</time></trkpt><trkpt lat="45.0961018" lon="8.1287276"><ele>250.66666666666666</ele><time>2026-03-29T14:58:49.064Z</time></trkpt><trkpt lat="45.0959093" lon="8.128697"><ele>250.0</ele><time>2026-03-29T14:58:50.064Z</time></trkpt><trkpt lat="45.0957161" lon="8.128677"><ele>246.66666666666666</ele><time>2026-03-29T14:58:51.064Z</time></trkpt><trkpt lat="45.0955197" lon="8.1286556"><ele>243.33333333333331</ele><time>2026-03-29T14:58:52.064Z</time></trkpt><trkpt lat="45.0953259" lon="8.1286455"><ele>240.0</ele><time>2026-03-29T14:58:53.064Z</time></trkpt><trkpt lat="45.0951473" lon="8.1286534"><ele>240.0</ele><time>2026-03-29T14:58:54.064Z</time></trkpt><trkpt lat="45.0949648" lon="8.1286723"><ele>240.0</ele><time>2026-03-29T14:58:55.064Z</time></trkpt><trkpt lat="45.0947534" lon="8.128735"><ele>240.0</ele><time>2026-03-29T14:58:56.063Z</time></trkpt><trkpt lat="45.0945755" lon="8.128798"><ele>238.66666666666669</ele><time>2026-03-29T14:58:57.064Z</time></trkpt><trkpt lat="45.0943884" lon="8.1288862"><ele>237.33333333333334</ele><time>2026-03-29T14:58:58.064Z</time></trkpt><trkpt lat="45.0941711" lon="8.1290212"><ele>236.0</ele><time>2026-03-29T14:58:59.064Z</time></trkpt><trkpt lat="45.0939647" lon="8.1291647"><ele>236.0</ele><time>2026-03-29T14:59:00.064Z</time></trkpt><trkpt lat="45.093768" lon="8.1293011"><ele>236.0</ele><time>2026-03-29T14:59:01.064Z</time></trkpt><trkpt lat="45.0935742" lon="8.1294162"><ele>236.0</ele><time>2026-03-29T14:59:02.064Z</time></trkpt><trkpt lat="45.0933808" lon="8.1295347"><ele>233.5</ele><time>2026-03-29T14:59:03.064Z</time></trkpt><trkpt lat="45.0931706" lon="8.1296578"><ele>231.0</ele><time>2026-03-29T14:59:04.064Z</time></trkpt><trkpt lat="45.0929686" lon="8.1297929"><ele>230.66666666666669</ele><time>2026-03-29T14:59:05.064Z</time></trkpt><trkpt lat="45.092766" lon="8.1299008"><ele>230.33333333333334</ele><time>2026-03-29T14:59:06.064Z</time></trkpt><trkpt lat="45.0925707" lon="8.1300199"><ele>230.0</ele><time>2026-03-29T14:59:07.064Z</time></trkpt><trkpt lat="45.092357" lon="8.1301414"><ele>230.0</ele><time>2026-03-29T14:59:08.064Z</time></trkpt><trkpt lat="45.092155" lon="8.1302569"><ele>230.0</ele><time>2026-03-29T14:59:09.064Z</time></trkpt><trkpt lat="45.0919562" lon="8.1303755"><ele>230.0</ele><time>2026-03-29T14:59:10.064Z</time></trkpt><trkpt lat="45.0917558" lon="8.130501"><ele>230.0</ele><time>2026-03-29T14:59:11.064Z</time></trkpt><trkpt lat="45.0915559" lon="8.1305849"><ele>230.0</ele><time>2026-03-29T14:59:12.064Z</time></trkpt><trkpt lat="45.0913434" lon="8.1306837"><ele>230.0</ele><time>2026-03-29T14:59:13.064Z</time></trkpt><trkpt lat="45.0911256" lon="8.1307566"><ele>229.66666666666669</ele><time>2026-03-29T14:59:14.063Z</time></trkpt><trkpt lat="45.0909131" lon="8.1308282"><ele>229.33333333333331</ele><time>2026-03-29T14:59:15.064Z</time></trkpt><trkpt lat="45.090702" lon="8.1308954"><ele>229.0</ele><time>2026-03-29T14:59:16.063Z</time></trkpt><trkpt lat="45.0904937" lon="8.1309616"><ele>229.0</ele><time>2026-03-29T14:59:17.064Z</time></trkpt><trkpt lat="45.0902778" lon="8.1310318"><ele>229.0</ele><time>2026-03-29T14:59:18.064Z</time></trkpt><trkpt lat="45.090075" lon="8.1310939"><ele>229.0</ele><time>2026-03-29T14:59:19.064Z</time></trkpt><trkpt lat="45.0898708" lon="8.131142"><ele>228.0</ele><time>2026-03-29T14:59:20.064Z</time></trkpt><trkpt lat="45.0896706" lon="8.1311875"><ele>227.0</ele><time>2026-03-29T14:59:21.064Z</time></trkpt><trkpt lat="45.0895107" lon="8.1312288"><ele>226.0</ele><time>2026-03-29T14:59:22.064Z</time></trkpt><trkpt lat="45.089357" lon="8.131267"><ele>226.0</ele><time>2026-03-29T14:59:23.064Z</time></trkpt><trkpt lat="45.0891919" lon="8.1313079"><ele>226.0</ele><time>2026-03-29T14:59:24.064Z</time></trkpt><trkpt lat="45.0890793" lon="8.1313362"><ele>226.0</ele><time>2026-03-29T14:59:25.064Z</time></trkpt><trkpt lat="45.0889749" lon="8.1313557"><ele>226.0</ele><time>2026-03-29T14:59:26.064Z</time></trkpt><trkpt lat="45.088876" lon="8.1313752"><ele>225.99999999999997</ele><time>2026-03-29T14:59:27.064Z</time></trkpt><trkpt lat="45.0887861" lon="8.13139"><ele>226.0</ele><time>2026-03-29T14:59:28.064Z</time></trkpt><trkpt lat="45.0887098" lon="8.1314117"><ele>226.0</ele><time>2026-03-29T14:59:31.064Z</time></trkpt><trkpt lat="45.0886252" lon="8.131448"><ele>226.0</ele><time>2026-03-29T14:59:33.064Z</time></trkpt><trkpt lat="45.088568" lon="8.1314888"><ele>225.99999999999997</ele><time>2026-03-29T14:59:34.064Z</time></trkpt><trkpt lat="45.0884794" lon="8.1315428"><ele>226.0</ele><time>2026-03-29T14:59:35.064Z</time></trkpt><trkpt lat="45.0883939" lon="8.1315924"><ele>226.0</ele><time>2026-03-29T14:59:36.064Z</time></trkpt><trkpt lat="45.0882698" lon="8.1316544"><ele>226.0</ele><time>2026-03-29T14:59:37.064Z</time></trkpt><trkpt lat="45.0881508" lon="8.1317266"><ele>226.0</ele><time>2026-03-29T14:59:38.064Z</time></trkpt><trkpt lat="45.0880206" lon="8.131815"><ele>226.0</ele><time>2026-03-29T14:59:39.064Z</time></trkpt><trkpt lat="45.087883" lon="8.1319039"><ele>226.66666666666666</ele><time>2026-03-29T14:59:40.064Z</time></trkpt><trkpt lat="45.0877347" lon="8.1319904"><ele>227.33333333333331</ele><time>2026-03-29T14:59:41.064Z</time></trkpt><trkpt lat="45.0875836" lon="8.1320857"><ele>228.0</ele><time>2026-03-29T14:59:42.063Z</time></trkpt><trkpt lat="45.0874331" lon="8.1321851"><ele>228.0</ele><time>2026-03-29T14:59:43.064Z</time></trkpt><trkpt lat="45.0872771" lon="8.1322922"><ele>228.0</ele><time>2026-03-29T14:59:44.064Z</time></trkpt><trkpt lat="45.0871249" lon="8.1323964"><ele>228.0</ele><time>2026-03-29T14:59:45.064Z</time></trkpt><trkpt lat="45.0869725" lon="8.1324813"><ele>228.33333333333331</ele><time>2026-03-29T14:59:46.064Z</time></trkpt><trkpt lat="45.0868149" lon="8.1325627"><ele>228.66666666666666</ele><time>2026-03-29T14:59:47.064Z</time></trkpt><trkpt lat="45.0866595" lon="8.1325838"><ele>229.0</ele><time>2026-03-29T14:59:48.063Z</time></trkpt><trkpt lat="45.0865003" lon="8.1325937"><ele>229.0</ele><time>2026-03-29T14:59:49.064Z</time></trkpt><trkpt lat="45.0863459" lon="8.1325955"><ele>229.0</ele><time>2026-03-29T14:59:50.064Z</time></trkpt><trkpt lat="45.086171" lon="8.1325635"><ele>229.0</ele><time>2026-03-29T14:59:51.064Z</time></trkpt><trkpt lat="45.0859802" lon="8.1325025"><ele>229.0</ele><time>2026-03-29T14:59:52.064Z</time></trkpt><trkpt lat="45.0857929" lon="8.1324438"><ele>229.0</ele><time>2026-03-29T14:59:53.064Z</time></trkpt><trkpt lat="45.0856096" lon="8.1324039"><ele>229.0</ele><time>2026-03-29T14:59:54.064Z</time></trkpt><trkpt lat="45.0854203" lon="8.1323565"><ele>230.33333333333331</ele><time>2026-03-29T14:59:55.064Z</time></trkpt><trkpt lat="45.0852317" lon="8.1323058"><ele>231.66666666666669</ele><time>2026-03-29T14:59:56.064Z</time></trkpt><trkpt lat="45.0850412" lon="8.1322628"><ele>233.0</ele><time>2026-03-29T14:59:57.063Z</time></trkpt><trkpt lat="45.0848553" lon="8.1322147"><ele>235.0</ele><time>2026-03-29T14:59:58.063Z</time></trkpt><trkpt lat="45.08467" lon="8.1321684"><ele>237.0</ele><time>2026-03-29T14:59:59.064Z</time></trkpt><trkpt lat="45.0844815" lon="8.1321174"><ele>239.0</ele><time>2026-03-29T15:00:00.064Z</time></trkpt><trkpt lat="45.0842879" lon="8.1320638"><ele>239.0</ele><time>2026-03-29T15:00:01.064Z</time></trkpt><trkpt lat="45.0841121" lon="8.1320046"><ele>239.0</ele><time>2026-03-29T15:00:02.064Z</time></trkpt><trkpt lat="45.08392" lon="8.131967"><ele>239.0</ele><time>2026-03-29T15:00:03.064Z</time></trkpt><trkpt lat="45.0837502" lon="8.1319203"><ele>239.33333333333334</ele><time>2026-03-29T15:00:04.064Z</time></trkpt><trkpt lat="45.0835754" lon="8.1318812"><ele>239.66666666666669</ele><time>2026-03-29T15:00:05.064Z</time></trkpt><trkpt lat="45.0834059" lon="8.1318117"><ele>240.0</ele><time>2026-03-29T15:00:06.064Z</time></trkpt><trkpt lat="45.0832486" lon="8.131764"><ele>242.0</ele><time>2026-03-29T15:00:07.064Z</time></trkpt><trkpt lat="45.0830874" lon="8.1317569"><ele>244.0</ele><time>2026-03-29T15:00:08.064Z</time></trkpt><trkpt lat="45.0829364" lon="8.1317529"><ele>246.0</ele><time>2026-03-29T15:00:09.064Z</time></trkpt><trkpt lat="45.0828161" lon="8.1318394"><ele>248.0</ele><time>2026-03-29T15:00:10.064Z</time></trkpt><trkpt lat="45.0826968" lon="8.1318995"><ele>248.00000000000003</ele><time>2026-03-29T15:00:11.064Z</time></trkpt><trkpt lat="45.0826161" lon="8.1318985"><ele>248.0</ele><time>2026-03-29T15:00:13.064Z</time></trkpt><trkpt lat="45.0825804" lon="8.1317816"><ele>248.0</ele><time>2026-03-29T15:00:15.064Z</time></trkpt><trkpt lat="45.0825717" lon="8.1316829"><ele>248.0</ele><time>2026-03-29T15:00:16.063Z</time></trkpt><trkpt lat="45.0825291" lon="8.1315871"><ele>248.00000000000003</ele><time>2026-03-29T15:00:17.064Z</time></trkpt><trkpt lat="45.0824649" lon="8.1315313"><ele>248.0</ele><time>2026-03-29T15:00:18.064Z</time></trkpt><trkpt lat="45.0824086" lon="8.1314845"><ele>249.8</ele><time>2026-03-29T15:00:19.064Z</time></trkpt><trkpt lat="45.0823302" lon="8.1314773"><ele>251.60000000000002</ele><time>2026-03-29T15:00:20.064Z</time></trkpt><trkpt lat="45.0822406" lon="8.1314889"><ele>253.39999999999998</ele><time>2026-03-29T15:00:21.064Z</time></trkpt><trkpt lat="45.0821595" lon="8.1314862"><ele>255.2</ele><time>2026-03-29T15:00:22.064Z</time></trkpt><trkpt lat="45.0820794" lon="8.1314903"><ele>257.0</ele><time>2026-03-29T15:00:23.064Z</time></trkpt><trkpt lat="45.0818861" lon="8.1315223"><ele>257.0</ele><time>2026-03-29T15:00:24.064Z</time></trkpt><trkpt lat="45.0817453" lon="8.1315459"><ele>257.0</ele><time>2026-03-29T15:00:25.064Z</time></trkpt><trkpt lat="45.0816022" lon="8.1315688"><ele>257.0</ele><time>2026-03-29T15:00:26.064Z</time></trkpt><trkpt lat="45.0814624" lon="8.1315791"><ele>257.0</ele><time>2026-03-29T15:00:27.064Z</time></trkpt><trkpt lat="45.0813285" lon="8.1315535"><ele>259.75</ele><time>2026-03-29T15:00:28.064Z</time></trkpt><trkpt lat="45.0812007" lon="8.1315323"><ele>262.5</ele><time>2026-03-29T15:00:29.064Z</time></trkpt><trkpt lat="45.0810727" lon="8.131508"><ele>265.25</ele><time>2026-03-29T15:00:30.064Z</time></trkpt><trkpt lat="45.0809603" lon="8.1314861"><ele>268.0</ele><time>2026-03-29T15:00:31.064Z</time></trkpt><trkpt lat="45.0808561" lon="8.1314668"><ele>269.0</ele><time>2026-03-29T15:00:32.064Z</time></trkpt><trkpt lat="45.0807514" lon="8.1314312"><ele>270.0</ele><time>2026-03-29T15:00:33.064Z</time></trkpt><trkpt lat="45.0806464" lon="8.1314164"><ele>271.0</ele><time>2026-03-29T15:00:34.064Z</time></trkpt><trkpt lat="45.080575" lon="8.1313871"><ele>272.0</ele><time>2026-03-29T15:00:35.064Z</time></trkpt><trkpt lat="45.0804801" lon="8.1313719"><ele>273.0</ele><time>2026-03-29T15:00:36.064Z</time></trkpt><trkpt lat="45.0803609" lon="8.1313515"><ele>273.0</ele><time>2026-03-29T15:00:38.063Z</time></trkpt><trkpt lat="45.0802935" lon="8.1313289"><ele>273.0</ele><time>2026-03-29T15:00:39.064Z</time></trkpt><trkpt lat="45.0801996" lon="8.1313198"><ele>273.0</ele><time>2026-03-29T15:00:40.064Z</time></trkpt><trkpt lat="45.0801035" lon="8.1313062"><ele>273.0</ele><time>2026-03-29T15:00:41.064Z</time></trkpt><trkpt lat="45.0799914" lon="8.1312815"><ele>273.0</ele><time>2026-03-29T15:00:42.064Z</time></trkpt><trkpt lat="45.0798411" lon="8.1312683"><ele>269.0</ele><time>2026-03-29T15:00:43.064Z</time></trkpt><trkpt lat="45.0796981" lon="8.131273"><ele>265.0</ele><time>2026-03-29T15:00:44.063Z</time></trkpt><trkpt lat="45.0795489" lon="8.1312842"><ele>261.0</ele><time>2026-03-29T15:00:45.064Z</time></trkpt><trkpt lat="45.079383" lon="8.1313097"><ele>261.0</ele><time>2026-03-29T15:00:46.064Z</time></trkpt><trkpt lat="45.079204" lon="8.1313564"><ele>261.0</ele><time>2026-03-29T15:00:47.064Z</time></trkpt><trkpt lat="45.0790382" lon="8.1314036"><ele>261.0</ele><time>2026-03-29T15:00:48.064Z</time></trkpt><trkpt lat="45.0788506" lon="8.13148"><ele>262.0</ele><time>2026-03-29T15:00:49.064Z</time></trkpt><trkpt lat="45.0786659" lon="8.1315543"><ele>263.0</ele><time>2026-03-29T15:00:50.064Z</time></trkpt><trkpt lat="45.0784755" lon="8.1316355"><ele>264.0</ele><time>2026-03-29T15:00:51.063Z</time></trkpt><trkpt lat="45.0782813" lon="8.1317206"><ele>265.0</ele><time>2026-03-29T15:00:52.064Z</time></trkpt><trkpt lat="45.078088" lon="8.1318172"><ele>266.0</ele><time>2026-03-29T15:00:53.064Z</time></trkpt><trkpt lat="45.0778903" lon="8.1318474"><ele>267.0</ele><time>2026-03-29T15:00:54.064Z</time></trkpt><trkpt lat="45.0776892" lon="8.1318718"><ele>267.0</ele><time>2026-03-29T15:00:55.064Z</time></trkpt><trkpt lat="45.0774908" lon="8.1318798"><ele>267.0</ele><time>2026-03-29T15:00:56.064Z</time></trkpt><trkpt lat="45.0772832" lon="8.1318756"><ele>267.0</ele><time>2026-03-29T15:00:57.064Z</time></trkpt><trkpt lat="45.0770894" lon="8.1318826"><ele>269.6666666666667</ele><time>2026-03-29T15:00:58.064Z</time></trkpt><trkpt lat="45.0768989" lon="8.1318887"><ele>272.33333333333337</ele><time>2026-03-29T15:00:59.064Z</time></trkpt><trkpt lat="45.0767034" lon="8.1318807"><ele>275.0</ele><time>2026-03-29T15:01:00.064Z</time></trkpt><trkpt lat="45.0765336" lon="8.1318644"><ele>277.6666666666667</ele><time>2026-03-29T15:01:01.064Z</time></trkpt><trkpt lat="45.0763411" lon="8.1318773"><ele>280.3333333333333</ele><time>2026-03-29T15:01:02.064Z</time></trkpt><trkpt lat="45.076167" lon="8.1318717"><ele>283.0</ele><time>2026-03-29T15:01:03.064Z</time></trkpt><trkpt lat="45.075993" lon="8.1318537"><ele>283.0</ele><time>2026-03-29T15:01:04.064Z</time></trkpt><trkpt lat="45.0758167" lon="8.1318297"><ele>283.0</ele><time>2026-03-29T15:01:05.064Z</time></trkpt><trkpt lat="45.0756446" lon="8.1318004"><ele>283.0</ele><time>2026-03-29T15:01:06.064Z</time></trkpt><trkpt lat="45.075466" lon="8.1317699"><ele>283.3333333333333</ele><time>2026-03-29T15:01:07.064Z</time></trkpt><trkpt lat="45.075281" lon="8.1317324"><ele>283.6666666666667</ele><time>2026-03-29T15:01:08.064Z</time></trkpt><trkpt lat="45.0751016" lon="8.1316813"><ele>284.0</ele><time>2026-03-29T15:01:09.064Z</time></trkpt><trkpt lat="45.0749035" lon="8.1316435"><ele>282.33333333333337</ele><time>2026-03-29T15:01:10.064Z</time></trkpt><trkpt lat="45.0747076" lon="8.1316142"><ele>280.6666666666667</ele><time>2026-03-29T15:01:11.064Z</time></trkpt><trkpt lat="45.0745112" lon="8.1315928"><ele>279.0</ele><time>2026-03-29T15:01:12.064Z</time></trkpt><trkpt lat="45.0743112" lon="8.1315703"><ele>280.0</ele><time>2026-03-29T15:01:13.064Z</time></trkpt><trkpt lat="45.0741174" lon="8.1315552"><ele>281.0</ele><time>2026-03-29T15:01:14.064Z</time></trkpt><trkpt lat="45.0739234" lon="8.1315175"><ele>282.0</ele><time>2026-03-29T15:01:15.064Z</time></trkpt><trkpt lat="45.0737475" lon="8.1315273"><ele>280.6666666666667</ele><time>2026-03-29T15:01:16.064Z</time></trkpt><trkpt lat="45.0735684" lon="8.1315284"><ele>279.33333333333337</ele><time>2026-03-29T15:01:17.064Z</time></trkpt><trkpt lat="45.0733896" lon="8.1316047"><ele>278.0</ele><time>2026-03-29T15:01:18.064Z</time></trkpt><trkpt lat="45.0732169" lon="8.1316513"><ele>277.6666666666667</ele><time>2026-03-29T15:01:19.064Z</time></trkpt><trkpt lat="45.0730232" lon="8.1316999"><ele>277.3333333333333</ele><time>2026-03-29T15:01:20.064Z</time></trkpt><trkpt lat="45.0728346" lon="8.1317637"><ele>277.0</ele><time>2026-03-29T15:01:21.064Z</time></trkpt><trkpt lat="45.0726386" lon="8.1318245"><ele>277.0</ele><time>2026-03-29T15:01:22.064Z</time></trkpt><trkpt lat="45.072466" lon="8.1318568"><ele>277.0</ele><time>2026-03-29T15:01:23.064Z</time></trkpt><trkpt lat="45.0723115" lon="8.1318457"><ele>277.0</ele><time>2026-03-29T15:01:24.064Z</time></trkpt><trkpt lat="45.0721543" lon="8.1318192"><ele>277.3333333333333</ele><time>2026-03-29T15:01:25.064Z</time></trkpt><trkpt lat="45.0719867" lon="8.1317657"><ele>277.6666666666667</ele><time>2026-03-29T15:01:26.064Z</time></trkpt><trkpt lat="45.0718162" lon="8.1317194"><ele>278.0</ele><time>2026-03-29T15:01:27.064Z</time></trkpt><trkpt lat="45.0716534" lon="8.1316668"><ele>280.0</ele><time>2026-03-29T15:01:28.064Z</time></trkpt><trkpt lat="45.0714699" lon="8.1316228"><ele>282.0</ele><time>2026-03-29T15:01:29.064Z</time></trkpt><trkpt lat="45.0712909" lon="8.1315693"><ele>284.0</ele><time>2026-03-29T15:01:30.064Z</time></trkpt><trkpt lat="45.0711145" lon="8.1315209"><ele>281.33333333333337</ele><time>2026-03-29T15:01:31.063Z</time></trkpt><trkpt lat="45.0709458" lon="8.1314644"><ele>278.6666666666667</ele><time>2026-03-29T15:01:32.064Z</time></trkpt><trkpt lat="45.0707783" lon="8.1313944"><ele>276.0</ele><time>2026-03-29T15:01:33.064Z</time></trkpt><trkpt lat="45.0706115" lon="8.1313097"><ele>276.0</ele><time>2026-03-29T15:01:34.064Z</time></trkpt><trkpt lat="45.0704562" lon="8.131179"><ele>276.0</ele><time>2026-03-29T15:01:35.064Z</time></trkpt><trkpt lat="45.0703299" lon="8.1310174"><ele>276.0</ele><time>2026-03-29T15:01:36.064Z</time></trkpt><trkpt lat="45.0701952" lon="8.1308557"><ele>275.0</ele><time>2026-03-29T15:01:37.064Z</time></trkpt><trkpt lat="45.0700761" lon="8.1306545"><ele>274.0</ele><time>2026-03-29T15:01:38.064Z</time></trkpt><trkpt lat="45.0699524" lon="8.1304555"><ele>273.0</ele><time>2026-03-29T15:01:39.064Z</time></trkpt><trkpt lat="45.0698323" lon="8.1302638"><ele>273.0</ele><time>2026-03-29T15:01:40.064Z</time></trkpt><trkpt lat="45.0697065" lon="8.1300723"><ele>273.0</ele><time>2026-03-29T15:01:41.064Z</time></trkpt><trkpt lat="45.0695698" lon="8.129883"><ele>273.0</ele><time>2026-03-29T15:01:42.064Z</time></trkpt><trkpt lat="45.0694379" lon="8.1297013"><ele>271.75</ele><time>2026-03-29T15:01:43.064Z</time></trkpt><trkpt lat="45.0693335" lon="8.1295458"><ele>270.5</ele><time>2026-03-29T15:01:44.064Z</time></trkpt><trkpt lat="45.0692257" lon="8.1294019"><ele>269.25</ele><time>2026-03-29T15:01:45.064Z</time></trkpt><trkpt lat="45.069107" lon="8.1292929"><ele>268.0</ele><time>2026-03-29T15:01:46.064Z</time></trkpt><trkpt lat="45.0689821" lon="8.1292259"><ele>268.0</ele><time>2026-03-29T15:01:47.064Z</time></trkpt><trkpt lat="45.0688586" lon="8.1291673"><ele>268.0</ele><time>2026-03-29T15:01:48.064Z</time></trkpt><trkpt lat="45.0687313" lon="8.1291548"><ele>268.0</ele><time>2026-03-29T15:01:49.064Z</time></trkpt><trkpt lat="45.0685791" lon="8.1292888"><ele>268.0</ele><time>2026-03-29T15:01:50.064Z</time></trkpt><trkpt lat="45.0684345" lon="8.129365"><ele>268.0</ele><time>2026-03-29T15:01:51.064Z</time></trkpt><trkpt lat="45.0682984" lon="8.1294268"><ele>268.0</ele><time>2026-03-29T15:01:52.064Z</time></trkpt><trkpt lat="45.0681697" lon="8.1294438"><ele>268.0</ele><time>2026-03-29T15:01:53.064Z</time></trkpt><trkpt lat="45.0680039" lon="8.1294274"><ele>268.0</ele><time>2026-03-29T15:01:54.064Z</time></trkpt><trkpt lat="45.0678677" lon="8.1293757"><ele>265.66666666666663</ele><time>2026-03-29T15:01:55.064Z</time></trkpt><trkpt lat="45.0677332" lon="8.1292538"><ele>263.3333333333333</ele><time>2026-03-29T15:01:56.064Z</time></trkpt><trkpt lat="45.0675907" lon="8.1291221"><ele>261.0</ele><time>2026-03-29T15:01:57.064Z</time></trkpt><trkpt lat="45.0674661" lon="8.128978"><ele>260.3333333333333</ele><time>2026-03-29T15:01:58.064Z</time></trkpt><trkpt lat="45.0672959" lon="8.1288422"><ele>259.66666666666663</ele><time>2026-03-29T15:01:59.064Z</time></trkpt><trkpt lat="45.0671393" lon="8.1287117"><ele>259.0</ele><time>2026-03-29T15:02:00.064Z</time></trkpt><trkpt lat="45.066982" lon="8.128584"><ele>259.0</ele><time>2026-03-29T15:02:01.064Z</time></trkpt><trkpt lat="45.0668214" lon="8.128458"><ele>259.0</ele><time>2026-03-29T15:02:02.064Z</time></trkpt><trkpt lat="45.0666641" lon="8.1283219"><ele>259.0</ele><time>2026-03-29T15:02:03.064Z</time></trkpt><trkpt lat="45.0664793" lon="8.1282739"><ele>259.0</ele><time>2026-03-29T15:02:04.063Z</time></trkpt><trkpt lat="45.0662866" lon="8.1282246"><ele>259.0</ele><time>2026-03-29T15:02:05.064Z</time></trkpt><trkpt lat="45.0661007" lon="8.128178"><ele>259.0</ele><time>2026-03-29T15:02:06.064Z</time></trkpt><trkpt lat="45.0659093" lon="8.1281299"><ele>258.3333333333333</ele><time>2026-03-29T15:02:07.064Z</time></trkpt><trkpt lat="45.0657166" lon="8.1280799"><ele>257.6666666666667</ele><time>2026-03-29T15:02:08.064Z</time></trkpt><trkpt lat="45.0655242" lon="8.1280356"><ele>257.0</ele><time>2026-03-29T15:02:09.063Z</time></trkpt><trkpt lat="45.0653321" lon="8.1279948"><ele>257.0</ele><time>2026-03-29T15:02:10.064Z</time></trkpt><trkpt lat="45.0651402" lon="8.1279519"><ele>257.0</ele><time>2026-03-29T15:02:11.064Z</time></trkpt><trkpt lat="45.0649489" lon="8.1279053"><ele>257.0</ele><time>2026-03-29T15:02:12.064Z</time></trkpt><trkpt lat="45.064753" lon="8.127879"><ele>257.0</ele><time>2026-03-29T15:02:13.064Z</time></trkpt><trkpt lat="45.064565" lon="8.127833"><ele>257.0</ele><time>2026-03-29T15:02:14.064Z</time></trkpt><trkpt lat="45.0643734" lon="8.1277895"><ele>257.0</ele><time>2026-03-29T15:02:15.064Z</time></trkpt><trkpt lat="45.0641833" lon="8.127743"><ele>256.0</ele><time>2026-03-29T15:02:16.064Z</time></trkpt><trkpt lat="45.0639955" lon="8.1277051"><ele>255.0</ele><time>2026-03-29T15:02:17.064Z</time></trkpt><trkpt lat="45.063811" lon="8.1276527"><ele>254.0</ele><time>2026-03-29T15:02:18.064Z</time></trkpt><trkpt lat="45.0636431" lon="8.1276083"><ele>254.0</ele><time>2026-03-29T15:02:19.064Z</time></trkpt><trkpt lat="45.0634747" lon="8.1275479"><ele>254.0</ele><time>2026-03-29T15:02:20.064Z</time></trkpt><trkpt lat="45.063304" lon="8.127469"><ele>254.0</ele><time>2026-03-29T15:02:21.064Z</time></trkpt><trkpt lat="45.0631242" lon="8.1274002"><ele>253.66666666666669</ele><time>2026-03-29T15:02:22.064Z</time></trkpt><trkpt lat="45.0629408" lon="8.1273169"><ele>253.33333333333331</ele><time>2026-03-29T15:02:23.064Z</time></trkpt><trkpt lat="45.0627594" lon="8.1272312"><ele>253.0</ele><time>2026-03-29T15:02:24.064Z</time></trkpt><trkpt lat="45.0625844" lon="8.1271624"><ele>248.66666666666666</ele><time>2026-03-29T15:02:25.064Z</time></trkpt><trkpt lat="45.0624147" lon="8.1271015"><ele>244.33333333333331</ele><time>2026-03-29T15:02:26.064Z</time></trkpt><trkpt lat="45.0622572" lon="8.1270255"><ele>240.0</ele><time>2026-03-29T15:02:27.064Z</time></trkpt><trkpt lat="45.0621087" lon="8.1269248"><ele>240.0</ele><time>2026-03-29T15:02:28.064Z</time></trkpt><trkpt lat="45.0619683" lon="8.1268028"><ele>240.0</ele><time>2026-03-29T15:02:29.064Z</time></trkpt><trkpt lat="45.0618372" lon="8.1266412"><ele>240.0</ele><time>2026-03-29T15:02:30.063Z</time></trkpt><trkpt lat="45.0617198" lon="8.1264438"><ele>237.0</ele><time>2026-03-29T15:02:31.064Z</time></trkpt><trkpt lat="45.061594" lon="8.1262504"><ele>234.0</ele><time>2026-03-29T15:02:32.064Z</time></trkpt><trkpt lat="45.0614629" lon="8.1260598"><ele>231.0</ele><time>2026-03-29T15:02:33.063Z</time></trkpt><trkpt lat="45.0613332" lon="8.1258725"><ele>233.33333333333331</ele><time>2026-03-29T15:02:34.064Z</time></trkpt><trkpt lat="45.0612079" lon="8.1256812"><ele>235.66666666666666</ele><time>2026-03-29T15:02:35.064Z</time></trkpt><trkpt lat="45.0610789" lon="8.1254841"><ele>238.0</ele><time>2026-03-29T15:02:36.064Z</time></trkpt><trkpt lat="45.0609487" lon="8.1252849"><ele>238.0</ele><time>2026-03-29T15:02:37.064Z</time></trkpt><trkpt lat="45.0608305" lon="8.1250954"><ele>238.0</ele><time>2026-03-29T15:02:38.064Z</time></trkpt><trkpt lat="45.0607067" lon="8.1249001"><ele>238.0</ele><time>2026-03-29T15:02:39.064Z</time></trkpt><trkpt lat="45.060588" lon="8.1247213"><ele>238.33333333333331</ele><time>2026-03-29T15:02:40.064Z</time></trkpt><trkpt lat="45.0604809" lon="8.1245487"><ele>238.66666666666669</ele><time>2026-03-29T15:02:41.064Z</time></trkpt><trkpt lat="45.0603798" lon="8.1243876"><ele>239.0</ele><time>2026-03-29T15:02:42.064Z</time></trkpt><trkpt lat="45.0602841" lon="8.1242416"><ele>239.0</ele><time>2026-03-29T15:02:43.064Z</time></trkpt><trkpt lat="45.0601827" lon="8.1241097"><ele>239.0</ele><time>2026-03-29T15:02:44.064Z</time></trkpt><trkpt lat="45.0600614" lon="8.1240088"><ele>239.0</ele><time>2026-03-29T15:02:45.064Z</time></trkpt><trkpt lat="45.0599227" lon="8.1239524"><ele>239.0</ele><time>2026-03-29T15:02:46.064Z</time></trkpt><trkpt lat="45.059769" lon="8.1239196"><ele>238.33333333333334</ele><time>2026-03-29T15:02:47.064Z</time></trkpt><trkpt lat="45.0596124" lon="8.1239017"><ele>237.66666666666669</ele><time>2026-03-29T15:02:48.064Z</time></trkpt><trkpt lat="45.0594366" lon="8.1239114"><ele>237.0</ele><time>2026-03-29T15:02:49.064Z</time></trkpt><trkpt lat="45.0592572" lon="8.1239162"><ele>235.66666666666669</ele><time>2026-03-29T15:02:50.064Z</time></trkpt><trkpt lat="45.0590743" lon="8.1239225"><ele>234.33333333333334</ele><time>2026-03-29T15:02:51.064Z</time></trkpt><trkpt lat="45.0588865" lon="8.123931"><ele>233.0</ele><time>2026-03-29T15:02:52.064Z</time></trkpt><trkpt lat="45.0587006" lon="8.1239348"><ele>233.0</ele><time>2026-03-29T15:02:53.064Z</time></trkpt><trkpt lat="45.0585139" lon="8.1239399"><ele>233.0</ele><time>2026-03-29T15:02:54.064Z</time></trkpt><trkpt lat="45.0583304" lon="8.1239418"><ele>233.0</ele><time>2026-03-29T15:02:55.064Z</time></trkpt><trkpt lat="45.0581464" lon="8.1239312"><ele>234.33333333333334</ele><time>2026-03-29T15:02:56.064Z</time></trkpt><trkpt lat="45.0579813" lon="8.1239208"><ele>235.66666666666669</ele><time>2026-03-29T15:02:57.064Z</time></trkpt><trkpt lat="45.0578358" lon="8.1239793"><ele>237.0</ele><time>2026-03-29T15:02:58.064Z</time></trkpt><trkpt lat="45.0576831" lon="8.1240564"><ele>238.0</ele><time>2026-03-29T15:02:59.064Z</time></trkpt><trkpt lat="45.0575279" lon="8.1241615"><ele>239.0</ele><time>2026-03-29T15:03:00.064Z</time></trkpt><trkpt lat="45.0573833" lon="8.1242951"><ele>240.0</ele><time>2026-03-29T15:03:01.064Z</time></trkpt><trkpt lat="45.0572432" lon="8.1244437"><ele>240.0</ele><time>2026-03-29T15:03:02.064Z</time></trkpt><trkpt lat="45.0571035" lon="8.1245715"><ele>240.0</ele><time>2026-03-29T15:03:03.064Z</time></trkpt><trkpt lat="45.0569504" lon="8.1246772"><ele>240.0</ele><time>2026-03-29T15:03:04.064Z</time></trkpt><trkpt lat="45.0568005" lon="8.1247924"><ele>240.0</ele><time>2026-03-29T15:03:05.064Z</time></trkpt><trkpt lat="45.0566225" lon="8.1248742"><ele>240.0</ele><time>2026-03-29T15:03:06.064Z</time></trkpt><trkpt lat="45.0564539" lon="8.1249442"><ele>240.0</ele><time>2026-03-29T15:03:07.063Z</time></trkpt><trkpt lat="45.0562782" lon="8.1250148"><ele>239.33333333333331</ele><time>2026-03-29T15:03:08.064Z</time></trkpt><trkpt lat="45.0561069" lon="8.1250969"><ele>238.66666666666666</ele><time>2026-03-29T15:03:09.064Z</time></trkpt><trkpt lat="45.0559527" lon="8.125196"><ele>238.0</ele><time>2026-03-29T15:03:10.064Z</time></trkpt><trkpt lat="45.0557964" lon="8.1253349"><ele>238.0</ele><time>2026-03-29T15:03:11.064Z</time></trkpt><trkpt lat="45.0556628" lon="8.1255067"><ele>238.0</ele><time>2026-03-29T15:03:12.064Z</time></trkpt><trkpt lat="45.0555369" lon="8.1256829"><ele>238.0</ele><time>2026-03-29T15:03:13.064Z</time></trkpt><trkpt lat="45.0554203" lon="8.1258774"><ele>238.0</ele><time>2026-03-29T15:03:14.064Z</time></trkpt><trkpt lat="45.0553003" lon="8.1260672"><ele>238.0</ele><time>2026-03-29T15:03:15.064Z</time></trkpt><trkpt lat="45.0551762" lon="8.1262623"><ele>238.0</ele><time>2026-03-29T15:03:16.063Z</time></trkpt><trkpt lat="45.0550476" lon="8.1264599"><ele>240.66666666666666</ele><time>2026-03-29T15:03:17.064Z</time></trkpt><trkpt lat="45.0549251" lon="8.1266589"><ele>243.33333333333331</ele><time>2026-03-29T15:03:18.064Z</time></trkpt><trkpt lat="45.0547983" lon="8.1268594"><ele>246.0</ele><time>2026-03-29T15:03:19.064Z</time></trkpt><trkpt lat="45.0546553" lon="8.1270669"><ele>246.0</ele><time>2026-03-29T15:03:20.064Z</time></trkpt><trkpt lat="45.0545402" lon="8.1272711"><ele>246.0</ele><time>2026-03-29T15:03:21.064Z</time></trkpt><trkpt lat="45.0544128" lon="8.1274762"><ele>246.0</ele><time>2026-03-29T15:03:22.064Z</time></trkpt><trkpt lat="45.0542782" lon="8.1276676"><ele>246.33333333333331</ele><time>2026-03-29T15:03:23.064Z</time></trkpt><trkpt lat="45.0541386" lon="8.1278466"><ele>246.66666666666666</ele><time>2026-03-29T15:03:24.064Z</time></trkpt><trkpt lat="45.0539884" lon="8.1280117"><ele>247.0</ele><time>2026-03-29T15:03:25.064Z</time></trkpt><trkpt lat="45.0538295" lon="8.1281683"><ele>246.33333333333331</ele><time>2026-03-29T15:03:26.064Z</time></trkpt><trkpt lat="45.0536683" lon="8.128318"><ele>245.66666666666669</ele><time>2026-03-29T15:03:27.064Z</time></trkpt><trkpt lat="45.0535041" lon="8.1284711"><ele>245.0</ele><time>2026-03-29T15:03:28.064Z</time></trkpt><trkpt lat="45.053342" lon="8.1286242"><ele>245.66666666666669</ele><time>2026-03-29T15:03:29.064Z</time></trkpt><trkpt lat="45.0531842" lon="8.1287779"><ele>246.33333333333331</ele><time>2026-03-29T15:03:30.064Z</time></trkpt><trkpt lat="45.0530264" lon="8.1289104"><ele>247.0</ele><time>2026-03-29T15:03:31.064Z</time></trkpt><trkpt lat="45.0528694" lon="8.129045"><ele>246.66666666666666</ele><time>2026-03-29T15:03:32.064Z</time></trkpt><trkpt lat="45.0527104" lon="8.1291729"><ele>246.33333333333331</ele><time>2026-03-29T15:03:33.064Z</time></trkpt><trkpt lat="45.052543" lon="8.129283"><ele>246.0</ele><time>2026-03-29T15:03:34.064Z</time></trkpt><trkpt lat="45.0523691" lon="8.1293895"><ele>245.66666666666669</ele><time>2026-03-29T15:03:35.064Z</time></trkpt><trkpt lat="45.052196" lon="8.1294735"><ele>245.33333333333334</ele><time>2026-03-29T15:03:36.064Z</time></trkpt><trkpt lat="45.052003" lon="8.129544"><ele>245.0</ele><time>2026-03-29T15:03:37.064Z</time></trkpt><trkpt lat="45.0517984" lon="8.1296154"><ele>242.0</ele><time>2026-03-29T15:03:38.064Z</time></trkpt><trkpt lat="45.0515965" lon="8.1296829"><ele>239.0</ele><time>2026-03-29T15:03:39.064Z</time></trkpt><trkpt lat="45.0513949" lon="8.1297549"><ele>236.0</ele><time>2026-03-29T15:03:40.064Z</time></trkpt><trkpt lat="45.0512017" lon="8.1298247"><ele>236.0</ele><time>2026-03-29T15:03:41.064Z</time></trkpt><trkpt lat="45.051009" lon="8.1298898"><ele>236.0</ele><time>2026-03-29T15:03:42.064Z</time></trkpt><trkpt lat="45.0508219" lon="8.1299572"><ele>236.0</ele><time>2026-03-29T15:03:43.064Z</time></trkpt><trkpt lat="45.0506413" lon="8.1300358"><ele>235.66666666666669</ele><time>2026-03-29T15:03:44.064Z</time></trkpt><trkpt lat="45.0504627" lon="8.1301397"><ele>235.33333333333331</ele><time>2026-03-29T15:03:45.064Z</time></trkpt><trkpt lat="45.050285" lon="8.1302431"><ele>235.0</ele><time>2026-03-29T15:03:46.064Z</time></trkpt><trkpt lat="45.0501277" lon="8.1303991"><ele>235.0</ele><time>2026-03-29T15:03:47.064Z</time></trkpt><trkpt lat="45.0499681" lon="8.1305625"><ele>235.0</ele><time>2026-03-29T15:03:48.064Z</time></trkpt><trkpt lat="45.049818" lon="8.1307125"><ele>235.0</ele><time>2026-03-29T15:03:49.064Z</time></trkpt><trkpt lat="45.0496591" lon="8.1308628"><ele>237.33333333333331</ele><time>2026-03-29T15:03:50.064Z</time></trkpt><trkpt lat="45.0495015" lon="8.1310096"><ele>239.66666666666669</ele><time>2026-03-29T15:03:51.064Z</time></trkpt><trkpt lat="45.0493453" lon="8.131158"><ele>242.0</ele><time>2026-03-29T15:03:52.063Z</time></trkpt><trkpt lat="45.049196" lon="8.1313068"><ele>243.66666666666669</ele><time>2026-03-29T15:03:53.064Z</time></trkpt><trkpt lat="45.0490358" lon="8.1314571"><ele>245.33333333333331</ele><time>2026-03-29T15:03:54.064Z</time></trkpt><trkpt lat="45.0488831" lon="8.1316085"><ele>247.0</ele><time>2026-03-29T15:03:55.064Z</time></trkpt><trkpt lat="45.0487246" lon="8.1317623"><ele>247.0</ele><time>2026-03-29T15:03:56.063Z</time></trkpt><trkpt lat="45.0486007" lon="8.1318848"><ele>247.0</ele><time>2026-03-29T15:03:57.064Z</time></trkpt><trkpt lat="45.0484988" lon="8.1320233"><ele>247.0</ele><time>2026-03-29T15:03:58.064Z</time></trkpt><trkpt lat="45.0483692" lon="8.1321039"><ele>247.0</ele><time>2026-03-29T15:03:59.064Z</time></trkpt><trkpt lat="45.0482545" lon="8.1322051"><ele>247.5</ele><time>2026-03-29T15:04:00.064Z</time></trkpt><trkpt lat="45.0481235" lon="8.1322827"><ele>248.0</ele><time>2026-03-29T15:04:01.064Z</time></trkpt><trkpt lat="45.0480101" lon="8.1323844"><ele>248.5</ele><time>2026-03-29T15:04:02.064Z</time></trkpt><trkpt lat="45.047885" lon="8.1324916"><ele>249.0</ele><time>2026-03-29T15:04:03.064Z</time></trkpt><trkpt lat="45.0477644" lon="8.1326154"><ele>249.0</ele><time>2026-03-29T15:04:04.064Z</time></trkpt><trkpt lat="45.0476428" lon="8.1327332"><ele>249.0</ele><time>2026-03-29T15:04:05.064Z</time></trkpt><trkpt lat="45.0475412" lon="8.1328387"><ele>249.0</ele><time>2026-03-29T15:04:06.064Z</time></trkpt><trkpt lat="45.0474552" lon="8.1329394"><ele>249.0</ele><time>2026-03-29T15:04:07.064Z</time></trkpt><trkpt lat="45.0473688" lon="8.1330509"><ele>248.5</ele><time>2026-03-29T15:04:08.064Z</time></trkpt><trkpt lat="45.0473253" lon="8.1331405"><ele>248.0</ele><time>2026-03-29T15:04:09.064Z</time></trkpt><trkpt lat="45.0472716" lon="8.1332213"><ele>247.5</ele><time>2026-03-29T15:04:10.064Z</time></trkpt><trkpt lat="45.0472089" lon="8.1332756"><ele>247.0</ele><time>2026-03-29T15:04:11.064Z</time></trkpt><trkpt lat="45.0471289" lon="8.1331907"><ele>246.5</ele><time>2026-03-29T15:04:13.064Z</time></trkpt><trkpt lat="45.0470667" lon="8.1331287"><ele>246.0</ele><time>2026-03-29T15:04:14.064Z</time></trkpt><trkpt lat="45.0469975" lon="8.1330643"><ele>246.0</ele><time>2026-03-29T15:04:15.064Z</time></trkpt><trkpt lat="45.046931" lon="8.1329967"><ele>246.00000000000003</ele><time>2026-03-29T15:04:16.063Z</time></trkpt><trkpt lat="45.0468174" lon="8.1330085"><ele>246.00000000000003</ele><time>2026-03-29T15:04:17.064Z</time></trkpt><trkpt lat="45.046714" lon="8.1329939"><ele>246.0</ele><time>2026-03-29T15:04:18.064Z</time></trkpt><trkpt lat="45.0465938" lon="8.1329902"><ele>246.0</ele><time>2026-03-29T15:04:19.063Z</time></trkpt><trkpt lat="45.0464645" lon="8.1330002"><ele>245.4</ele><time>2026-03-29T15:04:20.064Z</time></trkpt><trkpt lat="45.0463444" lon="8.1330028"><ele>244.8</ele><time>2026-03-29T15:04:21.064Z</time></trkpt><trkpt lat="45.0462442" lon="8.1330191"><ele>244.20000000000002</ele><time>2026-03-29T15:04:22.064Z</time></trkpt><trkpt lat="45.0461487" lon="8.1330509"><ele>243.60000000000002</ele><time>2026-03-29T15:04:23.063Z</time></trkpt><trkpt lat="45.0460453" lon="8.1331119"><ele>243.0</ele><time>2026-03-29T15:04:24.064Z</time></trkpt><trkpt lat="45.0459531" lon="8.1331643"><ele>242.25</ele><time>2026-03-29T15:04:25.064Z</time></trkpt><trkpt lat="45.045843" lon="8.133274"><ele>241.5</ele><time>2026-03-29T15:04:26.064Z</time></trkpt><trkpt lat="45.0457848" lon="8.1334368"><ele>240.75</ele><time>2026-03-29T15:04:27.063Z</time></trkpt><trkpt lat="45.0457263" lon="8.133593"><ele>240.0</ele><time>2026-03-29T15:04:28.064Z</time></trkpt><trkpt lat="45.0456588" lon="8.1337793"><ele>240.0</ele><time>2026-03-29T15:04:29.064Z</time></trkpt><trkpt lat="45.0456204" lon="8.1339519"><ele>240.0</ele><time>2026-03-29T15:04:30.064Z</time></trkpt><trkpt lat="45.0455855" lon="8.1340986"><ele>240.0</ele><time>2026-03-29T15:04:31.064Z</time></trkpt><trkpt lat="45.0455547" lon="8.1342625"><ele>240.0</ele><time>2026-03-29T15:04:32.064Z</time></trkpt><trkpt lat="45.0455286" lon="8.1344428"><ele>240.0</ele><time>2026-03-29T15:04:33.064Z</time></trkpt><trkpt lat="45.0455304" lon="8.1345842"><ele>240.0</ele><time>2026-03-29T15:04:34.064Z</time></trkpt><trkpt lat="45.0455251" lon="8.134772"><ele>240.0</ele><time>2026-03-29T15:04:35.064Z</time></trkpt><trkpt lat="45.0455215" lon="8.1349233"><ele>240.0</ele><time>2026-03-29T15:04:36.064Z</time></trkpt><trkpt lat="45.0455074" lon="8.1350402"><ele>240.0</ele><time>2026-03-29T15:04:37.064Z</time></trkpt><trkpt lat="45.0455059" lon="8.1351572"><ele>240.0</ele><time>2026-03-29T15:04:38.064Z</time></trkpt><trkpt lat="45.0454649" lon="8.1352399"><ele>240.0</ele><time>2026-03-29T15:04:39.064Z</time></trkpt><trkpt lat="45.0454153" lon="8.1353246"><ele>240.0</ele><time>2026-03-29T15:04:40.064Z</time></trkpt><trkpt lat="45.0453571" lon="8.135385"><ele>240.0</ele><time>2026-03-29T15:04:41.064Z</time></trkpt><trkpt lat="45.0452523" lon="8.1354918"><ele>240.0</ele><time>2026-03-29T15:04:42.064Z</time></trkpt><trkpt lat="45.0451533" lon="8.1355928"><ele>240.0</ele><time>2026-03-29T15:04:43.064Z</time></trkpt><trkpt lat="45.0450435" lon="8.1356804"><ele>240.0</ele><time>2026-03-29T15:04:44.064Z</time></trkpt><trkpt lat="45.04493" lon="8.1357811"><ele>240.0</ele><time>2026-03-29T15:04:45.064Z</time></trkpt><trkpt lat="45.0448382" lon="8.1358872"><ele>240.0</ele><time>2026-03-29T15:04:46.064Z</time></trkpt><trkpt lat="45.044729" lon="8.1359807"><ele>238.5</ele><time>2026-03-29T15:04:47.064Z</time></trkpt><trkpt lat="45.0446209" lon="8.1360677"><ele>237.0</ele><time>2026-03-29T15:04:48.063Z</time></trkpt><trkpt lat="45.0445155" lon="8.1361591"><ele>235.5</ele><time>2026-03-29T15:04:49.064Z</time></trkpt><trkpt lat="45.0444222" lon="8.1362629"><ele>234.0</ele><time>2026-03-29T15:04:50.064Z</time></trkpt><trkpt lat="45.0443041" lon="8.1363616"><ele>234.0</ele><time>2026-03-29T15:04:51.064Z</time></trkpt><trkpt lat="45.0441913" lon="8.1364571"><ele>234.0</ele><time>2026-03-29T15:04:52.064Z</time></trkpt><trkpt lat="45.04408" lon="8.136567"><ele>234.0</ele><time>2026-03-29T15:04:53.063Z</time></trkpt><trkpt lat="45.0439735" lon="8.1366849"><ele>234.0</ele><time>2026-03-29T15:04:54.064Z</time></trkpt><trkpt lat="45.0438549" lon="8.1367764"><ele>232.75</ele><time>2026-03-29T15:04:55.064Z</time></trkpt><trkpt lat="45.0437115" lon="8.1368368"><ele>231.5</ele><time>2026-03-29T15:04:56.064Z</time></trkpt><trkpt lat="45.043568" lon="8.1368845"><ele>230.25</ele><time>2026-03-29T15:04:57.064Z</time></trkpt><trkpt lat="45.0434257" lon="8.1368985"><ele>229.0</ele><time>2026-03-29T15:04:58.064Z</time></trkpt><trkpt lat="45.0432773" lon="8.1368893"><ele>227.33333333333331</ele><time>2026-03-29T15:04:59.064Z</time></trkpt><trkpt lat="45.043124" lon="8.1368715"><ele>225.66666666666669</ele><time>2026-03-29T15:05:00.064Z</time></trkpt><trkpt lat="45.042966" lon="8.1368586"><ele>224.0</ele><time>2026-03-29T15:05:01.064Z</time></trkpt><trkpt lat="45.0428114" lon="8.1368365"><ele>224.0</ele><time>2026-03-29T15:05:02.064Z</time></trkpt><trkpt lat="45.0426568" lon="8.1368245"><ele>224.0</ele><time>2026-03-29T15:05:03.064Z</time></trkpt><trkpt lat="45.042509" lon="8.1368266"><ele>224.0</ele><time>2026-03-29T15:05:04.064Z</time></trkpt><trkpt lat="45.0423342" lon="8.1368181"><ele>222.33333333333334</ele><time>2026-03-29T15:05:05.064Z</time></trkpt><trkpt lat="45.0421433" lon="8.1368359"><ele>220.66666666666669</ele><time>2026-03-29T15:05:06.064Z</time></trkpt><trkpt lat="45.0419494" lon="8.1368667"><ele>219.0</ele><time>2026-03-29T15:05:07.064Z</time></trkpt><trkpt lat="45.0417311" lon="8.1368915"><ele>218.0</ele><time>2026-03-29T15:05:08.064Z</time></trkpt><trkpt lat="45.0415203" lon="8.1369176"><ele>217.0</ele><time>2026-03-29T15:05:09.063Z</time></trkpt><trkpt lat="45.0413176" lon="8.1369255"><ele>216.0</ele><time>2026-03-29T15:05:10.063Z</time></trkpt><trkpt lat="45.0411187" lon="8.1369128"><ele>216.0</ele><time>2026-03-29T15:05:11.064Z</time></trkpt><trkpt lat="45.0409173" lon="8.1368784"><ele>216.0</ele><time>2026-03-29T15:05:12.064Z</time></trkpt><trkpt lat="45.0407211" lon="8.1368371"><ele>216.0</ele><time>2026-03-29T15:05:13.064Z</time></trkpt><trkpt lat="45.0405162" lon="8.1367843"><ele>215.66666666666669</ele><time>2026-03-29T15:05:14.064Z</time></trkpt><trkpt lat="45.0403218" lon="8.1367238"><ele>215.33333333333334</ele><time>2026-03-29T15:05:15.064Z</time></trkpt><trkpt lat="45.0401363" lon="8.1366583"><ele>215.0</ele><time>2026-03-29T15:05:16.064Z</time></trkpt><trkpt lat="45.0399457" lon="8.1366156"><ele>215.0</ele><time>2026-03-29T15:05:17.064Z</time></trkpt><trkpt lat="45.0397624" lon="8.1365985"><ele>215.0</ele><time>2026-03-29T15:05:18.064Z</time></trkpt><trkpt lat="45.039594" lon="8.1366"><ele>215.0</ele><time>2026-03-29T15:05:19.064Z</time></trkpt><trkpt lat="45.0394243" lon="8.1366152"><ele>215.0</ele><time>2026-03-29T15:05:20.063Z</time></trkpt><trkpt lat="45.0392951" lon="8.1366037"><ele>215.0</ele><time>2026-03-29T15:05:21.064Z</time></trkpt><trkpt lat="45.0391543" lon="8.136562"><ele>215.0</ele><time>2026-03-29T15:05:22.064Z</time></trkpt><trkpt lat="45.0390114" lon="8.1364938"><ele>215.0</ele><time>2026-03-29T15:05:23.064Z</time></trkpt><trkpt lat="45.0389021" lon="8.1362975"><ele>212.33333333333334</ele><time>2026-03-29T15:05:24.064Z</time></trkpt><trkpt lat="45.0387994" lon="8.1361354"><ele>209.66666666666669</ele><time>2026-03-29T15:05:25.064Z</time></trkpt><trkpt lat="45.0387381" lon="8.1359245"><ele>207.0</ele><time>2026-03-29T15:05:26.064Z</time></trkpt><trkpt lat="45.0386617" lon="8.135735"><ele>204.5</ele><time>2026-03-29T15:05:27.063Z</time></trkpt><trkpt lat="45.0385718" lon="8.1355788"><ele>202.0</ele><time>2026-03-29T15:05:28.064Z</time></trkpt><trkpt lat="45.0384742" lon="8.1354314"><ele>199.5</ele><time>2026-03-29T15:05:29.064Z</time></trkpt><trkpt lat="45.0383746" lon="8.1353011"><ele>197.0</ele><time>2026-03-29T15:05:30.064Z</time></trkpt><trkpt lat="45.0381658" lon="8.1352925"><ele>197.0</ele><time>2026-03-29T15:05:31.063Z</time></trkpt><trkpt lat="45.037999" lon="8.1352327"><ele>197.0</ele><time>2026-03-29T15:05:32.064Z</time></trkpt><trkpt lat="45.0378238" lon="8.1351692"><ele>197.0</ele><time>2026-03-29T15:05:33.064Z</time></trkpt><trkpt lat="45.0376645" lon="8.135117"><ele>197.0</ele><time>2026-03-29T15:05:34.064Z</time></trkpt><trkpt lat="45.0375124" lon="8.1350596"><ele>197.0</ele><time>2026-03-29T15:05:35.064Z</time></trkpt><trkpt lat="45.0373735" lon="8.1350588"><ele>197.0</ele><time>2026-03-29T15:05:36.064Z</time></trkpt><trkpt lat="45.037242" lon="8.1350925"><ele>197.0</ele><time>2026-03-29T15:05:37.064Z</time></trkpt><trkpt lat="45.0370948" lon="8.1351837"><ele>193.66666666666669</ele><time>2026-03-29T15:05:38.064Z</time></trkpt><trkpt lat="45.0369454" lon="8.1353008"><ele>190.33333333333334</ele><time>2026-03-29T15:05:39.064Z</time></trkpt><trkpt lat="45.036794" lon="8.135419"><ele>187.0</ele><time>2026-03-29T15:05:40.064Z</time></trkpt><trkpt lat="45.0366521" lon="8.1355211"><ele>187.75</ele><time>2026-03-29T15:05:41.064Z</time></trkpt><trkpt lat="45.0365258" lon="8.1356137"><ele>188.5</ele><time>2026-03-29T15:05:42.064Z</time></trkpt><trkpt lat="45.036401" lon="8.1356897"><ele>189.25</ele><time>2026-03-29T15:05:43.064Z</time></trkpt><trkpt lat="45.036276" lon="8.1357463"><ele>190.0</ele><time>2026-03-29T15:05:44.064Z</time></trkpt><trkpt lat="45.0361536" lon="8.1356807"><ele>188.25</ele><time>2026-03-29T15:05:45.064Z</time></trkpt><trkpt lat="45.0360373" lon="8.1355899"><ele>186.5</ele><time>2026-03-29T15:05:46.064Z</time></trkpt><trkpt lat="45.0359473" lon="8.1354361"><ele>184.75</ele><time>2026-03-29T15:05:47.064Z</time></trkpt><trkpt lat="45.0358763" lon="8.1352344"><ele>183.0</ele><time>2026-03-29T15:05:48.064Z</time></trkpt><trkpt lat="45.0358253" lon="8.1350086"><ele>185.66666666666666</ele><time>2026-03-29T15:05:49.064Z</time></trkpt><trkpt lat="45.0357678" lon="8.1347683"><ele>188.33333333333331</ele><time>2026-03-29T15:05:50.064Z</time></trkpt><trkpt lat="45.0357127" lon="8.134544"><ele>191.0</ele><time>2026-03-29T15:05:51.064Z</time></trkpt><trkpt lat="45.0356468" lon="8.134297"><ele>189.33333333333331</ele><time>2026-03-29T15:05:52.064Z</time></trkpt><trkpt lat="45.0355752" lon="8.1340526"><ele>187.66666666666666</ele><time>2026-03-29T15:05:53.064Z</time></trkpt><trkpt lat="45.0354908" lon="8.1338061"><ele>186.0</ele><time>2026-03-29T15:05:54.064Z</time></trkpt><trkpt lat="45.0353988" lon="8.1335749"><ele>186.0</ele><time>2026-03-29T15:05:55.064Z</time></trkpt><trkpt lat="45.0352989" lon="8.1333413"><ele>186.0</ele><time>2026-03-29T15:05:56.064Z</time></trkpt><trkpt lat="45.0352114" lon="8.1331033"><ele>186.0</ele><time>2026-03-29T15:05:57.064Z</time></trkpt><trkpt lat="45.0351099" lon="8.1328732"><ele>186.33333333333334</ele><time>2026-03-29T15:05:58.064Z</time></trkpt><trkpt lat="45.0350233" lon="8.1326417"><ele>186.66666666666669</ele><time>2026-03-29T15:05:59.064Z</time></trkpt><trkpt lat="45.0349339" lon="8.1324174"><ele>187.0</ele><time>2026-03-29T15:06:00.064Z</time></trkpt><trkpt lat="45.034852" lon="8.1321997"><ele>183.0</ele><time>2026-03-29T15:06:01.064Z</time></trkpt><trkpt lat="45.0347551" lon="8.1320066"><ele>179.0</ele><time>2026-03-29T15:06:02.064Z</time></trkpt><trkpt lat="45.034663" lon="8.1318228"><ele>175.0</ele><time>2026-03-29T15:06:03.064Z</time></trkpt><trkpt lat="45.034564" lon="8.1316654"><ele>175.0</ele><time>2026-03-29T15:06:04.064Z</time></trkpt><trkpt lat="45.0344319" lon="8.1315936"><ele>175.0</ele><time>2026-03-29T15:06:05.064Z</time></trkpt><trkpt lat="45.0343111" lon="8.1315273"><ele>175.0</ele><time>2026-03-29T15:06:06.064Z</time></trkpt><trkpt lat="45.0341788" lon="8.1315103"><ele>175.0</ele><time>2026-03-29T15:06:07.064Z</time></trkpt><trkpt lat="45.0339834" lon="8.1316321"><ele>173.66666666666669</ele><time>2026-03-29T15:06:08.064Z</time></trkpt><trkpt lat="45.0338134" lon="8.1317238"><ele>172.33333333333334</ele><time>2026-03-29T15:06:09.064Z</time></trkpt><trkpt lat="45.0336286" lon="8.131814"><ele>171.0</ele><time>2026-03-29T15:06:10.064Z</time></trkpt><trkpt lat="45.033449" lon="8.1319071"><ele>170.0</ele><time>2026-03-29T15:06:11.064Z</time></trkpt><trkpt lat="45.0332607" lon="8.1320082"><ele>169.0</ele><time>2026-03-29T15:06:12.064Z</time></trkpt><trkpt lat="45.0330601" lon="8.132111"><ele>168.0</ele><time>2026-03-29T15:06:13.064Z</time></trkpt><trkpt lat="45.0328581" lon="8.1322164"><ele>168.0</ele><time>2026-03-29T15:06:14.064Z</time></trkpt><trkpt lat="45.0326527" lon="8.1323234"><ele>168.0</ele><time>2026-03-29T15:06:15.064Z</time></trkpt><trkpt lat="45.0324429" lon="8.13241"><ele>168.0</ele><time>2026-03-29T15:06:16.064Z</time></trkpt><trkpt lat="45.0322338" lon="8.1325172"><ele>168.0</ele><time>2026-03-29T15:06:17.064Z</time></trkpt><trkpt lat="45.0320271" lon="8.1326321"><ele>168.0</ele><time>2026-03-29T15:06:18.064Z</time></trkpt><trkpt lat="45.0318212" lon="8.1327337"><ele>168.0</ele><time>2026-03-29T15:06:19.063Z</time></trkpt><trkpt lat="45.0316178" lon="8.1328345"><ele>168.0</ele><time>2026-03-29T15:06:20.064Z</time></trkpt><trkpt lat="45.0314212" lon="8.1329362"><ele>168.0</ele><time>2026-03-29T15:06:21.064Z</time></trkpt><trkpt lat="45.0312396" lon="8.1330266"><ele>168.0</ele><time>2026-03-29T15:06:22.064Z</time></trkpt><trkpt lat="45.0310662" lon="8.1331139"><ele>168.0</ele><time>2026-03-29T15:06:23.064Z</time></trkpt><trkpt lat="45.0309025" lon="8.1332131"><ele>168.0</ele><time>2026-03-29T15:06:24.064Z</time></trkpt><trkpt lat="45.03075" lon="8.1333412"><ele>168.0</ele><time>2026-03-29T15:06:25.064Z</time></trkpt><trkpt lat="45.0306042" lon="8.1335134"><ele>167.66666666666666</ele><time>2026-03-29T15:06:26.064Z</time></trkpt><trkpt lat="45.0304627" lon="8.1337027"><ele>167.33333333333331</ele><time>2026-03-29T15:06:27.064Z</time></trkpt><trkpt lat="45.03031" lon="8.1339072"><ele>167.0</ele><time>2026-03-29T15:06:28.064Z</time></trkpt><trkpt lat="45.0301546" lon="8.1341043"><ele>166.66666666666666</ele><time>2026-03-29T15:06:29.064Z</time></trkpt><trkpt lat="45.029997" lon="8.1343129"><ele>166.33333333333334</ele><time>2026-03-29T15:06:30.064Z</time></trkpt><trkpt lat="45.0298402" lon="8.1345214"><ele>166.0</ele><time>2026-03-29T15:06:31.064Z</time></trkpt><trkpt lat="45.0296842" lon="8.1347341"><ele>166.66666666666669</ele><time>2026-03-29T15:06:32.064Z</time></trkpt><trkpt lat="45.0295243" lon="8.1349438"><ele>167.33333333333334</ele><time>2026-03-29T15:06:33.064Z</time></trkpt><trkpt lat="45.0293801" lon="8.1351339"><ele>168.0</ele><time>2026-03-29T15:06:34.064Z</time></trkpt><trkpt lat="45.0292483" lon="8.1353151"><ele>167.66666666666666</ele><time>2026-03-29T15:06:35.064Z</time></trkpt><trkpt lat="45.0291215" lon="8.1354828"><ele>167.33333333333331</ele><time>2026-03-29T15:06:36.064Z</time></trkpt><trkpt lat="45.0290191" lon="8.1356474"><ele>167.0</ele><time>2026-03-29T15:06:37.064Z</time></trkpt><trkpt lat="45.0289253" lon="8.1358396"><ele>167.0</ele><time>2026-03-29T15:06:38.064Z</time></trkpt><trkpt lat="45.0288582" lon="8.1360586"><ele>167.0</ele><time>2026-03-29T15:06:39.064Z</time></trkpt><trkpt lat="45.0287946" lon="8.1362687"><ele>167.0</ele><time>2026-03-29T15:06:40.064Z</time></trkpt><trkpt lat="45.0287699" lon="8.1365399"><ele>166.66666666666666</ele><time>2026-03-29T15:06:41.064Z</time></trkpt><trkpt lat="45.0287334" lon="8.1368004"><ele>166.33333333333334</ele><time>2026-03-29T15:06:42.064Z</time></trkpt><trkpt lat="45.0286947" lon="8.1370455"><ele>166.0</ele><time>2026-03-29T15:06:43.064Z</time></trkpt><trkpt lat="45.0286607" lon="8.1372844"><ele>166.0</ele><time>2026-03-29T15:06:44.064Z</time></trkpt><trkpt lat="45.0286355" lon="8.1374963"><ele>166.0</ele><time>2026-03-29T15:06:45.063Z</time></trkpt><trkpt lat="45.0286084" lon="8.1376759"><ele>166.0</ele><time>2026-03-29T15:06:46.064Z</time></trkpt><trkpt lat="45.0285806" lon="8.1378344"><ele>166.0</ele><time>2026-03-29T15:06:47.064Z</time></trkpt><trkpt lat="45.028543" lon="8.1379679"><ele>166.0</ele><time>2026-03-29T15:06:48.064Z</time></trkpt><trkpt lat="45.0284912" lon="8.1380663"><ele>166.0</ele><time>2026-03-29T15:06:49.064Z</time></trkpt><trkpt lat="45.0284043" lon="8.1381144"><ele>166.0</ele><time>2026-03-29T15:06:50.064Z</time></trkpt><trkpt lat="45.0281955" lon="8.137981"><ele>166.0</ele><time>2026-03-29T15:06:51.064Z</time></trkpt><trkpt lat="45.0280399" lon="8.1379109"><ele>165.66666666666669</ele><time>2026-03-29T15:06:52.064Z</time></trkpt><trkpt lat="45.0279096" lon="8.1378537"><ele>165.33333333333334</ele><time>2026-03-29T15:06:53.064Z</time></trkpt><trkpt lat="45.0277587" lon="8.1378018"><ele>165.0</ele><time>2026-03-29T15:06:54.064Z</time></trkpt><trkpt lat="45.027582" lon="8.1377227"><ele>165.0</ele><time>2026-03-29T15:06:55.064Z</time></trkpt><trkpt lat="45.0274199" lon="8.1376458"><ele>165.0</ele><time>2026-03-29T15:06:56.064Z</time></trkpt><trkpt lat="45.0272578" lon="8.137571"><ele>165.0</ele><time>2026-03-29T15:06:57.064Z</time></trkpt><trkpt lat="45.0270954" lon="8.1375083"><ele>165.0</ele><time>2026-03-29T15:06:58.064Z</time></trkpt><trkpt lat="45.026938" lon="8.1374394"><ele>165.0</ele><time>2026-03-29T15:06:59.064Z</time></trkpt><trkpt lat="45.0267931" lon="8.1373782"><ele>165.0</ele><time>2026-03-29T15:07:00.064Z</time></trkpt><trkpt lat="45.0266601" lon="8.1373249"><ele>165.25</ele><time>2026-03-29T15:07:01.064Z</time></trkpt><trkpt lat="45.0265298" lon="8.1372702"><ele>165.5</ele><time>2026-03-29T15:07:02.064Z</time></trkpt><trkpt lat="45.0264024" lon="8.1372227"><ele>165.75</ele><time>2026-03-29T15:07:03.064Z</time></trkpt><trkpt lat="45.0263216" lon="8.137165"><ele>166.0</ele><time>2026-03-29T15:07:04.064Z</time></trkpt><trkpt lat="45.0262384" lon="8.1370924"><ele>166.0</ele><time>2026-03-29T15:07:05.064Z</time></trkpt><trkpt lat="45.026181" lon="8.1369942"><ele>166.0</ele><time>2026-03-29T15:07:06.064Z</time></trkpt><trkpt lat="45.0261317" lon="8.1368887"><ele>166.0</ele><time>2026-03-29T15:07:07.064Z</time></trkpt><trkpt lat="45.0261107" lon="8.1367805"><ele>166.0</ele><time>2026-03-29T15:07:08.064Z</time></trkpt><trkpt lat="45.0261763" lon="8.1365812"><ele>166.0</ele><time>2026-03-29T15:07:09.064Z</time></trkpt><trkpt lat="45.0262152" lon="8.1364077"><ele>165.33333333333334</ele><time>2026-03-29T15:07:10.064Z</time></trkpt><trkpt lat="45.0262602" lon="8.136206"><ele>164.66666666666666</ele><time>2026-03-29T15:07:11.064Z</time></trkpt><trkpt lat="45.0263058" lon="8.1359766"><ele>164.0</ele><time>2026-03-29T15:07:12.063Z</time></trkpt><trkpt lat="45.0263603" lon="8.1357521"><ele>163.66666666666666</ele><time>2026-03-29T15:07:13.064Z</time></trkpt><trkpt lat="45.026422" lon="8.135508"><ele>163.33333333333334</ele><time>2026-03-29T15:07:14.064Z</time></trkpt><trkpt lat="45.0264914" lon="8.1352518"><ele>163.0</ele><time>2026-03-29T15:07:15.063Z</time></trkpt><trkpt lat="45.0265562" lon="8.1349968"><ele>162.66666666666669</ele><time>2026-03-29T15:07:16.064Z</time></trkpt><trkpt lat="45.0266302" lon="8.1347164"><ele>162.33333333333334</ele><time>2026-03-29T15:07:17.064Z</time></trkpt><trkpt lat="45.0266933" lon="8.1344446"><ele>162.0</ele><time>2026-03-29T15:07:18.064Z</time></trkpt><trkpt lat="45.0267602" lon="8.134172"><ele>163.0</ele><time>2026-03-29T15:07:19.064Z</time></trkpt><trkpt lat="45.0268334" lon="8.1339009"><ele>164.0</ele><time>2026-03-29T15:07:20.064Z</time></trkpt><trkpt lat="45.0269084" lon="8.1336313"><ele>165.0</ele><time>2026-03-29T15:07:21.064Z</time></trkpt><trkpt lat="45.026977" lon="8.1333582"><ele>165.0</ele><time>2026-03-29T15:07:22.064Z</time></trkpt><trkpt lat="45.0270455" lon="8.1330929"><ele>165.0</ele><time>2026-03-29T15:07:23.064Z</time></trkpt><trkpt lat="45.0271136" lon="8.1328322"><ele>165.0</ele><time>2026-03-29T15:07:24.064Z</time></trkpt><trkpt lat="45.0271814" lon="8.1325683"><ele>165.33333333333334</ele><time>2026-03-29T15:07:25.064Z</time></trkpt><trkpt lat="45.0272518" lon="8.1323026"><ele>165.66666666666669</ele><time>2026-03-29T15:07:26.064Z</time></trkpt><trkpt lat="45.0273261" lon="8.1320378"><ele>166.0</ele><time>2026-03-29T15:07:27.064Z</time></trkpt><trkpt lat="45.0273901" lon="8.1317793"><ele>166.66666666666669</ele><time>2026-03-29T15:07:28.064Z</time></trkpt><trkpt lat="45.0274584" lon="8.1315215"><ele>167.33333333333334</ele><time>2026-03-29T15:07:29.064Z</time></trkpt><trkpt lat="45.0275258" lon="8.1312702"><ele>168.0</ele><time>2026-03-29T15:07:30.064Z</time></trkpt><trkpt lat="45.0275959" lon="8.1310172"><ele>168.0</ele><time>2026-03-29T15:07:31.064Z</time></trkpt><trkpt lat="45.0276586" lon="8.1307787"><ele>168.0</ele><time>2026-03-29T15:07:32.064Z</time></trkpt><trkpt lat="45.0277193" lon="8.1305401"><ele>168.0</ele><time>2026-03-29T15:07:33.064Z</time></trkpt><trkpt lat="45.0277799" lon="8.1303264"><ele>168.0</ele><time>2026-03-29T15:07:34.064Z</time></trkpt><trkpt lat="45.0278151" lon="8.1301698"><ele>168.0</ele><time>2026-03-29T15:07:35.064Z</time></trkpt><trkpt lat="45.0278578" lon="8.1300263"><ele>168.0</ele><time>2026-03-29T15:07:36.064Z</time></trkpt><trkpt lat="45.0278987" lon="8.1298922"><ele>168.0</ele><time>2026-03-29T15:07:37.064Z</time></trkpt><trkpt lat="45.0279247" lon="8.1297905"><ele>168.0</ele><time>2026-03-29T15:07:38.064Z</time></trkpt><trkpt lat="45.0279526" lon="8.1296508"><ele>168.0</ele><time>2026-03-29T15:07:40.063Z</time></trkpt><trkpt lat="45.0279523" lon="8.1295274"><ele>168.0</ele><time>2026-03-29T15:07:48.064Z</time></trkpt><trkpt lat="45.0278506" lon="8.1294257"><ele>168.0</ele><time>2026-03-29T15:07:50.064Z</time></trkpt><trkpt lat="45.0277798" lon="8.1293844"><ele>168.0</ele><time>2026-03-29T15:07:51.064Z</time></trkpt><trkpt lat="45.02769" lon="8.1293321"><ele>168.0</ele><time>2026-03-29T15:07:52.064Z</time></trkpt><trkpt lat="45.0276173" lon="8.1292567"><ele>168.0</ele><time>2026-03-29T15:07:53.064Z</time></trkpt><trkpt lat="45.0275061" lon="8.1291911"><ele>168.0</ele><time>2026-03-29T15:07:54.064Z</time></trkpt><trkpt lat="45.0274042" lon="8.1291095"><ele>168.0</ele><time>2026-03-29T15:07:55.064Z</time></trkpt><trkpt lat="45.0272696" lon="8.1290232"><ele>168.0</ele><time>2026-03-29T15:07:56.064Z</time></trkpt><trkpt lat="45.027148" lon="8.1289219"><ele>168.33333333333334</ele><time>2026-03-29T15:07:57.064Z</time></trkpt><trkpt lat="45.027014" lon="8.1288267"><ele>168.66666666666669</ele><time>2026-03-29T15:07:58.064Z</time></trkpt><trkpt lat="45.0268659" lon="8.1287243"><ele>169.0</ele><time>2026-03-29T15:07:59.064Z</time></trkpt><trkpt lat="45.0267306" lon="8.1286079"><ele>167.66666666666669</ele><time>2026-03-29T15:08:00.064Z</time></trkpt><trkpt lat="45.0265642" lon="8.1285001"><ele>166.33333333333334</ele><time>2026-03-29T15:08:01.064Z</time></trkpt><trkpt lat="45.0264072" lon="8.1283935"><ele>165.0</ele><time>2026-03-29T15:08:02.064Z</time></trkpt><trkpt lat="45.0262507" lon="8.1282782"><ele>165.66666666666666</ele><time>2026-03-29T15:08:03.064Z</time></trkpt><trkpt lat="45.0260934" lon="8.1281557"><ele>166.33333333333331</ele><time>2026-03-29T15:08:04.064Z</time></trkpt><trkpt lat="45.0259336" lon="8.1280395"><ele>167.0</ele><time>2026-03-29T15:08:05.064Z</time></trkpt><trkpt lat="45.025768" lon="8.1279164"><ele>167.66666666666666</ele><time>2026-03-29T15:08:06.064Z</time></trkpt><trkpt lat="45.0255955" lon="8.1277959"><ele>168.33333333333334</ele><time>2026-03-29T15:08:07.064Z</time></trkpt><trkpt lat="45.0254309" lon="8.1276803"><ele>169.0</ele><time>2026-03-29T15:08:08.064Z</time></trkpt><trkpt lat="45.0252406" lon="8.1275561"><ele>169.0</ele><time>2026-03-29T15:08:09.064Z</time></trkpt><trkpt lat="45.0250666" lon="8.1274282"><ele>169.0</ele><time>2026-03-29T15:08:10.064Z</time></trkpt><trkpt lat="45.0248924" lon="8.1272922"><ele>169.0</ele><time>2026-03-29T15:08:11.063Z</time></trkpt><trkpt lat="45.0247239" lon="8.127155"><ele>170.33333333333334</ele><time>2026-03-29T15:08:12.064Z</time></trkpt><trkpt lat="45.024551" lon="8.1270239"><ele>171.66666666666666</ele><time>2026-03-29T15:08:13.064Z</time></trkpt><trkpt lat="45.0243781" lon="8.1268879"><ele>173.0</ele><time>2026-03-29T15:08:14.064Z</time></trkpt><trkpt lat="45.0242002" lon="8.1267525"><ele>173.33333333333331</ele><time>2026-03-29T15:08:15.064Z</time></trkpt><trkpt lat="45.024015" lon="8.1266095"><ele>173.66666666666666</ele><time>2026-03-29T15:08:16.064Z</time></trkpt><trkpt lat="45.0238376" lon="8.1264667"><ele>174.0</ele><time>2026-03-29T15:08:17.064Z</time></trkpt><trkpt lat="45.0236436" lon="8.1263353"><ele>175.33333333333334</ele><time>2026-03-29T15:08:18.064Z</time></trkpt><trkpt lat="45.0234533" lon="8.1261965"><ele>176.66666666666669</ele><time>2026-03-29T15:08:19.064Z</time></trkpt><trkpt lat="45.0232643" lon="8.1260557"><ele>178.0</ele><time>2026-03-29T15:08:20.064Z</time></trkpt><trkpt lat="45.0230779" lon="8.1259233"><ele>178.0</ele><time>2026-03-29T15:08:21.064Z</time></trkpt><trkpt lat="45.022891" lon="8.1257848"><ele>178.0</ele><time>2026-03-29T15:08:22.064Z</time></trkpt><trkpt lat="45.0226976" lon="8.1256573"><ele>178.0</ele><time>2026-03-29T15:08:23.064Z</time></trkpt><trkpt lat="45.0225121" lon="8.1255157"><ele>181.0</ele><time>2026-03-29T15:08:24.064Z</time></trkpt><trkpt lat="45.0223247" lon="8.1253796"><ele>184.0</ele><time>2026-03-29T15:08:25.064Z</time></trkpt><trkpt lat="45.0221423" lon="8.1252436"><ele>187.0</ele><time>2026-03-29T15:08:26.064Z</time></trkpt><trkpt lat="45.0219526" lon="8.1251276"><ele>187.0</ele><time>2026-03-29T15:08:27.064Z</time></trkpt><trkpt lat="45.0217938" lon="8.125"><ele>187.0</ele><time>2026-03-29T15:08:28.064Z</time></trkpt><trkpt lat="45.021642" lon="8.1248785"><ele>187.0</ele><time>2026-03-29T15:08:29.064Z</time></trkpt><trkpt lat="45.0214922" lon="8.124768"><ele>189.33333333333334</ele><time>2026-03-29T15:08:30.064Z</time></trkpt><trkpt lat="45.0213519" lon="8.1246526"><ele>191.66666666666669</ele><time>2026-03-29T15:08:31.064Z</time></trkpt><trkpt lat="45.0212117" lon="8.1245273"><ele>194.0</ele><time>2026-03-29T15:08:32.064Z</time></trkpt><trkpt lat="45.0210739" lon="8.1243805"><ele>194.0</ele><time>2026-03-29T15:08:33.064Z</time></trkpt><trkpt lat="45.0209358" lon="8.1242159"><ele>194.0</ele><time>2026-03-29T15:08:34.064Z</time></trkpt><trkpt lat="45.0207997" lon="8.1240598"><ele>194.0</ele><time>2026-03-29T15:08:35.064Z</time></trkpt><trkpt lat="45.0206326" lon="8.1238653"><ele>195.66666666666669</ele><time>2026-03-29T15:08:36.064Z</time></trkpt><trkpt lat="45.0204846" lon="8.123677"><ele>197.33333333333331</ele><time>2026-03-29T15:08:37.064Z</time></trkpt><trkpt lat="45.0203376" lon="8.1234953"><ele>199.0</ele><time>2026-03-29T15:08:38.064Z</time></trkpt><trkpt lat="45.0202033" lon="8.1233198"><ele>201.66666666666666</ele><time>2026-03-29T15:08:39.063Z</time></trkpt><trkpt lat="45.0200625" lon="8.1231692"><ele>204.33333333333331</ele><time>2026-03-29T15:08:40.064Z</time></trkpt><trkpt lat="45.0198391" lon="8.1231465"><ele>207.0</ele><time>2026-03-29T15:08:41.064Z</time></trkpt><trkpt lat="45.0196453" lon="8.1230977"><ele>207.0</ele><time>2026-03-29T15:08:42.064Z</time></trkpt><trkpt lat="45.0194483" lon="8.1230298"><ele>207.0</ele><time>2026-03-29T15:08:43.064Z</time></trkpt><trkpt lat="45.019263" lon="8.122904"><ele>207.0</ele><time>2026-03-29T15:08:44.064Z</time></trkpt><trkpt lat="45.0190902" lon="8.1227482"><ele>206.33333333333331</ele><time>2026-03-29T15:08:45.064Z</time></trkpt><trkpt lat="45.0189247" lon="8.1225636"><ele>205.66666666666666</ele><time>2026-03-29T15:08:46.064Z</time></trkpt><trkpt lat="45.0187631" lon="8.1223607"><ele>205.0</ele><time>2026-03-29T15:08:47.063Z</time></trkpt><trkpt lat="45.0186065" lon="8.1221571"><ele>208.0</ele><time>2026-03-29T15:08:48.064Z</time></trkpt><trkpt lat="45.018435" lon="8.1219522"><ele>211.0</ele><time>2026-03-29T15:08:49.064Z</time></trkpt><trkpt lat="45.0182617" lon="8.121741"><ele>214.5</ele><time>2026-03-29T15:08:50.064Z</time></trkpt><trkpt lat="45.0180901" lon="8.1215321"><ele>218.0</ele><time>2026-03-29T15:08:51.064Z</time></trkpt><trkpt lat="45.0179214" lon="8.1213228"><ele>218.0</ele><time>2026-03-29T15:08:52.064Z</time></trkpt><trkpt lat="45.0177563" lon="8.1210995"><ele>218.0</ele><time>2026-03-29T15:08:53.064Z</time></trkpt><trkpt lat="45.0175813" lon="8.1209021"><ele>219.33333333333334</ele><time>2026-03-29T15:08:54.063Z</time></trkpt><trkpt lat="45.0174169" lon="8.1206955"><ele>220.66666666666669</ele><time>2026-03-29T15:08:55.064Z</time></trkpt><trkpt lat="45.0172449" lon="8.1204899"><ele>222.0</ele><time>2026-03-29T15:08:56.064Z</time></trkpt><trkpt lat="45.0170739" lon="8.1202698"><ele>222.0</ele><time>2026-03-29T15:08:57.064Z</time></trkpt><trkpt lat="45.016904" lon="8.1200599"><ele>222.0</ele><time>2026-03-29T15:08:58.064Z</time></trkpt><trkpt lat="45.0167321" lon="8.1198441"><ele>229.5</ele><time>2026-03-29T15:08:59.064Z</time></trkpt><trkpt lat="45.0165584" lon="8.1196339"><ele>237.0</ele><time>2026-03-29T15:09:00.064Z</time></trkpt><trkpt lat="45.0163887" lon="8.1194226"><ele>237.0</ele><time>2026-03-29T15:09:01.064Z</time></trkpt><trkpt lat="45.0162183" lon="8.1192095"><ele>237.0</ele><time>2026-03-29T15:09:02.064Z</time></trkpt><trkpt lat="45.0160522" lon="8.1189981"><ele>238.0</ele><time>2026-03-29T15:09:03.063Z</time></trkpt><trkpt lat="45.015885" lon="8.1187899"><ele>239.0</ele><time>2026-03-29T15:09:04.064Z</time></trkpt><trkpt lat="45.0157192" lon="8.1185898"><ele>240.0</ele><time>2026-03-29T15:09:05.064Z</time></trkpt><trkpt lat="45.0155724" lon="8.118398"><ele>238.66666666666669</ele><time>2026-03-29T15:09:06.064Z</time></trkpt><trkpt lat="45.0154295" lon="8.118228"><ele>237.33333333333334</ele><time>2026-03-29T15:09:07.064Z</time></trkpt><trkpt lat="45.0152944" lon="8.1180668"><ele>236.0</ele><time>2026-03-29T15:09:08.064Z</time></trkpt><trkpt lat="45.0151672" lon="8.1179256"><ele>236.0</ele><time>2026-03-29T15:09:09.064Z</time></trkpt><trkpt lat="45.0150373" lon="8.11783"><ele>236.0</ele><time>2026-03-29T15:09:10.064Z</time></trkpt><trkpt lat="45.0148992" lon="8.1177816"><ele>236.0</ele><time>2026-03-29T15:09:11.064Z</time></trkpt><trkpt lat="45.0147561" lon="8.1177675"><ele>236.0</ele><time>2026-03-29T15:09:12.064Z</time></trkpt><trkpt lat="45.0145756" lon="8.1178221"><ele>237.66666666666669</ele><time>2026-03-29T15:09:13.064Z</time></trkpt><trkpt lat="45.0144021" lon="8.1178572"><ele>239.33333333333331</ele><time>2026-03-29T15:09:14.064Z</time></trkpt><trkpt lat="45.014211" lon="8.1178754"><ele>241.0</ele><time>2026-03-29T15:09:15.064Z</time></trkpt><trkpt lat="45.0140224" lon="8.1178634"><ele>242.0</ele><time>2026-03-29T15:09:16.063Z</time></trkpt><trkpt lat="45.0138313" lon="8.1178275"><ele>243.0</ele><time>2026-03-29T15:09:17.064Z</time></trkpt><trkpt lat="45.0136384" lon="8.1178001"><ele>244.0</ele><time>2026-03-29T15:09:18.064Z</time></trkpt><trkpt lat="45.0134392" lon="8.1178029"><ele>244.0</ele><time>2026-03-29T15:09:19.064Z</time></trkpt><trkpt lat="45.0132317" lon="8.1178356"><ele>244.0</ele><time>2026-03-29T15:09:20.064Z</time></trkpt><trkpt lat="45.0130208" lon="8.1178844"><ele>244.0</ele><time>2026-03-29T15:09:21.064Z</time></trkpt><trkpt lat="45.0128069" lon="8.1179304"><ele>244.0</ele><time>2026-03-29T15:09:22.064Z</time></trkpt><trkpt lat="45.012593" lon="8.117976"><ele>244.0</ele><time>2026-03-29T15:09:23.064Z</time></trkpt><trkpt lat="45.0123765" lon="8.1180234"><ele>244.0</ele><time>2026-03-29T15:09:24.064Z</time></trkpt><trkpt lat="45.012176" lon="8.1180748"><ele>244.66666666666666</ele><time>2026-03-29T15:09:25.064Z</time></trkpt><trkpt lat="45.0119855" lon="8.118122"><ele>245.33333333333331</ele><time>2026-03-29T15:09:26.064Z</time></trkpt><trkpt lat="45.011807" lon="8.1181659"><ele>246.0</ele><time>2026-03-29T15:09:27.064Z</time></trkpt><trkpt lat="45.0116421" lon="8.1182128"><ele>250.33333333333331</ele><time>2026-03-29T15:09:28.064Z</time></trkpt><trkpt lat="45.0114817" lon="8.1182617"><ele>254.66666666666666</ele><time>2026-03-29T15:09:29.064Z</time></trkpt><trkpt lat="45.0113367" lon="8.1183057"><ele>259.0</ele><time>2026-03-29T15:09:30.064Z</time></trkpt><trkpt lat="45.0111903" lon="8.11833"><ele>259.0</ele><time>2026-03-29T15:09:31.064Z</time></trkpt><trkpt lat="45.0110551" lon="8.1183315"><ele>259.0</ele><time>2026-03-29T15:09:32.064Z</time></trkpt><trkpt lat="45.0109314" lon="8.1182821"><ele>259.0</ele><time>2026-03-29T15:09:33.064Z</time></trkpt><trkpt lat="45.0108093" lon="8.1181798"><ele>259.0</ele><time>2026-03-29T15:09:34.064Z</time></trkpt><trkpt lat="45.0107103" lon="8.11803"><ele>263.3333333333333</ele><time>2026-03-29T15:09:35.064Z</time></trkpt><trkpt lat="45.0106171" lon="8.1178478"><ele>267.6666666666667</ele><time>2026-03-29T15:09:36.064Z</time></trkpt><trkpt lat="45.0105288" lon="8.1176649"><ele>272.0</ele><time>2026-03-29T15:09:37.064Z</time></trkpt><trkpt lat="45.0104356" lon="8.1174715"><ele>270.0</ele><time>2026-03-29T15:09:38.064Z</time></trkpt><trkpt lat="45.0103181" lon="8.1172876"><ele>268.0</ele><time>2026-03-29T15:09:39.064Z</time></trkpt><trkpt lat="45.0102074" lon="8.1170992"><ele>266.0</ele><time>2026-03-29T15:09:40.064Z</time></trkpt><trkpt lat="45.0101015" lon="8.1169092"><ele>266.0</ele><time>2026-03-29T15:09:41.064Z</time></trkpt><trkpt lat="45.0099966" lon="8.116724"><ele>266.0</ele><time>2026-03-29T15:09:42.063Z</time></trkpt><trkpt lat="45.0098989" lon="8.1165543"><ele>266.0</ele><time>2026-03-29T15:09:43.064Z</time></trkpt><trkpt lat="45.0098089" lon="8.116398"><ele>265.5</ele><time>2026-03-29T15:09:44.064Z</time></trkpt><trkpt lat="45.0097262" lon="8.1162476"><ele>265.0</ele><time>2026-03-29T15:09:45.064Z</time></trkpt><trkpt lat="45.0096546" lon="8.1161069"><ele>264.5</ele><time>2026-03-29T15:09:46.064Z</time></trkpt><trkpt lat="45.0095951" lon="8.1159647"><ele>264.0</ele><time>2026-03-29T15:09:47.064Z</time></trkpt><trkpt lat="45.0095346" lon="8.1158326"><ele>264.75</ele><time>2026-03-29T15:09:48.064Z</time></trkpt><trkpt lat="45.0094929" lon="8.115686"><ele>265.5</ele><time>2026-03-29T15:09:49.064Z</time></trkpt><trkpt lat="45.0095002" lon="8.1155275"><ele>266.25</ele><time>2026-03-29T15:09:50.064Z</time></trkpt><trkpt lat="45.0095069" lon="8.1153677"><ele>267.0</ele><time>2026-03-29T15:09:51.064Z</time></trkpt><trkpt lat="45.0095167" lon="8.1151853"><ele>267.0</ele><time>2026-03-29T15:09:52.064Z</time></trkpt><trkpt lat="45.0095291" lon="8.1149982"><ele>267.0</ele><time>2026-03-29T15:09:53.063Z</time></trkpt><trkpt lat="45.0095416" lon="8.1148113"><ele>267.0</ele><time>2026-03-29T15:09:54.064Z</time></trkpt><trkpt lat="45.0095405" lon="8.1146321"><ele>267.0</ele><time>2026-03-29T15:09:55.064Z</time></trkpt><trkpt lat="45.0095423" lon="8.1144539"><ele>268.25</ele><time>2026-03-29T15:09:56.064Z</time></trkpt><trkpt lat="45.0095287" lon="8.1142873"><ele>269.5</ele><time>2026-03-29T15:09:57.064Z</time></trkpt><trkpt lat="45.0094824" lon="8.1141346"><ele>270.75</ele><time>2026-03-29T15:09:58.064Z</time></trkpt><trkpt lat="45.009437" lon="8.1139881"><ele>272.0</ele><time>2026-03-29T15:09:59.064Z</time></trkpt><trkpt lat="45.0093847" lon="8.1138284"><ele>273.25</ele><time>2026-03-29T15:10:00.064Z</time></trkpt><trkpt lat="45.0093227" lon="8.1136734"><ele>274.5</ele><time>2026-03-29T15:10:01.063Z</time></trkpt><trkpt lat="45.0092487" lon="8.1135346"><ele>275.75</ele><time>2026-03-29T15:10:02.064Z</time></trkpt><trkpt lat="45.0091559" lon="8.1134074"><ele>277.0</ele><time>2026-03-29T15:10:03.064Z</time></trkpt><trkpt lat="45.0090599" lon="8.1132735"><ele>280.25</ele><time>2026-03-29T15:10:04.063Z</time></trkpt><trkpt lat="45.0089501" lon="8.1131837"><ele>283.5</ele><time>2026-03-29T15:10:05.064Z</time></trkpt><trkpt lat="45.0088432" lon="8.1131137"><ele>286.75</ele><time>2026-03-29T15:10:06.064Z</time></trkpt><trkpt lat="45.008743" lon="8.1130338"><ele>290.0</ele><time>2026-03-29T15:10:07.064Z</time></trkpt><trkpt lat="45.0086669" lon="8.1129575"><ele>290.0</ele><time>2026-03-29T15:10:08.064Z</time></trkpt><trkpt lat="45.0086038" lon="8.1128645"><ele>290.0</ele><time>2026-03-29T15:10:09.064Z</time></trkpt><trkpt lat="45.0085477" lon="8.1127817"><ele>290.0</ele><time>2026-03-29T15:10:10.064Z</time></trkpt><trkpt lat="45.0084927" lon="8.1126948"><ele>290.0</ele><time>2026-03-29T15:10:11.064Z</time></trkpt><trkpt lat="45.0084352" lon="8.1126372"><ele>290.0</ele><time>2026-03-29T15:10:12.064Z</time></trkpt><trkpt lat="45.0083843" lon="8.1125841"><ele>290.0</ele><time>2026-03-29T15:10:13.064Z</time></trkpt><trkpt lat="45.0082858" lon="8.1125901"><ele>290.5</ele><time>2026-03-29T15:10:14.064Z</time></trkpt><trkpt lat="45.0082071" lon="8.1126028"><ele>291.0</ele><time>2026-03-29T15:10:15.064Z</time></trkpt><trkpt lat="45.0080238" lon="8.1127068"><ele>291.5</ele><time>2026-03-29T15:10:16.064Z</time></trkpt><trkpt lat="45.0079199" lon="8.1128323"><ele>292.0</ele><time>2026-03-29T15:10:17.064Z</time></trkpt><trkpt lat="45.0078445" lon="8.1129892"><ele>292.0</ele><time>2026-03-29T15:10:18.064Z</time></trkpt><trkpt lat="45.007759" lon="8.1131343"><ele>292.0</ele><time>2026-03-29T15:10:19.064Z</time></trkpt><trkpt lat="45.007675" lon="8.1132336"><ele>292.0</ele><time>2026-03-29T15:10:20.064Z</time></trkpt><trkpt lat="45.0075715" lon="8.1134141"><ele>292.0</ele><time>2026-03-29T15:10:21.064Z</time></trkpt><trkpt lat="45.0074507" lon="8.1135386"><ele>289.75</ele><time>2026-03-29T15:10:22.064Z</time></trkpt><trkpt lat="45.0073373" lon="8.1136814"><ele>287.5</ele><time>2026-03-29T15:10:23.064Z</time></trkpt><trkpt lat="45.0072339" lon="8.1138148"><ele>285.25</ele><time>2026-03-29T15:10:24.064Z</time></trkpt><trkpt lat="45.0071193" lon="8.1139529"><ele>283.0</ele><time>2026-03-29T15:10:25.064Z</time></trkpt><trkpt lat="45.0070116" lon="8.1140766"><ele>283.0</ele><time>2026-03-29T15:10:26.064Z</time></trkpt><trkpt lat="45.0069268" lon="8.1142089"><ele>283.0</ele><time>2026-03-29T15:10:27.064Z</time></trkpt><trkpt lat="45.0068351" lon="8.1143185"><ele>283.0</ele><time>2026-03-29T15:10:28.064Z</time></trkpt><trkpt lat="45.0067205" lon="8.1143794"><ele>283.0</ele><time>2026-03-29T15:10:29.064Z</time></trkpt><trkpt lat="45.0066159" lon="8.1144497"><ele>280.25</ele><time>2026-03-29T15:10:30.063Z</time></trkpt><trkpt lat="45.0064996" lon="8.1144418"><ele>277.5</ele><time>2026-03-29T15:10:31.064Z</time></trkpt><trkpt lat="45.0063797" lon="8.114447"><ele>274.75</ele><time>2026-03-29T15:10:32.064Z</time></trkpt><trkpt lat="45.0062572" lon="8.1144559"><ele>272.0</ele><time>2026-03-29T15:10:33.064Z</time></trkpt><trkpt lat="45.0061348" lon="8.1144619"><ele>272.0</ele><time>2026-03-29T15:10:34.064Z</time></trkpt><trkpt lat="45.006008" lon="8.1144896"><ele>272.0</ele><time>2026-03-29T15:10:35.064Z</time></trkpt><trkpt lat="45.0059043" lon="8.1145233"><ele>272.0</ele><time>2026-03-29T15:10:36.064Z</time></trkpt><trkpt lat="45.005792" lon="8.1145843"><ele>272.0</ele><time>2026-03-29T15:10:37.064Z</time></trkpt><trkpt lat="45.0056637" lon="8.1146474"><ele>269.8</ele><time>2026-03-29T15:10:38.064Z</time></trkpt><trkpt lat="45.0055475" lon="8.1146949"><ele>267.6</ele><time>2026-03-29T15:10:39.064Z</time></trkpt><trkpt lat="45.0054534" lon="8.114714"><ele>265.40000000000003</ele><time>2026-03-29T15:10:40.064Z</time></trkpt><trkpt lat="45.0053678" lon="8.1147643"><ele>263.2</ele><time>2026-03-29T15:10:41.064Z</time></trkpt><trkpt lat="45.0052911" lon="8.1147721"><ele>261.0</ele><time>2026-03-29T15:10:42.064Z</time></trkpt><trkpt lat="45.005213" lon="8.1147896"><ele>261.0</ele><time>2026-03-29T15:10:43.064Z</time></trkpt><trkpt lat="45.0051524" lon="8.114725"><ele>261.0</ele><time>2026-03-29T15:10:44.064Z</time></trkpt><trkpt lat="45.0051008" lon="8.1146679"><ele>261.0</ele><time>2026-03-29T15:10:45.064Z</time></trkpt><trkpt lat="45.0050977" lon="8.1145682"><ele>261.0</ele><time>2026-03-29T15:10:46.064Z</time></trkpt><trkpt lat="45.0051272" lon="8.1144512"><ele>261.0</ele><time>2026-03-29T15:10:47.064Z</time></trkpt><trkpt lat="45.0052029" lon="8.1143303"><ele>261.0</ele><time>2026-03-29T15:10:48.064Z</time></trkpt><trkpt lat="45.0052842" lon="8.1142301"><ele>261.0</ele><time>2026-03-29T15:10:49.064Z</time></trkpt><trkpt lat="45.0053604" lon="8.1141135"><ele>261.0</ele><time>2026-03-29T15:10:50.064Z</time></trkpt><trkpt lat="45.0054484" lon="8.1139727"><ele>261.0</ele><time>2026-03-29T15:10:51.064Z</time></trkpt><trkpt lat="45.0055265" lon="8.1138219"><ele>261.0</ele><time>2026-03-29T15:10:52.064Z</time></trkpt><trkpt lat="45.0056089" lon="8.1136795"><ele>258.25</ele><time>2026-03-29T15:10:53.064Z</time></trkpt><trkpt lat="45.0056976" lon="8.1135358"><ele>255.5</ele><time>2026-03-29T15:10:54.064Z</time></trkpt><trkpt lat="45.0057743" lon="8.1133854"><ele>252.75</ele><time>2026-03-29T15:10:55.064Z</time></trkpt><trkpt lat="45.0058495" lon="8.1132377"><ele>250.0</ele><time>2026-03-29T15:10:56.063Z</time></trkpt><trkpt lat="45.0059139" lon="8.1130747"><ele>250.0</ele><time>2026-03-29T15:10:57.064Z</time></trkpt><trkpt lat="45.0059793" lon="8.1129414"><ele>250.0</ele><time>2026-03-29T15:10:58.064Z</time></trkpt><trkpt lat="45.0060272" lon="8.112761"><ele>250.0</ele><time>2026-03-29T15:10:59.064Z</time></trkpt><trkpt lat="45.00607" lon="8.1125734"><ele>250.0</ele><time>2026-03-29T15:11:00.064Z</time></trkpt><trkpt lat="45.0061135" lon="8.1123838"><ele>248.0</ele><time>2026-03-29T15:11:01.064Z</time></trkpt><trkpt lat="45.0061577" lon="8.1121996"><ele>246.0</ele><time>2026-03-29T15:11:02.064Z</time></trkpt><trkpt lat="45.0061998" lon="8.1120301"><ele>244.0</ele><time>2026-03-29T15:11:03.064Z</time></trkpt><trkpt lat="45.0062211" lon="8.1118529"><ele>242.0</ele><time>2026-03-29T15:11:04.064Z</time></trkpt><trkpt lat="45.006277" lon="8.1116799"><ele>241.6</ele><time>2026-03-29T15:11:05.064Z</time></trkpt><trkpt lat="45.0063128" lon="8.1115204"><ele>241.2</ele><time>2026-03-29T15:11:06.063Z</time></trkpt><trkpt lat="45.0063363" lon="8.1113793"><ele>240.8</ele><time>2026-03-29T15:11:07.064Z</time></trkpt><trkpt lat="45.0063429" lon="8.1112316"><ele>240.4</ele><time>2026-03-29T15:11:08.064Z</time></trkpt><trkpt lat="45.006316" lon="8.1110973"><ele>240.0</ele><time>2026-03-29T15:11:09.064Z</time></trkpt><trkpt lat="45.0062752" lon="8.1109763"><ele>240.0</ele><time>2026-03-29T15:11:10.064Z</time></trkpt><trkpt lat="45.0062193" lon="8.1108696"><ele>240.0</ele><time>2026-03-29T15:11:11.064Z</time></trkpt><trkpt lat="45.0061473" lon="8.110748"><ele>240.0</ele><time>2026-03-29T15:11:12.064Z</time></trkpt><trkpt lat="45.0060485" lon="8.1106628"><ele>240.0</ele><time>2026-03-29T15:11:13.064Z</time></trkpt><trkpt lat="45.0059417" lon="8.1105706"><ele>240.0</ele><time>2026-03-29T15:11:14.064Z</time></trkpt><trkpt lat="45.0058188" lon="8.1104841"><ele>239.25</ele><time>2026-03-29T15:11:15.064Z</time></trkpt><trkpt lat="45.0057043" lon="8.1103968"><ele>238.5</ele><time>2026-03-29T15:11:16.064Z</time></trkpt><trkpt lat="45.0055876" lon="8.1103224"><ele>237.75</ele><time>2026-03-29T15:11:17.064Z</time></trkpt><trkpt lat="45.0054755" lon="8.110251"><ele>237.0</ele><time>2026-03-29T15:11:18.064Z</time></trkpt><trkpt lat="45.0053668" lon="8.1101806"><ele>237.0</ele><time>2026-03-29T15:11:19.064Z</time></trkpt><trkpt lat="45.0052757" lon="8.1100814"><ele>237.0</ele><time>2026-03-29T15:11:20.064Z</time></trkpt><trkpt lat="45.0051861" lon="8.1099718"><ele>237.0</ele><time>2026-03-29T15:11:21.064Z</time></trkpt><trkpt lat="45.0051069" lon="8.1098125"><ele>237.0</ele><time>2026-03-29T15:11:22.064Z</time></trkpt><trkpt lat="45.0050149" lon="8.1096683"><ele>235.25</ele><time>2026-03-29T15:11:23.064Z</time></trkpt><trkpt lat="45.0049227" lon="8.1095387"><ele>233.5</ele><time>2026-03-29T15:11:24.064Z</time></trkpt><trkpt lat="45.004831" lon="8.109413"><ele>231.75</ele><time>2026-03-29T15:11:25.064Z</time></trkpt><trkpt lat="45.0047209" lon="8.109295"><ele>230.0</ele><time>2026-03-29T15:11:26.064Z</time></trkpt><trkpt lat="45.0046094" lon="8.1091729"><ele>230.75</ele><time>2026-03-29T15:11:27.064Z</time></trkpt><trkpt lat="45.0045085" lon="8.1090467"><ele>231.5</ele><time>2026-03-29T15:11:28.064Z</time></trkpt><trkpt lat="45.0044059" lon="8.1089154"><ele>232.25</ele><time>2026-03-29T15:11:29.064Z</time></trkpt><trkpt lat="45.004302" lon="8.108784"><ele>233.0</ele><time>2026-03-29T15:11:30.064Z</time></trkpt><trkpt lat="45.0041965" lon="8.1086368"><ele>232.5</ele><time>2026-03-29T15:11:31.064Z</time></trkpt><trkpt lat="45.0041229" lon="8.1084655"><ele>232.0</ele><time>2026-03-29T15:11:32.064Z</time></trkpt><trkpt lat="45.0040474" lon="8.1082991"><ele>231.5</ele><time>2026-03-29T15:11:33.064Z</time></trkpt><trkpt lat="45.0039794" lon="8.1081124"><ele>231.0</ele><time>2026-03-29T15:11:34.064Z</time></trkpt><trkpt lat="45.0039149" lon="8.1079393"><ele>231.0</ele><time>2026-03-29T15:11:35.064Z</time></trkpt><trkpt lat="45.0038743" lon="8.1077534"><ele>231.0</ele><time>2026-03-29T15:11:36.064Z</time></trkpt><trkpt lat="45.0038286" lon="8.107582"><ele>231.0</ele><time>2026-03-29T15:11:37.063Z</time></trkpt><trkpt lat="45.0037596" lon="8.1074259"><ele>231.0</ele><time>2026-03-29T15:11:38.064Z</time></trkpt><trkpt lat="45.0036768" lon="8.1072892"><ele>232.0</ele><time>2026-03-29T15:11:39.064Z</time></trkpt><trkpt lat="45.0035932" lon="8.1071645"><ele>233.00000000000003</ele><time>2026-03-29T15:11:40.064Z</time></trkpt><trkpt lat="45.0035008" lon="8.1070533"><ele>234.00000000000003</ele><time>2026-03-29T15:11:41.064Z</time></trkpt><trkpt lat="45.0034172" lon="8.1069378"><ele>235.0</ele><time>2026-03-29T15:11:42.064Z</time></trkpt><trkpt lat="45.0033581" lon="8.1068789"><ele>236.0</ele><time>2026-03-29T15:11:43.064Z</time></trkpt><trkpt lat="45.003296" lon="8.1068252"><ele>233.33333333333334</ele><time>2026-03-29T15:11:44.064Z</time></trkpt><trkpt lat="45.0032598" lon="8.1067423"><ele>230.66666666666669</ele><time>2026-03-29T15:11:45.064Z</time></trkpt><trkpt lat="45.0032287" lon="8.1066337"><ele>228.0</ele><time>2026-03-29T15:11:46.064Z</time></trkpt><trkpt lat="45.0032133" lon="8.106517"><ele>225.33333333333331</ele><time>2026-03-29T15:11:47.064Z</time></trkpt><trkpt lat="45.0032111" lon="8.1063833"><ele>222.66666666666666</ele><time>2026-03-29T15:11:48.064Z</time></trkpt><trkpt lat="45.0032224" lon="8.1062324"><ele>220.0</ele><time>2026-03-29T15:11:49.064Z</time></trkpt><trkpt lat="45.0032423" lon="8.1060706"><ele>220.5</ele><time>2026-03-29T15:11:50.064Z</time></trkpt><trkpt lat="45.0032741" lon="8.1059133"><ele>221.0</ele><time>2026-03-29T15:11:51.064Z</time></trkpt><trkpt lat="45.0033207" lon="8.1057506"><ele>221.5</ele><time>2026-03-29T15:11:52.064Z</time></trkpt><trkpt lat="45.0033686" lon="8.1055949"><ele>222.0</ele><time>2026-03-29T15:11:53.064Z</time></trkpt><trkpt lat="45.0034063" lon="8.105424"><ele>222.0</ele><time>2026-03-29T15:11:54.064Z</time></trkpt><trkpt lat="45.0034498" lon="8.1052693"><ele>222.0</ele><time>2026-03-29T15:11:55.064Z</time></trkpt><trkpt lat="45.0034611" lon="8.1050994"><ele>222.0</ele><time>2026-03-29T15:11:56.064Z</time></trkpt><trkpt lat="45.0034617" lon="8.1049252"><ele>222.0</ele><time>2026-03-29T15:11:57.064Z</time></trkpt><trkpt lat="45.0034559" lon="8.1047566"><ele>220.0</ele><time>2026-03-29T15:11:58.064Z</time></trkpt><trkpt lat="45.0034207" lon="8.1045768"><ele>218.0</ele><time>2026-03-29T15:11:59.064Z</time></trkpt><trkpt lat="45.0033963" lon="8.1043961"><ele>216.0</ele><time>2026-03-29T15:12:00.064Z</time></trkpt><trkpt lat="45.0033691" lon="8.1042156"><ele>214.0</ele><time>2026-03-29T15:12:01.064Z</time></trkpt><trkpt lat="45.0033579" lon="8.1040572"><ele>210.75</ele><time>2026-03-29T15:12:02.064Z</time></trkpt><trkpt lat="45.0033626" lon="8.103908"><ele>207.5</ele><time>2026-03-29T15:12:03.064Z</time></trkpt><trkpt lat="45.0034019" lon="8.1037521"><ele>204.25</ele><time>2026-03-29T15:12:04.064Z</time></trkpt><trkpt lat="45.0034424" lon="8.103605"><ele>201.0</ele><time>2026-03-29T15:12:05.064Z</time></trkpt><trkpt lat="45.0034901" lon="8.1034067"><ele>199.0</ele><time>2026-03-29T15:12:06.064Z</time></trkpt><trkpt lat="45.0035379" lon="8.1032201"><ele>197.0</ele><time>2026-03-29T15:12:07.064Z</time></trkpt><trkpt lat="45.003594" lon="8.1030419"><ele>195.0</ele><time>2026-03-29T15:12:08.064Z</time></trkpt><trkpt lat="45.0036496" lon="8.1028428"><ele>193.0</ele><time>2026-03-29T15:12:09.064Z</time></trkpt><trkpt lat="45.0036868" lon="8.1027164"><ele>193.0</ele><time>2026-03-29T15:12:10.064Z</time></trkpt><trkpt lat="45.0037132" lon="8.1025547"><ele>193.0</ele><time>2026-03-29T15:12:11.064Z</time></trkpt><trkpt lat="45.0037113" lon="8.102416"><ele>193.0</ele><time>2026-03-29T15:12:12.064Z</time></trkpt><trkpt lat="45.0036687" lon="8.1023038"><ele>193.0</ele><time>2026-03-29T15:12:13.063Z</time></trkpt><trkpt lat="45.0036288" lon="8.1021956"><ele>193.0</ele><time>2026-03-29T15:12:14.064Z</time></trkpt><trkpt lat="45.0035942" lon="8.1021036"><ele>192.8</ele><time>2026-03-29T15:12:15.064Z</time></trkpt><trkpt lat="45.0035702" lon="8.1020162"><ele>192.60000000000002</ele><time>2026-03-29T15:12:16.064Z</time></trkpt><trkpt lat="45.0035308" lon="8.1018352"><ele>192.39999999999998</ele><time>2026-03-29T15:12:18.064Z</time></trkpt><trkpt lat="45.0035127" lon="8.1017325"><ele>192.2</ele><time>2026-03-29T15:12:19.064Z</time></trkpt><trkpt lat="45.0034657" lon="8.1016104"><ele>192.0</ele><time>2026-03-29T15:12:20.064Z</time></trkpt><trkpt lat="45.0033928" lon="8.1015127"><ele>193.0</ele><time>2026-03-29T15:12:21.064Z</time></trkpt><trkpt lat="45.0032962" lon="8.1014084"><ele>194.0</ele><time>2026-03-29T15:12:22.064Z</time></trkpt><trkpt lat="45.0032056" lon="8.101294"><ele>195.0</ele><time>2026-03-29T15:12:23.064Z</time></trkpt><trkpt lat="45.0031169" lon="8.1011632"><ele>196.0</ele><time>2026-03-29T15:12:24.064Z</time></trkpt><trkpt lat="45.0030246" lon="8.1010154"><ele>196.0</ele><time>2026-03-29T15:12:25.064Z</time></trkpt><trkpt lat="45.0029205" lon="8.1008489"><ele>196.0</ele><time>2026-03-29T15:12:26.064Z</time></trkpt><trkpt lat="45.0028336" lon="8.1006651"><ele>196.0</ele><time>2026-03-29T15:12:27.064Z</time></trkpt><trkpt lat="45.0027043" lon="8.1004803"><ele>197.66666666666666</ele><time>2026-03-29T15:12:28.064Z</time></trkpt><trkpt lat="45.0025937" lon="8.1002914"><ele>199.33333333333331</ele><time>2026-03-29T15:12:29.064Z</time></trkpt><trkpt lat="45.002487" lon="8.1001007"><ele>201.0</ele><time>2026-03-29T15:12:30.064Z</time></trkpt><trkpt lat="45.002367" lon="8.0998827"><ele>203.33333333333331</ele><time>2026-03-29T15:12:31.064Z</time></trkpt><trkpt lat="45.0022303" lon="8.0996701"><ele>205.66666666666666</ele><time>2026-03-29T15:12:32.064Z</time></trkpt><trkpt lat="45.002096" lon="8.099461"><ele>208.0</ele><time>2026-03-29T15:12:33.063Z</time></trkpt><trkpt lat="45.0019677" lon="8.0992337"><ele>210.0</ele><time>2026-03-29T15:12:34.064Z</time></trkpt><trkpt lat="45.0018393" lon="8.0990425"><ele>212.0</ele><time>2026-03-29T15:12:35.064Z</time></trkpt><trkpt lat="45.0016503" lon="8.0988659"><ele>214.0</ele><time>2026-03-29T15:12:36.064Z</time></trkpt><trkpt lat="45.0014923" lon="8.0986732"><ele>214.0</ele><time>2026-03-29T15:12:37.064Z</time></trkpt><trkpt lat="45.0013234" lon="8.0984645"><ele>214.0</ele><time>2026-03-29T15:12:38.064Z</time></trkpt><trkpt lat="45.0011667" lon="8.0982905"><ele>214.0</ele><time>2026-03-29T15:12:39.064Z</time></trkpt><trkpt lat="45.001012" lon="8.0981109"><ele>215.0</ele><time>2026-03-29T15:12:40.064Z</time></trkpt><trkpt lat="45.0008561" lon="8.0979308"><ele>216.0</ele><time>2026-03-29T15:12:41.064Z</time></trkpt><trkpt lat="45.0007024" lon="8.0977457"><ele>217.0</ele><time>2026-03-29T15:12:42.064Z</time></trkpt><trkpt lat="45.0005487" lon="8.0975607"><ele>220.0</ele><time>2026-03-29T15:12:43.064Z</time></trkpt><trkpt lat="45.0004014" lon="8.0973829"><ele>223.0</ele><time>2026-03-29T15:12:44.064Z</time></trkpt><trkpt lat="45.0002588" lon="8.0971913"><ele>226.0</ele><time>2026-03-29T15:12:45.064Z</time></trkpt><trkpt lat="45.0001331" lon="8.0969915"><ele>226.0</ele><time>2026-03-29T15:12:46.064Z</time></trkpt><trkpt lat="45.0000026" lon="8.0967939"><ele>226.0</ele><time>2026-03-29T15:12:47.064Z</time></trkpt><trkpt lat="44.9998672" lon="8.0965967"><ele>226.0</ele><time>2026-03-29T15:12:48.064Z</time></trkpt><trkpt lat="44.999745" lon="8.0964149"><ele>228.5</ele><time>2026-03-29T15:12:49.064Z</time></trkpt><trkpt lat="44.9996433" lon="8.096249"><ele>231.0</ele><time>2026-03-29T15:12:50.064Z</time></trkpt><trkpt lat="44.9995303" lon="8.096092"><ele>233.5</ele><time>2026-03-29T15:12:51.064Z</time></trkpt><trkpt lat="44.999438" lon="8.0959659"><ele>236.0</ele><time>2026-03-29T15:12:52.064Z</time></trkpt><trkpt lat="44.9993364" lon="8.095829"><ele>237.33333333333334</ele><time>2026-03-29T15:12:53.064Z</time></trkpt><trkpt lat="44.9992512" lon="8.0957303"><ele>238.66666666666669</ele><time>2026-03-29T15:12:54.064Z</time></trkpt><trkpt lat="44.9992552" lon="8.0956334"><ele>240.0</ele><time>2026-03-29T15:12:55.064Z</time></trkpt><trkpt lat="44.9992633" lon="8.095528"><ele>241.33333333333331</ele><time>2026-03-29T15:12:56.064Z</time></trkpt><trkpt lat="44.9993115" lon="8.0954378"><ele>242.66666666666666</ele><time>2026-03-29T15:12:57.064Z</time></trkpt><trkpt lat="44.9994057" lon="8.0953865"><ele>244.0</ele><time>2026-03-29T15:12:58.064Z</time></trkpt><trkpt lat="44.9995123" lon="8.09539"><ele>244.0</ele><time>2026-03-29T15:12:59.064Z</time></trkpt><trkpt lat="44.9996196" lon="8.0953869"><ele>244.0</ele><time>2026-03-29T15:13:00.064Z</time></trkpt><trkpt lat="44.9997735" lon="8.0954213"><ele>244.0</ele><time>2026-03-29T15:13:01.064Z</time></trkpt><trkpt lat="44.9999254" lon="8.095452"><ele>244.0</ele><time>2026-03-29T15:13:02.064Z</time></trkpt><trkpt lat="45.0000738" lon="8.0954491"><ele>244.0</ele><time>2026-03-29T15:13:03.064Z</time></trkpt><trkpt lat="45.0002208" lon="8.0954919"><ele>244.0</ele><time>2026-03-29T15:13:04.063Z</time></trkpt><trkpt lat="45.0003748" lon="8.0955184"><ele>244.0</ele><time>2026-03-29T15:13:05.064Z</time></trkpt><trkpt lat="45.0005323" lon="8.0955421"><ele>244.0</ele><time>2026-03-29T15:13:06.064Z</time></trkpt><trkpt lat="45.0006874" lon="8.0955675"><ele>244.0</ele><time>2026-03-29T15:13:07.064Z</time></trkpt><trkpt lat="45.0008467" lon="8.0955898"><ele>244.0</ele><time>2026-03-29T15:13:08.064Z</time></trkpt><trkpt lat="45.0010042" lon="8.0956265"><ele>244.0</ele><time>2026-03-29T15:13:09.064Z</time></trkpt><trkpt lat="45.0011578" lon="8.0956507"><ele>244.0</ele><time>2026-03-29T15:13:10.063Z</time></trkpt><trkpt lat="45.0012976" lon="8.0957401"><ele>244.0</ele><time>2026-03-29T15:13:11.064Z</time></trkpt><trkpt lat="45.001418" lon="8.0958246"><ele>244.0</ele><time>2026-03-29T15:13:12.064Z</time></trkpt><trkpt lat="45.0015174" lon="8.0958902"><ele>244.0</ele><time>2026-03-29T15:13:13.064Z</time></trkpt><trkpt lat="45.0016076" lon="8.0959501"><ele>243.99999999999997</ele><time>2026-03-29T15:13:14.064Z</time></trkpt><trkpt lat="45.0017018" lon="8.0959844"><ele>243.99999999999997</ele><time>2026-03-29T15:13:15.064Z</time></trkpt><trkpt lat="45.0017872" lon="8.0959574"><ele>244.0</ele><time>2026-03-29T15:13:16.064Z</time></trkpt><trkpt lat="45.0018618" lon="8.0959029"><ele>244.0</ele><time>2026-03-29T15:13:17.064Z</time></trkpt><trkpt lat="45.001938" lon="8.0958412"><ele>250.0</ele><time>2026-03-29T15:13:18.064Z</time></trkpt><trkpt lat="45.0019165" lon="8.0956685"><ele>256.0</ele><time>2026-03-29T15:13:19.064Z</time></trkpt><trkpt lat="45.0019265" lon="8.0955402"><ele>262.0</ele><time>2026-03-29T15:13:20.064Z</time></trkpt><trkpt lat="45.0018845" lon="8.0953938"><ele>268.0</ele><time>2026-03-29T15:13:21.063Z</time></trkpt><trkpt lat="45.0017566" lon="8.0952935"><ele>265.25</ele><time>2026-03-29T15:13:22.064Z</time></trkpt><trkpt lat="45.0016538" lon="8.0951796"><ele>262.5</ele><time>2026-03-29T15:13:23.063Z</time></trkpt><trkpt lat="45.0015502" lon="8.0950665"><ele>259.75</ele><time>2026-03-29T15:13:24.064Z</time></trkpt><trkpt lat="45.0014432" lon="8.0949079"><ele>257.0</ele><time>2026-03-29T15:13:25.063Z</time></trkpt><trkpt lat="45.0013165" lon="8.0947609"><ele>265.33333333333337</ele><time>2026-03-29T15:13:26.064Z</time></trkpt><trkpt lat="45.0011809" lon="8.0946126"><ele>273.6666666666667</ele><time>2026-03-29T15:13:27.064Z</time></trkpt><trkpt lat="45.0010403" lon="8.0944602"><ele>282.0</ele><time>2026-03-29T15:13:28.064Z</time></trkpt><trkpt lat="45.0009118" lon="8.0943064"><ele>281.3333333333333</ele><time>2026-03-29T15:13:29.064Z</time></trkpt><trkpt lat="45.0007793" lon="8.0941468"><ele>280.66666666666663</ele><time>2026-03-29T15:13:30.064Z</time></trkpt><trkpt lat="45.0006474" lon="8.0939833"><ele>280.0</ele><time>2026-03-29T15:13:31.064Z</time></trkpt><trkpt lat="45.0005197" lon="8.0938305"><ele>280.0</ele><time>2026-03-29T15:13:32.063Z</time></trkpt><trkpt lat="45.0003813" lon="8.0936647"><ele>280.0</ele><time>2026-03-29T15:13:33.064Z</time></trkpt><trkpt lat="45.0002513" lon="8.0935143"><ele>280.0</ele><time>2026-03-29T15:13:34.064Z</time></trkpt><trkpt lat="45.0001235" lon="8.0933802"><ele>280.0</ele><time>2026-03-29T15:13:35.064Z</time></trkpt><trkpt lat="45.0000029" lon="8.0932771"><ele>280.0</ele><time>2026-03-29T15:13:36.064Z</time></trkpt><trkpt lat="44.9999339" lon="8.0931895"><ele>280.0</ele><time>2026-03-29T15:13:37.063Z</time></trkpt><trkpt lat="44.9998654" lon="8.0931141"><ele>280.0</ele><time>2026-03-29T15:13:38.064Z</time></trkpt><trkpt lat="44.9997952" lon="8.0930276"><ele>280.0</ele><time>2026-03-29T15:13:39.064Z</time></trkpt><trkpt lat="44.9998064" lon="8.0929202"><ele>282.0</ele><time>2026-03-29T15:13:40.064Z</time></trkpt><trkpt lat="44.9998105" lon="8.0928233"><ele>284.0</ele><time>2026-03-29T15:13:41.064Z</time></trkpt><trkpt lat="44.9998637" lon="8.092721"><ele>286.0</ele><time>2026-03-29T15:13:42.064Z</time></trkpt><trkpt lat="44.999898" lon="8.0926012"><ele>288.0</ele><time>2026-03-29T15:13:43.064Z</time></trkpt><trkpt lat="45.0000045" lon="8.0924962"><ele>290.0</ele><time>2026-03-29T15:13:44.064Z</time></trkpt><trkpt lat="45.0001" lon="8.0923762"><ele>290.0</ele><time>2026-03-29T15:13:45.064Z</time></trkpt><trkpt lat="45.0002051" lon="8.0922623"><ele>290.0</ele><time>2026-03-29T15:13:46.064Z</time></trkpt><trkpt lat="45.0003266" lon="8.0921906"><ele>290.0</ele><time>2026-03-29T15:13:47.064Z</time></trkpt><trkpt lat="45.0004515" lon="8.0921042"><ele>290.0</ele><time>2026-03-29T15:13:48.063Z</time></trkpt><trkpt lat="45.0005751" lon="8.092031"><ele>290.0</ele><time>2026-03-29T15:13:49.064Z</time></trkpt><trkpt lat="45.0007394" lon="8.0919456"><ele>290.0</ele><time>2026-03-29T15:13:50.064Z</time></trkpt><trkpt lat="45.0008913" lon="8.0918638"><ele>290.0</ele><time>2026-03-29T15:13:51.063Z</time></trkpt><trkpt lat="45.0010434" lon="8.0917745"><ele>289.6666666666667</ele><time>2026-03-29T15:13:52.064Z</time></trkpt><trkpt lat="45.0011964" lon="8.0916945"><ele>289.3333333333333</ele><time>2026-03-29T15:13:53.064Z</time></trkpt><trkpt lat="45.0013465" lon="8.0916325"><ele>289.0</ele><time>2026-03-29T15:13:54.064Z</time></trkpt><trkpt lat="45.0015006" lon="8.0915589"><ele>282.66666666666663</ele><time>2026-03-29T15:13:55.064Z</time></trkpt><trkpt lat="45.0016947" lon="8.0915777"><ele>276.3333333333333</ele><time>2026-03-29T15:13:56.064Z</time></trkpt><trkpt lat="45.0018666" lon="8.0915634"><ele>270.0</ele><time>2026-03-29T15:13:57.064Z</time></trkpt><trkpt lat="45.002018" lon="8.0915754"><ele>270.0</ele><time>2026-03-29T15:13:58.064Z</time></trkpt><trkpt lat="45.002178" lon="8.0915596"><ele>270.0</ele><time>2026-03-29T15:13:59.064Z</time></trkpt><trkpt lat="45.0023216" lon="8.0915384"><ele>270.0</ele><time>2026-03-29T15:14:00.064Z</time></trkpt><trkpt lat="45.0024607" lon="8.0915034"><ele>270.0</ele><time>2026-03-29T15:14:01.064Z</time></trkpt><trkpt lat="45.0025842" lon="8.0914413"><ele>273.25</ele><time>2026-03-29T15:14:02.064Z</time></trkpt><trkpt lat="45.002695" lon="8.0913177"><ele>276.5</ele><time>2026-03-29T15:14:03.064Z</time></trkpt><trkpt lat="45.0028078" lon="8.0911864"><ele>279.75</ele><time>2026-03-29T15:14:04.064Z</time></trkpt><trkpt lat="45.0028928" lon="8.0910115"><ele>283.0</ele><time>2026-03-29T15:14:05.064Z</time></trkpt><trkpt lat="45.0029719" lon="8.0908482"><ele>283.5</ele><time>2026-03-29T15:14:06.064Z</time></trkpt><trkpt lat="45.0030365" lon="8.0906844"><ele>284.0</ele><time>2026-03-29T15:14:07.064Z</time></trkpt><trkpt lat="45.0030449" lon="8.0904615"><ele>284.5</ele><time>2026-03-29T15:14:08.064Z</time></trkpt><trkpt lat="45.0030333" lon="8.0902592"><ele>285.0</ele><time>2026-03-29T15:14:09.064Z</time></trkpt><trkpt lat="45.0029953" lon="8.09008"><ele>286.25</ele><time>2026-03-29T15:14:10.064Z</time></trkpt><trkpt lat="45.0029688" lon="8.0898859"><ele>287.5</ele><time>2026-03-29T15:14:11.064Z</time></trkpt><trkpt lat="45.0029724" lon="8.0897447"><ele>288.75</ele><time>2026-03-29T15:14:12.064Z</time></trkpt><trkpt lat="45.0030057" lon="8.0895896"><ele>290.0</ele><time>2026-03-29T15:14:13.064Z</time></trkpt><trkpt lat="45.0030495" lon="8.0894326"><ele>290.0</ele><time>2026-03-29T15:14:14.064Z</time></trkpt><trkpt lat="45.0031624" lon="8.0893201"><ele>290.0</ele><time>2026-03-29T15:14:15.064Z</time></trkpt><trkpt lat="45.0032855" lon="8.089218"><ele>290.0</ele><time>2026-03-29T15:14:16.064Z</time></trkpt><trkpt lat="45.00341" lon="8.0891233"><ele>290.0</ele><time>2026-03-29T15:14:17.064Z</time></trkpt><trkpt lat="45.0035206" lon="8.0890436"><ele>288.75</ele><time>2026-03-29T15:14:18.064Z</time></trkpt><trkpt lat="45.003615" lon="8.0889599"><ele>287.5</ele><time>2026-03-29T15:14:19.064Z</time></trkpt><trkpt lat="45.0036953" lon="8.0888405"><ele>286.25</ele><time>2026-03-29T15:14:20.064Z</time></trkpt><trkpt lat="45.0037412" lon="8.0886962"><ele>285.0</ele><time>2026-03-29T15:14:21.064Z</time></trkpt><trkpt lat="45.0037916" lon="8.0885547"><ele>285.0</ele><time>2026-03-29T15:14:22.064Z</time></trkpt><trkpt lat="45.0038073" lon="8.0883594"><ele>285.0</ele><time>2026-03-29T15:14:23.064Z</time></trkpt><trkpt lat="45.0037927" lon="8.0881708"><ele>285.0</ele><time>2026-03-29T15:14:24.064Z</time></trkpt><trkpt lat="45.0037317" lon="8.0879576"><ele>285.0</ele><time>2026-03-29T15:14:25.064Z</time></trkpt><trkpt lat="45.0035496" lon="8.0877595"><ele>286.0</ele><time>2026-03-29T15:14:26.064Z</time></trkpt><trkpt lat="45.0034227" lon="8.0875592"><ele>287.0</ele><time>2026-03-29T15:14:27.064Z</time></trkpt><trkpt lat="45.0033057" lon="8.0873492"><ele>288.0</ele><time>2026-03-29T15:14:28.064Z</time></trkpt><trkpt lat="45.0031927" lon="8.08714"><ele>286.3333333333333</ele><time>2026-03-29T15:14:29.064Z</time></trkpt><trkpt lat="45.0030895" lon="8.0869336"><ele>284.66666666666663</ele><time>2026-03-29T15:14:30.064Z</time></trkpt><trkpt lat="45.0029874" lon="8.0867143"><ele>283.0</ele><time>2026-03-29T15:14:31.064Z</time></trkpt><trkpt lat="45.0028863" lon="8.0865151"><ele>283.0</ele><time>2026-03-29T15:14:32.064Z</time></trkpt><trkpt lat="45.0027831" lon="8.0863051"><ele>283.0</ele><time>2026-03-29T15:14:33.064Z</time></trkpt><trkpt lat="45.0026897" lon="8.0860833"><ele>283.0</ele><time>2026-03-29T15:14:34.063Z</time></trkpt><trkpt lat="45.0025857" lon="8.0859319"><ele>283.5</ele><time>2026-03-29T15:14:35.064Z</time></trkpt><trkpt lat="45.0024866" lon="8.0857939"><ele>284.0</ele><time>2026-03-29T15:14:36.064Z</time></trkpt><trkpt lat="45.0023822" lon="8.0856581"><ele>284.5</ele><time>2026-03-29T15:14:37.064Z</time></trkpt><trkpt lat="45.002273" lon="8.0855542"><ele>285.0</ele><time>2026-03-29T15:14:38.064Z</time></trkpt><trkpt lat="45.0020807" lon="8.085546"><ele>285.0</ele><time>2026-03-29T15:14:39.064Z</time></trkpt><trkpt lat="45.0019132" lon="8.085512"><ele>285.0</ele><time>2026-03-29T15:14:40.064Z</time></trkpt><trkpt lat="45.0017469" lon="8.0854754"><ele>285.0</ele><time>2026-03-29T15:14:41.064Z</time></trkpt><trkpt lat="45.0015823" lon="8.0854205"><ele>285.0</ele><time>2026-03-29T15:14:42.064Z</time></trkpt><trkpt lat="45.0014052" lon="8.0853898"><ele>285.0</ele><time>2026-03-29T15:14:43.064Z</time></trkpt><trkpt lat="45.0012498" lon="8.0853507"><ele>285.0</ele><time>2026-03-29T15:14:44.064Z</time></trkpt><trkpt lat="45.0011108" lon="8.0853136"><ele>285.0</ele><time>2026-03-29T15:14:45.064Z</time></trkpt><trkpt lat="45.000981" lon="8.0852659"><ele>285.0</ele><time>2026-03-29T15:14:46.064Z</time></trkpt><trkpt lat="45.000834" lon="8.0852141"><ele>285.0</ele><time>2026-03-29T15:14:47.064Z</time></trkpt><trkpt lat="45.0007359" lon="8.0851253"><ele>285.0</ele><time>2026-03-29T15:14:48.064Z</time></trkpt><trkpt lat="45.0006394" lon="8.084928"><ele>281.6666666666667</ele><time>2026-03-29T15:14:49.064Z</time></trkpt><trkpt lat="45.000542" lon="8.0847339"><ele>278.33333333333337</ele><time>2026-03-29T15:14:50.064Z</time></trkpt><trkpt lat="45.000429" lon="8.0845574"><ele>275.0</ele><time>2026-03-29T15:14:51.064Z</time></trkpt><trkpt lat="45.0003089" lon="8.0843827"><ele>275.0</ele><time>2026-03-29T15:14:52.064Z</time></trkpt><trkpt lat="45.000183" lon="8.0842124"><ele>275.0</ele><time>2026-03-29T15:14:53.064Z</time></trkpt><trkpt lat="45.0000577" lon="8.0840458"><ele>275.0</ele><time>2026-03-29T15:14:54.064Z</time></trkpt><trkpt lat="44.9999362" lon="8.0838858"><ele>277.33333333333337</ele><time>2026-03-29T15:14:55.064Z</time></trkpt><trkpt lat="44.9998237" lon="8.0837108"><ele>279.6666666666667</ele><time>2026-03-29T15:14:56.064Z</time></trkpt><trkpt lat="44.9997562" lon="8.0835259"><ele>282.0</ele><time>2026-03-29T15:14:57.064Z</time></trkpt><trkpt lat="44.9997127" lon="8.0833147"><ele>280.6666666666667</ele><time>2026-03-29T15:14:58.064Z</time></trkpt><trkpt lat="44.9996766" lon="8.083087"><ele>279.33333333333337</ele><time>2026-03-29T15:14:59.064Z</time></trkpt><trkpt lat="44.9996632" lon="8.0828626"><ele>278.0</ele><time>2026-03-29T15:15:00.064Z</time></trkpt><trkpt lat="44.9996246" lon="8.0826456"><ele>278.0</ele><time>2026-03-29T15:15:01.064Z</time></trkpt><trkpt lat="44.9995472" lon="8.0824399"><ele>278.0</ele><time>2026-03-29T15:15:02.064Z</time></trkpt><trkpt lat="44.9994607" lon="8.0822315"><ele>278.0</ele><time>2026-03-29T15:15:03.064Z</time></trkpt><trkpt lat="44.9993728" lon="8.0820217"><ele>279.0</ele><time>2026-03-29T15:15:04.064Z</time></trkpt><trkpt lat="44.9992906" lon="8.0818119"><ele>280.0</ele><time>2026-03-29T15:15:05.064Z</time></trkpt><trkpt lat="44.999206" lon="8.0816153"><ele>281.0</ele><time>2026-03-29T15:15:06.064Z</time></trkpt><trkpt lat="44.9991272" lon="8.081426"><ele>281.0</ele><time>2026-03-29T15:15:07.064Z</time></trkpt><trkpt lat="44.9990447" lon="8.0812478"><ele>281.0</ele><time>2026-03-29T15:15:08.064Z</time></trkpt><trkpt lat="44.9989633" lon="8.0810803"><ele>281.0</ele><time>2026-03-29T15:15:09.064Z</time></trkpt><trkpt lat="44.9988654" lon="8.0809297"><ele>281.0</ele><time>2026-03-29T15:15:10.063Z</time></trkpt><trkpt lat="44.9987478" lon="8.0807861"><ele>277.0</ele><time>2026-03-29T15:15:11.064Z</time></trkpt><trkpt lat="44.9986203" lon="8.0806491"><ele>273.0</ele><time>2026-03-29T15:15:12.064Z</time></trkpt><trkpt lat="44.998494" lon="8.0805339"><ele>269.0</ele><time>2026-03-29T15:15:13.064Z</time></trkpt><trkpt lat="44.9983455" lon="8.0803861"><ele>270.6666666666667</ele><time>2026-03-29T15:15:14.064Z</time></trkpt><trkpt lat="44.998218" lon="8.08024"><ele>272.3333333333333</ele><time>2026-03-29T15:15:15.064Z</time></trkpt><trkpt lat="44.9980847" lon="8.080109"><ele>274.0</ele><time>2026-03-29T15:15:16.063Z</time></trkpt><trkpt lat="44.9979603" lon="8.0799759"><ele>270.0</ele><time>2026-03-29T15:15:17.064Z</time></trkpt><trkpt lat="44.9978409" lon="8.0798469"><ele>266.0</ele><time>2026-03-29T15:15:18.064Z</time></trkpt><trkpt lat="44.9977248" lon="8.0797172"><ele>262.0</ele><time>2026-03-29T15:15:19.064Z</time></trkpt><trkpt lat="44.9976214" lon="8.0795912"><ele>258.0</ele><time>2026-03-29T15:15:20.064Z</time></trkpt><trkpt lat="44.9975416" lon="8.0794684"><ele>262.5</ele><time>2026-03-29T15:15:21.064Z</time></trkpt><trkpt lat="44.997499" lon="8.0793231"><ele>267.0</ele><time>2026-03-29T15:15:22.064Z</time></trkpt><trkpt lat="44.9974438" lon="8.0791765"><ele>271.5</ele><time>2026-03-29T15:15:23.064Z</time></trkpt><trkpt lat="44.9974046" lon="8.079001"><ele>276.0</ele><time>2026-03-29T15:15:24.064Z</time></trkpt><trkpt lat="44.9973823" lon="8.078834"><ele>276.0</ele><time>2026-03-29T15:15:25.064Z</time></trkpt><trkpt lat="44.9973658" lon="8.0786647"><ele>276.0</ele><time>2026-03-29T15:15:26.064Z</time></trkpt><trkpt lat="44.9973325" lon="8.0785007"><ele>276.0</ele><time>2026-03-29T15:15:27.064Z</time></trkpt><trkpt lat="44.997277" lon="8.0783524"><ele>276.0</ele><time>2026-03-29T15:15:28.064Z</time></trkpt><trkpt lat="44.9972147" lon="8.0782145"><ele>274.5</ele><time>2026-03-29T15:15:29.064Z</time></trkpt><trkpt lat="44.9971296" lon="8.0780911"><ele>273.0</ele><time>2026-03-29T15:15:30.064Z</time></trkpt><trkpt lat="44.9970028" lon="8.0779786"><ele>271.5</ele><time>2026-03-29T15:15:31.064Z</time></trkpt><trkpt lat="44.9968766" lon="8.0778686"><ele>270.0</ele><time>2026-03-29T15:15:32.064Z</time></trkpt><trkpt lat="44.9967572" lon="8.077769"><ele>271.25</ele><time>2026-03-29T15:15:33.064Z</time></trkpt><trkpt lat="44.9966374" lon="8.0776729"><ele>272.5</ele><time>2026-03-29T15:15:34.064Z</time></trkpt><trkpt lat="44.9965184" lon="8.0776025"><ele>273.75</ele><time>2026-03-29T15:15:35.064Z</time></trkpt><trkpt lat="44.9964173" lon="8.0775942"><ele>275.0</ele><time>2026-03-29T15:15:36.064Z</time></trkpt><trkpt lat="44.9962773" lon="8.0776181"><ele>275.0</ele><time>2026-03-29T15:15:37.064Z</time></trkpt><trkpt lat="44.9961564" lon="8.0776966"><ele>275.0</ele><time>2026-03-29T15:15:38.064Z</time></trkpt><trkpt lat="44.9960393" lon="8.077762"><ele>275.0</ele><time>2026-03-29T15:15:39.064Z</time></trkpt><trkpt lat="44.9959394" lon="8.0778684"><ele>275.0</ele><time>2026-03-29T15:15:40.064Z</time></trkpt><trkpt lat="44.9958318" lon="8.0779476"><ele>274.0</ele><time>2026-03-29T15:15:41.064Z</time></trkpt><trkpt lat="44.9957307" lon="8.0779828"><ele>273.0</ele><time>2026-03-29T15:15:42.064Z</time></trkpt><trkpt lat="44.9956166" lon="8.077971"><ele>272.0</ele><time>2026-03-29T15:15:43.064Z</time></trkpt><trkpt lat="44.9955012" lon="8.0779193"><ele>271.0</ele><time>2026-03-29T15:15:44.063Z</time></trkpt><trkpt lat="44.9953595" lon="8.0777904"><ele>271.0</ele><time>2026-03-29T15:15:45.064Z</time></trkpt><trkpt lat="44.9952237" lon="8.0777195"><ele>271.0</ele><time>2026-03-29T15:15:46.064Z</time></trkpt><trkpt lat="44.9950805" lon="8.0776659"><ele>271.0</ele><time>2026-03-29T15:15:47.064Z</time></trkpt><trkpt lat="44.9949327" lon="8.0776023"><ele>271.0</ele><time>2026-03-29T15:15:48.064Z</time></trkpt><trkpt lat="44.9947761" lon="8.0775362"><ele>269.66666666666663</ele><time>2026-03-29T15:15:49.064Z</time></trkpt><trkpt lat="44.9946095" lon="8.0774706"><ele>268.3333333333333</ele><time>2026-03-29T15:15:50.064Z</time></trkpt><trkpt lat="44.9944423" lon="8.0774009"><ele>267.0</ele><time>2026-03-29T15:15:51.063Z</time></trkpt><trkpt lat="44.9942792" lon="8.0773235"><ele>261.3333333333333</ele><time>2026-03-29T15:15:52.064Z</time></trkpt><trkpt lat="44.9941107" lon="8.0772583"><ele>255.66666666666666</ele><time>2026-03-29T15:15:53.064Z</time></trkpt><trkpt lat="44.9939431" lon="8.0771852"><ele>250.0</ele><time>2026-03-29T15:15:54.064Z</time></trkpt><trkpt lat="44.9937635" lon="8.0771203"><ele>250.0</ele><time>2026-03-29T15:15:55.064Z</time></trkpt><trkpt lat="44.9935987" lon="8.0770544"><ele>250.0</ele><time>2026-03-29T15:15:56.064Z</time></trkpt><trkpt lat="44.9934501" lon="8.0769899"><ele>250.0</ele><time>2026-03-29T15:15:57.064Z</time></trkpt><trkpt lat="44.9932926" lon="8.0769676"><ele>251.0</ele><time>2026-03-29T15:15:58.064Z</time></trkpt><trkpt lat="44.9931465" lon="8.0769382"><ele>252.0</ele><time>2026-03-29T15:15:59.064Z</time></trkpt><trkpt lat="44.9929945" lon="8.0769194"><ele>253.0</ele><time>2026-03-29T15:16:00.064Z</time></trkpt><trkpt lat="44.9928492" lon="8.0769045"><ele>254.0</ele><time>2026-03-29T15:16:01.064Z</time></trkpt><trkpt lat="44.9927048" lon="8.0768628"><ele>254.0</ele><time>2026-03-29T15:16:02.064Z</time></trkpt><trkpt lat="44.9925588" lon="8.076817"><ele>254.0</ele><time>2026-03-29T15:16:03.064Z</time></trkpt><trkpt lat="44.9924143" lon="8.0767484"><ele>254.0</ele><time>2026-03-29T15:16:04.064Z</time></trkpt><trkpt lat="44.9922804" lon="8.0766561"><ele>254.25</ele><time>2026-03-29T15:16:05.064Z</time></trkpt><trkpt lat="44.9921568" lon="8.0765629"><ele>254.5</ele><time>2026-03-29T15:16:06.064Z</time></trkpt><trkpt lat="44.9920356" lon="8.0764667"><ele>254.75</ele><time>2026-03-29T15:16:07.064Z</time></trkpt><trkpt lat="44.991919" lon="8.07637"><ele>255.0</ele><time>2026-03-29T15:16:08.064Z</time></trkpt><trkpt lat="44.9917904" lon="8.0762702"><ele>258.3333333333333</ele><time>2026-03-29T15:16:09.064Z</time></trkpt><trkpt lat="44.9916181" lon="8.0761958"><ele>261.66666666666663</ele><time>2026-03-29T15:16:10.064Z</time></trkpt><trkpt lat="44.9914424" lon="8.0761039"><ele>265.0</ele><time>2026-03-29T15:16:11.064Z</time></trkpt><trkpt lat="44.9912485" lon="8.0760251"><ele>265.0</ele><time>2026-03-29T15:16:12.064Z</time></trkpt><trkpt lat="44.9910673" lon="8.0759221"><ele>265.0</ele><time>2026-03-29T15:16:13.064Z</time></trkpt><trkpt lat="44.9908699" lon="8.0758543"><ele>265.0</ele><time>2026-03-29T15:16:14.064Z</time></trkpt><trkpt lat="44.9906758" lon="8.075782"><ele>259.66666666666663</ele><time>2026-03-29T15:16:15.064Z</time></trkpt><trkpt lat="44.9904898" lon="8.0757133"><ele>254.33333333333331</ele><time>2026-03-29T15:16:16.064Z</time></trkpt><trkpt lat="44.9903155" lon="8.0756479"><ele>249.0</ele><time>2026-03-29T15:16:17.064Z</time></trkpt><trkpt lat="44.9901422" lon="8.0755827"><ele>250.0</ele><time>2026-03-29T15:16:18.064Z</time></trkpt><trkpt lat="44.9899931" lon="8.0755256"><ele>251.0</ele><time>2026-03-29T15:16:19.064Z</time></trkpt><trkpt lat="44.9898646" lon="8.0754398"><ele>252.0</ele><time>2026-03-29T15:16:20.064Z</time></trkpt><trkpt lat="44.9897391" lon="8.0753203"><ele>253.0</ele><time>2026-03-29T15:16:21.064Z</time></trkpt><trkpt lat="44.9896324" lon="8.075153"><ele>253.0</ele><time>2026-03-29T15:16:22.064Z</time></trkpt><trkpt lat="44.9895359" lon="8.074966"><ele>253.0</ele><time>2026-03-29T15:16:23.064Z</time></trkpt><trkpt lat="44.9894579" lon="8.0747525"><ele>253.0</ele><time>2026-03-29T15:16:24.064Z</time></trkpt><trkpt lat="44.9893705" lon="8.0745409"><ele>253.66666666666666</ele><time>2026-03-29T15:16:25.064Z</time></trkpt><trkpt lat="44.9892772" lon="8.0743284"><ele>254.33333333333331</ele><time>2026-03-29T15:16:26.064Z</time></trkpt><trkpt lat="44.9891659" lon="8.0741321"><ele>255.0</ele><time>2026-03-29T15:16:27.064Z</time></trkpt><trkpt lat="44.9890444" lon="8.0739469"><ele>253.0</ele><time>2026-03-29T15:16:28.064Z</time></trkpt><trkpt lat="44.9889055" lon="8.0737646"><ele>251.0</ele><time>2026-03-29T15:16:29.064Z</time></trkpt><trkpt lat="44.9887603" lon="8.0735951"><ele>249.0</ele><time>2026-03-29T15:16:30.064Z</time></trkpt><trkpt lat="44.9886024" lon="8.0734473"><ele>249.0</ele><time>2026-03-29T15:16:31.064Z</time></trkpt><trkpt lat="44.9884403" lon="8.0732998"><ele>249.0</ele><time>2026-03-29T15:16:32.064Z</time></trkpt><trkpt lat="44.9882909" lon="8.0731546"><ele>249.0</ele><time>2026-03-29T15:16:33.064Z</time></trkpt><trkpt lat="44.9881366" lon="8.0730405"><ele>247.0</ele><time>2026-03-29T15:16:34.063Z</time></trkpt><trkpt lat="44.9879755" lon="8.0729565"><ele>245.0</ele><time>2026-03-29T15:16:35.063Z</time></trkpt><trkpt lat="44.9878223" lon="8.0728894"><ele>243.0</ele><time>2026-03-29T15:16:36.064Z</time></trkpt><trkpt lat="44.9876585" lon="8.0728681"><ele>240.0</ele><time>2026-03-29T15:16:37.064Z</time></trkpt><trkpt lat="44.98749" lon="8.0729001"><ele>237.0</ele><time>2026-03-29T15:16:38.064Z</time></trkpt><trkpt lat="44.9872922" lon="8.0729472"><ele>234.0</ele><time>2026-03-29T15:16:39.064Z</time></trkpt><trkpt lat="44.9870947" lon="8.0730305"><ele>234.0</ele><time>2026-03-29T15:16:40.064Z</time></trkpt><trkpt lat="44.9868975" lon="8.0730982"><ele>234.0</ele><time>2026-03-29T15:16:41.064Z</time></trkpt><trkpt lat="44.9867078" lon="8.0731552"><ele>234.0</ele><time>2026-03-29T15:16:42.064Z</time></trkpt><trkpt lat="44.9865163" lon="8.0732083"><ele>234.66666666666669</ele><time>2026-03-29T15:16:43.064Z</time></trkpt><trkpt lat="44.9863227" lon="8.0732539"><ele>235.33333333333334</ele><time>2026-03-29T15:16:44.064Z</time></trkpt><trkpt lat="44.9861249" lon="8.073291"><ele>236.0</ele><time>2026-03-29T15:16:45.064Z</time></trkpt><trkpt lat="44.9859294" lon="8.0733059"><ele>237.33333333333334</ele><time>2026-03-29T15:16:46.064Z</time></trkpt><trkpt lat="44.9857308" lon="8.0733233"><ele>238.66666666666669</ele><time>2026-03-29T15:16:47.064Z</time></trkpt><trkpt lat="44.9855313" lon="8.0733345"><ele>240.0</ele><time>2026-03-29T15:16:48.064Z</time></trkpt><trkpt lat="44.9853351" lon="8.0733525"><ele>240.0</ele><time>2026-03-29T15:16:49.064Z</time></trkpt><trkpt lat="44.9851407" lon="8.0733649"><ele>240.0</ele><time>2026-03-29T15:16:50.064Z</time></trkpt><trkpt lat="44.9849594" lon="8.0733771"><ele>240.0</ele><time>2026-03-29T15:16:51.063Z</time></trkpt><trkpt lat="44.9847912" lon="8.0733833"><ele>240.0</ele><time>2026-03-29T15:16:52.064Z</time></trkpt><trkpt lat="44.9846257" lon="8.0733926"><ele>240.0</ele><time>2026-03-29T15:16:53.064Z</time></trkpt><trkpt lat="44.9844758" lon="8.0733771"><ele>240.0</ele><time>2026-03-29T15:16:54.064Z</time></trkpt><trkpt lat="44.9843168" lon="8.0732929"><ele>239.75</ele><time>2026-03-29T15:16:55.064Z</time></trkpt><trkpt lat="44.9841672" lon="8.0732013"><ele>239.5</ele><time>2026-03-29T15:16:56.064Z</time></trkpt><trkpt lat="44.9840372" lon="8.0731202"><ele>239.25</ele><time>2026-03-29T15:16:57.064Z</time></trkpt><trkpt lat="44.9839229" lon="8.073046"><ele>239.0</ele><time>2026-03-29T15:16:58.064Z</time></trkpt><trkpt lat="44.983816" lon="8.072968"><ele>239.0</ele><time>2026-03-29T15:16:59.064Z</time></trkpt><trkpt lat="44.9837279" lon="8.0728439"><ele>239.0</ele><time>2026-03-29T15:17:00.064Z</time></trkpt><trkpt lat="44.9836476" lon="8.0727314"><ele>239.0</ele><time>2026-03-29T15:17:01.064Z</time></trkpt><trkpt lat="44.9836225" lon="8.0725294"><ele>239.0</ele><time>2026-03-29T15:17:02.064Z</time></trkpt><trkpt lat="44.9836137" lon="8.072332"><ele>239.33333333333334</ele><time>2026-03-29T15:17:03.064Z</time></trkpt><trkpt lat="44.9836197" lon="8.0721272"><ele>239.66666666666669</ele><time>2026-03-29T15:17:04.064Z</time></trkpt><trkpt lat="44.9836441" lon="8.0719395"><ele>240.0</ele><time>2026-03-29T15:17:05.064Z</time></trkpt><trkpt lat="44.9837377" lon="8.0717338"><ele>240.5</ele><time>2026-03-29T15:17:06.064Z</time></trkpt><trkpt lat="44.9838043" lon="8.0715495"><ele>241.0</ele><time>2026-03-29T15:17:07.064Z</time></trkpt><trkpt lat="44.9838759" lon="8.0713672"><ele>241.5</ele><time>2026-03-29T15:17:08.064Z</time></trkpt><trkpt lat="44.9839519" lon="8.0711992"><ele>242.0</ele><time>2026-03-29T15:17:09.064Z</time></trkpt><trkpt lat="44.9839788" lon="8.071021"><ele>242.0</ele><time>2026-03-29T15:17:10.064Z</time></trkpt><trkpt lat="44.9839829" lon="8.0708511"><ele>242.0</ele><time>2026-03-29T15:17:11.064Z</time></trkpt><trkpt lat="44.9839554" lon="8.0706757"><ele>242.0</ele><time>2026-03-29T15:17:12.063Z</time></trkpt><trkpt lat="44.9838797" lon="8.0705275"><ele>242.0</ele><time>2026-03-29T15:17:13.064Z</time></trkpt><trkpt lat="44.9837631" lon="8.0704218"><ele>243.5</ele><time>2026-03-29T15:17:14.064Z</time></trkpt><trkpt lat="44.9836476" lon="8.0703213"><ele>245.0</ele><time>2026-03-29T15:17:15.064Z</time></trkpt><trkpt lat="44.9835038" lon="8.070269"><ele>246.5</ele><time>2026-03-29T15:17:16.063Z</time></trkpt><trkpt lat="44.9833634" lon="8.0702081"><ele>248.0</ele><time>2026-03-29T15:17:17.064Z</time></trkpt><trkpt lat="44.983232" lon="8.0701406"><ele>248.25</ele><time>2026-03-29T15:17:18.064Z</time></trkpt><trkpt lat="44.9831116" lon="8.0700521"><ele>248.5</ele><time>2026-03-29T15:17:19.064Z</time></trkpt><trkpt lat="44.9830118" lon="8.0699395"><ele>248.75</ele><time>2026-03-29T15:17:20.064Z</time></trkpt><trkpt lat="44.9829346" lon="8.0698111"><ele>249.0</ele><time>2026-03-29T15:17:21.064Z</time></trkpt><trkpt lat="44.9828929" lon="8.0696449"><ele>248.0</ele><time>2026-03-29T15:17:22.064Z</time></trkpt><trkpt lat="44.9828839" lon="8.0694586"><ele>247.0</ele><time>2026-03-29T15:17:23.064Z</time></trkpt><trkpt lat="44.9829163" lon="8.0692767"><ele>246.0</ele><time>2026-03-29T15:17:24.064Z</time></trkpt><trkpt lat="44.9829825" lon="8.069091"><ele>245.0</ele><time>2026-03-29T15:17:25.064Z</time></trkpt><trkpt lat="44.9830548" lon="8.0689123"><ele>245.0</ele><time>2026-03-29T15:17:26.064Z</time></trkpt><trkpt lat="44.9831336" lon="8.0687387"><ele>245.0</ele><time>2026-03-29T15:17:27.064Z</time></trkpt><trkpt lat="44.9831936" lon="8.0685811"><ele>245.0</ele><time>2026-03-29T15:17:28.064Z</time></trkpt><trkpt lat="44.9832347" lon="8.068408"><ele>245.0</ele><time>2026-03-29T15:17:29.064Z</time></trkpt><trkpt lat="44.9832516" lon="8.0682415"><ele>245.5</ele><time>2026-03-29T15:17:30.064Z</time></trkpt><trkpt lat="44.9832317" lon="8.0680792"><ele>246.0</ele><time>2026-03-29T15:17:31.064Z</time></trkpt><trkpt lat="44.9831724" lon="8.0679359"><ele>246.5</ele><time>2026-03-29T15:17:32.064Z</time></trkpt><trkpt lat="44.9830768" lon="8.0678012"><ele>247.0</ele><time>2026-03-29T15:17:33.064Z</time></trkpt><trkpt lat="44.982954" lon="8.0676906"><ele>247.0</ele><time>2026-03-29T15:17:34.064Z</time></trkpt><trkpt lat="44.9828122" lon="8.0675975"><ele>247.0</ele><time>2026-03-29T15:17:35.064Z</time></trkpt><trkpt lat="44.9826627" lon="8.0674965"><ele>247.0</ele><time>2026-03-29T15:17:36.064Z</time></trkpt><trkpt lat="44.982499" lon="8.0673945"><ele>248.33333333333331</ele><time>2026-03-29T15:17:37.064Z</time></trkpt><trkpt lat="44.9823421" lon="8.0672732"><ele>249.66666666666669</ele><time>2026-03-29T15:17:38.064Z</time></trkpt><trkpt lat="44.9821787" lon="8.0671936"><ele>251.0</ele><time>2026-03-29T15:17:39.064Z</time></trkpt><trkpt lat="44.9820239" lon="8.0671161"><ele>251.0</ele><time>2026-03-29T15:17:40.064Z</time></trkpt><trkpt lat="44.9818669" lon="8.067055"><ele>251.0</ele><time>2026-03-29T15:17:41.064Z</time></trkpt><trkpt lat="44.9817319" lon="8.0669907"><ele>251.0</ele><time>2026-03-29T15:17:42.064Z</time></trkpt><trkpt lat="44.9815878" lon="8.0669063"><ele>249.33333333333334</ele><time>2026-03-29T15:17:43.064Z</time></trkpt><trkpt lat="44.9814431" lon="8.0668319"><ele>247.66666666666669</ele><time>2026-03-29T15:17:44.064Z</time></trkpt><trkpt lat="44.9813351" lon="8.0666587"><ele>246.0</ele><time>2026-03-29T15:17:45.064Z</time></trkpt><trkpt lat="44.9812135" lon="8.0665049"><ele>241.0</ele><time>2026-03-29T15:17:46.064Z</time></trkpt><trkpt lat="44.9811258" lon="8.0663174"><ele>236.0</ele><time>2026-03-29T15:17:47.064Z</time></trkpt><trkpt lat="44.9810637" lon="8.0660978"><ele>231.0</ele><time>2026-03-29T15:17:48.064Z</time></trkpt><trkpt lat="44.9810043" lon="8.0658837"><ele>228.0</ele><time>2026-03-29T15:17:49.064Z</time></trkpt><trkpt lat="44.9809464" lon="8.0656714"><ele>225.0</ele><time>2026-03-29T15:17:50.064Z</time></trkpt><trkpt lat="44.9808885" lon="8.0654514"><ele>222.0</ele><time>2026-03-29T15:17:51.064Z</time></trkpt><trkpt lat="44.9808328" lon="8.0652473"><ele>224.75</ele><time>2026-03-29T15:17:52.064Z</time></trkpt><trkpt lat="44.9807826" lon="8.0650576"><ele>227.5</ele><time>2026-03-29T15:17:53.064Z</time></trkpt><trkpt lat="44.9807306" lon="8.0648675"><ele>230.25</ele><time>2026-03-29T15:17:54.064Z</time></trkpt><trkpt lat="44.9806874" lon="8.0647004"><ele>233.0</ele><time>2026-03-29T15:17:55.064Z</time></trkpt><trkpt lat="44.9806343" lon="8.0645354"><ele>233.0</ele><time>2026-03-29T15:17:56.064Z</time></trkpt><trkpt lat="44.9806007" lon="8.0644223"><ele>233.0</ele><time>2026-03-29T15:17:57.064Z</time></trkpt><trkpt lat="44.9805657" lon="8.064307"><ele>233.0</ele><time>2026-03-29T15:17:58.064Z</time></trkpt><trkpt lat="44.9805119" lon="8.0641973"><ele>233.0</ele><time>2026-03-29T15:17:59.063Z</time></trkpt><trkpt lat="44.9804558" lon="8.0640989"><ele>233.0</ele><time>2026-03-29T15:18:00.064Z</time></trkpt><trkpt lat="44.9803881" lon="8.0639918"><ele>233.5</ele><time>2026-03-29T15:18:01.064Z</time></trkpt><trkpt lat="44.9803001" lon="8.0638795"><ele>234.0</ele><time>2026-03-29T15:18:02.064Z</time></trkpt><trkpt lat="44.9801979" lon="8.0638203"><ele>234.5</ele><time>2026-03-29T15:18:03.064Z</time></trkpt><trkpt lat="44.9800702" lon="8.06377"><ele>235.0</ele><time>2026-03-29T15:18:04.064Z</time></trkpt><trkpt lat="44.9799484" lon="8.0637275"><ele>235.0</ele><time>2026-03-29T15:18:05.064Z</time></trkpt><trkpt lat="44.9798024" lon="8.0637032"><ele>235.0</ele><time>2026-03-29T15:18:06.064Z</time></trkpt><trkpt lat="44.9796644" lon="8.0636906"><ele>235.0</ele><time>2026-03-29T15:18:07.064Z</time></trkpt><trkpt lat="44.9795335" lon="8.063664"><ele>235.0</ele><time>2026-03-29T15:18:08.064Z</time></trkpt><trkpt lat="44.9794009" lon="8.0636345"><ele>235.0</ele><time>2026-03-29T15:18:09.063Z</time></trkpt><trkpt lat="44.9792778" lon="8.0635979"><ele>235.0</ele><time>2026-03-29T15:18:10.064Z</time></trkpt><trkpt lat="44.9791467" lon="8.0635587"><ele>235.0</ele><time>2026-03-29T15:18:11.063Z</time></trkpt><trkpt lat="44.979014" lon="8.0634856"><ele>235.0</ele><time>2026-03-29T15:18:12.064Z</time></trkpt><trkpt lat="44.9788801" lon="8.0634249"><ele>234.75</ele><time>2026-03-29T15:18:13.064Z</time></trkpt><trkpt lat="44.9787511" lon="8.0633559"><ele>234.5</ele><time>2026-03-29T15:18:14.064Z</time></trkpt><trkpt lat="44.9786199" lon="8.0632983"><ele>234.25</ele><time>2026-03-29T15:18:15.064Z</time></trkpt><trkpt lat="44.9784936" lon="8.0632397"><ele>234.0</ele><time>2026-03-29T15:18:16.064Z</time></trkpt><trkpt lat="44.9783824" lon="8.0631854"><ele>230.6</ele><time>2026-03-29T15:18:17.064Z</time></trkpt><trkpt lat="44.9782857" lon="8.0631274"><ele>227.2</ele><time>2026-03-29T15:18:18.064Z</time></trkpt><trkpt lat="44.9782008" lon="8.0630552"><ele>223.79999999999998</ele><time>2026-03-29T15:18:19.064Z</time></trkpt><trkpt lat="44.9781173" lon="8.0629785"><ele>220.39999999999998</ele><time>2026-03-29T15:18:20.064Z</time></trkpt><trkpt lat="44.9781047" lon="8.0628326"><ele>217.0</ele><time>2026-03-29T15:18:21.064Z</time></trkpt><trkpt lat="44.9780965" lon="8.0626953"><ele>217.0</ele><time>2026-03-29T15:18:22.064Z</time></trkpt><trkpt lat="44.9781162" lon="8.0625633"><ele>217.0</ele><time>2026-03-29T15:18:23.064Z</time></trkpt><trkpt lat="44.9781586" lon="8.0624428"><ele>217.0</ele><time>2026-03-29T15:18:24.064Z</time></trkpt><trkpt lat="44.9781948" lon="8.0623177"><ele>217.0</ele><time>2026-03-29T15:18:25.064Z</time></trkpt><trkpt lat="44.9782965" lon="8.0622296"><ele>217.0</ele><time>2026-03-29T15:18:26.064Z</time></trkpt><trkpt lat="44.9783927" lon="8.0621311"><ele>216.8</ele><time>2026-03-29T15:18:27.063Z</time></trkpt><trkpt lat="44.978481" lon="8.0620307"><ele>216.6</ele><time>2026-03-29T15:18:28.064Z</time></trkpt><trkpt lat="44.9785699" lon="8.0619586"><ele>216.40000000000003</ele><time>2026-03-29T15:18:29.063Z</time></trkpt><trkpt lat="44.9786562" lon="8.0618785"><ele>216.20000000000002</ele><time>2026-03-29T15:18:30.064Z</time></trkpt><trkpt lat="44.9787343" lon="8.0618004"><ele>216.0</ele><time>2026-03-29T15:18:31.064Z</time></trkpt><trkpt lat="44.9787986" lon="8.0617284"><ele>216.0</ele><time>2026-03-29T15:18:32.064Z</time></trkpt><trkpt lat="44.9788765" lon="8.0616194"><ele>216.0</ele><time>2026-03-29T15:18:34.064Z</time></trkpt><trkpt lat="44.9788815" lon="8.0615249"><ele>216.0</ele><time>2026-03-29T15:18:36.064Z</time></trkpt><trkpt lat="44.9788133" lon="8.0615213"><ele>216.0</ele><time>2026-03-29T15:18:39.064Z</time></trkpt><trkpt lat="44.9787366" lon="8.061619"><ele>216.0</ele><time>2026-03-29T15:18:41.064Z</time></trkpt><trkpt lat="44.9786803" lon="8.0616602"><ele>216.0</ele><time>2026-03-29T15:18:42.064Z</time></trkpt><trkpt lat="44.9785993" lon="8.0617119"><ele>216.0</ele><time>2026-03-29T15:18:43.064Z</time></trkpt><trkpt lat="44.9785308" lon="8.0617411"><ele>216.00000000000003</ele><time>2026-03-29T15:18:44.064Z</time></trkpt><trkpt lat="44.9784141" lon="8.0617726"><ele>216.00000000000003</ele><time>2026-03-29T15:18:45.064Z</time></trkpt><trkpt lat="44.9783118" lon="8.0617787"><ele>216.0</ele><time>2026-03-29T15:18:46.064Z</time></trkpt><trkpt lat="44.9782028" lon="8.061808"><ele>216.0</ele><time>2026-03-29T15:18:47.064Z</time></trkpt><trkpt lat="44.9780898" lon="8.0618201"><ele>212.4</ele><time>2026-03-29T15:18:48.064Z</time></trkpt><trkpt lat="44.9779847" lon="8.0618166"><ele>208.8</ele><time>2026-03-29T15:18:49.064Z</time></trkpt><trkpt lat="44.9778748" lon="8.0618145"><ele>205.20000000000002</ele><time>2026-03-29T15:18:50.064Z</time></trkpt><trkpt lat="44.9777693" lon="8.0618016"><ele>201.60000000000002</ele><time>2026-03-29T15:18:51.064Z</time></trkpt><trkpt lat="44.9776779" lon="8.0618172"><ele>198.0</ele><time>2026-03-29T15:18:52.064Z</time></trkpt><trkpt lat="44.9775841" lon="8.0617942"><ele>196.33333333333334</ele><time>2026-03-29T15:18:53.064Z</time></trkpt><trkpt lat="44.977502" lon="8.0617939"><ele>194.66666666666666</ele><time>2026-03-29T15:18:54.064Z</time></trkpt><trkpt lat="44.9774043" lon="8.0617695"><ele>193.0</ele><time>2026-03-29T15:18:55.064Z</time></trkpt><trkpt lat="44.9773159" lon="8.0617993"><ele>191.33333333333331</ele><time>2026-03-29T15:18:56.064Z</time></trkpt><trkpt lat="44.9772271" lon="8.0617919"><ele>189.66666666666666</ele><time>2026-03-29T15:18:57.064Z</time></trkpt><trkpt lat="44.9771498" lon="8.0617904"><ele>188.0</ele><time>2026-03-29T15:18:58.064Z</time></trkpt><trkpt lat="44.9770745" lon="8.0617747"><ele>188.0</ele><time>2026-03-29T15:18:59.064Z</time></trkpt><trkpt lat="44.9769964" lon="8.0617413"><ele>188.0</ele><time>2026-03-29T15:19:00.064Z</time></trkpt><trkpt lat="44.9769056" lon="8.0617594"><ele>188.0</ele><time>2026-03-29T15:19:02.064Z</time></trkpt><trkpt lat="44.9768305" lon="8.0617805"><ele>188.0</ele><time>2026-03-29T15:19:04.064Z</time></trkpt><trkpt lat="44.9767671" lon="8.0617852"><ele>188.0</ele><time>2026-03-29T15:19:05.064Z</time></trkpt><trkpt lat="44.9766888" lon="8.0617898"><ele>188.0</ele><time>2026-03-29T15:19:06.064Z</time></trkpt><trkpt lat="44.9766082" lon="8.0617765"><ele>186.25</ele><time>2026-03-29T15:19:07.064Z</time></trkpt><trkpt lat="44.9765039" lon="8.0617598"><ele>184.5</ele><time>2026-03-29T15:19:08.064Z</time></trkpt><trkpt lat="44.976389" lon="8.0617397"><ele>182.75</ele><time>2026-03-29T15:19:09.064Z</time></trkpt><trkpt lat="44.9762605" lon="8.0617328"><ele>181.0</ele><time>2026-03-29T15:19:10.063Z</time></trkpt><trkpt lat="44.9761303" lon="8.0617207"><ele>181.0</ele><time>2026-03-29T15:19:11.064Z</time></trkpt><trkpt lat="44.9760098" lon="8.0616999"><ele>181.0</ele><time>2026-03-29T15:19:12.064Z</time></trkpt><trkpt lat="44.9758885" lon="8.0616764"><ele>181.0</ele><time>2026-03-29T15:19:13.064Z</time></trkpt><trkpt lat="44.975762" lon="8.0616506"><ele>181.0</ele><time>2026-03-29T15:19:14.064Z</time></trkpt><trkpt lat="44.9756526" lon="8.06162"><ele>180.75</ele><time>2026-03-29T15:19:15.064Z</time></trkpt><trkpt lat="44.975539" lon="8.0615788"><ele>180.5</ele><time>2026-03-29T15:19:16.064Z</time></trkpt><trkpt lat="44.9754307" lon="8.0615033"><ele>180.25</ele><time>2026-03-29T15:19:17.064Z</time></trkpt><trkpt lat="44.9753914" lon="8.0613532"><ele>180.0</ele><time>2026-03-29T15:19:18.064Z</time></trkpt><trkpt lat="44.9753208" lon="8.0612172"><ele>180.0</ele><time>2026-03-29T15:19:19.064Z</time></trkpt><trkpt lat="44.9752569" lon="8.0610451"><ele>180.0</ele><time>2026-03-29T15:19:20.064Z</time></trkpt><trkpt lat="44.9751904" lon="8.0608919"><ele>180.0</ele><time>2026-03-29T15:19:21.064Z</time></trkpt><trkpt lat="44.9751262" lon="8.0607092"><ele>180.0</ele><time>2026-03-29T15:19:22.064Z</time></trkpt><trkpt lat="44.9750594" lon="8.0605447"><ele>180.25</ele><time>2026-03-29T15:19:23.064Z</time></trkpt><trkpt lat="44.9749947" lon="8.0603871"><ele>180.5</ele><time>2026-03-29T15:19:24.064Z</time></trkpt><trkpt lat="44.9749432" lon="8.0602367"><ele>180.75</ele><time>2026-03-29T15:19:25.064Z</time></trkpt><trkpt lat="44.9749183" lon="8.0600809"><ele>181.0</ele><time>2026-03-29T15:19:26.064Z</time></trkpt><trkpt lat="44.974918" lon="8.0599329"><ele>181.0</ele><time>2026-03-29T15:19:27.064Z</time></trkpt><trkpt lat="44.9749516" lon="8.0597759"><ele>181.0</ele><time>2026-03-29T15:19:28.064Z</time></trkpt><trkpt lat="44.9749952" lon="8.0596239"><ele>181.0</ele><time>2026-03-29T15:19:29.064Z</time></trkpt><trkpt lat="44.9750329" lon="8.0594794"><ele>181.0</ele><time>2026-03-29T15:19:30.064Z</time></trkpt><trkpt lat="44.9750688" lon="8.0593225"><ele>181.0</ele><time>2026-03-29T15:19:31.064Z</time></trkpt><trkpt lat="44.9750727" lon="8.0592039"><ele>181.0</ele><time>2026-03-29T15:19:32.063Z</time></trkpt><trkpt lat="44.9750753" lon="8.0590753"><ele>181.0</ele><time>2026-03-29T15:19:33.064Z</time></trkpt><trkpt lat="44.9750561" lon="8.0589171"><ele>181.0</ele><time>2026-03-29T15:19:35.064Z</time></trkpt><trkpt lat="44.9749662" lon="8.0587656"><ele>181.0</ele><time>2026-03-29T15:19:37.064Z</time></trkpt><trkpt lat="44.9748904" lon="8.0586928"><ele>182.0</ele><time>2026-03-29T15:19:38.064Z</time></trkpt><trkpt lat="44.9747974" lon="8.0586202"><ele>183.0</ele><time>2026-03-29T15:19:39.064Z</time></trkpt><trkpt lat="44.9746889" lon="8.0585617"><ele>184.0</ele><time>2026-03-29T15:19:40.064Z</time></trkpt><trkpt lat="44.9745691" lon="8.0585279"><ele>185.0</ele><time>2026-03-29T15:19:41.064Z</time></trkpt><trkpt lat="44.9744411" lon="8.0584796"><ele>185.0</ele><time>2026-03-29T15:19:42.063Z</time></trkpt><trkpt lat="44.9743125" lon="8.0584372"><ele>185.0</ele><time>2026-03-29T15:19:43.063Z</time></trkpt><trkpt lat="44.9741791" lon="8.058404"><ele>185.0</ele><time>2026-03-29T15:19:44.064Z</time></trkpt><trkpt lat="44.9740451" lon="8.0583669"><ele>185.0</ele><time>2026-03-29T15:19:45.064Z</time></trkpt><trkpt lat="44.9739285" lon="8.0583251"><ele>187.25</ele><time>2026-03-29T15:19:46.064Z</time></trkpt><trkpt lat="44.9738001" lon="8.058302"><ele>189.5</ele><time>2026-03-29T15:19:47.064Z</time></trkpt><trkpt lat="44.9736779" lon="8.058227"><ele>191.75</ele><time>2026-03-29T15:19:48.064Z</time></trkpt><trkpt lat="44.9736321" lon="8.0580633"><ele>194.0</ele><time>2026-03-29T15:19:49.064Z</time></trkpt><trkpt lat="44.9735675" lon="8.0579389"><ele>198.25</ele><time>2026-03-29T15:19:50.064Z</time></trkpt><trkpt lat="44.9735184" lon="8.0577873"><ele>202.5</ele><time>2026-03-29T15:19:51.064Z</time></trkpt><trkpt lat="44.9735194" lon="8.0575602"><ele>206.75</ele><time>2026-03-29T15:19:52.064Z</time></trkpt><trkpt lat="44.9735087" lon="8.0573506"><ele>211.0</ele><time>2026-03-29T15:19:53.063Z</time></trkpt><trkpt lat="44.9735249" lon="8.0571189"><ele>213.0</ele><time>2026-03-29T15:19:54.064Z</time></trkpt><trkpt lat="44.9735296" lon="8.0569081"><ele>215.0</ele><time>2026-03-29T15:19:55.064Z</time></trkpt><trkpt lat="44.9735317" lon="8.0566926"><ele>217.0</ele><time>2026-03-29T15:19:56.063Z</time></trkpt><trkpt lat="44.9735468" lon="8.0564894"><ele>219.0</ele><time>2026-03-29T15:19:57.064Z</time></trkpt><trkpt lat="44.9736183" lon="8.0563094"><ele>219.0</ele><time>2026-03-29T15:19:58.063Z</time></trkpt><trkpt lat="44.9737211" lon="8.0561201"><ele>219.0</ele><time>2026-03-29T15:19:59.064Z</time></trkpt><trkpt lat="44.9738217" lon="8.0559351"><ele>219.0</ele><time>2026-03-29T15:20:00.064Z</time></trkpt><trkpt lat="44.9739063" lon="8.0557538"><ele>217.66666666666669</ele><time>2026-03-29T15:20:01.064Z</time></trkpt><trkpt lat="44.9740066" lon="8.0555635"><ele>216.33333333333334</ele><time>2026-03-29T15:20:02.063Z</time></trkpt><trkpt lat="44.9740848" lon="8.0553624"><ele>215.0</ele><time>2026-03-29T15:20:03.064Z</time></trkpt><trkpt lat="44.9741381" lon="8.0551781"><ele>215.0</ele><time>2026-03-29T15:20:04.064Z</time></trkpt><trkpt lat="44.9741857" lon="8.0549984"><ele>215.0</ele><time>2026-03-29T15:20:05.064Z</time></trkpt><trkpt lat="44.9741962" lon="8.0547895"><ele>215.0</ele><time>2026-03-29T15:20:06.064Z</time></trkpt><trkpt lat="44.9742075" lon="8.0545565"><ele>215.0</ele><time>2026-03-29T15:20:07.064Z</time></trkpt><trkpt lat="44.9742013" lon="8.0543273"><ele>219.0</ele><time>2026-03-29T15:20:08.064Z</time></trkpt><trkpt lat="44.9741767" lon="8.0540854"><ele>223.0</ele><time>2026-03-29T15:20:09.064Z</time></trkpt><trkpt lat="44.9741635" lon="8.0538687"><ele>227.0</ele><time>2026-03-29T15:20:10.064Z</time></trkpt><trkpt lat="44.9741517" lon="8.0536868"><ele>227.0</ele><time>2026-03-29T15:20:11.064Z</time></trkpt><trkpt lat="44.9741214" lon="8.0535174"><ele>227.0</ele><time>2026-03-29T15:20:12.064Z</time></trkpt><trkpt lat="44.9740576" lon="8.0533642"><ele>227.0</ele><time>2026-03-29T15:20:13.064Z</time></trkpt><trkpt lat="44.9739848" lon="8.0532128"><ele>227.0</ele><time>2026-03-29T15:20:14.064Z</time></trkpt><trkpt lat="44.9738671" lon="8.0530963"><ele>229.66666666666669</ele><time>2026-03-29T15:20:15.064Z</time></trkpt><trkpt lat="44.9737719" lon="8.0529356"><ele>232.33333333333331</ele><time>2026-03-29T15:20:16.064Z</time></trkpt><trkpt lat="44.9736834" lon="8.0527471"><ele>235.0</ele><time>2026-03-29T15:20:17.064Z</time></trkpt><trkpt lat="44.9736266" lon="8.0525459"><ele>231.33333333333331</ele><time>2026-03-29T15:20:18.064Z</time></trkpt><trkpt lat="44.9735561" lon="8.0523295"><ele>227.66666666666669</ele><time>2026-03-29T15:20:19.064Z</time></trkpt><trkpt lat="44.9734825" lon="8.0521282"><ele>224.0</ele><time>2026-03-29T15:20:20.064Z</time></trkpt><trkpt lat="44.9733976" lon="8.0519267"><ele>229.66666666666669</ele><time>2026-03-29T15:20:21.064Z</time></trkpt><trkpt lat="44.9733043" lon="8.051719"><ele>235.33333333333331</ele><time>2026-03-29T15:20:22.064Z</time></trkpt><trkpt lat="44.9732523" lon="8.0515158"><ele>241.0</ele><time>2026-03-29T15:20:23.064Z</time></trkpt><trkpt lat="44.9732001" lon="8.051339"><ele>241.0</ele><time>2026-03-29T15:20:24.064Z</time></trkpt><trkpt lat="44.9731349" lon="8.0511791"><ele>241.0</ele><time>2026-03-29T15:20:25.064Z</time></trkpt><trkpt lat="44.9730556" lon="8.0510265"><ele>241.0</ele><time>2026-03-29T15:20:26.064Z</time></trkpt><trkpt lat="44.972997" lon="8.0508861"><ele>241.0</ele><time>2026-03-29T15:20:27.064Z</time></trkpt><trkpt lat="44.9729922" lon="8.050738"><ele>241.75</ele><time>2026-03-29T15:20:28.064Z</time></trkpt><trkpt lat="44.97301" lon="8.0505743"><ele>242.5</ele><time>2026-03-29T15:20:29.064Z</time></trkpt><trkpt lat="44.9730712" lon="8.0504159"><ele>243.25</ele><time>2026-03-29T15:20:30.064Z</time></trkpt><trkpt lat="44.973128" lon="8.050264"><ele>244.0</ele><time>2026-03-29T15:20:31.064Z</time></trkpt><trkpt lat="44.9731434" lon="8.050089"><ele>245.75</ele><time>2026-03-29T15:20:32.064Z</time></trkpt><trkpt lat="44.9731609" lon="8.0498999"><ele>247.5</ele><time>2026-03-29T15:20:33.064Z</time></trkpt><trkpt lat="44.9731496" lon="8.049733"><ele>249.25</ele><time>2026-03-29T15:20:34.064Z</time></trkpt><trkpt lat="44.9731718" lon="8.0495641"><ele>251.0</ele><time>2026-03-29T15:20:35.064Z</time></trkpt><trkpt lat="44.9732297" lon="8.0493977"><ele>251.0</ele><time>2026-03-29T15:20:36.064Z</time></trkpt><trkpt lat="44.9733084" lon="8.0492414"><ele>251.0</ele><time>2026-03-29T15:20:37.064Z</time></trkpt><trkpt lat="44.9733877" lon="8.04907"><ele>251.0</ele><time>2026-03-29T15:20:38.064Z</time></trkpt><trkpt lat="44.9734662" lon="8.048893"><ele>251.0</ele><time>2026-03-29T15:20:39.064Z</time></trkpt><trkpt lat="44.9735353" lon="8.0487263"><ele>251.0</ele><time>2026-03-29T15:20:40.064Z</time></trkpt><trkpt lat="44.9735863" lon="8.0485551"><ele>251.0</ele><time>2026-03-29T15:20:41.064Z</time></trkpt><trkpt lat="44.9736205" lon="8.0483865"><ele>251.0</ele><time>2026-03-29T15:20:42.064Z</time></trkpt><trkpt lat="44.9736332" lon="8.048223"><ele>251.0</ele><time>2026-03-29T15:20:43.064Z</time></trkpt><trkpt lat="44.9736233" lon="8.0480774"><ele>252.60000000000002</ele><time>2026-03-29T15:20:44.064Z</time></trkpt><trkpt lat="44.973593" lon="8.0479519"><ele>254.20000000000002</ele><time>2026-03-29T15:20:45.064Z</time></trkpt><trkpt lat="44.9735304" lon="8.0478478"><ele>255.79999999999998</ele><time>2026-03-29T15:20:46.064Z</time></trkpt><trkpt lat="44.9734608" lon="8.0477516"><ele>257.4</ele><time>2026-03-29T15:20:47.064Z</time></trkpt><trkpt lat="44.9733989" lon="8.0476534"><ele>259.0</ele><time>2026-03-29T15:20:48.064Z</time></trkpt><trkpt lat="44.9733075" lon="8.0476308"><ele>259.0</ele><time>2026-03-29T15:20:49.064Z</time></trkpt><trkpt lat="44.9732243" lon="8.047585"><ele>259.0</ele><time>2026-03-29T15:20:50.064Z</time></trkpt><trkpt lat="44.9731195" lon="8.0475423"><ele>259.0</ele><time>2026-03-29T15:20:51.064Z</time></trkpt><trkpt lat="44.9729875" lon="8.0474908"><ele>259.0</ele><time>2026-03-29T15:20:52.064Z</time></trkpt><trkpt lat="44.9728522" lon="8.0474524"><ele>258.75</ele><time>2026-03-29T15:20:53.064Z</time></trkpt><trkpt lat="44.9727311" lon="8.0473693"><ele>258.5</ele><time>2026-03-29T15:20:54.064Z</time></trkpt><trkpt lat="44.9726181" lon="8.0472956"><ele>258.25</ele><time>2026-03-29T15:20:55.064Z</time></trkpt><trkpt lat="44.972495" lon="8.0472442"><ele>258.0</ele><time>2026-03-29T15:20:56.064Z</time></trkpt><trkpt lat="44.9723237" lon="8.047256"><ele>261.3333333333333</ele><time>2026-03-29T15:20:57.064Z</time></trkpt><trkpt lat="44.9721672" lon="8.047239"><ele>264.66666666666663</ele><time>2026-03-29T15:20:58.064Z</time></trkpt><trkpt lat="44.9720176" lon="8.047228"><ele>268.0</ele><time>2026-03-29T15:20:59.064Z</time></trkpt><trkpt lat="44.9718756" lon="8.0471982"><ele>268.0</ele><time>2026-03-29T15:21:00.063Z</time></trkpt><trkpt lat="44.9717327" lon="8.0471333"><ele>268.0</ele><time>2026-03-29T15:21:01.064Z</time></trkpt><trkpt lat="44.9715822" lon="8.0470712"><ele>268.0</ele><time>2026-03-29T15:21:02.064Z</time></trkpt><trkpt lat="44.9714313" lon="8.0470148"><ele>269.0</ele><time>2026-03-29T15:21:03.064Z</time></trkpt><trkpt lat="44.9712725" lon="8.046959"><ele>270.0</ele><time>2026-03-29T15:21:04.064Z</time></trkpt><trkpt lat="44.9711184" lon="8.0469111"><ele>271.0</ele><time>2026-03-29T15:21:05.064Z</time></trkpt><trkpt lat="44.9709713" lon="8.0468718"><ele>270.3333333333333</ele><time>2026-03-29T15:21:06.064Z</time></trkpt><trkpt lat="44.9707945" lon="8.0468314"><ele>269.6666666666667</ele><time>2026-03-29T15:21:07.064Z</time></trkpt><trkpt lat="44.9706291" lon="8.0467677"><ele>269.0</ele><time>2026-03-29T15:21:08.064Z</time></trkpt><trkpt lat="44.9704554" lon="8.0467072"><ele>269.0</ele><time>2026-03-29T15:21:09.064Z</time></trkpt><trkpt lat="44.970287" lon="8.0466442"><ele>269.0</ele><time>2026-03-29T15:21:10.064Z</time></trkpt><trkpt lat="44.9701202" lon="8.0465756"><ele>269.0</ele><time>2026-03-29T15:21:11.064Z</time></trkpt><trkpt lat="44.9699496" lon="8.0465048"><ele>269.6666666666667</ele><time>2026-03-29T15:21:12.064Z</time></trkpt><trkpt lat="44.9697871" lon="8.0464367"><ele>270.3333333333333</ele><time>2026-03-29T15:21:13.064Z</time></trkpt><trkpt lat="44.969641" lon="8.0463706"><ele>271.0</ele><time>2026-03-29T15:21:14.064Z</time></trkpt><trkpt lat="44.9695063" lon="8.0463116"><ele>271.0</ele><time>2026-03-29T15:21:15.064Z</time></trkpt><trkpt lat="44.9693763" lon="8.046249"><ele>271.0</ele><time>2026-03-29T15:21:16.064Z</time></trkpt><trkpt lat="44.9692456" lon="8.0461933"><ele>271.0</ele><time>2026-03-29T15:21:17.064Z</time></trkpt><trkpt lat="44.9691005" lon="8.046094"><ele>271.0</ele><time>2026-03-29T15:21:18.064Z</time></trkpt><trkpt lat="44.9690175" lon="8.0459243"><ele>271.3333333333333</ele><time>2026-03-29T15:21:19.064Z</time></trkpt><trkpt lat="44.96892" lon="8.0457744"><ele>271.6666666666667</ele><time>2026-03-29T15:21:20.064Z</time></trkpt><trkpt lat="44.9688731" lon="8.0455674"><ele>272.0</ele><time>2026-03-29T15:21:21.063Z</time></trkpt><trkpt lat="44.9688305" lon="8.0453426"><ele>272.0</ele><time>2026-03-29T15:21:22.064Z</time></trkpt><trkpt lat="44.9687797" lon="8.0451422"><ele>272.0</ele><time>2026-03-29T15:21:23.064Z</time></trkpt><trkpt lat="44.9686921" lon="8.0449548"><ele>272.0</ele><time>2026-03-29T15:21:24.064Z</time></trkpt><trkpt lat="44.9686055" lon="8.0447737"><ele>269.6666666666667</ele><time>2026-03-29T15:21:25.064Z</time></trkpt><trkpt lat="44.9684795" lon="8.0446086"><ele>267.3333333333333</ele><time>2026-03-29T15:21:26.064Z</time></trkpt><trkpt lat="44.9683608" lon="8.044437"><ele>265.0</ele><time>2026-03-29T15:21:27.064Z</time></trkpt><trkpt lat="44.9682381" lon="8.0442749"><ele>265.3333333333333</ele><time>2026-03-29T15:21:28.064Z</time></trkpt><trkpt lat="44.9681172" lon="8.0441089"><ele>265.6666666666667</ele><time>2026-03-29T15:21:29.064Z</time></trkpt><trkpt lat="44.9679896" lon="8.0439621"><ele>266.0</ele><time>2026-03-29T15:21:30.064Z</time></trkpt><trkpt lat="44.9678485" lon="8.0438488"><ele>266.0</ele><time>2026-03-29T15:21:31.064Z</time></trkpt><trkpt lat="44.9677043" lon="8.043716"><ele>266.0</ele><time>2026-03-29T15:21:32.064Z</time></trkpt><trkpt lat="44.9675656" lon="8.0435597"><ele>266.0</ele><time>2026-03-29T15:21:33.064Z</time></trkpt><trkpt lat="44.9674422" lon="8.043424"><ele>263.0</ele><time>2026-03-29T15:21:34.064Z</time></trkpt><trkpt lat="44.9673098" lon="8.0432914"><ele>260.0</ele><time>2026-03-29T15:21:35.064Z</time></trkpt><trkpt lat="44.9671795" lon="8.0431542"><ele>257.0</ele><time>2026-03-29T15:21:36.064Z</time></trkpt><trkpt lat="44.9670445" lon="8.0430141"><ele>257.0</ele><time>2026-03-29T15:21:37.064Z</time></trkpt><trkpt lat="44.966929" lon="8.0428651"><ele>257.0</ele><time>2026-03-29T15:21:38.064Z</time></trkpt><trkpt lat="44.966806" lon="8.0427155"><ele>257.0</ele><time>2026-03-29T15:21:39.064Z</time></trkpt><trkpt lat="44.9666871" lon="8.0425745"><ele>257.6666666666667</ele><time>2026-03-29T15:21:40.064Z</time></trkpt><trkpt lat="44.9665567" lon="8.0424274"><ele>258.3333333333333</ele><time>2026-03-29T15:21:41.064Z</time></trkpt><trkpt lat="44.9664316" lon="8.0422873"><ele>259.0</ele><time>2026-03-29T15:21:42.064Z</time></trkpt><trkpt lat="44.9662996" lon="8.0421432"><ele>259.0</ele><time>2026-03-29T15:21:43.064Z</time></trkpt><trkpt lat="44.9661635" lon="8.0420041"><ele>259.0</ele><time>2026-03-29T15:21:44.064Z</time></trkpt><trkpt lat="44.9660261" lon="8.041873"><ele>259.0</ele><time>2026-03-29T15:21:45.064Z</time></trkpt><trkpt lat="44.9658806" lon="8.0417467"><ele>262.3333333333333</ele><time>2026-03-29T15:21:46.064Z</time></trkpt><trkpt lat="44.9657416" lon="8.0416262"><ele>265.6666666666667</ele><time>2026-03-29T15:21:47.064Z</time></trkpt><trkpt lat="44.9655941" lon="8.0415072"><ele>269.0</ele><time>2026-03-29T15:21:48.064Z</time></trkpt><trkpt lat="44.9654584" lon="8.0413849"><ele>269.0</ele><time>2026-03-29T15:21:49.064Z</time></trkpt><trkpt lat="44.9653273" lon="8.041281"><ele>269.0</ele><time>2026-03-29T15:21:50.064Z</time></trkpt><trkpt lat="44.9651974" lon="8.0411702"><ele>269.0</ele><time>2026-03-29T15:21:51.064Z</time></trkpt><trkpt lat="44.9650992" lon="8.041056"><ele>269.0</ele><time>2026-03-29T15:21:52.064Z</time></trkpt><trkpt lat="44.964994" lon="8.040925"><ele>268.25</ele><time>2026-03-29T15:21:53.064Z</time></trkpt><trkpt lat="44.9649253" lon="8.0407751"><ele>267.5</ele><time>2026-03-29T15:21:54.064Z</time></trkpt><trkpt lat="44.9648496" lon="8.0406413"><ele>266.75</ele><time>2026-03-29T15:21:55.063Z</time></trkpt><trkpt lat="44.9647631" lon="8.0405164"><ele>266.0</ele><time>2026-03-29T15:21:56.063Z</time></trkpt><trkpt lat="44.9647057" lon="8.0403271"><ele>266.0</ele><time>2026-03-29T15:21:57.064Z</time></trkpt><trkpt lat="44.96465" lon="8.0401368"><ele>266.0</ele><time>2026-03-29T15:21:58.064Z</time></trkpt><trkpt lat="44.9646142" lon="8.0399426"><ele>266.0</ele><time>2026-03-29T15:21:59.064Z</time></trkpt><trkpt lat="44.9646253" lon="8.0397523"><ele>266.0</ele><time>2026-03-29T15:22:00.064Z</time></trkpt><trkpt lat="44.9646281" lon="8.0395724"><ele>264.75</ele><time>2026-03-29T15:22:01.064Z</time></trkpt><trkpt lat="44.9646579" lon="8.0393927"><ele>263.5</ele><time>2026-03-29T15:22:02.064Z</time></trkpt><trkpt lat="44.9647243" lon="8.0392061"><ele>262.25</ele><time>2026-03-29T15:22:03.064Z</time></trkpt><trkpt lat="44.9647839" lon="8.0390367"><ele>261.0</ele><time>2026-03-29T15:22:04.064Z</time></trkpt><trkpt lat="44.9648173" lon="8.03891"><ele>261.0</ele><time>2026-03-29T15:22:05.064Z</time></trkpt><trkpt lat="44.9648219" lon="8.0387761"><ele>261.0</ele><time>2026-03-29T15:22:06.063Z</time></trkpt><trkpt lat="44.9648011" lon="8.0386435"><ele>261.0</ele><time>2026-03-29T15:22:07.064Z</time></trkpt><trkpt lat="44.9647403" lon="8.038515"><ele>261.0</ele><time>2026-03-29T15:22:08.064Z</time></trkpt><trkpt lat="44.9646882" lon="8.0383854"><ele>261.0</ele><time>2026-03-29T15:22:09.064Z</time></trkpt><trkpt lat="44.9645931" lon="8.0382504"><ele>261.75</ele><time>2026-03-29T15:22:10.064Z</time></trkpt><trkpt lat="44.9644865" lon="8.0381413"><ele>262.5</ele><time>2026-03-29T15:22:11.063Z</time></trkpt><trkpt lat="44.9643443" lon="8.038028"><ele>263.25</ele><time>2026-03-29T15:22:12.064Z</time></trkpt><trkpt lat="44.9642286" lon="8.0379123"><ele>264.0</ele><time>2026-03-29T15:22:13.064Z</time></trkpt><trkpt lat="44.9640985" lon="8.0378096"><ele>262.0</ele><time>2026-03-29T15:22:14.064Z</time></trkpt><trkpt lat="44.9639706" lon="8.0376777"><ele>260.0</ele><time>2026-03-29T15:22:15.064Z</time></trkpt><trkpt lat="44.9638459" lon="8.0375765"><ele>258.0</ele><time>2026-03-29T15:22:16.063Z</time></trkpt><trkpt lat="44.963657" lon="8.0375879"><ele>258.0</ele><time>2026-03-29T15:22:17.064Z</time></trkpt><trkpt lat="44.9635045" lon="8.0375243"><ele>258.0</ele><time>2026-03-29T15:22:18.064Z</time></trkpt><trkpt lat="44.9633527" lon="8.037478"><ele>258.0</ele><time>2026-03-29T15:22:19.063Z</time></trkpt><trkpt lat="44.9632017" lon="8.0374189"><ele>257.5</ele><time>2026-03-29T15:22:20.063Z</time></trkpt><trkpt lat="44.9630748" lon="8.0374142"><ele>257.0</ele><time>2026-03-29T15:22:21.064Z</time></trkpt><trkpt lat="44.9629582" lon="8.037408"><ele>256.5</ele><time>2026-03-29T15:22:22.064Z</time></trkpt><trkpt lat="44.9628231" lon="8.0373952"><ele>256.0</ele><time>2026-03-29T15:22:23.064Z</time></trkpt><trkpt lat="44.9626726" lon="8.0374368"><ele>253.33333333333331</ele><time>2026-03-29T15:22:24.064Z</time></trkpt><trkpt lat="44.962524" lon="8.0374834"><ele>250.66666666666669</ele><time>2026-03-29T15:22:25.064Z</time></trkpt><trkpt lat="44.9623663" lon="8.037517"><ele>248.0</ele><time>2026-03-29T15:22:26.064Z</time></trkpt><trkpt lat="44.9622129" lon="8.0375543"><ele>248.0</ele><time>2026-03-29T15:22:27.063Z</time></trkpt><trkpt lat="44.9620544" lon="8.0375854"><ele>248.0</ele><time>2026-03-29T15:22:28.064Z</time></trkpt><trkpt lat="44.9619017" lon="8.0376046"><ele>248.0</ele><time>2026-03-29T15:22:29.064Z</time></trkpt><trkpt lat="44.9617302" lon="8.0376142"><ele>246.66666666666669</ele><time>2026-03-29T15:22:30.064Z</time></trkpt><trkpt lat="44.9615595" lon="8.0376113"><ele>245.33333333333331</ele><time>2026-03-29T15:22:31.064Z</time></trkpt><trkpt lat="44.9613971" lon="8.0376215"><ele>244.0</ele><time>2026-03-29T15:22:32.064Z</time></trkpt><trkpt lat="44.9612309" lon="8.0376226"><ele>244.0</ele><time>2026-03-29T15:22:33.064Z</time></trkpt><trkpt lat="44.9610631" lon="8.0376252"><ele>244.0</ele><time>2026-03-29T15:22:34.064Z</time></trkpt><trkpt lat="44.960902" lon="8.0376235"><ele>244.0</ele><time>2026-03-29T15:22:35.063Z</time></trkpt><trkpt lat="44.9607512" lon="8.0376172"><ele>245.66666666666666</ele><time>2026-03-29T15:22:36.064Z</time></trkpt><trkpt lat="44.9605837" lon="8.0376221"><ele>247.33333333333331</ele><time>2026-03-29T15:22:37.064Z</time></trkpt><trkpt lat="44.9604011" lon="8.0376019"><ele>249.0</ele><time>2026-03-29T15:22:38.064Z</time></trkpt><trkpt lat="44.9602577" lon="8.0375655"><ele>249.0</ele><time>2026-03-29T15:22:39.064Z</time></trkpt><trkpt lat="44.9600834" lon="8.037532"><ele>249.0</ele><time>2026-03-29T15:22:40.064Z</time></trkpt><trkpt lat="44.959922" lon="8.0374857"><ele>249.0</ele><time>2026-03-29T15:22:41.064Z</time></trkpt><trkpt lat="44.9597557" lon="8.0374327"><ele>251.66666666666669</ele><time>2026-03-29T15:22:42.064Z</time></trkpt><trkpt lat="44.9595894" lon="8.0373904"><ele>254.33333333333334</ele><time>2026-03-29T15:22:43.064Z</time></trkpt><trkpt lat="44.9594207" lon="8.0373475"><ele>257.0</ele><time>2026-03-29T15:22:44.064Z</time></trkpt><trkpt lat="44.9592514" lon="8.0373076"><ele>256.33333333333337</ele><time>2026-03-29T15:22:45.063Z</time></trkpt><trkpt lat="44.9590896" lon="8.0372626"><ele>255.66666666666669</ele><time>2026-03-29T15:22:46.064Z</time></trkpt><trkpt lat="44.9589158" lon="8.0372326"><ele>255.0</ele><time>2026-03-29T15:22:47.063Z</time></trkpt><trkpt lat="44.9587399" lon="8.0371794"><ele>255.0</ele><time>2026-03-29T15:22:48.063Z</time></trkpt><trkpt lat="44.9585691" lon="8.0371412"><ele>255.0</ele><time>2026-03-29T15:22:49.064Z</time></trkpt><trkpt lat="44.9583834" lon="8.0371008"><ele>255.0</ele><time>2026-03-29T15:22:50.064Z</time></trkpt><trkpt lat="44.958203" lon="8.0370564"><ele>251.33333333333331</ele><time>2026-03-29T15:22:51.064Z</time></trkpt><trkpt lat="44.9580367" lon="8.0370223"><ele>247.66666666666666</ele><time>2026-03-29T15:22:52.063Z</time></trkpt><trkpt lat="44.9578817" lon="8.0369731"><ele>244.0</ele><time>2026-03-29T15:22:53.064Z</time></trkpt><trkpt lat="44.9577238" lon="8.0369175"><ele>244.0</ele><time>2026-03-29T15:22:54.064Z</time></trkpt><trkpt lat="44.957585" lon="8.0367973"><ele>244.0</ele><time>2026-03-29T15:22:55.064Z</time></trkpt><trkpt lat="44.9574468" lon="8.0366779"><ele>244.0</ele><time>2026-03-29T15:22:56.064Z</time></trkpt><trkpt lat="44.9573038" lon="8.036545"><ele>240.33333333333331</ele><time>2026-03-29T15:22:57.064Z</time></trkpt><trkpt lat="44.9571822" lon="8.0363978"><ele>236.66666666666669</ele><time>2026-03-29T15:22:58.064Z</time></trkpt><trkpt lat="44.9570379" lon="8.0362618"><ele>233.0</ele><time>2026-03-29T15:22:59.064Z</time></trkpt><trkpt lat="44.9569177" lon="8.0361175"><ele>233.0</ele><time>2026-03-29T15:23:00.064Z</time></trkpt><trkpt lat="44.9568114" lon="8.0359876"><ele>233.0</ele><time>2026-03-29T15:23:01.064Z</time></trkpt><trkpt lat="44.9567261" lon="8.0358884"><ele>233.0</ele><time>2026-03-29T15:23:02.064Z</time></trkpt><trkpt lat="44.9566589" lon="8.0357923"><ele>233.0</ele><time>2026-03-29T15:23:03.064Z</time></trkpt><trkpt lat="44.9565855" lon="8.0357257"><ele>233.0</ele><time>2026-03-29T15:23:04.064Z</time></trkpt><trkpt lat="44.9565113" lon="8.0356666"><ele>232.0</ele><time>2026-03-29T15:23:05.064Z</time></trkpt><trkpt lat="44.9563221" lon="8.0357143"><ele>231.0</ele><time>2026-03-29T15:23:07.063Z</time></trkpt><trkpt lat="44.9562125" lon="8.0357941"><ele>230.0</ele><time>2026-03-29T15:23:08.064Z</time></trkpt><trkpt lat="44.9561004" lon="8.0359051"><ele>230.75</ele><time>2026-03-29T15:23:09.064Z</time></trkpt><trkpt lat="44.9559923" lon="8.0360151"><ele>231.5</ele><time>2026-03-29T15:23:10.064Z</time></trkpt><trkpt lat="44.9558886" lon="8.0360965"><ele>232.25</ele><time>2026-03-29T15:23:11.064Z</time></trkpt><trkpt lat="44.9557578" lon="8.0361201"><ele>233.0</ele><time>2026-03-29T15:23:12.063Z</time></trkpt><trkpt lat="44.9556324" lon="8.0361423"><ele>233.0</ele><time>2026-03-29T15:23:13.064Z</time></trkpt><trkpt lat="44.955509" lon="8.0361515"><ele>233.0</ele><time>2026-03-29T15:23:14.064Z</time></trkpt><trkpt lat="44.9553569" lon="8.0361411"><ele>233.0</ele><time>2026-03-29T15:23:15.064Z</time></trkpt><trkpt lat="44.9552319" lon="8.0360806"><ele>233.0</ele><time>2026-03-29T15:23:16.063Z</time></trkpt><trkpt lat="44.9551166" lon="8.0360356"><ele>231.25</ele><time>2026-03-29T15:23:17.064Z</time></trkpt><trkpt lat="44.9549953" lon="8.0359643"><ele>229.5</ele><time>2026-03-29T15:23:18.064Z</time></trkpt><trkpt lat="44.9548742" lon="8.0358901"><ele>227.75</ele><time>2026-03-29T15:23:19.063Z</time></trkpt><trkpt lat="44.9547656" lon="8.0358497"><ele>226.0</ele><time>2026-03-29T15:23:20.063Z</time></trkpt><trkpt lat="44.9546546" lon="8.0358435"><ele>226.0</ele><time>2026-03-29T15:23:21.064Z</time></trkpt><trkpt lat="44.9545203" lon="8.0358857"><ele>226.0</ele><time>2026-03-29T15:23:22.064Z</time></trkpt><trkpt lat="44.9543977" lon="8.0359117"><ele>226.0</ele><time>2026-03-29T15:23:23.064Z</time></trkpt><trkpt lat="44.9542569" lon="8.0359612"><ele>226.0</ele><time>2026-03-29T15:23:24.064Z</time></trkpt><trkpt lat="44.9541242" lon="8.036074"><ele>223.0</ele><time>2026-03-29T15:23:25.064Z</time></trkpt><trkpt lat="44.9539877" lon="8.0362016"><ele>220.0</ele><time>2026-03-29T15:23:26.064Z</time></trkpt><trkpt lat="44.9538539" lon="8.0362888"><ele>217.0</ele><time>2026-03-29T15:23:27.064Z</time></trkpt><trkpt lat="44.9537267" lon="8.0363558"><ele>214.0</ele><time>2026-03-29T15:23:28.064Z</time></trkpt><trkpt lat="44.9536001" lon="8.0364316"><ele>214.0</ele><time>2026-03-29T15:23:29.064Z</time></trkpt><trkpt lat="44.9534629" lon="8.0364895"><ele>214.0</ele><time>2026-03-29T15:23:30.064Z</time></trkpt><trkpt lat="44.9533216" lon="8.0365755"><ele>214.0</ele><time>2026-03-29T15:23:31.064Z</time></trkpt><trkpt lat="44.9531955" lon="8.0365971"><ele>214.0</ele><time>2026-03-29T15:23:32.064Z</time></trkpt><trkpt lat="44.9530731" lon="8.0366495"><ele>214.0</ele><time>2026-03-29T15:23:33.064Z</time></trkpt><trkpt lat="44.9529454" lon="8.0366827"><ele>213.99999999999997</ele><time>2026-03-29T15:23:34.064Z</time></trkpt><trkpt lat="44.9528349" lon="8.0367382"><ele>213.99999999999997</ele><time>2026-03-29T15:23:35.064Z</time></trkpt><trkpt lat="44.9527291" lon="8.0367893"><ele>214.0</ele><time>2026-03-29T15:23:36.064Z</time></trkpt><trkpt lat="44.9526496" lon="8.0368475"><ele>214.0</ele><time>2026-03-29T15:23:37.064Z</time></trkpt><trkpt lat="44.9525734" lon="8.0369008"><ele>211.39999999999998</ele><time>2026-03-29T15:23:38.064Z</time></trkpt><trkpt lat="44.9524522" lon="8.0368297"><ele>208.79999999999998</ele><time>2026-03-29T15:23:40.064Z</time></trkpt><trkpt lat="44.952417" lon="8.0367444"><ele>206.2</ele><time>2026-03-29T15:23:41.063Z</time></trkpt><trkpt lat="44.9523768" lon="8.0366469"><ele>203.60000000000002</ele><time>2026-03-29T15:23:42.064Z</time></trkpt><trkpt lat="44.9523439" lon="8.036547"><ele>201.0</ele><time>2026-03-29T15:23:43.064Z</time></trkpt><trkpt lat="44.9523023" lon="8.036413"><ele>201.0</ele><time>2026-03-29T15:23:44.064Z</time></trkpt><trkpt lat="44.9522414" lon="8.03633"><ele>201.0</ele><time>2026-03-29T15:23:45.063Z</time></trkpt><trkpt lat="44.952184" lon="8.0362406"><ele>201.0</ele><time>2026-03-29T15:23:46.063Z</time></trkpt><trkpt lat="44.9521172" lon="8.0361714"><ele>201.0</ele><time>2026-03-29T15:23:47.064Z</time></trkpt><trkpt lat="44.9519963" lon="8.0361077"><ele>201.0</ele><time>2026-03-29T15:23:49.064Z</time></trkpt><trkpt lat="44.9519139" lon="8.0361079"><ele>201.0</ele><time>2026-03-29T15:23:50.064Z</time></trkpt><trkpt lat="44.9518402" lon="8.0360974"><ele>201.0</ele><time>2026-03-29T15:23:51.064Z</time></trkpt><trkpt lat="44.9517501" lon="8.0360616"><ele>201.0</ele><time>2026-03-29T15:23:52.064Z</time></trkpt><trkpt lat="44.95168" lon="8.0359669"><ele>201.0</ele><time>2026-03-29T15:23:53.064Z</time></trkpt><trkpt lat="44.9515742" lon="8.0358296"><ele>201.0</ele><time>2026-03-29T15:23:54.064Z</time></trkpt><trkpt lat="44.9515117" lon="8.0357415"><ele>198.20000000000002</ele><time>2026-03-29T15:23:55.064Z</time></trkpt><trkpt lat="44.9514401" lon="8.0356168"><ele>195.4</ele><time>2026-03-29T15:23:56.064Z</time></trkpt><trkpt lat="44.9513828" lon="8.0355171"><ele>192.6</ele><time>2026-03-29T15:23:57.064Z</time></trkpt><trkpt lat="44.9513023" lon="8.0354169"><ele>189.8</ele><time>2026-03-29T15:23:58.064Z</time></trkpt><trkpt lat="44.9512384" lon="8.0353047"><ele>187.0</ele><time>2026-03-29T15:23:59.064Z</time></trkpt><trkpt lat="44.9511898" lon="8.0352024"><ele>187.0</ele><time>2026-03-29T15:24:00.064Z</time></trkpt><trkpt lat="44.9510716" lon="8.0350918"><ele>187.0</ele><time>2026-03-29T15:24:02.064Z</time></trkpt><trkpt lat="44.9509782" lon="8.0349762"><ele>187.0</ele><time>2026-03-29T15:24:04.064Z</time></trkpt><trkpt lat="44.9509249" lon="8.0349067"><ele>187.0</ele><time>2026-03-29T15:24:05.064Z</time></trkpt><trkpt lat="44.9508403" lon="8.0348312"><ele>187.0</ele><time>2026-03-29T15:24:06.064Z</time></trkpt><trkpt lat="44.9507539" lon="8.0347511"><ele>189.0</ele><time>2026-03-29T15:24:07.064Z</time></trkpt><trkpt lat="44.9506739" lon="8.0346519"><ele>191.0</ele><time>2026-03-29T15:24:08.063Z</time></trkpt><trkpt lat="44.950588" lon="8.0345416"><ele>193.0</ele><time>2026-03-29T15:24:09.064Z</time></trkpt><trkpt lat="44.9505046" lon="8.0344232"><ele>195.0</ele><time>2026-03-29T15:24:10.064Z</time></trkpt><trkpt lat="44.9504232" lon="8.0342924"><ele>195.0</ele><time>2026-03-29T15:24:11.064Z</time></trkpt><trkpt lat="44.9503619" lon="8.0341569"><ele>195.0</ele><time>2026-03-29T15:24:12.064Z</time></trkpt><trkpt lat="44.9503062" lon="8.0339746"><ele>195.0</ele><time>2026-03-29T15:24:13.063Z</time></trkpt><trkpt lat="44.9502559" lon="8.0337845"><ele>195.0</ele><time>2026-03-29T15:24:14.064Z</time></trkpt><trkpt lat="44.9502043" lon="8.0335958"><ele>198.75</ele><time>2026-03-29T15:24:15.064Z</time></trkpt><trkpt lat="44.9501563" lon="8.0334123"><ele>202.5</ele><time>2026-03-29T15:24:16.064Z</time></trkpt><trkpt lat="44.9501277" lon="8.0332297"><ele>206.25</ele><time>2026-03-29T15:24:17.064Z</time></trkpt><trkpt lat="44.9501013" lon="8.0330539"><ele>210.0</ele><time>2026-03-29T15:24:18.064Z</time></trkpt><trkpt lat="44.9500774" lon="8.0328754"><ele>212.25</ele><time>2026-03-29T15:24:19.064Z</time></trkpt><trkpt lat="44.9500652" lon="8.0326954"><ele>214.5</ele><time>2026-03-29T15:24:20.064Z</time></trkpt><trkpt lat="44.9500871" lon="8.0325233"><ele>216.75</ele><time>2026-03-29T15:24:21.064Z</time></trkpt><trkpt lat="44.9500975" lon="8.0323474"><ele>219.0</ele><time>2026-03-29T15:24:22.064Z</time></trkpt><trkpt lat="44.9501323" lon="8.0321876"><ele>219.33333333333331</ele><time>2026-03-29T15:24:23.064Z</time></trkpt><trkpt lat="44.9501747" lon="8.0319705"><ele>219.66666666666666</ele><time>2026-03-29T15:24:24.064Z</time></trkpt><trkpt lat="44.9502297" lon="8.0317805"><ele>220.0</ele><time>2026-03-29T15:24:25.064Z</time></trkpt><trkpt lat="44.9502778" lon="8.0315618"><ele>220.0</ele><time>2026-03-29T15:24:26.064Z</time></trkpt><trkpt lat="44.9503216" lon="8.0313804"><ele>220.0</ele><time>2026-03-29T15:24:27.063Z</time></trkpt><trkpt lat="44.9503564" lon="8.0312149"><ele>220.0</ele><time>2026-03-29T15:24:28.064Z</time></trkpt><trkpt lat="44.9503841" lon="8.0310441"><ele>220.0</ele><time>2026-03-29T15:24:29.064Z</time></trkpt><trkpt lat="44.950373" lon="8.0308699"><ele>220.75</ele><time>2026-03-29T15:24:30.064Z</time></trkpt><trkpt lat="44.9503559" lon="8.0306921"><ele>221.5</ele><time>2026-03-29T15:24:31.064Z</time></trkpt><trkpt lat="44.9503286" lon="8.0305184"><ele>222.25</ele><time>2026-03-29T15:24:32.064Z</time></trkpt><trkpt lat="44.9503043" lon="8.0303258"><ele>223.0</ele><time>2026-03-29T15:24:33.064Z</time></trkpt><trkpt lat="44.9502572" lon="8.0301673"><ele>223.0</ele><time>2026-03-29T15:24:34.064Z</time></trkpt><trkpt lat="44.9501531" lon="8.0300227"><ele>223.0</ele><time>2026-03-29T15:24:35.063Z</time></trkpt><trkpt lat="44.9500589" lon="8.0298886"><ele>223.0</ele><time>2026-03-29T15:24:36.064Z</time></trkpt><trkpt lat="44.9499631" lon="8.0297472"><ele>223.0</ele><time>2026-03-29T15:24:37.064Z</time></trkpt><trkpt lat="44.9498565" lon="8.0296296"><ele>222.60000000000002</ele><time>2026-03-29T15:24:38.064Z</time></trkpt><trkpt lat="44.9497642" lon="8.0295033"><ele>222.20000000000002</ele><time>2026-03-29T15:24:39.064Z</time></trkpt><trkpt lat="44.9496916" lon="8.0293754"><ele>221.8</ele><time>2026-03-29T15:24:40.064Z</time></trkpt><trkpt lat="44.9496233" lon="8.0292649"><ele>221.4</ele><time>2026-03-29T15:24:41.064Z</time></trkpt><trkpt lat="44.9495908" lon="8.0291403"><ele>221.0</ele><time>2026-03-29T15:24:42.064Z</time></trkpt><trkpt lat="44.9495671" lon="8.0289942"><ele>223.5</ele><time>2026-03-29T15:24:43.064Z</time></trkpt><trkpt lat="44.949645" lon="8.0288363"><ele>226.0</ele><time>2026-03-29T15:24:44.064Z</time></trkpt><trkpt lat="44.9496844" lon="8.0286955"><ele>228.5</ele><time>2026-03-29T15:24:45.064Z</time></trkpt><trkpt lat="44.9497729" lon="8.0285782"><ele>231.0</ele><time>2026-03-29T15:24:46.064Z</time></trkpt><trkpt lat="44.9498489" lon="8.0284526"><ele>231.0</ele><time>2026-03-29T15:24:47.064Z</time></trkpt><trkpt lat="44.9499139" lon="8.0283495"><ele>231.00000000000003</ele><time>2026-03-29T15:24:48.064Z</time></trkpt><trkpt lat="44.949974" lon="8.0282381"><ele>231.00000000000003</ele><time>2026-03-29T15:24:49.064Z</time></trkpt><trkpt lat="44.9500406" lon="8.0281247"><ele>231.0</ele><time>2026-03-29T15:24:50.064Z</time></trkpt><trkpt lat="44.9501054" lon="8.0280467"><ele>231.0</ele><time>2026-03-29T15:24:51.064Z</time></trkpt><trkpt lat="44.9501529" lon="8.0279414"><ele>233.16666666666666</ele><time>2026-03-29T15:24:52.064Z</time></trkpt><trkpt lat="44.9501957" lon="8.0278431"><ele>235.33333333333331</ele><time>2026-03-29T15:24:53.064Z</time></trkpt><trkpt lat="44.9502364" lon="8.0277375"><ele>237.5</ele><time>2026-03-29T15:24:54.064Z</time></trkpt><trkpt lat="44.9502648" lon="8.0276411"><ele>239.66666666666666</ele><time>2026-03-29T15:24:55.064Z</time></trkpt><trkpt lat="44.9502765" lon="8.0274989"><ele>241.83333333333331</ele><time>2026-03-29T15:24:57.064Z</time></trkpt><trkpt lat="44.9502721" lon="8.0273885"><ele>244.0</ele><time>2026-03-29T15:24:59.063Z</time></trkpt><trkpt lat="44.9502354" lon="8.0272617"><ele>243.99999999999997</ele><time>2026-03-29T15:25:01.064Z</time></trkpt><trkpt lat="44.9501943" lon="8.0271174"><ele>244.0</ele><time>2026-03-29T15:25:03.064Z</time></trkpt><trkpt lat="44.9501886" lon="8.0269821"><ele>244.0</ele><time>2026-03-29T15:25:05.064Z</time></trkpt><trkpt lat="44.9501903" lon="8.0268405"><ele>244.0</ele><time>2026-03-29T15:25:07.064Z</time></trkpt><trkpt lat="44.950171" lon="8.026746"><ele>243.99999999999997</ele><time>2026-03-29T15:25:10.064Z</time></trkpt><trkpt lat="44.950107" lon="8.0267409"><ele>244.0</ele><time>2026-03-29T15:25:12.064Z</time></trkpt><trkpt lat="44.9500552" lon="8.0267923"><ele>244.0</ele><time>2026-03-29T15:25:15.064Z</time></trkpt></trkseg></trk></gpx>